| 1 | <?xml version='1.0' encoding='UTF-8'?>
|
|---|
| 2 | <gpx version="1.1" creator="JOSM GPX export" xmlns="http://www.topografix.com/GPX/1/1"
|
|---|
| 3 | xmlns:xsi="http://www.w3.org/2001/XMLSchema-instance"
|
|---|
| 4 | xsi:schemaLocation="http://www.topografix.com/GPX/1/1 http://www.topografix.com/GPX/1/1/gpx.xsd">
|
|---|
| 5 | <metadata>
|
|---|
| 6 | <bounds minlat="51.152341" minlon="5.0460222" maxlat="51.30787" maxlon="5.2422114"/>
|
|---|
| 7 | </metadata>
|
|---|
| 8 | <trk>
|
|---|
| 9 | <name>nieuw Mol Om</name>
|
|---|
| 10 | <trkseg>
|
|---|
| 11 | <trkpt lat="51.1801353" lon="5.1132768">
|
|---|
| 12 | <time>+50838-07-26T23:45:05Z</time>
|
|---|
| 13 | </trkpt>
|
|---|
| 14 | <trkpt lat="51.1797884" lon="5.113498">
|
|---|
| 15 | <time>+50838-07-27T00:01:45Z</time>
|
|---|
| 16 | </trkpt>
|
|---|
| 17 | <trkpt lat="51.1794218" lon="5.1137468">
|
|---|
| 18 | <time>+50838-07-27T00:18:25Z</time>
|
|---|
| 19 | </trkpt>
|
|---|
| 20 | </trkseg>
|
|---|
| 21 | </trk>
|
|---|
| 22 | <trk>
|
|---|
| 23 | <name>nieuw Mol Om #2</name>
|
|---|
| 24 | <trkseg>
|
|---|
| 25 | <trkpt lat="51.1802359" lon="5.11321">
|
|---|
| 26 | <time>+50838-07-27T00:35:05Z</time>
|
|---|
| 27 | </trkpt>
|
|---|
| 28 | <trkpt lat="51.1808792" lon="5.1128">
|
|---|
| 29 | <time>+50838-07-27T00:51:45Z</time>
|
|---|
| 30 | </trkpt>
|
|---|
| 31 | <trkpt lat="51.1811778" lon="5.1126144">
|
|---|
| 32 | <time>+50838-07-27T01:08:25Z</time>
|
|---|
| 33 | </trkpt>
|
|---|
| 34 | <trkpt lat="51.181272" lon="5.112555">
|
|---|
| 35 | <time>+50838-07-27T01:25:05Z</time>
|
|---|
| 36 | </trkpt>
|
|---|
| 37 | <trkpt lat="51.181272" lon="5.112555">
|
|---|
| 38 | <time>+50838-07-27T01:41:45Z</time>
|
|---|
| 39 | </trkpt>
|
|---|
| 40 | <trkpt lat="51.1813936" lon="5.1125524">
|
|---|
| 41 | <time>+50838-07-27T01:58:25Z</time>
|
|---|
| 42 | </trkpt>
|
|---|
| 43 | <trkpt lat="51.1814372" lon="5.112677">
|
|---|
| 44 | <time>+50838-07-27T02:15:05Z</time>
|
|---|
| 45 | </trkpt>
|
|---|
| 46 | <trkpt lat="51.1815166" lon="5.1128226">
|
|---|
| 47 | <time>+50838-07-27T02:31:45Z</time>
|
|---|
| 48 | </trkpt>
|
|---|
| 49 | <trkpt lat="51.1816353" lon="5.1129158">
|
|---|
| 50 | <time>+50838-07-27T02:48:25Z</time>
|
|---|
| 51 | </trkpt>
|
|---|
| 52 | <trkpt lat="51.1817256" lon="5.1129892">
|
|---|
| 53 | <time>+50838-07-27T03:05:05Z</time>
|
|---|
| 54 | </trkpt>
|
|---|
| 55 | <trkpt lat="51.1818212" lon="5.1131248">
|
|---|
| 56 | <time>+50838-07-27T03:21:45Z</time>
|
|---|
| 57 | </trkpt>
|
|---|
| 58 | <trkpt lat="51.1819026" lon="5.1132971">
|
|---|
| 59 | <time>+50838-07-27T03:38:25Z</time>
|
|---|
| 60 | </trkpt>
|
|---|
| 61 | <trkpt lat="51.1819947" lon="5.1135033">
|
|---|
| 62 | <time>+50838-07-27T03:55:05Z</time>
|
|---|
| 63 | </trkpt>
|
|---|
| 64 | <trkpt lat="51.1820962" lon="5.1137007">
|
|---|
| 65 | <time>+50838-07-27T04:11:45Z</time>
|
|---|
| 66 | </trkpt>
|
|---|
| 67 | <trkpt lat="51.1821239" lon="5.1137546">
|
|---|
| 68 | <time>+50838-07-27T04:28:25Z</time>
|
|---|
| 69 | </trkpt>
|
|---|
| 70 | <trkpt lat="51.1821522" lon="5.1138224">
|
|---|
| 71 | <time>+50838-07-27T04:45:05Z</time>
|
|---|
| 72 | </trkpt>
|
|---|
| 73 | <trkpt lat="51.1821735" lon="5.1139269">
|
|---|
| 74 | <time>+50838-07-27T05:01:45Z</time>
|
|---|
| 75 | </trkpt>
|
|---|
| 76 | <trkpt lat="51.1821735" lon="5.1140738">
|
|---|
| 77 | <time>+50838-07-27T05:18:25Z</time>
|
|---|
| 78 | </trkpt>
|
|---|
| 79 | <trkpt lat="51.1821841" lon="5.1141783">
|
|---|
| 80 | <time>+50838-07-27T05:35:05Z</time>
|
|---|
| 81 | </trkpt>
|
|---|
| 82 | <trkpt lat="51.1822107" lon="5.1142687">
|
|---|
| 83 | <time>+50838-07-27T05:51:45Z</time>
|
|---|
| 84 | </trkpt>
|
|---|
| 85 | <trkpt lat="51.1822708" lon="5.1143223">
|
|---|
| 86 | <time>+50838-07-27T06:08:25Z</time>
|
|---|
| 87 | </trkpt>
|
|---|
| 88 | <trkpt lat="51.1823363" lon="5.1143308">
|
|---|
| 89 | <time>+50838-07-27T06:25:05Z</time>
|
|---|
| 90 | </trkpt>
|
|---|
| 91 | <trkpt lat="51.1824142" lon="5.114328">
|
|---|
| 92 | <time>+50838-07-27T06:41:45Z</time>
|
|---|
| 93 | </trkpt>
|
|---|
| 94 | <trkpt lat="51.1824479" lon="5.1143506">
|
|---|
| 95 | <time>+50838-07-27T06:58:25Z</time>
|
|---|
| 96 | </trkpt>
|
|---|
| 97 | <trkpt lat="51.182564" lon="5.11463">
|
|---|
| 98 | <time>+50838-07-27T07:15:05Z</time>
|
|---|
| 99 | </trkpt>
|
|---|
| 100 | <trkpt lat="51.182564" lon="5.11463">
|
|---|
| 101 | <time>+50838-07-27T07:31:45Z</time>
|
|---|
| 102 | </trkpt>
|
|---|
| 103 | <trkpt lat="51.1822429" lon="5.1148748">
|
|---|
| 104 | <time>+50838-07-27T07:48:25Z</time>
|
|---|
| 105 | </trkpt>
|
|---|
| 106 | <trkpt lat="51.1822429" lon="5.1148748">
|
|---|
| 107 | <time>+50838-07-27T08:05:05Z</time>
|
|---|
| 108 | </trkpt>
|
|---|
| 109 | <trkpt lat="51.1821462" lon="5.114941">
|
|---|
| 110 | <time>+50838-07-27T08:21:45Z</time>
|
|---|
| 111 | </trkpt>
|
|---|
| 112 | <trkpt lat="51.1821462" lon="5.114941">
|
|---|
| 113 | <time>+50838-07-27T08:38:25Z</time>
|
|---|
| 114 | </trkpt>
|
|---|
| 115 | <trkpt lat="51.1822858" lon="5.1152745">
|
|---|
| 116 | <time>+50838-07-27T08:55:05Z</time>
|
|---|
| 117 | </trkpt>
|
|---|
| 118 | <trkpt lat="51.182393" lon="5.1155247">
|
|---|
| 119 | <time>+50838-07-27T09:11:45Z</time>
|
|---|
| 120 | </trkpt>
|
|---|
| 121 | <trkpt lat="51.1824386" lon="5.1156256">
|
|---|
| 122 | <time>+50838-07-27T09:28:25Z</time>
|
|---|
| 123 | </trkpt>
|
|---|
| 124 | <trkpt lat="51.182504" lon="5.1157167">
|
|---|
| 125 | <time>+50838-07-27T09:45:05Z</time>
|
|---|
| 126 | </trkpt>
|
|---|
| 127 | <trkpt lat="51.1825833" lon="5.1158456">
|
|---|
| 128 | <time>+50838-07-27T10:01:45Z</time>
|
|---|
| 129 | </trkpt>
|
|---|
| 130 | <trkpt lat="51.1830683" lon="5.1167112">
|
|---|
| 131 | <time>+50838-07-27T10:18:25Z</time>
|
|---|
| 132 | </trkpt>
|
|---|
| 133 | <trkpt lat="51.1831252" lon="5.1168062">
|
|---|
| 134 | <time>+50838-07-27T10:35:05Z</time>
|
|---|
| 135 | </trkpt>
|
|---|
| 136 | <trkpt lat="51.1832054" lon="5.1166653">
|
|---|
| 137 | <time>+50838-07-27T10:51:45Z</time>
|
|---|
| 138 | </trkpt>
|
|---|
| 139 | <trkpt lat="51.1832421" lon="5.1165984">
|
|---|
| 140 | <time>+50838-07-27T11:08:25Z</time>
|
|---|
| 141 | </trkpt>
|
|---|
| 142 | <trkpt lat="51.1832897" lon="5.1165116">
|
|---|
| 143 | <time>+50838-07-27T11:25:05Z</time>
|
|---|
| 144 | </trkpt>
|
|---|
| 145 | <trkpt lat="51.183382" lon="5.1163195">
|
|---|
| 146 | <time>+50838-07-27T11:41:45Z</time>
|
|---|
| 147 | </trkpt>
|
|---|
| 148 | <trkpt lat="51.1834237" lon="5.1162201">
|
|---|
| 149 | <time>+50838-07-27T11:58:25Z</time>
|
|---|
| 150 | </trkpt>
|
|---|
| 151 | <trkpt lat="51.1834714" lon="5.116145">
|
|---|
| 152 | <time>+50838-07-27T12:15:05Z</time>
|
|---|
| 153 | </trkpt>
|
|---|
| 154 | <trkpt lat="51.1835144" lon="5.1161198">
|
|---|
| 155 | <time>+50838-07-27T12:31:45Z</time>
|
|---|
| 156 | </trkpt>
|
|---|
| 157 | <trkpt lat="51.1835479" lon="5.1161429">
|
|---|
| 158 | <time>+50838-07-27T12:48:25Z</time>
|
|---|
| 159 | </trkpt>
|
|---|
| 160 | <trkpt lat="51.1835932" lon="5.1161664">
|
|---|
| 161 | <time>+50838-07-27T13:05:05Z</time>
|
|---|
| 162 | </trkpt>
|
|---|
| 163 | <trkpt lat="51.1837111" lon="5.1163577">
|
|---|
| 164 | <time>+50838-07-27T13:21:45Z</time>
|
|---|
| 165 | </trkpt>
|
|---|
| 166 | <trkpt lat="51.18383" lon="5.1165762">
|
|---|
| 167 | <time>+50838-07-27T13:38:25Z</time>
|
|---|
| 168 | </trkpt>
|
|---|
| 169 | <trkpt lat="51.1838658" lon="5.1166612">
|
|---|
| 170 | <time>+50838-07-27T13:55:05Z</time>
|
|---|
| 171 | </trkpt>
|
|---|
| 172 | <trkpt lat="51.183892" lon="5.1167235">
|
|---|
| 173 | <time>+50838-07-27T14:11:45Z</time>
|
|---|
| 174 | </trkpt>
|
|---|
| 175 | <trkpt lat="51.1839491" lon="5.1168781">
|
|---|
| 176 | <time>+50838-07-27T14:28:25Z</time>
|
|---|
| 177 | </trkpt>
|
|---|
| 178 | <trkpt lat="51.1839491" lon="5.1168781">
|
|---|
| 179 | <time>+50838-07-27T14:45:05Z</time>
|
|---|
| 180 | </trkpt>
|
|---|
| 181 | <trkpt lat="51.1840847" lon="5.1172896">
|
|---|
| 182 | <time>+50838-07-27T15:01:45Z</time>
|
|---|
| 183 | </trkpt>
|
|---|
| 184 | <trkpt lat="51.184192" lon="5.1175178">
|
|---|
| 185 | <time>+50838-07-27T15:18:25Z</time>
|
|---|
| 186 | </trkpt>
|
|---|
| 187 | <trkpt lat="51.1842788" lon="5.1177014">
|
|---|
| 188 | <time>+50838-07-27T15:35:05Z</time>
|
|---|
| 189 | </trkpt>
|
|---|
| 190 | <trkpt lat="51.1842788" lon="5.1177014">
|
|---|
| 191 | <time>+50838-07-27T15:51:45Z</time>
|
|---|
| 192 | </trkpt>
|
|---|
| 193 | <trkpt lat="51.1844613" lon="5.1181908">
|
|---|
| 194 | <time>+50838-07-27T16:08:25Z</time>
|
|---|
| 195 | </trkpt>
|
|---|
| 196 | <trkpt lat="51.1844893" lon="5.118263">
|
|---|
| 197 | <time>+50838-07-27T16:25:05Z</time>
|
|---|
| 198 | </trkpt>
|
|---|
| 199 | <trkpt lat="51.1846429" lon="5.1187273">
|
|---|
| 200 | <time>+50838-07-27T16:41:45Z</time>
|
|---|
| 201 | </trkpt>
|
|---|
| 202 | <trkpt lat="51.1847796" lon="5.1190996">
|
|---|
| 203 | <time>+50838-07-27T16:58:25Z</time>
|
|---|
| 204 | </trkpt>
|
|---|
| 205 | <trkpt lat="51.1848757" lon="5.1191843">
|
|---|
| 206 | <time>+50838-07-27T17:15:05Z</time>
|
|---|
| 207 | </trkpt>
|
|---|
| 208 | <trkpt lat="51.1851247" lon="5.1193205">
|
|---|
| 209 | <time>+50838-07-27T17:31:45Z</time>
|
|---|
| 210 | </trkpt>
|
|---|
| 211 | <trkpt lat="51.1852298" lon="5.1194884">
|
|---|
| 212 | <time>+50838-07-27T17:48:25Z</time>
|
|---|
| 213 | </trkpt>
|
|---|
| 214 | <trkpt lat="51.1853335" lon="5.1197228">
|
|---|
| 215 | <time>+50838-07-27T18:05:05Z</time>
|
|---|
| 216 | </trkpt>
|
|---|
| 217 | <trkpt lat="51.1854031" lon="5.1198957">
|
|---|
| 218 | <time>+50838-07-27T18:21:45Z</time>
|
|---|
| 219 | </trkpt>
|
|---|
| 220 | <trkpt lat="51.1854031" lon="5.1198957">
|
|---|
| 221 | <time>+50838-07-27T18:38:25Z</time>
|
|---|
| 222 | </trkpt>
|
|---|
| 223 | <trkpt lat="51.1853364" lon="5.1199633">
|
|---|
| 224 | <time>+50838-07-27T18:55:05Z</time>
|
|---|
| 225 | </trkpt>
|
|---|
| 226 | <trkpt lat="51.1850304" lon="5.1202469">
|
|---|
| 227 | <time>+50838-07-27T19:11:45Z</time>
|
|---|
| 228 | </trkpt>
|
|---|
| 229 | <trkpt lat="51.1848808" lon="5.1203822">
|
|---|
| 230 | <time>+50838-07-27T19:28:25Z</time>
|
|---|
| 231 | </trkpt>
|
|---|
| 232 | <trkpt lat="51.1847278" lon="5.1205205">
|
|---|
| 233 | <time>+50838-07-27T19:45:05Z</time>
|
|---|
| 234 | </trkpt>
|
|---|
| 235 | <trkpt lat="51.1843546" lon="5.1208585">
|
|---|
| 236 | <time>+50838-07-27T20:01:45Z</time>
|
|---|
| 237 | </trkpt>
|
|---|
| 238 | <trkpt lat="51.1841609" lon="5.1210357">
|
|---|
| 239 | <time>+50838-07-27T20:18:25Z</time>
|
|---|
| 240 | </trkpt>
|
|---|
| 241 | <trkpt lat="51.183978" lon="5.1212501">
|
|---|
| 242 | <time>+50838-07-27T20:35:05Z</time>
|
|---|
| 243 | </trkpt>
|
|---|
| 244 | <trkpt lat="51.1837348" lon="5.1215237">
|
|---|
| 245 | <time>+50838-07-27T20:51:45Z</time>
|
|---|
| 246 | </trkpt>
|
|---|
| 247 | <trkpt lat="51.1833474" lon="5.1220002">
|
|---|
| 248 | <time>+50838-07-27T21:08:25Z</time>
|
|---|
| 249 | </trkpt>
|
|---|
| 250 | <trkpt lat="51.1831653" lon="5.1223318">
|
|---|
| 251 | <time>+50838-07-27T21:25:05Z</time>
|
|---|
| 252 | </trkpt>
|
|---|
| 253 | <trkpt lat="51.1831653" lon="5.1223318">
|
|---|
| 254 | <time>+50838-07-27T21:41:45Z</time>
|
|---|
| 255 | </trkpt>
|
|---|
| 256 | <trkpt lat="51.1830831" lon="5.1224728">
|
|---|
| 257 | <time>+50838-07-27T21:58:25Z</time>
|
|---|
| 258 | </trkpt>
|
|---|
| 259 | <trkpt lat="51.1830831" lon="5.1224728">
|
|---|
| 260 | <time>+50838-07-27T22:15:05Z</time>
|
|---|
| 261 | </trkpt>
|
|---|
| 262 | <trkpt lat="51.1830613" lon="5.1225178">
|
|---|
| 263 | <time>+50838-07-27T22:31:45Z</time>
|
|---|
| 264 | </trkpt>
|
|---|
| 265 | <trkpt lat="51.1829951" lon="5.1226542">
|
|---|
| 266 | <time>+50838-07-27T22:48:25Z</time>
|
|---|
| 267 | </trkpt>
|
|---|
| 268 | <trkpt lat="51.1827207" lon="5.1230979">
|
|---|
| 269 | <time>+50838-07-27T23:05:05Z</time>
|
|---|
| 270 | </trkpt>
|
|---|
| 271 | <trkpt lat="51.1824772" lon="5.1234642">
|
|---|
| 272 | <time>+50838-07-27T23:21:45Z</time>
|
|---|
| 273 | </trkpt>
|
|---|
| 274 | <trkpt lat="51.1821275" lon="5.1239899">
|
|---|
| 275 | <time>+50838-07-27T23:38:25Z</time>
|
|---|
| 276 | </trkpt>
|
|---|
| 277 | <trkpt lat="51.1818686" lon="5.1243923">
|
|---|
| 278 | <time>+50838-07-27T23:55:05Z</time>
|
|---|
| 279 | </trkpt>
|
|---|
| 280 | <trkpt lat="51.1812186" lon="5.1253623">
|
|---|
| 281 | <time>+50838-07-28T00:11:45Z</time>
|
|---|
| 282 | </trkpt>
|
|---|
| 283 | <trkpt lat="51.1811164" lon="5.1255148">
|
|---|
| 284 | <time>+50838-07-28T00:28:25Z</time>
|
|---|
| 285 | </trkpt>
|
|---|
| 286 | <trkpt lat="51.1810269" lon="5.1256373">
|
|---|
| 287 | <time>+50838-07-28T00:45:05Z</time>
|
|---|
| 288 | </trkpt>
|
|---|
| 289 | <trkpt lat="51.1810269" lon="5.1256373">
|
|---|
| 290 | <time>+50838-07-28T01:01:45Z</time>
|
|---|
| 291 | </trkpt>
|
|---|
| 292 | <trkpt lat="51.1810229" lon="5.1255665">
|
|---|
| 293 | <time>+50838-07-28T01:18:25Z</time>
|
|---|
| 294 | </trkpt>
|
|---|
| 295 | <trkpt lat="51.1808758" lon="5.1251361">
|
|---|
| 296 | <time>+50838-07-28T01:35:05Z</time>
|
|---|
| 297 | </trkpt>
|
|---|
| 298 | <trkpt lat="51.1807821" lon="5.1248597">
|
|---|
| 299 | <time>+50838-07-28T01:51:45Z</time>
|
|---|
| 300 | </trkpt>
|
|---|
| 301 | <trkpt lat="51.1807821" lon="5.1248597">
|
|---|
| 302 | <time>+50838-07-28T02:08:25Z</time>
|
|---|
| 303 | </trkpt>
|
|---|
| 304 | <trkpt lat="51.1807506" lon="5.1247953">
|
|---|
| 305 | <time>+50838-07-28T02:25:05Z</time>
|
|---|
| 306 | </trkpt>
|
|---|
| 307 | <trkpt lat="51.180713" lon="5.1247504">
|
|---|
| 308 | <time>+50838-07-28T02:41:45Z</time>
|
|---|
| 309 | </trkpt>
|
|---|
| 310 | <trkpt lat="51.1806626" lon="5.1247302">
|
|---|
| 311 | <time>+50838-07-28T02:58:25Z</time>
|
|---|
| 312 | </trkpt>
|
|---|
| 313 | <trkpt lat="51.1806215" lon="5.124729">
|
|---|
| 314 | <time>+50838-07-28T03:15:05Z</time>
|
|---|
| 315 | </trkpt>
|
|---|
| 316 | <trkpt lat="51.1805786" lon="5.1247475">
|
|---|
| 317 | <time>+50838-07-28T03:31:45Z</time>
|
|---|
| 318 | </trkpt>
|
|---|
| 319 | <trkpt lat="51.1805437" lon="5.1247851">
|
|---|
| 320 | <time>+50838-07-28T03:48:25Z</time>
|
|---|
| 321 | </trkpt>
|
|---|
| 322 | <trkpt lat="51.1804975" lon="5.1248418">
|
|---|
| 323 | <time>+50838-07-28T04:05:05Z</time>
|
|---|
| 324 | </trkpt>
|
|---|
| 325 | <trkpt lat="51.1804744" lon="5.124882">
|
|---|
| 326 | <time>+50838-07-28T04:21:45Z</time>
|
|---|
| 327 | </trkpt>
|
|---|
| 328 | <trkpt lat="51.1804744" lon="5.124882">
|
|---|
| 329 | <time>+50838-07-28T04:38:25Z</time>
|
|---|
| 330 | </trkpt>
|
|---|
| 331 | <trkpt lat="51.1804446" lon="5.1249236">
|
|---|
| 332 | <time>+50838-07-28T04:55:05Z</time>
|
|---|
| 333 | </trkpt>
|
|---|
| 334 | <trkpt lat="51.1804123" lon="5.12497">
|
|---|
| 335 | <time>+50838-07-28T05:11:45Z</time>
|
|---|
| 336 | </trkpt>
|
|---|
| 337 | <trkpt lat="51.1804123" lon="5.12497">
|
|---|
| 338 | <time>+50838-07-28T05:28:25Z</time>
|
|---|
| 339 | </trkpt>
|
|---|
| 340 | <trkpt lat="51.1803401" lon="5.1250714">
|
|---|
| 341 | <time>+50838-07-28T05:45:05Z</time>
|
|---|
| 342 | </trkpt>
|
|---|
| 343 | <trkpt lat="51.1803401" lon="5.1250714">
|
|---|
| 344 | <time>+50838-07-28T06:01:45Z</time>
|
|---|
| 345 | </trkpt>
|
|---|
| 346 | <trkpt lat="51.1802559" lon="5.1251311">
|
|---|
| 347 | <time>+50838-07-28T06:18:25Z</time>
|
|---|
| 348 | </trkpt>
|
|---|
| 349 | <trkpt lat="51.1802559" lon="5.1251311">
|
|---|
| 350 | <time>+50838-07-28T06:35:05Z</time>
|
|---|
| 351 | </trkpt>
|
|---|
| 352 | <trkpt lat="51.1801878" lon="5.1251778">
|
|---|
| 353 | <time>+50838-07-28T06:51:45Z</time>
|
|---|
| 354 | </trkpt>
|
|---|
| 355 | <trkpt lat="51.1801878" lon="5.1251778">
|
|---|
| 356 | <time>+50838-07-28T07:08:25Z</time>
|
|---|
| 357 | </trkpt>
|
|---|
| 358 | <trkpt lat="51.1801015" lon="5.1252389">
|
|---|
| 359 | <time>+50838-07-28T07:25:05Z</time>
|
|---|
| 360 | </trkpt>
|
|---|
| 361 | <trkpt lat="51.1799726" lon="5.1253308">
|
|---|
| 362 | <time>+50838-07-28T07:41:45Z</time>
|
|---|
| 363 | </trkpt>
|
|---|
| 364 | <trkpt lat="51.1799726" lon="5.1253308">
|
|---|
| 365 | <time>+50838-07-28T07:58:25Z</time>
|
|---|
| 366 | </trkpt>
|
|---|
| 367 | <trkpt lat="51.1798984" lon="5.1253832">
|
|---|
| 368 | <time>+50838-07-28T08:15:05Z</time>
|
|---|
| 369 | </trkpt>
|
|---|
| 370 | <trkpt lat="51.1798984" lon="5.1253832">
|
|---|
| 371 | <time>+50838-07-28T08:31:45Z</time>
|
|---|
| 372 | </trkpt>
|
|---|
| 373 | <trkpt lat="51.179824" lon="5.1254369">
|
|---|
| 374 | <time>+50838-07-28T08:48:25Z</time>
|
|---|
| 375 | </trkpt>
|
|---|
| 376 | <trkpt lat="51.1797588" lon="5.1254517">
|
|---|
| 377 | <time>+50838-07-28T09:05:05Z</time>
|
|---|
| 378 | </trkpt>
|
|---|
| 379 | <trkpt lat="51.1795582" lon="5.1254071">
|
|---|
| 380 | <time>+50838-07-28T09:21:45Z</time>
|
|---|
| 381 | </trkpt>
|
|---|
| 382 | <trkpt lat="51.1794353" lon="5.1253861">
|
|---|
| 383 | <time>+50838-07-28T09:38:25Z</time>
|
|---|
| 384 | </trkpt>
|
|---|
| 385 | <trkpt lat="51.1793605" lon="5.125441">
|
|---|
| 386 | <time>+50838-07-28T09:55:05Z</time>
|
|---|
| 387 | </trkpt>
|
|---|
| 388 | <trkpt lat="51.1793182" lon="5.1255159">
|
|---|
| 389 | <time>+50838-07-28T10:11:45Z</time>
|
|---|
| 390 | </trkpt>
|
|---|
| 391 | <trkpt lat="51.1792437" lon="5.1256807">
|
|---|
| 392 | <time>+50838-07-28T10:28:25Z</time>
|
|---|
| 393 | </trkpt>
|
|---|
| 394 | <trkpt lat="51.1791576" lon="5.1258125">
|
|---|
| 395 | <time>+50838-07-28T10:45:05Z</time>
|
|---|
| 396 | </trkpt>
|
|---|
| 397 | <trkpt lat="51.1790671" lon="5.1260129">
|
|---|
| 398 | <time>+50838-07-28T11:01:45Z</time>
|
|---|
| 399 | </trkpt>
|
|---|
| 400 | <trkpt lat="51.1789406" lon="5.1263256">
|
|---|
| 401 | <time>+50838-07-28T11:18:25Z</time>
|
|---|
| 402 | </trkpt>
|
|---|
| 403 | <trkpt lat="51.1789073" lon="5.1263953">
|
|---|
| 404 | <time>+50838-07-28T11:35:05Z</time>
|
|---|
| 405 | </trkpt>
|
|---|
| 406 | <trkpt lat="51.1789073" lon="5.1263953">
|
|---|
| 407 | <time>+50838-07-28T11:51:45Z</time>
|
|---|
| 408 | </trkpt>
|
|---|
| 409 | <trkpt lat="51.1788968" lon="5.1264817">
|
|---|
| 410 | <time>+50838-07-28T12:08:25Z</time>
|
|---|
| 411 | </trkpt>
|
|---|
| 412 | <trkpt lat="51.1792196" lon="5.1273275">
|
|---|
| 413 | <time>+50838-07-28T12:25:05Z</time>
|
|---|
| 414 | </trkpt>
|
|---|
| 415 | <trkpt lat="51.1794316" lon="5.127867">
|
|---|
| 416 | <time>+50838-07-28T12:41:45Z</time>
|
|---|
| 417 | </trkpt>
|
|---|
| 418 | <trkpt lat="51.1795482" lon="5.1281637">
|
|---|
| 419 | <time>+50838-07-28T12:58:25Z</time>
|
|---|
| 420 | </trkpt>
|
|---|
| 421 | <trkpt lat="51.1799176" lon="5.129109">
|
|---|
| 422 | <time>+50838-07-28T13:15:05Z</time>
|
|---|
| 423 | </trkpt>
|
|---|
| 424 | <trkpt lat="51.1802325" lon="5.1298704">
|
|---|
| 425 | <time>+50838-07-28T13:31:45Z</time>
|
|---|
| 426 | </trkpt>
|
|---|
| 427 | <trkpt lat="51.180769" lon="5.1310652">
|
|---|
| 428 | <time>+50838-07-28T13:48:25Z</time>
|
|---|
| 429 | </trkpt>
|
|---|
| 430 | <trkpt lat="51.1811982" lon="5.1320099">
|
|---|
| 431 | <time>+50838-07-28T14:05:05Z</time>
|
|---|
| 432 | </trkpt>
|
|---|
| 433 | <trkpt lat="51.1813105" lon="5.1323322">
|
|---|
| 434 | <time>+50838-07-28T14:21:45Z</time>
|
|---|
| 435 | </trkpt>
|
|---|
| 436 | <trkpt lat="51.1813105" lon="5.1323322">
|
|---|
| 437 | <time>+50838-07-28T14:38:25Z</time>
|
|---|
| 438 | </trkpt>
|
|---|
| 439 | <trkpt lat="51.1813689" lon="5.1324997">
|
|---|
| 440 | <time>+50838-07-28T14:55:05Z</time>
|
|---|
| 441 | </trkpt>
|
|---|
| 442 | <trkpt lat="51.18167" lon="5.1338302">
|
|---|
| 443 | <time>+50838-07-28T15:11:45Z</time>
|
|---|
| 444 | </trkpt>
|
|---|
| 445 | <trkpt lat="51.1817521" lon="5.1343147">
|
|---|
| 446 | <time>+50838-07-28T15:28:25Z</time>
|
|---|
| 447 | </trkpt>
|
|---|
| 448 | <trkpt lat="51.1819421" lon="5.1354364">
|
|---|
| 449 | <time>+50838-07-28T15:45:05Z</time>
|
|---|
| 450 | </trkpt>
|
|---|
| 451 | <trkpt lat="51.1820348" lon="5.1362458">
|
|---|
| 452 | <time>+50838-07-28T16:01:45Z</time>
|
|---|
| 453 | </trkpt>
|
|---|
| 454 | <trkpt lat="51.1820949" lon="5.1370423">
|
|---|
| 455 | <time>+50838-07-28T16:18:25Z</time>
|
|---|
| 456 | </trkpt>
|
|---|
| 457 | <trkpt lat="51.1821577" lon="5.1377714">
|
|---|
| 458 | <time>+50838-07-28T16:35:05Z</time>
|
|---|
| 459 | </trkpt>
|
|---|
| 460 | <trkpt lat="51.1821577" lon="5.1377714">
|
|---|
| 461 | <time>+50838-07-28T16:51:45Z</time>
|
|---|
| 462 | </trkpt>
|
|---|
| 463 | <trkpt lat="51.1821976" lon="5.1385823">
|
|---|
| 464 | <time>+50838-07-28T17:08:25Z</time>
|
|---|
| 465 | </trkpt>
|
|---|
| 466 | <trkpt lat="51.1822148" lon="5.138933">
|
|---|
| 467 | <time>+50838-07-28T17:25:05Z</time>
|
|---|
| 468 | </trkpt>
|
|---|
| 469 | <trkpt lat="51.182272" lon="5.1399929">
|
|---|
| 470 | <time>+50838-07-28T17:41:45Z</time>
|
|---|
| 471 | </trkpt>
|
|---|
| 472 | <trkpt lat="51.1822085" lon="5.1409817">
|
|---|
| 473 | <time>+50838-07-28T17:58:25Z</time>
|
|---|
| 474 | </trkpt>
|
|---|
| 475 | <trkpt lat="51.182172" lon="5.1412452">
|
|---|
| 476 | <time>+50838-07-28T18:15:05Z</time>
|
|---|
| 477 | </trkpt>
|
|---|
| 478 | <trkpt lat="51.1820503" lon="5.1421241">
|
|---|
| 479 | <time>+50838-07-28T18:31:45Z</time>
|
|---|
| 480 | </trkpt>
|
|---|
| 481 | <trkpt lat="51.1820503" lon="5.1421241">
|
|---|
| 482 | <time>+50838-07-28T18:48:25Z</time>
|
|---|
| 483 | </trkpt>
|
|---|
| 484 | <trkpt lat="51.1819592" lon="5.142606">
|
|---|
| 485 | <time>+50838-07-28T19:05:05Z</time>
|
|---|
| 486 | </trkpt>
|
|---|
| 487 | <trkpt lat="51.1819235" lon="5.1427942">
|
|---|
| 488 | <time>+50838-07-28T19:21:45Z</time>
|
|---|
| 489 | </trkpt>
|
|---|
| 490 | <trkpt lat="51.1819235" lon="5.1427942">
|
|---|
| 491 | <time>+50838-07-28T19:38:25Z</time>
|
|---|
| 492 | </trkpt>
|
|---|
| 493 | <trkpt lat="51.1819546" lon="5.1427991">
|
|---|
| 494 | <time>+50838-07-28T19:55:05Z</time>
|
|---|
| 495 | </trkpt>
|
|---|
| 496 | <trkpt lat="51.1819963" lon="5.1428385">
|
|---|
| 497 | <time>+50838-07-28T20:11:45Z</time>
|
|---|
| 498 | </trkpt>
|
|---|
| 499 | <trkpt lat="51.1820117" lon="5.1428887">
|
|---|
| 500 | <time>+50838-07-28T20:28:25Z</time>
|
|---|
| 501 | </trkpt>
|
|---|
| 502 | <trkpt lat="51.1820635" lon="5.1429869">
|
|---|
| 503 | <time>+50838-07-28T20:45:05Z</time>
|
|---|
| 504 | </trkpt>
|
|---|
| 505 | <trkpt lat="51.1820635" lon="5.1429869">
|
|---|
| 506 | <time>+50838-07-28T21:01:45Z</time>
|
|---|
| 507 | </trkpt>
|
|---|
| 508 | <trkpt lat="51.1820751" lon="5.1430524">
|
|---|
| 509 | <time>+50838-07-28T21:18:25Z</time>
|
|---|
| 510 | </trkpt>
|
|---|
| 511 | <trkpt lat="51.1820746" lon="5.1430883">
|
|---|
| 512 | <time>+50838-07-28T21:35:05Z</time>
|
|---|
| 513 | </trkpt>
|
|---|
| 514 | <trkpt lat="51.1820631" lon="5.1431335">
|
|---|
| 515 | <time>+50838-07-28T21:51:45Z</time>
|
|---|
| 516 | </trkpt>
|
|---|
| 517 | <trkpt lat="51.1819912" lon="5.1431975">
|
|---|
| 518 | <time>+50838-07-28T22:08:25Z</time>
|
|---|
| 519 | </trkpt>
|
|---|
| 520 | <trkpt lat="51.1817765" lon="5.1433159">
|
|---|
| 521 | <time>+50838-07-28T22:25:05Z</time>
|
|---|
| 522 | </trkpt>
|
|---|
| 523 | <trkpt lat="51.1812887" lon="5.1437889">
|
|---|
| 524 | <time>+50838-07-28T22:41:45Z</time>
|
|---|
| 525 | </trkpt>
|
|---|
| 526 | <trkpt lat="51.1811747" lon="5.1439398">
|
|---|
| 527 | <time>+50838-07-28T22:58:25Z</time>
|
|---|
| 528 | </trkpt>
|
|---|
| 529 | <trkpt lat="51.1806912" lon="5.1453789">
|
|---|
| 530 | <time>+50838-07-28T23:15:05Z</time>
|
|---|
| 531 | </trkpt>
|
|---|
| 532 | <trkpt lat="51.1806203" lon="5.1457704">
|
|---|
| 533 | <time>+50838-07-28T23:31:45Z</time>
|
|---|
| 534 | </trkpt>
|
|---|
| 535 | <trkpt lat="51.1806203" lon="5.1457704">
|
|---|
| 536 | <time>+50838-07-28T23:48:25Z</time>
|
|---|
| 537 | </trkpt>
|
|---|
| 538 | <trkpt lat="51.1807149" lon="5.1459444">
|
|---|
| 539 | <time>+50838-07-29T00:05:05Z</time>
|
|---|
| 540 | </trkpt>
|
|---|
| 541 | <trkpt lat="51.1810181" lon="5.1464721">
|
|---|
| 542 | <time>+50838-07-29T00:21:45Z</time>
|
|---|
| 543 | </trkpt>
|
|---|
| 544 | <trkpt lat="51.1812519" lon="5.1469348">
|
|---|
| 545 | <time>+50838-07-29T00:38:25Z</time>
|
|---|
| 546 | </trkpt>
|
|---|
| 547 | <trkpt lat="51.181482" lon="5.1474701">
|
|---|
| 548 | <time>+50838-07-29T00:55:05Z</time>
|
|---|
| 549 | </trkpt>
|
|---|
| 550 | <trkpt lat="51.18154" lon="5.1476911">
|
|---|
| 551 | <time>+50838-07-29T01:11:45Z</time>
|
|---|
| 552 | </trkpt>
|
|---|
| 553 | <trkpt lat="51.18154" lon="5.1476911">
|
|---|
| 554 | <time>+50838-07-29T01:28:25Z</time>
|
|---|
| 555 | </trkpt>
|
|---|
| 556 | <trkpt lat="51.1815676" lon="5.1477962">
|
|---|
| 557 | <time>+50838-07-29T01:45:05Z</time>
|
|---|
| 558 | </trkpt>
|
|---|
| 559 | <trkpt lat="51.1815676" lon="5.1477962">
|
|---|
| 560 | <time>+50838-07-29T02:01:45Z</time>
|
|---|
| 561 | </trkpt>
|
|---|
| 562 | <trkpt lat="51.1816007" lon="5.1478078">
|
|---|
| 563 | <time>+50838-07-29T02:18:25Z</time>
|
|---|
| 564 | </trkpt>
|
|---|
| 565 | <trkpt lat="51.1820074" lon="5.1473541">
|
|---|
| 566 | <time>+50838-07-29T02:35:05Z</time>
|
|---|
| 567 | </trkpt>
|
|---|
| 568 | <trkpt lat="51.1830376" lon="5.1475504">
|
|---|
| 569 | <time>+50838-07-29T02:51:45Z</time>
|
|---|
| 570 | </trkpt>
|
|---|
| 571 | <trkpt lat="51.183222" lon="5.1475737">
|
|---|
| 572 | <time>+50838-07-29T03:08:25Z</time>
|
|---|
| 573 | </trkpt>
|
|---|
| 574 | <trkpt lat="51.1833822" lon="5.1475233">
|
|---|
| 575 | <time>+50838-07-29T03:25:05Z</time>
|
|---|
| 576 | </trkpt>
|
|---|
| 577 | <trkpt lat="51.1835787" lon="5.1471711">
|
|---|
| 578 | <time>+50838-07-29T03:41:45Z</time>
|
|---|
| 579 | </trkpt>
|
|---|
| 580 | <trkpt lat="51.1836438" lon="5.1468562">
|
|---|
| 581 | <time>+50838-07-29T03:58:25Z</time>
|
|---|
| 582 | </trkpt>
|
|---|
| 583 | <trkpt lat="51.1837574" lon="5.1466982">
|
|---|
| 584 | <time>+50838-07-29T04:15:05Z</time>
|
|---|
| 585 | </trkpt>
|
|---|
| 586 | <trkpt lat="51.1846546" lon="5.1466628">
|
|---|
| 587 | <time>+50838-07-29T04:31:45Z</time>
|
|---|
| 588 | </trkpt>
|
|---|
| 589 | <trkpt lat="51.1848453" lon="5.1466175">
|
|---|
| 590 | <time>+50838-07-29T04:48:25Z</time>
|
|---|
| 591 | </trkpt>
|
|---|
| 592 | <trkpt lat="51.1848453" lon="5.1466175">
|
|---|
| 593 | <time>+50838-07-29T05:05:05Z</time>
|
|---|
| 594 | </trkpt>
|
|---|
| 595 | <trkpt lat="51.1852044" lon="5.1464046">
|
|---|
| 596 | <time>+50838-07-29T05:21:45Z</time>
|
|---|
| 597 | </trkpt>
|
|---|
| 598 | <trkpt lat="51.1858183" lon="5.1464007">
|
|---|
| 599 | <time>+50838-07-29T05:38:25Z</time>
|
|---|
| 600 | </trkpt>
|
|---|
| 601 | <trkpt lat="51.1859589" lon="5.1464075">
|
|---|
| 602 | <time>+50838-07-29T05:55:05Z</time>
|
|---|
| 603 | </trkpt>
|
|---|
| 604 | <trkpt lat="51.1860356" lon="5.1464647">
|
|---|
| 605 | <time>+50838-07-29T06:11:45Z</time>
|
|---|
| 606 | </trkpt>
|
|---|
| 607 | <trkpt lat="51.1860893" lon="5.1465262">
|
|---|
| 608 | <time>+50838-07-29T06:28:25Z</time>
|
|---|
| 609 | </trkpt>
|
|---|
| 610 | <trkpt lat="51.1861203" lon="5.1466499">
|
|---|
| 611 | <time>+50838-07-29T06:45:05Z</time>
|
|---|
| 612 | </trkpt>
|
|---|
| 613 | <trkpt lat="51.1861" lon="5.1469164">
|
|---|
| 614 | <time>+50838-07-29T07:01:45Z</time>
|
|---|
| 615 | </trkpt>
|
|---|
| 616 | <trkpt lat="51.1861206" lon="5.147271">
|
|---|
| 617 | <time>+50838-07-29T07:18:25Z</time>
|
|---|
| 618 | </trkpt>
|
|---|
| 619 | <trkpt lat="51.1861835" lon="5.1475349">
|
|---|
| 620 | <time>+50838-07-29T07:35:05Z</time>
|
|---|
| 621 | </trkpt>
|
|---|
| 622 | <trkpt lat="51.1863582" lon="5.1482859">
|
|---|
| 623 | <time>+50838-07-29T07:51:45Z</time>
|
|---|
| 624 | </trkpt>
|
|---|
| 625 | <trkpt lat="51.1863276" lon="5.148483">
|
|---|
| 626 | <time>+50838-07-29T08:08:25Z</time>
|
|---|
| 627 | </trkpt>
|
|---|
| 628 | <trkpt lat="51.1863276" lon="5.148483">
|
|---|
| 629 | <time>+50838-07-29T08:25:05Z</time>
|
|---|
| 630 | </trkpt>
|
|---|
| 631 | <trkpt lat="51.1864237" lon="5.1486034">
|
|---|
| 632 | <time>+50838-07-29T08:41:45Z</time>
|
|---|
| 633 | </trkpt>
|
|---|
| 634 | <trkpt lat="51.1864237" lon="5.1486034">
|
|---|
| 635 | <time>+50838-07-29T08:58:25Z</time>
|
|---|
| 636 | </trkpt>
|
|---|
| 637 | <trkpt lat="51.1866118" lon="5.1489156">
|
|---|
| 638 | <time>+50838-07-29T09:15:05Z</time>
|
|---|
| 639 | </trkpt>
|
|---|
| 640 | <trkpt lat="51.1866906" lon="5.1490649">
|
|---|
| 641 | <time>+50838-07-29T09:31:45Z</time>
|
|---|
| 642 | </trkpt>
|
|---|
| 643 | <trkpt lat="51.1867391" lon="5.1492537">
|
|---|
| 644 | <time>+50838-07-29T09:48:25Z</time>
|
|---|
| 645 | </trkpt>
|
|---|
| 646 | <trkpt lat="51.1868449" lon="5.1493871">
|
|---|
| 647 | <time>+50838-07-29T10:05:05Z</time>
|
|---|
| 648 | </trkpt>
|
|---|
| 649 | <trkpt lat="51.186959" lon="5.1495061">
|
|---|
| 650 | <time>+50838-07-29T10:21:45Z</time>
|
|---|
| 651 | </trkpt>
|
|---|
| 652 | <trkpt lat="51.1870958" lon="5.1496021">
|
|---|
| 653 | <time>+50838-07-29T10:38:25Z</time>
|
|---|
| 654 | </trkpt>
|
|---|
| 655 | <trkpt lat="51.1870987" lon="5.150065">
|
|---|
| 656 | <time>+50838-07-29T10:55:05Z</time>
|
|---|
| 657 | </trkpt>
|
|---|
| 658 | <trkpt lat="51.1870987" lon="5.150065">
|
|---|
| 659 | <time>+50838-07-29T11:11:45Z</time>
|
|---|
| 660 | </trkpt>
|
|---|
| 661 | <trkpt lat="51.1871759" lon="5.1500656">
|
|---|
| 662 | <time>+50838-07-29T11:28:25Z</time>
|
|---|
| 663 | </trkpt>
|
|---|
| 664 | <trkpt lat="51.1871759" lon="5.1500656">
|
|---|
| 665 | <time>+50838-07-29T11:45:05Z</time>
|
|---|
| 666 | </trkpt>
|
|---|
| 667 | <trkpt lat="51.1871914" lon="5.15027">
|
|---|
| 668 | <time>+50838-07-29T12:01:45Z</time>
|
|---|
| 669 | </trkpt>
|
|---|
| 670 | <trkpt lat="51.1871039" lon="5.1505117">
|
|---|
| 671 | <time>+50838-07-29T12:18:25Z</time>
|
|---|
| 672 | </trkpt>
|
|---|
| 673 | <trkpt lat="51.1871103" lon="5.1506395">
|
|---|
| 674 | <time>+50838-07-29T12:35:05Z</time>
|
|---|
| 675 | </trkpt>
|
|---|
| 676 | <trkpt lat="51.1873311" lon="5.1509183">
|
|---|
| 677 | <time>+50838-07-29T12:51:45Z</time>
|
|---|
| 678 | </trkpt>
|
|---|
| 679 | <trkpt lat="51.1873651" lon="5.1510692">
|
|---|
| 680 | <time>+50838-07-29T13:08:25Z</time>
|
|---|
| 681 | </trkpt>
|
|---|
| 682 | <trkpt lat="51.1872777" lon="5.1512047">
|
|---|
| 683 | <time>+50838-07-29T13:25:05Z</time>
|
|---|
| 684 | </trkpt>
|
|---|
| 685 | <trkpt lat="51.1870788" lon="5.1513092">
|
|---|
| 686 | <time>+50838-07-29T13:41:45Z</time>
|
|---|
| 687 | </trkpt>
|
|---|
| 688 | <trkpt lat="51.1870921" lon="5.1513982">
|
|---|
| 689 | <time>+50838-07-29T13:58:25Z</time>
|
|---|
| 690 | </trkpt>
|
|---|
| 691 | <trkpt lat="51.1871883" lon="5.1515209">
|
|---|
| 692 | <time>+50838-07-29T14:15:05Z</time>
|
|---|
| 693 | </trkpt>
|
|---|
| 694 | <trkpt lat="51.1872581" lon="5.1515784">
|
|---|
| 695 | <time>+50838-07-29T14:31:45Z</time>
|
|---|
| 696 | </trkpt>
|
|---|
| 697 | <trkpt lat="51.187277" lon="5.1516694">
|
|---|
| 698 | <time>+50838-07-29T14:48:25Z</time>
|
|---|
| 699 | </trkpt>
|
|---|
| 700 | <trkpt lat="51.1872559" lon="5.1517583">
|
|---|
| 701 | <time>+50838-07-29T15:05:05Z</time>
|
|---|
| 702 | </trkpt>
|
|---|
| 703 | <trkpt lat="51.1871232" lon="5.1518539">
|
|---|
| 704 | <time>+50838-07-29T15:21:45Z</time>
|
|---|
| 705 | </trkpt>
|
|---|
| 706 | <trkpt lat="51.1871046" lon="5.1519554">
|
|---|
| 707 | <time>+50838-07-29T15:38:25Z</time>
|
|---|
| 708 | </trkpt>
|
|---|
| 709 | <trkpt lat="51.1871661" lon="5.1522034">
|
|---|
| 710 | <time>+50838-07-29T15:55:05Z</time>
|
|---|
| 711 | </trkpt>
|
|---|
| 712 | <trkpt lat="51.1871274" lon="5.1523968">
|
|---|
| 713 | <time>+50838-07-29T16:11:45Z</time>
|
|---|
| 714 | </trkpt>
|
|---|
| 715 | <trkpt lat="51.1870355" lon="5.1525974">
|
|---|
| 716 | <time>+50838-07-29T16:28:25Z</time>
|
|---|
| 717 | </trkpt>
|
|---|
| 718 | <trkpt lat="51.1870606" lon="5.1526975">
|
|---|
| 719 | <time>+50838-07-29T16:45:05Z</time>
|
|---|
| 720 | </trkpt>
|
|---|
| 721 | <trkpt lat="51.1872375" lon="5.1528689">
|
|---|
| 722 | <time>+50838-07-29T17:01:45Z</time>
|
|---|
| 723 | </trkpt>
|
|---|
| 724 | <trkpt lat="51.1876033" lon="5.1536014">
|
|---|
| 725 | <time>+50838-07-29T17:18:25Z</time>
|
|---|
| 726 | </trkpt>
|
|---|
| 727 | <trkpt lat="51.1876479" lon="5.1538314">
|
|---|
| 728 | <time>+50838-07-29T17:35:05Z</time>
|
|---|
| 729 | </trkpt>
|
|---|
| 730 | <trkpt lat="51.187606" lon="5.1542187">
|
|---|
| 731 | <time>+50838-07-29T17:51:45Z</time>
|
|---|
| 732 | </trkpt>
|
|---|
| 733 | <trkpt lat="51.187606" lon="5.1542187">
|
|---|
| 734 | <time>+50838-07-29T18:08:25Z</time>
|
|---|
| 735 | </trkpt>
|
|---|
| 736 | <trkpt lat="51.1906597" lon="5.1549251">
|
|---|
| 737 | <time>+50838-07-29T18:25:05Z</time>
|
|---|
| 738 | </trkpt>
|
|---|
| 739 | </trkseg>
|
|---|
| 740 | </trk>
|
|---|
| 741 | <trk>
|
|---|
| 742 | <name>nieuw Mol Om #3</name>
|
|---|
| 743 | <trkseg>
|
|---|
| 744 | <trkpt lat="51.1871759" lon="5.1500656">
|
|---|
| 745 | <time>+50838-07-29T18:41:45Z</time>
|
|---|
| 746 | </trkpt>
|
|---|
| 747 | <trkpt lat="51.1871932" lon="5.1498302">
|
|---|
| 748 | <time>+50838-07-29T18:58:25Z</time>
|
|---|
| 749 | </trkpt>
|
|---|
| 750 | <trkpt lat="51.187234" lon="5.149608">
|
|---|
| 751 | <time>+50838-07-29T19:15:05Z</time>
|
|---|
| 752 | </trkpt>
|
|---|
| 753 | <trkpt lat="51.1872323" lon="5.1494859">
|
|---|
| 754 | <time>+50838-07-29T19:31:45Z</time>
|
|---|
| 755 | </trkpt>
|
|---|
| 756 | <trkpt lat="51.1872689" lon="5.1493088">
|
|---|
| 757 | <time>+50838-07-29T19:48:25Z</time>
|
|---|
| 758 | </trkpt>
|
|---|
| 759 | <trkpt lat="51.18727" lon="5.1492256">
|
|---|
| 760 | <time>+50838-07-29T20:05:05Z</time>
|
|---|
| 761 | </trkpt>
|
|---|
| 762 | <trkpt lat="51.1873305" lon="5.1490105">
|
|---|
| 763 | <time>+50838-07-29T20:21:45Z</time>
|
|---|
| 764 | </trkpt>
|
|---|
| 765 | <trkpt lat="51.1873938" lon="5.1489627">
|
|---|
| 766 | <time>+50838-07-29T20:38:25Z</time>
|
|---|
| 767 | </trkpt>
|
|---|
| 768 | <trkpt lat="51.1874232" lon="5.1489813">
|
|---|
| 769 | <time>+50838-07-29T20:55:05Z</time>
|
|---|
| 770 | </trkpt>
|
|---|
| 771 | <trkpt lat="51.1875452" lon="5.1489485">
|
|---|
| 772 | <time>+50838-07-29T21:11:45Z</time>
|
|---|
| 773 | </trkpt>
|
|---|
| 774 | <trkpt lat="51.1881606" lon="5.1488334">
|
|---|
| 775 | <time>+50838-07-29T21:28:25Z</time>
|
|---|
| 776 | </trkpt>
|
|---|
| 777 | <trkpt lat="51.1881606" lon="5.1488334">
|
|---|
| 778 | <time>+50838-07-29T21:45:05Z</time>
|
|---|
| 779 | </trkpt>
|
|---|
| 780 | <trkpt lat="51.1881125" lon="5.1495784">
|
|---|
| 781 | <time>+50838-07-29T22:01:45Z</time>
|
|---|
| 782 | </trkpt>
|
|---|
| 783 | <trkpt lat="51.1881831" lon="5.1504555">
|
|---|
| 784 | <time>+50838-07-29T22:18:25Z</time>
|
|---|
| 785 | </trkpt>
|
|---|
| 786 | <trkpt lat="51.1883327" lon="5.1511234">
|
|---|
| 787 | <time>+50838-07-29T22:35:05Z</time>
|
|---|
| 788 | </trkpt>
|
|---|
| 789 | <trkpt lat="51.1885412" lon="5.1515472">
|
|---|
| 790 | <time>+50838-07-29T22:51:45Z</time>
|
|---|
| 791 | </trkpt>
|
|---|
| 792 | <trkpt lat="51.1886673" lon="5.1516035">
|
|---|
| 793 | <time>+50838-07-29T23:08:25Z</time>
|
|---|
| 794 | </trkpt>
|
|---|
| 795 | <trkpt lat="51.1887059" lon="5.1516759">
|
|---|
| 796 | <time>+50838-07-29T23:25:05Z</time>
|
|---|
| 797 | </trkpt>
|
|---|
| 798 | <trkpt lat="51.1887732" lon="5.1517215">
|
|---|
| 799 | <time>+50838-07-29T23:41:45Z</time>
|
|---|
| 800 | </trkpt>
|
|---|
| 801 | <trkpt lat="51.1887782" lon="5.151794">
|
|---|
| 802 | <time>+50838-07-29T23:58:25Z</time>
|
|---|
| 803 | </trkpt>
|
|---|
| 804 | <trkpt lat="51.1898129" lon="5.1514278">
|
|---|
| 805 | <time>+50838-07-30T00:15:05Z</time>
|
|---|
| 806 | </trkpt>
|
|---|
| 807 | <trkpt lat="51.1898129" lon="5.1514278">
|
|---|
| 808 | <time>+50838-07-30T00:31:45Z</time>
|
|---|
| 809 | </trkpt>
|
|---|
| 810 | <trkpt lat="51.1900469" lon="5.1525795">
|
|---|
| 811 | <time>+50838-07-30T00:48:25Z</time>
|
|---|
| 812 | </trkpt>
|
|---|
| 813 | <trkpt lat="51.1903786" lon="5.1540416">
|
|---|
| 814 | <time>+50838-07-30T01:05:05Z</time>
|
|---|
| 815 | </trkpt>
|
|---|
| 816 | <trkpt lat="51.1903786" lon="5.1540416">
|
|---|
| 817 | <time>+50838-07-30T01:21:45Z</time>
|
|---|
| 818 | </trkpt>
|
|---|
| 819 | <trkpt lat="51.1904523" lon="5.154283">
|
|---|
| 820 | <time>+50838-07-30T01:38:25Z</time>
|
|---|
| 821 | </trkpt>
|
|---|
| 822 | <trkpt lat="51.1906597" lon="5.1549251">
|
|---|
| 823 | <time>+50838-07-30T01:55:05Z</time>
|
|---|
| 824 | </trkpt>
|
|---|
| 825 | <trkpt lat="51.1906597" lon="5.1549251">
|
|---|
| 826 | <time>+50838-07-30T02:11:45Z</time>
|
|---|
| 827 | </trkpt>
|
|---|
| 828 | <trkpt lat="51.1907981" lon="5.1547696">
|
|---|
| 829 | <time>+50838-07-30T02:28:25Z</time>
|
|---|
| 830 | </trkpt>
|
|---|
| 831 | <trkpt lat="51.1909348" lon="5.1547803">
|
|---|
| 832 | <time>+50838-07-30T02:45:05Z</time>
|
|---|
| 833 | </trkpt>
|
|---|
| 834 | <trkpt lat="51.1913315" lon="5.1548662">
|
|---|
| 835 | <time>+50838-07-30T03:01:45Z</time>
|
|---|
| 836 | </trkpt>
|
|---|
| 837 | <trkpt lat="51.1920633" lon="5.1550754">
|
|---|
| 838 | <time>+50838-07-30T03:18:25Z</time>
|
|---|
| 839 | </trkpt>
|
|---|
| 840 | <trkpt lat="51.1930708" lon="5.1552273">
|
|---|
| 841 | <time>+50838-07-30T03:35:05Z</time>
|
|---|
| 842 | </trkpt>
|
|---|
| 843 | <trkpt lat="51.1933813" lon="5.1553168">
|
|---|
| 844 | <time>+50838-07-30T03:51:45Z</time>
|
|---|
| 845 | </trkpt>
|
|---|
| 846 | <trkpt lat="51.1934961" lon="5.1555234">
|
|---|
| 847 | <time>+50838-07-30T04:08:25Z</time>
|
|---|
| 848 | </trkpt>
|
|---|
| 849 | <trkpt lat="51.1934961" lon="5.1555234">
|
|---|
| 850 | <time>+50838-07-30T04:25:05Z</time>
|
|---|
| 851 | </trkpt>
|
|---|
| 852 | <trkpt lat="51.1935054" lon="5.155525">
|
|---|
| 853 | <time>+50838-07-30T04:41:45Z</time>
|
|---|
| 854 | </trkpt>
|
|---|
| 855 | <trkpt lat="51.1935054" lon="5.155525">
|
|---|
| 856 | <time>+50838-07-30T04:58:25Z</time>
|
|---|
| 857 | </trkpt>
|
|---|
| 858 | <trkpt lat="51.1935482" lon="5.1554296">
|
|---|
| 859 | <time>+50838-07-30T05:15:05Z</time>
|
|---|
| 860 | </trkpt>
|
|---|
| 861 | <trkpt lat="51.1935482" lon="5.1554296">
|
|---|
| 862 | <time>+50838-07-30T05:31:45Z</time>
|
|---|
| 863 | </trkpt>
|
|---|
| 864 | <trkpt lat="51.1935349" lon="5.1553964">
|
|---|
| 865 | <time>+50838-07-30T05:48:25Z</time>
|
|---|
| 866 | </trkpt>
|
|---|
| 867 | <trkpt lat="51.1934989" lon="5.1552884">
|
|---|
| 868 | <time>+50838-07-30T06:05:05Z</time>
|
|---|
| 869 | </trkpt>
|
|---|
| 870 | <trkpt lat="51.1937355" lon="5.1534947">
|
|---|
| 871 | <time>+50838-07-30T06:21:45Z</time>
|
|---|
| 872 | </trkpt>
|
|---|
| 873 | <trkpt lat="51.193734" lon="5.1533621">
|
|---|
| 874 | <time>+50838-07-30T06:38:25Z</time>
|
|---|
| 875 | </trkpt>
|
|---|
| 876 | <trkpt lat="51.193734" lon="5.1533621">
|
|---|
| 877 | <time>+50838-07-30T06:55:05Z</time>
|
|---|
| 878 | </trkpt>
|
|---|
| 879 | <trkpt lat="51.193757" lon="5.1532578">
|
|---|
| 880 | <time>+50838-07-30T07:11:45Z</time>
|
|---|
| 881 | </trkpt>
|
|---|
| 882 | <trkpt lat="51.1938111" lon="5.15319">
|
|---|
| 883 | <time>+50838-07-30T07:28:25Z</time>
|
|---|
| 884 | </trkpt>
|
|---|
| 885 | <trkpt lat="51.1938624" lon="5.1531686">
|
|---|
| 886 | <time>+50838-07-30T07:45:05Z</time>
|
|---|
| 887 | </trkpt>
|
|---|
| 888 | <trkpt lat="51.1939166" lon="5.1530994">
|
|---|
| 889 | <time>+50838-07-30T08:01:45Z</time>
|
|---|
| 890 | </trkpt>
|
|---|
| 891 | <trkpt lat="51.1939166" lon="5.1530994">
|
|---|
| 892 | <time>+50838-07-30T08:18:25Z</time>
|
|---|
| 893 | </trkpt>
|
|---|
| 894 | <trkpt lat="51.1938866" lon="5.1534931">
|
|---|
| 895 | <time>+50838-07-30T08:35:05Z</time>
|
|---|
| 896 | </trkpt>
|
|---|
| 897 | <trkpt lat="51.193795" lon="5.1544239">
|
|---|
| 898 | <time>+50838-07-30T08:51:45Z</time>
|
|---|
| 899 | </trkpt>
|
|---|
| 900 | <trkpt lat="51.193795" lon="5.1544239">
|
|---|
| 901 | <time>+50838-07-30T09:08:25Z</time>
|
|---|
| 902 | </trkpt>
|
|---|
| 903 | <trkpt lat="51.1936026" lon="5.1561233">
|
|---|
| 904 | <time>+50838-07-30T09:25:05Z</time>
|
|---|
| 905 | </trkpt>
|
|---|
| 906 | <trkpt lat="51.1934185" lon="5.1578191">
|
|---|
| 907 | <time>+50838-07-30T09:41:45Z</time>
|
|---|
| 908 | </trkpt>
|
|---|
| 909 | <trkpt lat="51.1934185" lon="5.1578191">
|
|---|
| 910 | <time>+50838-07-30T09:58:25Z</time>
|
|---|
| 911 | </trkpt>
|
|---|
| 912 | <trkpt lat="51.1932829" lon="5.1591961">
|
|---|
| 913 | <time>+50838-07-30T10:15:05Z</time>
|
|---|
| 914 | </trkpt>
|
|---|
| 915 | <trkpt lat="51.1932829" lon="5.1591961">
|
|---|
| 916 | <time>+50838-07-30T10:31:45Z</time>
|
|---|
| 917 | </trkpt>
|
|---|
| 918 | <trkpt lat="51.1932478" lon="5.1595522">
|
|---|
| 919 | <time>+50838-07-30T10:48:25Z</time>
|
|---|
| 920 | </trkpt>
|
|---|
| 921 | <trkpt lat="51.1932478" lon="5.1595522">
|
|---|
| 922 | <time>+50838-07-30T11:05:05Z</time>
|
|---|
| 923 | </trkpt>
|
|---|
| 924 | <trkpt lat="51.1924185" lon="5.1592894">
|
|---|
| 925 | <time>+50838-07-30T11:21:45Z</time>
|
|---|
| 926 | </trkpt>
|
|---|
| 927 | <trkpt lat="51.1923373" lon="5.1592764">
|
|---|
| 928 | <time>+50838-07-30T11:38:25Z</time>
|
|---|
| 929 | </trkpt>
|
|---|
| 930 | <trkpt lat="51.1922855" lon="5.1592496">
|
|---|
| 931 | <time>+50838-07-30T11:55:05Z</time>
|
|---|
| 932 | </trkpt>
|
|---|
| 933 | <trkpt lat="51.1922855" lon="5.1592496">
|
|---|
| 934 | <time>+50838-07-30T12:11:45Z</time>
|
|---|
| 935 | </trkpt>
|
|---|
| 936 | <trkpt lat="51.1922456" lon="5.1594838">
|
|---|
| 937 | <time>+50838-07-30T12:28:25Z</time>
|
|---|
| 938 | </trkpt>
|
|---|
| 939 | <trkpt lat="51.1919229" lon="5.1613949">
|
|---|
| 940 | <time>+50838-07-30T12:45:05Z</time>
|
|---|
| 941 | </trkpt>
|
|---|
| 942 | <trkpt lat="51.1919162" lon="5.1615344">
|
|---|
| 943 | <time>+50838-07-30T13:01:45Z</time>
|
|---|
| 944 | </trkpt>
|
|---|
| 945 | <trkpt lat="51.191938" lon="5.1616417">
|
|---|
| 946 | <time>+50838-07-30T13:18:25Z</time>
|
|---|
| 947 | </trkpt>
|
|---|
| 948 | <trkpt lat="51.1919565" lon="5.1616926">
|
|---|
| 949 | <time>+50838-07-30T13:35:05Z</time>
|
|---|
| 950 | </trkpt>
|
|---|
| 951 | <trkpt lat="51.1919834" lon="5.1617436">
|
|---|
| 952 | <time>+50838-07-30T13:51:45Z</time>
|
|---|
| 953 | </trkpt>
|
|---|
| 954 | <trkpt lat="51.1920322" lon="5.1617704">
|
|---|
| 955 | <time>+50838-07-30T14:08:25Z</time>
|
|---|
| 956 | </trkpt>
|
|---|
| 957 | <trkpt lat="51.1920322" lon="5.1617704">
|
|---|
| 958 | <time>+50838-07-30T14:25:05Z</time>
|
|---|
| 959 | </trkpt>
|
|---|
| 960 | <trkpt lat="51.1919532" lon="5.1617677">
|
|---|
| 961 | <time>+50838-07-30T14:41:45Z</time>
|
|---|
| 962 | </trkpt>
|
|---|
| 963 | <trkpt lat="51.1918859" lon="5.1618509">
|
|---|
| 964 | <time>+50838-07-30T14:58:25Z</time>
|
|---|
| 965 | </trkpt>
|
|---|
| 966 | <trkpt lat="51.1918372" lon="5.1619743">
|
|---|
| 967 | <time>+50838-07-30T15:15:05Z</time>
|
|---|
| 968 | </trkpt>
|
|---|
| 969 | <trkpt lat="51.1916569" lon="5.163111">
|
|---|
| 970 | <time>+50838-07-30T15:31:45Z</time>
|
|---|
| 971 | </trkpt>
|
|---|
| 972 | <trkpt lat="51.1915631" lon="5.1637127">
|
|---|
| 973 | <time>+50838-07-30T15:48:25Z</time>
|
|---|
| 974 | </trkpt>
|
|---|
| 975 | <trkpt lat="51.1915688" lon="5.1637575">
|
|---|
| 976 | <time>+50838-07-30T16:05:05Z</time>
|
|---|
| 977 | </trkpt>
|
|---|
| 978 | <trkpt lat="51.1915992" lon="5.1637848">
|
|---|
| 979 | <time>+50838-07-30T16:21:45Z</time>
|
|---|
| 980 | </trkpt>
|
|---|
| 981 | <trkpt lat="51.1915992" lon="5.1637848">
|
|---|
| 982 | <time>+50838-07-30T16:38:25Z</time>
|
|---|
| 983 | </trkpt>
|
|---|
| 984 | <trkpt lat="51.1916151" lon="5.1639007">
|
|---|
| 985 | <time>+50838-07-30T16:55:05Z</time>
|
|---|
| 986 | </trkpt>
|
|---|
| 987 | <trkpt lat="51.1916565" lon="5.1641225">
|
|---|
| 988 | <time>+50838-07-30T17:11:45Z</time>
|
|---|
| 989 | </trkpt>
|
|---|
| 990 | <trkpt lat="51.1917165" lon="5.1644024">
|
|---|
| 991 | <time>+50838-07-30T17:28:25Z</time>
|
|---|
| 992 | </trkpt>
|
|---|
| 993 | <trkpt lat="51.1917212" lon="5.1645359">
|
|---|
| 994 | <time>+50838-07-30T17:45:05Z</time>
|
|---|
| 995 | </trkpt>
|
|---|
| 996 | <trkpt lat="51.1917131" lon="5.1646657">
|
|---|
| 997 | <time>+50838-07-30T18:01:45Z</time>
|
|---|
| 998 | </trkpt>
|
|---|
| 999 | <trkpt lat="51.1916888" lon="5.1648176">
|
|---|
| 1000 | <time>+50838-07-30T18:18:25Z</time>
|
|---|
| 1001 | </trkpt>
|
|---|
| 1002 | <trkpt lat="51.191621" lon="5.1651373">
|
|---|
| 1003 | <time>+50838-07-30T18:35:05Z</time>
|
|---|
| 1004 | </trkpt>
|
|---|
| 1005 | <trkpt lat="51.1915589" lon="5.1654724">
|
|---|
| 1006 | <time>+50838-07-30T18:51:45Z</time>
|
|---|
| 1007 | </trkpt>
|
|---|
| 1008 | <trkpt lat="51.1915677" lon="5.1655856">
|
|---|
| 1009 | <time>+50838-07-30T19:08:25Z</time>
|
|---|
| 1010 | </trkpt>
|
|---|
| 1011 | <trkpt lat="51.191618" lon="5.1656753">
|
|---|
| 1012 | <time>+50838-07-30T19:25:05Z</time>
|
|---|
| 1013 | </trkpt>
|
|---|
| 1014 | <trkpt lat="51.1918547" lon="5.1658358">
|
|---|
| 1015 | <time>+50838-07-30T19:41:45Z</time>
|
|---|
| 1016 | </trkpt>
|
|---|
| 1017 | <trkpt lat="51.1918547" lon="5.1658358">
|
|---|
| 1018 | <time>+50838-07-30T19:58:25Z</time>
|
|---|
| 1019 | </trkpt>
|
|---|
| 1020 | <trkpt lat="51.1915888" lon="5.1674018">
|
|---|
| 1021 | <time>+50838-07-30T20:15:05Z</time>
|
|---|
| 1022 | </trkpt>
|
|---|
| 1023 | <trkpt lat="51.1915888" lon="5.1674018">
|
|---|
| 1024 | <time>+50838-07-30T20:31:45Z</time>
|
|---|
| 1025 | </trkpt>
|
|---|
| 1026 | <trkpt lat="51.1920205" lon="5.1675894">
|
|---|
| 1027 | <time>+50838-07-30T20:48:25Z</time>
|
|---|
| 1028 | </trkpt>
|
|---|
| 1029 | <trkpt lat="51.1920205" lon="5.1675894">
|
|---|
| 1030 | <time>+50838-07-30T21:05:05Z</time>
|
|---|
| 1031 | </trkpt>
|
|---|
| 1032 | <trkpt lat="51.1920841" lon="5.1671959">
|
|---|
| 1033 | <time>+50838-07-30T21:21:45Z</time>
|
|---|
| 1034 | </trkpt>
|
|---|
| 1035 | <trkpt lat="51.1920841" lon="5.1671959">
|
|---|
| 1036 | <time>+50838-07-30T21:38:25Z</time>
|
|---|
| 1037 | </trkpt>
|
|---|
| 1038 | <trkpt lat="51.1925083" lon="5.1674595">
|
|---|
| 1039 | <time>+50838-07-30T21:55:05Z</time>
|
|---|
| 1040 | </trkpt>
|
|---|
| 1041 | <trkpt lat="51.1925876" lon="5.1675356">
|
|---|
| 1042 | <time>+50838-07-30T22:11:45Z</time>
|
|---|
| 1043 | </trkpt>
|
|---|
| 1044 | <trkpt lat="51.1929149" lon="5.168051">
|
|---|
| 1045 | <time>+50838-07-30T22:28:25Z</time>
|
|---|
| 1046 | </trkpt>
|
|---|
| 1047 | <trkpt lat="51.1930936" lon="5.1683525">
|
|---|
| 1048 | <time>+50838-07-30T22:45:05Z</time>
|
|---|
| 1049 | </trkpt>
|
|---|
| 1050 | <trkpt lat="51.1931753" lon="5.1686581">
|
|---|
| 1051 | <time>+50838-07-30T23:01:45Z</time>
|
|---|
| 1052 | </trkpt>
|
|---|
| 1053 | <trkpt lat="51.1932113" lon="5.168873">
|
|---|
| 1054 | <time>+50838-07-30T23:18:25Z</time>
|
|---|
| 1055 | </trkpt>
|
|---|
| 1056 | <trkpt lat="51.1932569" lon="5.1690614">
|
|---|
| 1057 | <time>+50838-07-30T23:35:05Z</time>
|
|---|
| 1058 | </trkpt>
|
|---|
| 1059 | <trkpt lat="51.1932569" lon="5.1690614">
|
|---|
| 1060 | <time>+50838-07-30T23:51:45Z</time>
|
|---|
| 1061 | </trkpt>
|
|---|
| 1062 | <trkpt lat="51.1934651" lon="5.168854">
|
|---|
| 1063 | <time>+50838-07-31T00:08:25Z</time>
|
|---|
| 1064 | </trkpt>
|
|---|
| 1065 | <trkpt lat="51.193531" lon="5.1687553">
|
|---|
| 1066 | <time>+50838-07-31T00:25:05Z</time>
|
|---|
| 1067 | </trkpt>
|
|---|
| 1068 | <trkpt lat="51.1936292" lon="5.1685923">
|
|---|
| 1069 | <time>+50838-07-31T00:41:45Z</time>
|
|---|
| 1070 | </trkpt>
|
|---|
| 1071 | <trkpt lat="51.1937478" lon="5.1683634">
|
|---|
| 1072 | <time>+50838-07-31T00:58:25Z</time>
|
|---|
| 1073 | </trkpt>
|
|---|
| 1074 | <trkpt lat="51.1938781" lon="5.1681232">
|
|---|
| 1075 | <time>+50838-07-31T01:15:05Z</time>
|
|---|
| 1076 | </trkpt>
|
|---|
| 1077 | <trkpt lat="51.193997" lon="5.1679618">
|
|---|
| 1078 | <time>+50838-07-31T01:31:45Z</time>
|
|---|
| 1079 | </trkpt>
|
|---|
| 1080 | <trkpt lat="51.1941068" lon="5.1678603">
|
|---|
| 1081 | <time>+50838-07-31T01:48:25Z</time>
|
|---|
| 1082 | </trkpt>
|
|---|
| 1083 | <trkpt lat="51.1941822" lon="5.1677935">
|
|---|
| 1084 | <time>+50838-07-31T02:05:05Z</time>
|
|---|
| 1085 | </trkpt>
|
|---|
| 1086 | <trkpt lat="51.1942239" lon="5.1677688">
|
|---|
| 1087 | <time>+50838-07-31T02:21:45Z</time>
|
|---|
| 1088 | </trkpt>
|
|---|
| 1089 | <trkpt lat="51.1942908" lon="5.1677496">
|
|---|
| 1090 | <time>+50838-07-31T02:38:25Z</time>
|
|---|
| 1091 | </trkpt>
|
|---|
| 1092 | <trkpt lat="51.1943563" lon="5.16775">
|
|---|
| 1093 | <time>+50838-07-31T02:55:05Z</time>
|
|---|
| 1094 | </trkpt>
|
|---|
| 1095 | <trkpt lat="51.1943563" lon="5.16775">
|
|---|
| 1096 | <time>+50838-07-31T03:11:45Z</time>
|
|---|
| 1097 | </trkpt>
|
|---|
| 1098 | <trkpt lat="51.1944386" lon="5.1677653">
|
|---|
| 1099 | <time>+50838-07-31T03:28:25Z</time>
|
|---|
| 1100 | </trkpt>
|
|---|
| 1101 | <trkpt lat="51.1949933" lon="5.1678604">
|
|---|
| 1102 | <time>+50838-07-31T03:45:05Z</time>
|
|---|
| 1103 | </trkpt>
|
|---|
| 1104 | <trkpt lat="51.1951112" lon="5.1678413">
|
|---|
| 1105 | <time>+50838-07-31T04:01:45Z</time>
|
|---|
| 1106 | </trkpt>
|
|---|
| 1107 | <trkpt lat="51.1952151" lon="5.1677924">
|
|---|
| 1108 | <time>+50838-07-31T04:18:25Z</time>
|
|---|
| 1109 | </trkpt>
|
|---|
| 1110 | <trkpt lat="51.1953368" lon="5.1676936">
|
|---|
| 1111 | <time>+50838-07-31T04:35:05Z</time>
|
|---|
| 1112 | </trkpt>
|
|---|
| 1113 | <trkpt lat="51.1954717" lon="5.1675599">
|
|---|
| 1114 | <time>+50838-07-31T04:51:45Z</time>
|
|---|
| 1115 | </trkpt>
|
|---|
| 1116 | <trkpt lat="51.1955558" lon="5.1674151">
|
|---|
| 1117 | <time>+50838-07-31T05:08:25Z</time>
|
|---|
| 1118 | </trkpt>
|
|---|
| 1119 | <trkpt lat="51.1957272" lon="5.1671898">
|
|---|
| 1120 | <time>+50838-07-31T05:25:05Z</time>
|
|---|
| 1121 | </trkpt>
|
|---|
| 1122 | <trkpt lat="51.1959677" lon="5.1668674">
|
|---|
| 1123 | <time>+50838-07-31T05:41:45Z</time>
|
|---|
| 1124 | </trkpt>
|
|---|
| 1125 | <trkpt lat="51.1960336" lon="5.1667542">
|
|---|
| 1126 | <time>+50838-07-31T05:58:25Z</time>
|
|---|
| 1127 | </trkpt>
|
|---|
| 1128 | <trkpt lat="51.1960976" lon="5.1665785">
|
|---|
| 1129 | <time>+50838-07-31T06:15:05Z</time>
|
|---|
| 1130 | </trkpt>
|
|---|
| 1131 | <trkpt lat="51.1961373" lon="5.1664066">
|
|---|
| 1132 | <time>+50838-07-31T06:31:45Z</time>
|
|---|
| 1133 | </trkpt>
|
|---|
| 1134 | <trkpt lat="51.1962072" lon="5.1659057">
|
|---|
| 1135 | <time>+50838-07-31T06:48:25Z</time>
|
|---|
| 1136 | </trkpt>
|
|---|
| 1137 | <trkpt lat="51.196274" lon="5.1653598">
|
|---|
| 1138 | <time>+50838-07-31T07:05:05Z</time>
|
|---|
| 1139 | </trkpt>
|
|---|
| 1140 | <trkpt lat="51.19653" lon="5.1647931">
|
|---|
| 1141 | <time>+50838-07-31T07:21:45Z</time>
|
|---|
| 1142 | </trkpt>
|
|---|
| 1143 | <trkpt lat="51.1966193" lon="5.1646459">
|
|---|
| 1144 | <time>+50838-07-31T07:38:25Z</time>
|
|---|
| 1145 | </trkpt>
|
|---|
| 1146 | <trkpt lat="51.1966193" lon="5.1646459">
|
|---|
| 1147 | <time>+50838-07-31T07:55:05Z</time>
|
|---|
| 1148 | </trkpt>
|
|---|
| 1149 | <trkpt lat="51.1967764" lon="5.1644034">
|
|---|
| 1150 | <time>+50838-07-31T08:11:45Z</time>
|
|---|
| 1151 | </trkpt>
|
|---|
| 1152 | <trkpt lat="51.1969214" lon="5.1641507">
|
|---|
| 1153 | <time>+50838-07-31T08:28:25Z</time>
|
|---|
| 1154 | </trkpt>
|
|---|
| 1155 | <trkpt lat="51.1970269" lon="5.1639991">
|
|---|
| 1156 | <time>+50838-07-31T08:45:05Z</time>
|
|---|
| 1157 | </trkpt>
|
|---|
| 1158 | <trkpt lat="51.1971345" lon="5.1638546">
|
|---|
| 1159 | <time>+50838-07-31T09:01:45Z</time>
|
|---|
| 1160 | </trkpt>
|
|---|
| 1161 | <trkpt lat="51.1971345" lon="5.1638546">
|
|---|
| 1162 | <time>+50838-07-31T09:18:25Z</time>
|
|---|
| 1163 | </trkpt>
|
|---|
| 1164 | <trkpt lat="51.197327" lon="5.1655262">
|
|---|
| 1165 | <time>+50838-07-31T09:35:05Z</time>
|
|---|
| 1166 | </trkpt>
|
|---|
| 1167 | <trkpt lat="51.1973613" lon="5.1657788">
|
|---|
| 1168 | <time>+50838-07-31T09:51:45Z</time>
|
|---|
| 1169 | </trkpt>
|
|---|
| 1170 | <trkpt lat="51.1973855" lon="5.1658841">
|
|---|
| 1171 | <time>+50838-07-31T10:08:25Z</time>
|
|---|
| 1172 | </trkpt>
|
|---|
| 1173 | <trkpt lat="51.1974276" lon="5.1659651">
|
|---|
| 1174 | <time>+50838-07-31T10:25:05Z</time>
|
|---|
| 1175 | </trkpt>
|
|---|
| 1176 | <trkpt lat="51.1975401" lon="5.1661075">
|
|---|
| 1177 | <time>+50838-07-31T10:41:45Z</time>
|
|---|
| 1178 | </trkpt>
|
|---|
| 1179 | <trkpt lat="51.1976965" lon="5.1663163">
|
|---|
| 1180 | <time>+50838-07-31T10:58:25Z</time>
|
|---|
| 1181 | </trkpt>
|
|---|
| 1182 | <trkpt lat="51.1977686" lon="5.1664474">
|
|---|
| 1183 | <time>+50838-07-31T11:15:05Z</time>
|
|---|
| 1184 | </trkpt>
|
|---|
| 1185 | <trkpt lat="51.1978494" lon="5.1666356">
|
|---|
| 1186 | <time>+50838-07-31T11:31:45Z</time>
|
|---|
| 1187 | </trkpt>
|
|---|
| 1188 | <trkpt lat="51.1979463" lon="5.1668915">
|
|---|
| 1189 | <time>+50838-07-31T11:48:25Z</time>
|
|---|
| 1190 | </trkpt>
|
|---|
| 1191 | <trkpt lat="51.198037" lon="5.1671621">
|
|---|
| 1192 | <time>+50838-07-31T12:05:05Z</time>
|
|---|
| 1193 | </trkpt>
|
|---|
| 1194 | <trkpt lat="51.198037" lon="5.1671621">
|
|---|
| 1195 | <time>+50838-07-31T12:21:45Z</time>
|
|---|
| 1196 | </trkpt>
|
|---|
| 1197 | <trkpt lat="51.1975217" lon="5.167322">
|
|---|
| 1198 | <time>+50838-07-31T12:38:25Z</time>
|
|---|
| 1199 | </trkpt>
|
|---|
| 1200 | <trkpt lat="51.1974803" lon="5.1673494">
|
|---|
| 1201 | <time>+50838-07-31T12:55:05Z</time>
|
|---|
| 1202 | </trkpt>
|
|---|
| 1203 | <trkpt lat="51.1974477" lon="5.1674283">
|
|---|
| 1204 | <time>+50838-07-31T13:11:45Z</time>
|
|---|
| 1205 | </trkpt>
|
|---|
| 1206 | <trkpt lat="51.1974466" lon="5.1675047">
|
|---|
| 1207 | <time>+50838-07-31T13:28:25Z</time>
|
|---|
| 1208 | </trkpt>
|
|---|
| 1209 | <trkpt lat="51.1974722" lon="5.1677049">
|
|---|
| 1210 | <time>+50838-07-31T13:45:05Z</time>
|
|---|
| 1211 | </trkpt>
|
|---|
| 1212 | <trkpt lat="51.1978629" lon="5.1709648">
|
|---|
| 1213 | <time>+50838-07-31T14:01:45Z</time>
|
|---|
| 1214 | </trkpt>
|
|---|
| 1215 | <trkpt lat="51.1982511" lon="5.1742511">
|
|---|
| 1216 | <time>+50838-07-31T14:18:25Z</time>
|
|---|
| 1217 | </trkpt>
|
|---|
| 1218 | <trkpt lat="51.1982655" lon="5.1745332">
|
|---|
| 1219 | <time>+50838-07-31T14:35:05Z</time>
|
|---|
| 1220 | </trkpt>
|
|---|
| 1221 | <trkpt lat="51.198285" lon="5.1747837">
|
|---|
| 1222 | <time>+50838-07-31T14:51:45Z</time>
|
|---|
| 1223 | </trkpt>
|
|---|
| 1224 | <trkpt lat="51.1988596" lon="5.1804308">
|
|---|
| 1225 | <time>+50838-07-31T15:08:25Z</time>
|
|---|
| 1226 | </trkpt>
|
|---|
| 1227 | <trkpt lat="51.1988671" lon="5.1805053">
|
|---|
| 1228 | <time>+50838-07-31T15:25:05Z</time>
|
|---|
| 1229 | </trkpt>
|
|---|
| 1230 | <trkpt lat="51.1988911" lon="5.1805594">
|
|---|
| 1231 | <time>+50838-07-31T15:41:45Z</time>
|
|---|
| 1232 | </trkpt>
|
|---|
| 1233 | <trkpt lat="51.1989624" lon="5.1806274">
|
|---|
| 1234 | <time>+50838-07-31T15:58:25Z</time>
|
|---|
| 1235 | </trkpt>
|
|---|
| 1236 | <trkpt lat="51.1991256" lon="5.1807531">
|
|---|
| 1237 | <time>+50838-07-31T16:15:05Z</time>
|
|---|
| 1238 | </trkpt>
|
|---|
| 1239 | <trkpt lat="51.1991256" lon="5.1807531">
|
|---|
| 1240 | <time>+50838-07-31T16:31:45Z</time>
|
|---|
| 1241 | </trkpt>
|
|---|
| 1242 | <trkpt lat="51.1985798" lon="5.1824205">
|
|---|
| 1243 | <time>+50838-07-31T16:48:25Z</time>
|
|---|
| 1244 | </trkpt>
|
|---|
| 1245 | <trkpt lat="51.1985798" lon="5.1824205">
|
|---|
| 1246 | <time>+50838-07-31T17:05:05Z</time>
|
|---|
| 1247 | </trkpt>
|
|---|
| 1248 | <trkpt lat="51.198668" lon="5.1827249">
|
|---|
| 1249 | <time>+50838-07-31T17:21:45Z</time>
|
|---|
| 1250 | </trkpt>
|
|---|
| 1251 | <trkpt lat="51.1988265" lon="5.1845059">
|
|---|
| 1252 | <time>+50838-07-31T17:38:25Z</time>
|
|---|
| 1253 | </trkpt>
|
|---|
| 1254 | <trkpt lat="51.1988265" lon="5.1845059">
|
|---|
| 1255 | <time>+50838-07-31T17:55:05Z</time>
|
|---|
| 1256 | </trkpt>
|
|---|
| 1257 | <trkpt lat="51.1990297" lon="5.184993">
|
|---|
| 1258 | <time>+50838-07-31T18:11:45Z</time>
|
|---|
| 1259 | </trkpt>
|
|---|
| 1260 | <trkpt lat="51.1992983" lon="5.1853483">
|
|---|
| 1261 | <time>+50838-07-31T18:28:25Z</time>
|
|---|
| 1262 | </trkpt>
|
|---|
| 1263 | <trkpt lat="51.1994411" lon="5.1852865">
|
|---|
| 1264 | <time>+50838-07-31T18:45:05Z</time>
|
|---|
| 1265 | </trkpt>
|
|---|
| 1266 | <trkpt lat="51.199654" lon="5.1848386">
|
|---|
| 1267 | <time>+50838-07-31T19:01:45Z</time>
|
|---|
| 1268 | </trkpt>
|
|---|
| 1269 | <trkpt lat="51.1999154" lon="5.1845258">
|
|---|
| 1270 | <time>+50838-07-31T19:18:25Z</time>
|
|---|
| 1271 | </trkpt>
|
|---|
| 1272 | <trkpt lat="51.2002335" lon="5.184364">
|
|---|
| 1273 | <time>+50838-07-31T19:35:05Z</time>
|
|---|
| 1274 | </trkpt>
|
|---|
| 1275 | <trkpt lat="51.200549" lon="5.1842515">
|
|---|
| 1276 | <time>+50838-07-31T19:51:45Z</time>
|
|---|
| 1277 | </trkpt>
|
|---|
| 1278 | <trkpt lat="51.200549" lon="5.1842515">
|
|---|
| 1279 | <time>+50838-07-31T20:08:25Z</time>
|
|---|
| 1280 | </trkpt>
|
|---|
| 1281 | <trkpt lat="51.2005571" lon="5.1846275">
|
|---|
| 1282 | <time>+50838-07-31T20:25:05Z</time>
|
|---|
| 1283 | </trkpt>
|
|---|
| 1284 | <trkpt lat="51.200599" lon="5.1851996">
|
|---|
| 1285 | <time>+50838-07-31T20:41:45Z</time>
|
|---|
| 1286 | </trkpt>
|
|---|
| 1287 | <trkpt lat="51.2007044" lon="5.1865651">
|
|---|
| 1288 | <time>+50838-07-31T20:58:25Z</time>
|
|---|
| 1289 | </trkpt>
|
|---|
| 1290 | <trkpt lat="51.2007931" lon="5.1879358">
|
|---|
| 1291 | <time>+50838-07-31T21:15:05Z</time>
|
|---|
| 1292 | </trkpt>
|
|---|
| 1293 | <trkpt lat="51.2009664" lon="5.1904243">
|
|---|
| 1294 | <time>+50838-07-31T21:31:45Z</time>
|
|---|
| 1295 | </trkpt>
|
|---|
| 1296 | <trkpt lat="51.2009664" lon="5.1904243">
|
|---|
| 1297 | <time>+50838-07-31T21:48:25Z</time>
|
|---|
| 1298 | </trkpt>
|
|---|
| 1299 | <trkpt lat="51.2006503" lon="5.1904793">
|
|---|
| 1300 | <time>+50838-07-31T22:05:05Z</time>
|
|---|
| 1301 | </trkpt>
|
|---|
| 1302 | <trkpt lat="51.2006989" lon="5.1908955">
|
|---|
| 1303 | <time>+50838-07-31T22:21:45Z</time>
|
|---|
| 1304 | </trkpt>
|
|---|
| 1305 | <trkpt lat="51.2007721" lon="5.1913076">
|
|---|
| 1306 | <time>+50838-07-31T22:38:25Z</time>
|
|---|
| 1307 | </trkpt>
|
|---|
| 1308 | <trkpt lat="51.2009234" lon="5.192176">
|
|---|
| 1309 | <time>+50838-07-31T22:55:05Z</time>
|
|---|
| 1310 | </trkpt>
|
|---|
| 1311 | <trkpt lat="51.2009562" lon="5.1924964">
|
|---|
| 1312 | <time>+50838-07-31T23:11:45Z</time>
|
|---|
| 1313 | </trkpt>
|
|---|
| 1314 | <trkpt lat="51.2009635" lon="5.1933534">
|
|---|
| 1315 | <time>+50838-07-31T23:28:25Z</time>
|
|---|
| 1316 | </trkpt>
|
|---|
| 1317 | <trkpt lat="51.2009688" lon="5.1938615">
|
|---|
| 1318 | <time>+50838-07-31T23:45:05Z</time>
|
|---|
| 1319 | </trkpt>
|
|---|
| 1320 | <trkpt lat="51.2010259" lon="5.1944639">
|
|---|
| 1321 | <time>+50838-08-01T00:01:45Z</time>
|
|---|
| 1322 | </trkpt>
|
|---|
| 1323 | <trkpt lat="51.2010712" lon="5.1949556">
|
|---|
| 1324 | <time>+50838-08-01T00:18:25Z</time>
|
|---|
| 1325 | </trkpt>
|
|---|
| 1326 | <trkpt lat="51.201087" lon="5.1955388">
|
|---|
| 1327 | <time>+50838-08-01T00:35:05Z</time>
|
|---|
| 1328 | </trkpt>
|
|---|
| 1329 | <trkpt lat="51.201095" lon="5.1960837">
|
|---|
| 1330 | <time>+50838-08-01T00:51:45Z</time>
|
|---|
| 1331 | </trkpt>
|
|---|
| 1332 | <trkpt lat="51.201095" lon="5.1960837">
|
|---|
| 1333 | <time>+50838-08-01T01:08:25Z</time>
|
|---|
| 1334 | </trkpt>
|
|---|
| 1335 | <trkpt lat="51.2008433" lon="5.1962496">
|
|---|
| 1336 | <time>+50838-08-01T01:25:05Z</time>
|
|---|
| 1337 | </trkpt>
|
|---|
| 1338 | <trkpt lat="51.2008433" lon="5.1962496">
|
|---|
| 1339 | <time>+50838-08-01T01:41:45Z</time>
|
|---|
| 1340 | </trkpt>
|
|---|
| 1341 | <trkpt lat="51.2006832" lon="5.1962891">
|
|---|
| 1342 | <time>+50838-08-01T01:58:25Z</time>
|
|---|
| 1343 | </trkpt>
|
|---|
| 1344 | <trkpt lat="51.2006419" lon="5.1963017">
|
|---|
| 1345 | <time>+50838-08-01T02:15:05Z</time>
|
|---|
| 1346 | </trkpt>
|
|---|
| 1347 | <trkpt lat="51.2004181" lon="5.1963425">
|
|---|
| 1348 | <time>+50838-08-01T02:31:45Z</time>
|
|---|
| 1349 | </trkpt>
|
|---|
| 1350 | <trkpt lat="51.2004181" lon="5.1963425">
|
|---|
| 1351 | <time>+50838-08-01T02:48:25Z</time>
|
|---|
| 1352 | </trkpt>
|
|---|
| 1353 | <trkpt lat="51.1998873" lon="5.1964396">
|
|---|
| 1354 | <time>+50838-08-01T03:05:05Z</time>
|
|---|
| 1355 | </trkpt>
|
|---|
| 1356 | <trkpt lat="51.1995063" lon="5.1965514">
|
|---|
| 1357 | <time>+50838-08-01T03:21:45Z</time>
|
|---|
| 1358 | </trkpt>
|
|---|
| 1359 | <trkpt lat="51.1992424" lon="5.1965688">
|
|---|
| 1360 | <time>+50838-08-01T03:38:25Z</time>
|
|---|
| 1361 | </trkpt>
|
|---|
| 1362 | <trkpt lat="51.1947528" lon="5.1972929">
|
|---|
| 1363 | <time>+50838-08-01T03:55:05Z</time>
|
|---|
| 1364 | </trkpt>
|
|---|
| 1365 | <trkpt lat="51.1937583" lon="5.1974533">
|
|---|
| 1366 | <time>+50838-08-01T04:11:45Z</time>
|
|---|
| 1367 | </trkpt>
|
|---|
| 1368 | <trkpt lat="51.1935797" lon="5.1974857">
|
|---|
| 1369 | <time>+50838-08-01T04:28:25Z</time>
|
|---|
| 1370 | </trkpt>
|
|---|
| 1371 | <trkpt lat="51.1935797" lon="5.1974857">
|
|---|
| 1372 | <time>+50838-08-01T04:45:05Z</time>
|
|---|
| 1373 | </trkpt>
|
|---|
| 1374 | <trkpt lat="51.1934498" lon="5.1975039">
|
|---|
| 1375 | <time>+50838-08-01T05:01:45Z</time>
|
|---|
| 1376 | </trkpt>
|
|---|
| 1377 | <trkpt lat="51.1919041" lon="5.1977207">
|
|---|
| 1378 | <time>+50838-08-01T05:18:25Z</time>
|
|---|
| 1379 | </trkpt>
|
|---|
| 1380 | <trkpt lat="51.1919041" lon="5.1977207">
|
|---|
| 1381 | <time>+50838-08-01T05:35:05Z</time>
|
|---|
| 1382 | </trkpt>
|
|---|
| 1383 | <trkpt lat="51.1918595" lon="5.1977737">
|
|---|
| 1384 | <time>+50838-08-01T05:51:45Z</time>
|
|---|
| 1385 | </trkpt>
|
|---|
| 1386 | <trkpt lat="51.1918242" lon="5.1978642">
|
|---|
| 1387 | <time>+50838-08-01T06:08:25Z</time>
|
|---|
| 1388 | </trkpt>
|
|---|
| 1389 | <trkpt lat="51.1914951" lon="5.1988351">
|
|---|
| 1390 | <time>+50838-08-01T06:25:05Z</time>
|
|---|
| 1391 | </trkpt>
|
|---|
| 1392 | <trkpt lat="51.1911874" lon="5.1997766">
|
|---|
| 1393 | <time>+50838-08-01T06:41:45Z</time>
|
|---|
| 1394 | </trkpt>
|
|---|
| 1395 | <trkpt lat="51.1911874" lon="5.1997766">
|
|---|
| 1396 | <time>+50838-08-01T06:58:25Z</time>
|
|---|
| 1397 | </trkpt>
|
|---|
| 1398 | <trkpt lat="51.1915362" lon="5.2010728">
|
|---|
| 1399 | <time>+50838-08-01T07:15:05Z</time>
|
|---|
| 1400 | </trkpt>
|
|---|
| 1401 | <trkpt lat="51.1915774" lon="5.2011517">
|
|---|
| 1402 | <time>+50838-08-01T07:31:45Z</time>
|
|---|
| 1403 | </trkpt>
|
|---|
| 1404 | <trkpt lat="51.1916317" lon="5.2011905">
|
|---|
| 1405 | <time>+50838-08-01T07:48:25Z</time>
|
|---|
| 1406 | </trkpt>
|
|---|
| 1407 | <trkpt lat="51.1916317" lon="5.2011905">
|
|---|
| 1408 | <time>+50838-08-01T08:05:05Z</time>
|
|---|
| 1409 | </trkpt>
|
|---|
| 1410 | <trkpt lat="51.1916759" lon="5.2015009">
|
|---|
| 1411 | <time>+50838-08-01T08:21:45Z</time>
|
|---|
| 1412 | </trkpt>
|
|---|
| 1413 | <trkpt lat="51.1917324" lon="5.2017539">
|
|---|
| 1414 | <time>+50838-08-01T08:38:25Z</time>
|
|---|
| 1415 | </trkpt>
|
|---|
| 1416 | <trkpt lat="51.1917324" lon="5.2017539">
|
|---|
| 1417 | <time>+50838-08-01T08:55:05Z</time>
|
|---|
| 1418 | </trkpt>
|
|---|
| 1419 | <trkpt lat="51.1916775" lon="5.2017845">
|
|---|
| 1420 | <time>+50838-08-01T09:11:45Z</time>
|
|---|
| 1421 | </trkpt>
|
|---|
| 1422 | <trkpt lat="51.1916775" lon="5.2017845">
|
|---|
| 1423 | <time>+50838-08-01T09:28:25Z</time>
|
|---|
| 1424 | </trkpt>
|
|---|
| 1425 | <trkpt lat="51.1915515" lon="5.2018125">
|
|---|
| 1426 | <time>+50838-08-01T09:45:05Z</time>
|
|---|
| 1427 | </trkpt>
|
|---|
| 1428 | <trkpt lat="51.1908929" lon="5.2021879">
|
|---|
| 1429 | <time>+50838-08-01T10:01:45Z</time>
|
|---|
| 1430 | </trkpt>
|
|---|
| 1431 | <trkpt lat="51.1908929" lon="5.2021879">
|
|---|
| 1432 | <time>+50838-08-01T10:18:25Z</time>
|
|---|
| 1433 | </trkpt>
|
|---|
| 1434 | <trkpt lat="51.1897301" lon="5.2028292">
|
|---|
| 1435 | <time>+50838-08-01T10:35:05Z</time>
|
|---|
| 1436 | </trkpt>
|
|---|
| 1437 | <trkpt lat="51.1896553" lon="5.2029267">
|
|---|
| 1438 | <time>+50838-08-01T10:51:45Z</time>
|
|---|
| 1439 | </trkpt>
|
|---|
| 1440 | <trkpt lat="51.1896553" lon="5.2029267">
|
|---|
| 1441 | <time>+50838-08-01T11:08:25Z</time>
|
|---|
| 1442 | </trkpt>
|
|---|
| 1443 | <trkpt lat="51.1897501" lon="5.2030473">
|
|---|
| 1444 | <time>+50838-08-01T11:25:05Z</time>
|
|---|
| 1445 | </trkpt>
|
|---|
| 1446 | <trkpt lat="51.1900187" lon="5.2034894">
|
|---|
| 1447 | <time>+50838-08-01T11:41:45Z</time>
|
|---|
| 1448 | </trkpt>
|
|---|
| 1449 | <trkpt lat="51.1901695" lon="5.2037671">
|
|---|
| 1450 | <time>+50838-08-01T11:58:25Z</time>
|
|---|
| 1451 | </trkpt>
|
|---|
| 1452 | <trkpt lat="51.1907149" lon="5.2055244">
|
|---|
| 1453 | <time>+50838-08-01T12:15:05Z</time>
|
|---|
| 1454 | </trkpt>
|
|---|
| 1455 | <trkpt lat="51.1907149" lon="5.2055244">
|
|---|
| 1456 | <time>+50838-08-01T12:31:45Z</time>
|
|---|
| 1457 | </trkpt>
|
|---|
| 1458 | <trkpt lat="51.1907191" lon="5.2055559">
|
|---|
| 1459 | <time>+50838-08-01T12:48:25Z</time>
|
|---|
| 1460 | </trkpt>
|
|---|
| 1461 | <trkpt lat="51.1907191" lon="5.2055559">
|
|---|
| 1462 | <time>+50838-08-01T13:05:05Z</time>
|
|---|
| 1463 | </trkpt>
|
|---|
| 1464 | <trkpt lat="51.1909789" lon="5.2074972">
|
|---|
| 1465 | <time>+50838-08-01T13:21:45Z</time>
|
|---|
| 1466 | </trkpt>
|
|---|
| 1467 | <trkpt lat="51.1911067" lon="5.2081391">
|
|---|
| 1468 | <time>+50838-08-01T13:38:25Z</time>
|
|---|
| 1469 | </trkpt>
|
|---|
| 1470 | <trkpt lat="51.1911489" lon="5.2082823">
|
|---|
| 1471 | <time>+50838-08-01T13:55:05Z</time>
|
|---|
| 1472 | </trkpt>
|
|---|
| 1473 | <trkpt lat="51.1911489" lon="5.2082823">
|
|---|
| 1474 | <time>+50838-08-01T14:11:45Z</time>
|
|---|
| 1475 | </trkpt>
|
|---|
| 1476 | <trkpt lat="51.1921198" lon="5.2078246">
|
|---|
| 1477 | <time>+50838-08-01T14:28:25Z</time>
|
|---|
| 1478 | </trkpt>
|
|---|
| 1479 | <trkpt lat="51.1921198" lon="5.2078246">
|
|---|
| 1480 | <time>+50838-08-01T14:45:05Z</time>
|
|---|
| 1481 | </trkpt>
|
|---|
| 1482 | <trkpt lat="51.192473" lon="5.2073692">
|
|---|
| 1483 | <time>+50838-08-01T15:01:45Z</time>
|
|---|
| 1484 | </trkpt>
|
|---|
| 1485 | <trkpt lat="51.1930574" lon="5.2067611">
|
|---|
| 1486 | <time>+50838-08-01T15:18:25Z</time>
|
|---|
| 1487 | </trkpt>
|
|---|
| 1488 | <trkpt lat="51.1931018" lon="5.206716">
|
|---|
| 1489 | <time>+50838-08-01T15:35:05Z</time>
|
|---|
| 1490 | </trkpt>
|
|---|
| 1491 | <trkpt lat="51.1931018" lon="5.206716">
|
|---|
| 1492 | <time>+50838-08-01T15:51:45Z</time>
|
|---|
| 1493 | </trkpt>
|
|---|
| 1494 | <trkpt lat="51.1930067" lon="5.2064433">
|
|---|
| 1495 | <time>+50838-08-01T16:08:25Z</time>
|
|---|
| 1496 | </trkpt>
|
|---|
| 1497 | <trkpt lat="51.1929026" lon="5.2061011">
|
|---|
| 1498 | <time>+50838-08-01T16:25:05Z</time>
|
|---|
| 1499 | </trkpt>
|
|---|
| 1500 | <trkpt lat="51.1929026" lon="5.2061011">
|
|---|
| 1501 | <time>+50838-08-01T16:41:45Z</time>
|
|---|
| 1502 | </trkpt>
|
|---|
| 1503 | <trkpt lat="51.1933564" lon="5.2061487">
|
|---|
| 1504 | <time>+50838-08-01T16:58:25Z</time>
|
|---|
| 1505 | </trkpt>
|
|---|
| 1506 | <trkpt lat="51.1977076" lon="5.2066067">
|
|---|
| 1507 | <time>+50838-08-01T17:15:05Z</time>
|
|---|
| 1508 | </trkpt>
|
|---|
| 1509 | <trkpt lat="51.1998269" lon="5.2068473">
|
|---|
| 1510 | <time>+50838-08-01T17:31:45Z</time>
|
|---|
| 1511 | </trkpt>
|
|---|
| 1512 | <trkpt lat="51.2003052" lon="5.2068689">
|
|---|
| 1513 | <time>+50838-08-01T17:48:25Z</time>
|
|---|
| 1514 | </trkpt>
|
|---|
| 1515 | <trkpt lat="51.2008309" lon="5.2070341">
|
|---|
| 1516 | <time>+50838-08-01T18:05:05Z</time>
|
|---|
| 1517 | </trkpt>
|
|---|
| 1518 | <trkpt lat="51.2009389" lon="5.207017">
|
|---|
| 1519 | <time>+50838-08-01T18:21:45Z</time>
|
|---|
| 1520 | </trkpt>
|
|---|
| 1521 | <trkpt lat="51.2009389" lon="5.207017">
|
|---|
| 1522 | <time>+50838-08-01T18:38:25Z</time>
|
|---|
| 1523 | </trkpt>
|
|---|
| 1524 | <trkpt lat="51.2010045" lon="5.2070018">
|
|---|
| 1525 | <time>+50838-08-01T18:55:05Z</time>
|
|---|
| 1526 | </trkpt>
|
|---|
| 1527 | <trkpt lat="51.2010045" lon="5.2070018">
|
|---|
| 1528 | <time>+50838-08-01T19:11:45Z</time>
|
|---|
| 1529 | </trkpt>
|
|---|
| 1530 | <trkpt lat="51.2011868" lon="5.2069725">
|
|---|
| 1531 | <time>+50838-08-01T19:28:25Z</time>
|
|---|
| 1532 | </trkpt>
|
|---|
| 1533 | <trkpt lat="51.2011868" lon="5.2069725">
|
|---|
| 1534 | <time>+50838-08-01T19:45:05Z</time>
|
|---|
| 1535 | </trkpt>
|
|---|
| 1536 | <trkpt lat="51.2017721" lon="5.2070534">
|
|---|
| 1537 | <time>+50838-08-01T20:01:45Z</time>
|
|---|
| 1538 | </trkpt>
|
|---|
| 1539 | <trkpt lat="51.2030219" lon="5.2071846">
|
|---|
| 1540 | <time>+50838-08-01T20:18:25Z</time>
|
|---|
| 1541 | </trkpt>
|
|---|
| 1542 | <trkpt lat="51.2036287" lon="5.2072483">
|
|---|
| 1543 | <time>+50838-08-01T20:35:05Z</time>
|
|---|
| 1544 | </trkpt>
|
|---|
| 1545 | <trkpt lat="51.2043947" lon="5.2073325">
|
|---|
| 1546 | <time>+50838-08-01T20:51:45Z</time>
|
|---|
| 1547 | </trkpt>
|
|---|
| 1548 | <trkpt lat="51.2043947" lon="5.2073325">
|
|---|
| 1549 | <time>+50838-08-01T21:08:25Z</time>
|
|---|
| 1550 | </trkpt>
|
|---|
| 1551 | <trkpt lat="51.2044822" lon="5.207345">
|
|---|
| 1552 | <time>+50838-08-01T21:25:05Z</time>
|
|---|
| 1553 | </trkpt>
|
|---|
| 1554 | <trkpt lat="51.2044822" lon="5.207345">
|
|---|
| 1555 | <time>+50838-08-01T21:41:45Z</time>
|
|---|
| 1556 | </trkpt>
|
|---|
| 1557 | <trkpt lat="51.2057716" lon="5.2074846">
|
|---|
| 1558 | <time>+50838-08-01T21:58:25Z</time>
|
|---|
| 1559 | </trkpt>
|
|---|
| 1560 | <trkpt lat="51.2064893" lon="5.2075454">
|
|---|
| 1561 | <time>+50838-08-01T22:15:05Z</time>
|
|---|
| 1562 | </trkpt>
|
|---|
| 1563 | <trkpt lat="51.2065887" lon="5.2075532">
|
|---|
| 1564 | <time>+50838-08-01T22:31:45Z</time>
|
|---|
| 1565 | </trkpt>
|
|---|
| 1566 | <trkpt lat="51.2066407" lon="5.2075573">
|
|---|
| 1567 | <time>+50838-08-01T22:48:25Z</time>
|
|---|
| 1568 | </trkpt>
|
|---|
| 1569 | <trkpt lat="51.2066407" lon="5.2075573">
|
|---|
| 1570 | <time>+50838-08-01T23:05:05Z</time>
|
|---|
| 1571 | </trkpt>
|
|---|
| 1572 | <trkpt lat="51.2067301" lon="5.2075184">
|
|---|
| 1573 | <time>+50838-08-01T23:21:45Z</time>
|
|---|
| 1574 | </trkpt>
|
|---|
| 1575 | <trkpt lat="51.2068583" lon="5.2074732">
|
|---|
| 1576 | <time>+50838-08-01T23:38:25Z</time>
|
|---|
| 1577 | </trkpt>
|
|---|
| 1578 | <trkpt lat="51.2068978" lon="5.207459">
|
|---|
| 1579 | <time>+50838-08-01T23:55:05Z</time>
|
|---|
| 1580 | </trkpt>
|
|---|
| 1581 | <trkpt lat="51.2088791" lon="5.206748">
|
|---|
| 1582 | <time>+50838-08-02T00:11:45Z</time>
|
|---|
| 1583 | </trkpt>
|
|---|
| 1584 | <trkpt lat="51.2088791" lon="5.206748">
|
|---|
| 1585 | <time>+50838-08-02T00:28:25Z</time>
|
|---|
| 1586 | </trkpt>
|
|---|
| 1587 | <trkpt lat="51.2089546" lon="5.2067222">
|
|---|
| 1588 | <time>+50838-08-02T00:45:05Z</time>
|
|---|
| 1589 | </trkpt>
|
|---|
| 1590 | <trkpt lat="51.2090595" lon="5.206716">
|
|---|
| 1591 | <time>+50838-08-02T01:01:45Z</time>
|
|---|
| 1592 | </trkpt>
|
|---|
| 1593 | <trkpt lat="51.2093651" lon="5.2067623">
|
|---|
| 1594 | <time>+50838-08-02T01:18:25Z</time>
|
|---|
| 1595 | </trkpt>
|
|---|
| 1596 | <trkpt lat="51.2131921" lon="5.2073535">
|
|---|
| 1597 | <time>+50838-08-02T01:35:05Z</time>
|
|---|
| 1598 | </trkpt>
|
|---|
| 1599 | <trkpt lat="51.2131921" lon="5.2073535">
|
|---|
| 1600 | <time>+50838-08-02T01:51:45Z</time>
|
|---|
| 1601 | </trkpt>
|
|---|
| 1602 | <trkpt lat="51.2135849" lon="5.2074131">
|
|---|
| 1603 | <time>+50838-08-02T02:08:25Z</time>
|
|---|
| 1604 | </trkpt>
|
|---|
| 1605 | <trkpt lat="51.2135849" lon="5.2074131">
|
|---|
| 1606 | <time>+50838-08-02T02:25:05Z</time>
|
|---|
| 1607 | </trkpt>
|
|---|
| 1608 | <trkpt lat="51.2152143" lon="5.2076601">
|
|---|
| 1609 | <time>+50838-08-02T02:41:45Z</time>
|
|---|
| 1610 | </trkpt>
|
|---|
| 1611 | <trkpt lat="51.2160381" lon="5.2077901">
|
|---|
| 1612 | <time>+50838-08-02T02:58:25Z</time>
|
|---|
| 1613 | <name>Rauw - Mol</name>
|
|---|
| 1614 | </trkpt>
|
|---|
| 1615 | <trkpt lat="51.2160381" lon="5.2077901">
|
|---|
| 1616 | <time>+50838-08-02T03:15:05Z</time>
|
|---|
| 1617 | <name>Rauw - Mol</name>
|
|---|
| 1618 | </trkpt>
|
|---|
| 1619 | <trkpt lat="51.2163817" lon="5.2078444">
|
|---|
| 1620 | <time>+50838-08-02T03:31:45Z</time>
|
|---|
| 1621 | </trkpt>
|
|---|
| 1622 | <trkpt lat="51.2163817" lon="5.2078444">
|
|---|
| 1623 | <time>+50838-08-02T03:48:25Z</time>
|
|---|
| 1624 | </trkpt>
|
|---|
| 1625 | <trkpt lat="51.2164289" lon="5.2078033">
|
|---|
| 1626 | <time>+50838-08-02T04:05:05Z</time>
|
|---|
| 1627 | </trkpt>
|
|---|
| 1628 | <trkpt lat="51.2164638" lon="5.2077601">
|
|---|
| 1629 | <time>+50838-08-02T04:21:45Z</time>
|
|---|
| 1630 | </trkpt>
|
|---|
| 1631 | <trkpt lat="51.2169688" lon="5.2073674">
|
|---|
| 1632 | <time>+50838-08-02T04:38:25Z</time>
|
|---|
| 1633 | </trkpt>
|
|---|
| 1634 | <trkpt lat="51.2169688" lon="5.2073674">
|
|---|
| 1635 | <time>+50838-08-02T04:55:05Z</time>
|
|---|
| 1636 | </trkpt>
|
|---|
| 1637 | <trkpt lat="51.2182177" lon="5.2063627">
|
|---|
| 1638 | <time>+50838-08-02T05:11:45Z</time>
|
|---|
| 1639 | </trkpt>
|
|---|
| 1640 | <trkpt lat="51.2196325" lon="5.205259">
|
|---|
| 1641 | <time>+50838-08-02T05:28:25Z</time>
|
|---|
| 1642 | </trkpt>
|
|---|
| 1643 | <trkpt lat="51.2196325" lon="5.205259">
|
|---|
| 1644 | <time>+50838-08-02T05:45:05Z</time>
|
|---|
| 1645 | </trkpt>
|
|---|
| 1646 | <trkpt lat="51.2204007" lon="5.204659">
|
|---|
| 1647 | <time>+50838-08-02T06:01:45Z</time>
|
|---|
| 1648 | </trkpt>
|
|---|
| 1649 | <trkpt lat="51.220473" lon="5.2046025">
|
|---|
| 1650 | <time>+50838-08-02T06:18:25Z</time>
|
|---|
| 1651 | </trkpt>
|
|---|
| 1652 | <trkpt lat="51.220473" lon="5.2046025">
|
|---|
| 1653 | <time>+50838-08-02T06:35:05Z</time>
|
|---|
| 1654 | </trkpt>
|
|---|
| 1655 | <trkpt lat="51.22062" lon="5.2050757">
|
|---|
| 1656 | <time>+50838-08-02T06:51:45Z</time>
|
|---|
| 1657 | </trkpt>
|
|---|
| 1658 | <trkpt lat="51.2206452" lon="5.2051195">
|
|---|
| 1659 | <time>+50838-08-02T07:08:25Z</time>
|
|---|
| 1660 | </trkpt>
|
|---|
| 1661 | <trkpt lat="51.2206784" lon="5.2051323">
|
|---|
| 1662 | <time>+50838-08-02T07:25:05Z</time>
|
|---|
| 1663 | </trkpt>
|
|---|
| 1664 | <trkpt lat="51.220723" lon="5.2051305">
|
|---|
| 1665 | <time>+50838-08-02T07:41:45Z</time>
|
|---|
| 1666 | </trkpt>
|
|---|
| 1667 | <trkpt lat="51.2208087" lon="5.2050827">
|
|---|
| 1668 | <time>+50838-08-02T07:58:25Z</time>
|
|---|
| 1669 | </trkpt>
|
|---|
| 1670 | <trkpt lat="51.2210081" lon="5.2049386">
|
|---|
| 1671 | <time>+50838-08-02T08:15:05Z</time>
|
|---|
| 1672 | </trkpt>
|
|---|
| 1673 | <trkpt lat="51.2210253" lon="5.2049258">
|
|---|
| 1674 | <time>+50838-08-02T08:31:45Z</time>
|
|---|
| 1675 | </trkpt>
|
|---|
| 1676 | <trkpt lat="51.2211256" lon="5.2048207">
|
|---|
| 1677 | <time>+50838-08-02T08:48:25Z</time>
|
|---|
| 1678 | </trkpt>
|
|---|
| 1679 | <trkpt lat="51.221156" lon="5.2048005">
|
|---|
| 1680 | <time>+50838-08-02T09:05:05Z</time>
|
|---|
| 1681 | </trkpt>
|
|---|
| 1682 | <trkpt lat="51.2211512" lon="5.2047229">
|
|---|
| 1683 | <time>+50838-08-02T09:21:45Z</time>
|
|---|
| 1684 | </trkpt>
|
|---|
| 1685 | <trkpt lat="51.2211764" lon="5.2046772">
|
|---|
| 1686 | <time>+50838-08-02T09:38:25Z</time>
|
|---|
| 1687 | </trkpt>
|
|---|
| 1688 | <trkpt lat="51.2214042" lon="5.2045035">
|
|---|
| 1689 | <time>+50838-08-02T09:55:05Z</time>
|
|---|
| 1690 | </trkpt>
|
|---|
| 1691 | <trkpt lat="51.2214408" lon="5.2044688">
|
|---|
| 1692 | <time>+50838-08-02T10:11:45Z</time>
|
|---|
| 1693 | </trkpt>
|
|---|
| 1694 | <trkpt lat="51.2214591" lon="5.2044377">
|
|---|
| 1695 | <time>+50838-08-02T10:28:25Z</time>
|
|---|
| 1696 | </trkpt>
|
|---|
| 1697 | <trkpt lat="51.2214729" lon="5.2044048">
|
|---|
| 1698 | <time>+50838-08-02T10:45:05Z</time>
|
|---|
| 1699 | </trkpt>
|
|---|
| 1700 | <trkpt lat="51.2214752" lon="5.2043518">
|
|---|
| 1701 | <time>+50838-08-02T11:01:45Z</time>
|
|---|
| 1702 | </trkpt>
|
|---|
| 1703 | <trkpt lat="51.2214672" lon="5.2043098">
|
|---|
| 1704 | <time>+50838-08-02T11:18:25Z</time>
|
|---|
| 1705 | </trkpt>
|
|---|
| 1706 | <trkpt lat="51.2213473" lon="5.2039256">
|
|---|
| 1707 | <time>+50838-08-02T11:35:05Z</time>
|
|---|
| 1708 | </trkpt>
|
|---|
| 1709 | <trkpt lat="51.2213473" lon="5.2039256">
|
|---|
| 1710 | <time>+50838-08-02T11:51:45Z</time>
|
|---|
| 1711 | </trkpt>
|
|---|
| 1712 | <trkpt lat="51.2219233" lon="5.2034932">
|
|---|
| 1713 | <time>+50838-08-02T12:08:25Z</time>
|
|---|
| 1714 | </trkpt>
|
|---|
| 1715 | <trkpt lat="51.2227166" lon="5.2028605">
|
|---|
| 1716 | <time>+50838-08-02T12:25:05Z</time>
|
|---|
| 1717 | </trkpt>
|
|---|
| 1718 | <trkpt lat="51.2232364" lon="5.2024544">
|
|---|
| 1719 | <time>+50838-08-02T12:41:45Z</time>
|
|---|
| 1720 | </trkpt>
|
|---|
| 1721 | <trkpt lat="51.2232364" lon="5.2024544">
|
|---|
| 1722 | <time>+50838-08-02T12:58:25Z</time>
|
|---|
| 1723 | </trkpt>
|
|---|
| 1724 | <trkpt lat="51.223524" lon="5.2021953">
|
|---|
| 1725 | <time>+50838-08-02T13:15:05Z</time>
|
|---|
| 1726 | </trkpt>
|
|---|
| 1727 | <trkpt lat="51.223657" lon="5.2020754">
|
|---|
| 1728 | <time>+50838-08-02T13:31:45Z</time>
|
|---|
| 1729 | </trkpt>
|
|---|
| 1730 | <trkpt lat="51.2238655" lon="5.2026527">
|
|---|
| 1731 | <time>+50838-08-02T13:48:25Z</time>
|
|---|
| 1732 | </trkpt>
|
|---|
| 1733 | <trkpt lat="51.2243853" lon="5.2039198">
|
|---|
| 1734 | <time>+50838-08-02T14:05:05Z</time>
|
|---|
| 1735 | </trkpt>
|
|---|
| 1736 | <trkpt lat="51.2244028" lon="5.2039625">
|
|---|
| 1737 | <time>+50838-08-02T14:21:45Z</time>
|
|---|
| 1738 | </trkpt>
|
|---|
| 1739 | <trkpt lat="51.2244722" lon="5.2042252">
|
|---|
| 1740 | <time>+50838-08-02T14:38:25Z</time>
|
|---|
| 1741 | </trkpt>
|
|---|
| 1742 | <trkpt lat="51.2246209" lon="5.2047643">
|
|---|
| 1743 | <time>+50838-08-02T14:55:05Z</time>
|
|---|
| 1744 | </trkpt>
|
|---|
| 1745 | <trkpt lat="51.2247352" lon="5.2053936">
|
|---|
| 1746 | <time>+50838-08-02T15:11:45Z</time>
|
|---|
| 1747 | </trkpt>
|
|---|
| 1748 | <trkpt lat="51.2247718" lon="5.2061175">
|
|---|
| 1749 | <time>+50838-08-02T15:28:25Z</time>
|
|---|
| 1750 | </trkpt>
|
|---|
| 1751 | <trkpt lat="51.2246712" lon="5.2070034">
|
|---|
| 1752 | <time>+50838-08-02T15:45:05Z</time>
|
|---|
| 1753 | </trkpt>
|
|---|
| 1754 | <trkpt lat="51.2246712" lon="5.2070034">
|
|---|
| 1755 | <time>+50838-08-02T16:01:45Z</time>
|
|---|
| 1756 | </trkpt>
|
|---|
| 1757 | <trkpt lat="51.2246557" lon="5.2071111">
|
|---|
| 1758 | <time>+50838-08-02T16:18:25Z</time>
|
|---|
| 1759 | </trkpt>
|
|---|
| 1760 | <trkpt lat="51.2246557" lon="5.2071111">
|
|---|
| 1761 | <time>+50838-08-02T16:35:05Z</time>
|
|---|
| 1762 | </trkpt>
|
|---|
| 1763 | <trkpt lat="51.2246452" lon="5.2071843">
|
|---|
| 1764 | <time>+50838-08-02T16:51:45Z</time>
|
|---|
| 1765 | </trkpt>
|
|---|
| 1766 | <trkpt lat="51.2246452" lon="5.2071843">
|
|---|
| 1767 | <time>+50838-08-02T17:08:25Z</time>
|
|---|
| 1768 | </trkpt>
|
|---|
| 1769 | <trkpt lat="51.2246525" lon="5.2073777">
|
|---|
| 1770 | <time>+50838-08-02T17:25:05Z</time>
|
|---|
| 1771 | </trkpt>
|
|---|
| 1772 | <trkpt lat="51.2245957" lon="5.2075285">
|
|---|
| 1773 | <time>+50838-08-02T17:41:45Z</time>
|
|---|
| 1774 | </trkpt>
|
|---|
| 1775 | <trkpt lat="51.2245957" lon="5.2075285">
|
|---|
| 1776 | <time>+50838-08-02T17:58:25Z</time>
|
|---|
| 1777 | </trkpt>
|
|---|
| 1778 | <trkpt lat="51.2247122" lon="5.2075458">
|
|---|
| 1779 | <time>+50838-08-02T18:15:05Z</time>
|
|---|
| 1780 | </trkpt>
|
|---|
| 1781 | <trkpt lat="51.2248122" lon="5.2075904">
|
|---|
| 1782 | <time>+50838-08-02T18:31:45Z</time>
|
|---|
| 1783 | </trkpt>
|
|---|
| 1784 | <trkpt lat="51.2248707" lon="5.2076809">
|
|---|
| 1785 | <time>+50838-08-02T18:48:25Z</time>
|
|---|
| 1786 | </trkpt>
|
|---|
| 1787 | <trkpt lat="51.2249164" lon="5.2077424">
|
|---|
| 1788 | <time>+50838-08-02T19:05:05Z</time>
|
|---|
| 1789 | </trkpt>
|
|---|
| 1790 | <trkpt lat="51.2249548" lon="5.207873">
|
|---|
| 1791 | <time>+50838-08-02T19:21:45Z</time>
|
|---|
| 1792 | </trkpt>
|
|---|
| 1793 | <trkpt lat="51.224887" lon="5.2082067">
|
|---|
| 1794 | <time>+50838-08-02T19:38:25Z</time>
|
|---|
| 1795 | </trkpt>
|
|---|
| 1796 | <trkpt lat="51.2248296" lon="5.2085417">
|
|---|
| 1797 | <time>+50838-08-02T19:55:05Z</time>
|
|---|
| 1798 | </trkpt>
|
|---|
| 1799 | <trkpt lat="51.2247222" lon="5.2088226">
|
|---|
| 1800 | <time>+50838-08-02T20:11:45Z</time>
|
|---|
| 1801 | </trkpt>
|
|---|
| 1802 | <trkpt lat="51.2246359" lon="5.2089682">
|
|---|
| 1803 | <time>+50838-08-02T20:28:25Z</time>
|
|---|
| 1804 | </trkpt>
|
|---|
| 1805 | <trkpt lat="51.2245591" lon="5.2090458">
|
|---|
| 1806 | <time>+50838-08-02T20:45:05Z</time>
|
|---|
| 1807 | </trkpt>
|
|---|
| 1808 | <trkpt lat="51.2244996" lon="5.2091059">
|
|---|
| 1809 | <time>+50838-08-02T21:01:45Z</time>
|
|---|
| 1810 | </trkpt>
|
|---|
| 1811 | <trkpt lat="51.224457" lon="5.209149">
|
|---|
| 1812 | <time>+50838-08-02T21:18:25Z</time>
|
|---|
| 1813 | </trkpt>
|
|---|
| 1814 | <trkpt lat="51.2242909" lon="5.2092931">
|
|---|
| 1815 | <time>+50838-08-02T21:35:05Z</time>
|
|---|
| 1816 | </trkpt>
|
|---|
| 1817 | <trkpt lat="51.2242318" lon="5.2093311">
|
|---|
| 1818 | <time>+50838-08-02T21:51:45Z</time>
|
|---|
| 1819 | </trkpt>
|
|---|
| 1820 | <trkpt lat="51.2242318" lon="5.2093311">
|
|---|
| 1821 | <time>+50838-08-02T22:08:25Z</time>
|
|---|
| 1822 | </trkpt>
|
|---|
| 1823 | <trkpt lat="51.2239766" lon="5.2094888">
|
|---|
| 1824 | <time>+50838-08-02T22:25:05Z</time>
|
|---|
| 1825 | </trkpt>
|
|---|
| 1826 | <trkpt lat="51.2236977" lon="5.2095156">
|
|---|
| 1827 | <time>+50838-08-02T22:41:45Z</time>
|
|---|
| 1828 | </trkpt>
|
|---|
| 1829 | <trkpt lat="51.2234558" lon="5.2095263">
|
|---|
| 1830 | <time>+50838-08-02T22:58:25Z</time>
|
|---|
| 1831 | </trkpt>
|
|---|
| 1832 | <trkpt lat="51.2232744" lon="5.2094459">
|
|---|
| 1833 | <time>+50838-08-02T23:15:05Z</time>
|
|---|
| 1834 | </trkpt>
|
|---|
| 1835 | <trkpt lat="51.2230896" lon="5.2094137">
|
|---|
| 1836 | <time>+50838-08-02T23:31:45Z</time>
|
|---|
| 1837 | </trkpt>
|
|---|
| 1838 | <trkpt lat="51.2227839" lon="5.2093815">
|
|---|
| 1839 | <time>+50838-08-02T23:48:25Z</time>
|
|---|
| 1840 | </trkpt>
|
|---|
| 1841 | <trkpt lat="51.2225319" lon="5.2093761">
|
|---|
| 1842 | <time>+50838-08-03T00:05:05Z</time>
|
|---|
| 1843 | </trkpt>
|
|---|
| 1844 | <trkpt lat="51.2223236" lon="5.2093922">
|
|---|
| 1845 | <time>+50838-08-03T00:21:45Z</time>
|
|---|
| 1846 | </trkpt>
|
|---|
| 1847 | <trkpt lat="51.2221825" lon="5.2094083">
|
|---|
| 1848 | <time>+50838-08-03T00:38:25Z</time>
|
|---|
| 1849 | </trkpt>
|
|---|
| 1850 | <trkpt lat="51.221929" lon="5.2095407">
|
|---|
| 1851 | <time>+50838-08-03T00:55:05Z</time>
|
|---|
| 1852 | </trkpt>
|
|---|
| 1853 | <trkpt lat="51.2219235" lon="5.2098929">
|
|---|
| 1854 | <time>+50838-08-03T01:11:45Z</time>
|
|---|
| 1855 | </trkpt>
|
|---|
| 1856 | <trkpt lat="51.2219572" lon="5.2100369">
|
|---|
| 1857 | <time>+50838-08-03T01:28:25Z</time>
|
|---|
| 1858 | </trkpt>
|
|---|
| 1859 | <trkpt lat="51.2219731" lon="5.2101987">
|
|---|
| 1860 | <time>+50838-08-03T01:45:05Z</time>
|
|---|
| 1861 | </trkpt>
|
|---|
| 1862 | <trkpt lat="51.2220015" lon="5.2104006">
|
|---|
| 1863 | <time>+50838-08-03T02:01:45Z</time>
|
|---|
| 1864 | </trkpt>
|
|---|
| 1865 | <trkpt lat="51.2220909" lon="5.2110256">
|
|---|
| 1866 | <time>+50838-08-03T02:18:25Z</time>
|
|---|
| 1867 | </trkpt>
|
|---|
| 1868 | <trkpt lat="51.2222314" lon="5.2115177">
|
|---|
| 1869 | <time>+50838-08-03T02:35:05Z</time>
|
|---|
| 1870 | </trkpt>
|
|---|
| 1871 | <trkpt lat="51.2224055" lon="5.2121487">
|
|---|
| 1872 | <time>+50838-08-03T02:51:45Z</time>
|
|---|
| 1873 | </trkpt>
|
|---|
| 1874 | <trkpt lat="51.2226362" lon="5.2128665">
|
|---|
| 1875 | <time>+50838-08-03T03:08:25Z</time>
|
|---|
| 1876 | </trkpt>
|
|---|
| 1877 | <trkpt lat="51.2227787" lon="5.2130936">
|
|---|
| 1878 | <time>+50838-08-03T03:25:05Z</time>
|
|---|
| 1879 | </trkpt>
|
|---|
| 1880 | <trkpt lat="51.2228429" lon="5.2132272">
|
|---|
| 1881 | <time>+50838-08-03T03:41:45Z</time>
|
|---|
| 1882 | </trkpt>
|
|---|
| 1883 | <trkpt lat="51.2229963" lon="5.2134307">
|
|---|
| 1884 | <time>+50838-08-03T03:58:25Z</time>
|
|---|
| 1885 | </trkpt>
|
|---|
| 1886 | <trkpt lat="51.2232044" lon="5.2136045">
|
|---|
| 1887 | <time>+50838-08-03T04:15:05Z</time>
|
|---|
| 1888 | </trkpt>
|
|---|
| 1889 | <trkpt lat="51.2233515" lon="5.2138149">
|
|---|
| 1890 | <time>+50838-08-03T04:31:45Z</time>
|
|---|
| 1891 | </trkpt>
|
|---|
| 1892 | <trkpt lat="51.2236589" lon="5.2140178">
|
|---|
| 1893 | <time>+50838-08-03T04:48:25Z</time>
|
|---|
| 1894 | </trkpt>
|
|---|
| 1895 | <trkpt lat="51.2240654" lon="5.2142674">
|
|---|
| 1896 | <time>+50838-08-03T05:05:05Z</time>
|
|---|
| 1897 | </trkpt>
|
|---|
| 1898 | <trkpt lat="51.2243653" lon="5.214255">
|
|---|
| 1899 | <time>+50838-08-03T05:21:45Z</time>
|
|---|
| 1900 | </trkpt>
|
|---|
| 1901 | <trkpt lat="51.224719" lon="5.2142685">
|
|---|
| 1902 | <time>+50838-08-03T05:38:25Z</time>
|
|---|
| 1903 | </trkpt>
|
|---|
| 1904 | <trkpt lat="51.2255455" lon="5.2143188">
|
|---|
| 1905 | <time>+50838-08-03T05:55:05Z</time>
|
|---|
| 1906 | </trkpt>
|
|---|
| 1907 | <trkpt lat="51.2261129" lon="5.21432">
|
|---|
| 1908 | <time>+50838-08-03T06:11:45Z</time>
|
|---|
| 1909 | </trkpt>
|
|---|
| 1910 | <trkpt lat="51.2263635" lon="5.2142548">
|
|---|
| 1911 | <time>+50838-08-03T06:28:25Z</time>
|
|---|
| 1912 | </trkpt>
|
|---|
| 1913 | <trkpt lat="51.226434" lon="5.2143393">
|
|---|
| 1914 | <time>+50838-08-03T06:45:05Z</time>
|
|---|
| 1915 | </trkpt>
|
|---|
| 1916 | <trkpt lat="51.2264922" lon="5.2145378">
|
|---|
| 1917 | <time>+50838-08-03T07:01:45Z</time>
|
|---|
| 1918 | </trkpt>
|
|---|
| 1919 | <trkpt lat="51.2264897" lon="5.2148002">
|
|---|
| 1920 | <time>+50838-08-03T07:18:25Z</time>
|
|---|
| 1921 | </trkpt>
|
|---|
| 1922 | <trkpt lat="51.2264881" lon="5.2149612">
|
|---|
| 1923 | <time>+50838-08-03T07:35:05Z</time>
|
|---|
| 1924 | </trkpt>
|
|---|
| 1925 | <trkpt lat="51.2264881" lon="5.2149612">
|
|---|
| 1926 | <time>+50838-08-03T07:51:45Z</time>
|
|---|
| 1927 | </trkpt>
|
|---|
| 1928 | <trkpt lat="51.2293032" lon="5.2151527">
|
|---|
| 1929 | <time>+50838-08-03T08:08:25Z</time>
|
|---|
| 1930 | </trkpt>
|
|---|
| 1931 | <trkpt lat="51.2304329" lon="5.2152097">
|
|---|
| 1932 | <time>+50838-08-03T08:25:05Z</time>
|
|---|
| 1933 | </trkpt>
|
|---|
| 1934 | <trkpt lat="51.2315806" lon="5.2152586">
|
|---|
| 1935 | <time>+50838-08-03T08:41:45Z</time>
|
|---|
| 1936 | </trkpt>
|
|---|
| 1937 | <trkpt lat="51.2315806" lon="5.2152586">
|
|---|
| 1938 | <time>+50838-08-03T08:58:25Z</time>
|
|---|
| 1939 | </trkpt>
|
|---|
| 1940 | <trkpt lat="51.2314549" lon="5.2149417">
|
|---|
| 1941 | <time>+50838-08-03T09:15:05Z</time>
|
|---|
| 1942 | </trkpt>
|
|---|
| 1943 | <trkpt lat="51.2313248" lon="5.2146931">
|
|---|
| 1944 | <time>+50838-08-03T09:31:45Z</time>
|
|---|
| 1945 | </trkpt>
|
|---|
| 1946 | <trkpt lat="51.2311525" lon="5.2143965">
|
|---|
| 1947 | <time>+50838-08-03T09:48:25Z</time>
|
|---|
| 1948 | </trkpt>
|
|---|
| 1949 | <trkpt lat="51.2308334" lon="5.2139556">
|
|---|
| 1950 | <time>+50838-08-03T10:05:05Z</time>
|
|---|
| 1951 | </trkpt>
|
|---|
| 1952 | <trkpt lat="51.2306789" lon="5.2136515">
|
|---|
| 1953 | <time>+50838-08-03T10:21:45Z</time>
|
|---|
| 1954 | </trkpt>
|
|---|
| 1955 | <trkpt lat="51.230602" lon="5.2133913">
|
|---|
| 1956 | <time>+50838-08-03T10:38:25Z</time>
|
|---|
| 1957 | </trkpt>
|
|---|
| 1958 | <trkpt lat="51.230477" lon="5.2125411">
|
|---|
| 1959 | <time>+50838-08-03T10:55:05Z</time>
|
|---|
| 1960 | </trkpt>
|
|---|
| 1961 | <trkpt lat="51.2302146" lon="5.2107184">
|
|---|
| 1962 | <time>+50838-08-03T11:11:45Z</time>
|
|---|
| 1963 | </trkpt>
|
|---|
| 1964 | <trkpt lat="51.2302031" lon="5.2104513">
|
|---|
| 1965 | <time>+50838-08-03T11:28:25Z</time>
|
|---|
| 1966 | </trkpt>
|
|---|
| 1967 | <trkpt lat="51.2302058" lon="5.2101567">
|
|---|
| 1968 | <time>+50838-08-03T11:45:05Z</time>
|
|---|
| 1969 | </trkpt>
|
|---|
| 1970 | <trkpt lat="51.2303345" lon="5.20913">
|
|---|
| 1971 | <time>+50838-08-03T12:01:45Z</time>
|
|---|
| 1972 | </trkpt>
|
|---|
| 1973 | <trkpt lat="51.2303069" lon="5.2083591">
|
|---|
| 1974 | <time>+50838-08-03T12:18:25Z</time>
|
|---|
| 1975 | </trkpt>
|
|---|
| 1976 | <trkpt lat="51.2302278" lon="5.2076283">
|
|---|
| 1977 | <time>+50838-08-03T12:35:05Z</time>
|
|---|
| 1978 | </trkpt>
|
|---|
| 1979 | <trkpt lat="51.2301799" lon="5.2072544">
|
|---|
| 1980 | <time>+50838-08-03T12:51:45Z</time>
|
|---|
| 1981 | </trkpt>
|
|---|
| 1982 | <trkpt lat="51.2300246" lon="5.2063915">
|
|---|
| 1983 | <time>+50838-08-03T13:08:25Z</time>
|
|---|
| 1984 | </trkpt>
|
|---|
| 1985 | <trkpt lat="51.2297137" lon="5.2052363">
|
|---|
| 1986 | <time>+50838-08-03T13:25:05Z</time>
|
|---|
| 1987 | </trkpt>
|
|---|
| 1988 | <trkpt lat="51.2296493" lon="5.2050476">
|
|---|
| 1989 | <time>+50838-08-03T13:41:45Z</time>
|
|---|
| 1990 | </trkpt>
|
|---|
| 1991 | <trkpt lat="51.2295557" lon="5.2047109">
|
|---|
| 1992 | <time>+50838-08-03T13:58:25Z</time>
|
|---|
| 1993 | </trkpt>
|
|---|
| 1994 | <trkpt lat="51.2293646" lon="5.2042753">
|
|---|
| 1995 | <time>+50838-08-03T14:15:05Z</time>
|
|---|
| 1996 | </trkpt>
|
|---|
| 1997 | <trkpt lat="51.2292835" lon="5.2038576">
|
|---|
| 1998 | <time>+50838-08-03T14:31:45Z</time>
|
|---|
| 1999 | </trkpt>
|
|---|
| 2000 | <trkpt lat="51.2293752" lon="5.2020591">
|
|---|
| 2001 | <time>+50838-08-03T14:48:25Z</time>
|
|---|
| 2002 | </trkpt>
|
|---|
| 2003 | <trkpt lat="51.2294445" lon="5.2003093">
|
|---|
| 2004 | <time>+50838-08-03T15:05:05Z</time>
|
|---|
| 2005 | </trkpt>
|
|---|
| 2006 | <trkpt lat="51.2294915" lon="5.1977493">
|
|---|
| 2007 | <time>+50838-08-03T15:21:45Z</time>
|
|---|
| 2008 | </trkpt>
|
|---|
| 2009 | <trkpt lat="51.2294997" lon="5.1974051">
|
|---|
| 2010 | <time>+50838-08-03T15:38:25Z</time>
|
|---|
| 2011 | </trkpt>
|
|---|
| 2012 | <trkpt lat="51.2295297" lon="5.1971012">
|
|---|
| 2013 | <time>+50838-08-03T15:55:05Z</time>
|
|---|
| 2014 | </trkpt>
|
|---|
| 2015 | <trkpt lat="51.2295544" lon="5.1970394">
|
|---|
| 2016 | <time>+50838-08-03T16:11:45Z</time>
|
|---|
| 2017 | </trkpt>
|
|---|
| 2018 | <trkpt lat="51.2295999" lon="5.1969508">
|
|---|
| 2019 | <time>+50838-08-03T16:28:25Z</time>
|
|---|
| 2020 | </trkpt>
|
|---|
| 2021 | <trkpt lat="51.2296581" lon="5.1949916">
|
|---|
| 2022 | <time>+50838-08-03T16:45:05Z</time>
|
|---|
| 2023 | </trkpt>
|
|---|
| 2024 | <trkpt lat="51.2296787" lon="5.1937942">
|
|---|
| 2025 | <time>+50838-08-03T17:01:45Z</time>
|
|---|
| 2026 | </trkpt>
|
|---|
| 2027 | <trkpt lat="51.2296868" lon="5.193092">
|
|---|
| 2028 | <time>+50838-08-03T17:18:25Z</time>
|
|---|
| 2029 | </trkpt>
|
|---|
| 2030 | <trkpt lat="51.2297187" lon="5.190836">
|
|---|
| 2031 | <time>+50838-08-03T17:35:05Z</time>
|
|---|
| 2032 | </trkpt>
|
|---|
| 2033 | <trkpt lat="51.2297353" lon="5.1904539">
|
|---|
| 2034 | <time>+50838-08-03T17:51:45Z</time>
|
|---|
| 2035 | </trkpt>
|
|---|
| 2036 | <trkpt lat="51.2297695" lon="5.1896267">
|
|---|
| 2037 | <time>+50838-08-03T18:08:25Z</time>
|
|---|
| 2038 | </trkpt>
|
|---|
| 2039 | <trkpt lat="51.2297755" lon="5.1888194">
|
|---|
| 2040 | <time>+50838-08-03T18:25:05Z</time>
|
|---|
| 2041 | </trkpt>
|
|---|
| 2042 | <trkpt lat="51.2297838" lon="5.1886553">
|
|---|
| 2043 | <time>+50838-08-03T18:41:45Z</time>
|
|---|
| 2044 | </trkpt>
|
|---|
| 2045 | <trkpt lat="51.229784" lon="5.1885679">
|
|---|
| 2046 | <time>+50838-08-03T18:58:25Z</time>
|
|---|
| 2047 | </trkpt>
|
|---|
| 2048 | <trkpt lat="51.229784" lon="5.1885679">
|
|---|
| 2049 | <time>+50838-08-03T19:15:05Z</time>
|
|---|
| 2050 | </trkpt>
|
|---|
| 2051 | <trkpt lat="51.2297959" lon="5.1868233">
|
|---|
| 2052 | <time>+50838-08-03T19:31:45Z</time>
|
|---|
| 2053 | </trkpt>
|
|---|
| 2054 | <trkpt lat="51.2297908" lon="5.1862655">
|
|---|
| 2055 | <time>+50838-08-03T19:48:25Z</time>
|
|---|
| 2056 | </trkpt>
|
|---|
| 2057 | <trkpt lat="51.2296975" lon="5.1859827">
|
|---|
| 2058 | <time>+50838-08-03T20:05:05Z</time>
|
|---|
| 2059 | </trkpt>
|
|---|
| 2060 | <trkpt lat="51.2296933" lon="5.1858881">
|
|---|
| 2061 | <time>+50838-08-03T20:21:45Z</time>
|
|---|
| 2062 | </trkpt>
|
|---|
| 2063 | <trkpt lat="51.2297476" lon="5.1856936">
|
|---|
| 2064 | <time>+50838-08-03T20:38:25Z</time>
|
|---|
| 2065 | </trkpt>
|
|---|
| 2066 | <trkpt lat="51.2297671" lon="5.1856245">
|
|---|
| 2067 | <time>+50838-08-03T20:55:05Z</time>
|
|---|
| 2068 | </trkpt>
|
|---|
| 2069 | <trkpt lat="51.2297671" lon="5.1856245">
|
|---|
| 2070 | <time>+50838-08-03T21:11:45Z</time>
|
|---|
| 2071 | </trkpt>
|
|---|
| 2072 | <trkpt lat="51.229856" lon="5.1858576">
|
|---|
| 2073 | <time>+50838-08-03T21:28:25Z</time>
|
|---|
| 2074 | </trkpt>
|
|---|
| 2075 | <trkpt lat="51.229856" lon="5.1858576">
|
|---|
| 2076 | <time>+50838-08-03T21:45:05Z</time>
|
|---|
| 2077 | </trkpt>
|
|---|
| 2078 | <trkpt lat="51.2299491" lon="5.1858563">
|
|---|
| 2079 | <time>+50838-08-03T22:01:45Z</time>
|
|---|
| 2080 | </trkpt>
|
|---|
| 2081 | <trkpt lat="51.2299491" lon="5.1858563">
|
|---|
| 2082 | <time>+50838-08-03T22:18:25Z</time>
|
|---|
| 2083 | </trkpt>
|
|---|
| 2084 | <trkpt lat="51.2303628" lon="5.1858715">
|
|---|
| 2085 | <time>+50838-08-03T22:35:05Z</time>
|
|---|
| 2086 | </trkpt>
|
|---|
| 2087 | <trkpt lat="51.2303628" lon="5.1858715">
|
|---|
| 2088 | <time>+50838-08-03T22:51:45Z</time>
|
|---|
| 2089 | </trkpt>
|
|---|
| 2090 | <trkpt lat="51.2303673" lon="5.1859909">
|
|---|
| 2091 | <time>+50838-08-03T23:08:25Z</time>
|
|---|
| 2092 | </trkpt>
|
|---|
| 2093 | <trkpt lat="51.2305067" lon="5.1864749">
|
|---|
| 2094 | <time>+50838-08-03T23:25:05Z</time>
|
|---|
| 2095 | </trkpt>
|
|---|
| 2096 | <trkpt lat="51.2304949" lon="5.1870231">
|
|---|
| 2097 | <time>+50838-08-03T23:41:45Z</time>
|
|---|
| 2098 | </trkpt>
|
|---|
| 2099 | <trkpt lat="51.2305235" lon="5.1877194">
|
|---|
| 2100 | <time>+50838-08-03T23:58:25Z</time>
|
|---|
| 2101 | </trkpt>
|
|---|
| 2102 | <trkpt lat="51.2304378" lon="5.1881969">
|
|---|
| 2103 | <time>+50838-08-04T00:15:05Z</time>
|
|---|
| 2104 | </trkpt>
|
|---|
| 2105 | <trkpt lat="51.2304487" lon="5.1884627">
|
|---|
| 2106 | <time>+50838-08-04T00:31:45Z</time>
|
|---|
| 2107 | </trkpt>
|
|---|
| 2108 | <trkpt lat="51.2304487" lon="5.1884627">
|
|---|
| 2109 | <time>+50838-08-04T00:48:25Z</time>
|
|---|
| 2110 | </trkpt>
|
|---|
| 2111 | <trkpt lat="51.2304701" lon="5.1885255">
|
|---|
| 2112 | <time>+50838-08-04T01:05:05Z</time>
|
|---|
| 2113 | </trkpt>
|
|---|
| 2114 | <trkpt lat="51.2304701" lon="5.1885255">
|
|---|
| 2115 | <time>+50838-08-04T01:21:45Z</time>
|
|---|
| 2116 | </trkpt>
|
|---|
| 2117 | <trkpt lat="51.2305062" lon="5.1885905">
|
|---|
| 2118 | <time>+50838-08-04T01:38:25Z</time>
|
|---|
| 2119 | </trkpt>
|
|---|
| 2120 | <trkpt lat="51.2346463" lon="5.188835">
|
|---|
| 2121 | <time>+50838-08-04T01:55:05Z</time>
|
|---|
| 2122 | </trkpt>
|
|---|
| 2123 | <trkpt lat="51.2346463" lon="5.188835">
|
|---|
| 2124 | <time>+50838-08-04T02:11:45Z</time>
|
|---|
| 2125 | </trkpt>
|
|---|
| 2126 | <trkpt lat="51.2359333" lon="5.1888815">
|
|---|
| 2127 | <time>+50838-08-04T02:28:25Z</time>
|
|---|
| 2128 | </trkpt>
|
|---|
| 2129 | <trkpt lat="51.2359333" lon="5.1888815">
|
|---|
| 2130 | <time>+50838-08-04T02:45:05Z</time>
|
|---|
| 2131 | </trkpt>
|
|---|
| 2132 | <trkpt lat="51.2372641" lon="5.188966">
|
|---|
| 2133 | <time>+50838-08-04T03:01:45Z</time>
|
|---|
| 2134 | </trkpt>
|
|---|
| 2135 | <trkpt lat="51.2373382" lon="5.1891239">
|
|---|
| 2136 | <time>+50838-08-04T03:18:25Z</time>
|
|---|
| 2137 | </trkpt>
|
|---|
| 2138 | <trkpt lat="51.2373382" lon="5.1891239">
|
|---|
| 2139 | <time>+50838-08-04T03:35:05Z</time>
|
|---|
| 2140 | </trkpt>
|
|---|
| 2141 | <trkpt lat="51.2374042" lon="5.1891472">
|
|---|
| 2142 | <time>+50838-08-04T03:51:45Z</time>
|
|---|
| 2143 | </trkpt>
|
|---|
| 2144 | <trkpt lat="51.2373975" lon="5.1894428">
|
|---|
| 2145 | <time>+50838-08-04T04:08:25Z</time>
|
|---|
| 2146 | </trkpt>
|
|---|
| 2147 | <trkpt lat="51.2374327" lon="5.1895769">
|
|---|
| 2148 | <time>+50838-08-04T04:25:05Z</time>
|
|---|
| 2149 | </trkpt>
|
|---|
| 2150 | <trkpt lat="51.2375159" lon="5.1896884">
|
|---|
| 2151 | <time>+50838-08-04T04:41:45Z</time>
|
|---|
| 2152 | </trkpt>
|
|---|
| 2153 | <trkpt lat="51.2375914" lon="5.1899068">
|
|---|
| 2154 | <time>+50838-08-04T04:58:25Z</time>
|
|---|
| 2155 | </trkpt>
|
|---|
| 2156 | <trkpt lat="51.2376024" lon="5.1900315">
|
|---|
| 2157 | <time>+50838-08-04T05:15:05Z</time>
|
|---|
| 2158 | </trkpt>
|
|---|
| 2159 | <trkpt lat="51.2377165" lon="5.1902179">
|
|---|
| 2160 | <time>+50838-08-04T05:31:45Z</time>
|
|---|
| 2161 | </trkpt>
|
|---|
| 2162 | <trkpt lat="51.2377518" lon="5.1904285">
|
|---|
| 2163 | <time>+50838-08-04T05:48:25Z</time>
|
|---|
| 2164 | </trkpt>
|
|---|
| 2165 | <trkpt lat="51.2377704" lon="5.1906237">
|
|---|
| 2166 | <time>+50838-08-04T06:05:05Z</time>
|
|---|
| 2167 | </trkpt>
|
|---|
| 2168 | <trkpt lat="51.2382904" lon="5.1907087">
|
|---|
| 2169 | <time>+50838-08-04T06:21:45Z</time>
|
|---|
| 2170 | </trkpt>
|
|---|
| 2171 | <trkpt lat="51.2384064" lon="5.1907959">
|
|---|
| 2172 | <time>+50838-08-04T06:38:25Z</time>
|
|---|
| 2173 | </trkpt>
|
|---|
| 2174 | <trkpt lat="51.2384584" lon="5.1909281">
|
|---|
| 2175 | <time>+50838-08-04T06:55:05Z</time>
|
|---|
| 2176 | </trkpt>
|
|---|
| 2177 | <trkpt lat="51.2384584" lon="5.1909281">
|
|---|
| 2178 | <time>+50838-08-04T07:11:45Z</time>
|
|---|
| 2179 | </trkpt>
|
|---|
| 2180 | <trkpt lat="51.2385154" lon="5.1910779">
|
|---|
| 2181 | <time>+50838-08-04T07:28:25Z</time>
|
|---|
| 2182 | </trkpt>
|
|---|
| 2183 | <trkpt lat="51.238582" lon="5.1914488">
|
|---|
| 2184 | <time>+50838-08-04T07:45:05Z</time>
|
|---|
| 2185 | </trkpt>
|
|---|
| 2186 | <trkpt lat="51.2389095" lon="5.1932495">
|
|---|
| 2187 | <time>+50838-08-04T08:01:45Z</time>
|
|---|
| 2188 | </trkpt>
|
|---|
| 2189 | <trkpt lat="51.2389095" lon="5.1932495">
|
|---|
| 2190 | <time>+50838-08-04T08:18:25Z</time>
|
|---|
| 2191 | </trkpt>
|
|---|
| 2192 | <trkpt lat="51.2389731" lon="5.1936428">
|
|---|
| 2193 | <time>+50838-08-04T08:35:05Z</time>
|
|---|
| 2194 | </trkpt>
|
|---|
| 2195 | <trkpt lat="51.2389731" lon="5.1936428">
|
|---|
| 2196 | <time>+50838-08-04T08:51:45Z</time>
|
|---|
| 2197 | </trkpt>
|
|---|
| 2198 | <trkpt lat="51.239081" lon="5.1943284">
|
|---|
| 2199 | <time>+50838-08-04T09:08:25Z</time>
|
|---|
| 2200 | </trkpt>
|
|---|
| 2201 | <trkpt lat="51.2391292" lon="5.1947666">
|
|---|
| 2202 | <time>+50838-08-04T09:25:05Z</time>
|
|---|
| 2203 | </trkpt>
|
|---|
| 2204 | <trkpt lat="51.2391985" lon="5.1953906">
|
|---|
| 2205 | <time>+50838-08-04T09:41:45Z</time>
|
|---|
| 2206 | </trkpt>
|
|---|
| 2207 | <trkpt lat="51.2392212" lon="5.1957004">
|
|---|
| 2208 | <time>+50838-08-04T09:58:25Z</time>
|
|---|
| 2209 | </trkpt>
|
|---|
| 2210 | <trkpt lat="51.2392314" lon="5.1960015">
|
|---|
| 2211 | <time>+50838-08-04T10:15:05Z</time>
|
|---|
| 2212 | </trkpt>
|
|---|
| 2213 | <trkpt lat="51.2392438" lon="5.1964018">
|
|---|
| 2214 | <time>+50838-08-04T10:31:45Z</time>
|
|---|
| 2215 | </trkpt>
|
|---|
| 2216 | <trkpt lat="51.2392285" lon="5.1973784">
|
|---|
| 2217 | <time>+50838-08-04T10:48:25Z</time>
|
|---|
| 2218 | </trkpt>
|
|---|
| 2219 | <trkpt lat="51.2392669" lon="5.1974517">
|
|---|
| 2220 | <time>+50838-08-04T11:05:05Z</time>
|
|---|
| 2221 | </trkpt>
|
|---|
| 2222 | <trkpt lat="51.2394561" lon="5.1974234">
|
|---|
| 2223 | <time>+50838-08-04T11:21:45Z</time>
|
|---|
| 2224 | </trkpt>
|
|---|
| 2225 | <trkpt lat="51.2394561" lon="5.1974234">
|
|---|
| 2226 | <time>+50838-08-04T11:38:25Z</time>
|
|---|
| 2227 | </trkpt>
|
|---|
| 2228 | <trkpt lat="51.2394207" lon="5.1978746">
|
|---|
| 2229 | <time>+50838-08-04T11:55:05Z</time>
|
|---|
| 2230 | </trkpt>
|
|---|
| 2231 | <trkpt lat="51.2392945" lon="5.1989698">
|
|---|
| 2232 | <time>+50838-08-04T12:11:45Z</time>
|
|---|
| 2233 | </trkpt>
|
|---|
| 2234 | <trkpt lat="51.2390798" lon="5.200881">
|
|---|
| 2235 | <time>+50838-08-04T12:28:25Z</time>
|
|---|
| 2236 | </trkpt>
|
|---|
| 2237 | <trkpt lat="51.238886" lon="5.2023439">
|
|---|
| 2238 | <time>+50838-08-04T12:45:05Z</time>
|
|---|
| 2239 | </trkpt>
|
|---|
| 2240 | <trkpt lat="51.2388338" lon="5.2028026">
|
|---|
| 2241 | <time>+50838-08-04T13:01:45Z</time>
|
|---|
| 2242 | </trkpt>
|
|---|
| 2243 | <trkpt lat="51.2387734" lon="5.2032986">
|
|---|
| 2244 | <time>+50838-08-04T13:18:25Z</time>
|
|---|
| 2245 | </trkpt>
|
|---|
| 2246 | <trkpt lat="51.2386988" lon="5.2038108">
|
|---|
| 2247 | <time>+50838-08-04T13:35:05Z</time>
|
|---|
| 2248 | </trkpt>
|
|---|
| 2249 | <trkpt lat="51.2386988" lon="5.2038108">
|
|---|
| 2250 | <time>+50838-08-04T13:51:45Z</time>
|
|---|
| 2251 | </trkpt>
|
|---|
| 2252 | <trkpt lat="51.238625" lon="5.2039393">
|
|---|
| 2253 | <time>+50838-08-04T14:08:25Z</time>
|
|---|
| 2254 | </trkpt>
|
|---|
| 2255 | <trkpt lat="51.238573" lon="5.204118">
|
|---|
| 2256 | <time>+50838-08-04T14:25:05Z</time>
|
|---|
| 2257 | </trkpt>
|
|---|
| 2258 | <trkpt lat="51.238513" lon="5.2043443">
|
|---|
| 2259 | <time>+50838-08-04T14:41:45Z</time>
|
|---|
| 2260 | </trkpt>
|
|---|
| 2261 | <trkpt lat="51.2383727" lon="5.2045124">
|
|---|
| 2262 | <time>+50838-08-04T14:58:25Z</time>
|
|---|
| 2263 | </trkpt>
|
|---|
| 2264 | <trkpt lat="51.238245" lon="5.2045782">
|
|---|
| 2265 | <time>+50838-08-04T15:15:05Z</time>
|
|---|
| 2266 | </trkpt>
|
|---|
| 2267 | <trkpt lat="51.2380824" lon="5.2045856">
|
|---|
| 2268 | <time>+50838-08-04T15:31:45Z</time>
|
|---|
| 2269 | </trkpt>
|
|---|
| 2270 | <trkpt lat="51.2380209" lon="5.2046389">
|
|---|
| 2271 | <time>+50838-08-04T15:48:25Z</time>
|
|---|
| 2272 | </trkpt>
|
|---|
| 2273 | <trkpt lat="51.2379778" lon="5.2047156">
|
|---|
| 2274 | <time>+50838-08-04T16:05:05Z</time>
|
|---|
| 2275 | </trkpt>
|
|---|
| 2276 | <trkpt lat="51.2379523" lon="5.2048948">
|
|---|
| 2277 | <time>+50838-08-04T16:21:45Z</time>
|
|---|
| 2278 | </trkpt>
|
|---|
| 2279 | <trkpt lat="51.2379474" lon="5.2050814">
|
|---|
| 2280 | <time>+50838-08-04T16:38:25Z</time>
|
|---|
| 2281 | </trkpt>
|
|---|
| 2282 | <trkpt lat="51.237905" lon="5.2055304">
|
|---|
| 2283 | <time>+50838-08-04T16:55:05Z</time>
|
|---|
| 2284 | </trkpt>
|
|---|
| 2285 | <trkpt lat="51.2378737" lon="5.2058124">
|
|---|
| 2286 | <time>+50838-08-04T17:11:45Z</time>
|
|---|
| 2287 | </trkpt>
|
|---|
| 2288 | <trkpt lat="51.2378661" lon="5.2061985">
|
|---|
| 2289 | <time>+50838-08-04T17:28:25Z</time>
|
|---|
| 2290 | </trkpt>
|
|---|
| 2291 | <trkpt lat="51.2378269" lon="5.2062348">
|
|---|
| 2292 | <time>+50838-08-04T17:45:05Z</time>
|
|---|
| 2293 | </trkpt>
|
|---|
| 2294 | <trkpt lat="51.2378269" lon="5.2062348">
|
|---|
| 2295 | <time>+50838-08-04T18:01:45Z</time>
|
|---|
| 2296 | </trkpt>
|
|---|
| 2297 | <trkpt lat="51.2377721" lon="5.2062346">
|
|---|
| 2298 | <time>+50838-08-04T18:18:25Z</time>
|
|---|
| 2299 | </trkpt>
|
|---|
| 2300 | <trkpt lat="51.2377721" lon="5.2062346">
|
|---|
| 2301 | <time>+50838-08-04T18:35:05Z</time>
|
|---|
| 2302 | </trkpt>
|
|---|
| 2303 | <trkpt lat="51.2376942" lon="5.2062664">
|
|---|
| 2304 | <time>+50838-08-04T18:51:45Z</time>
|
|---|
| 2305 | </trkpt>
|
|---|
| 2306 | <trkpt lat="51.2367257" lon="5.2139764">
|
|---|
| 2307 | <time>+50838-08-04T19:08:25Z</time>
|
|---|
| 2308 | </trkpt>
|
|---|
| 2309 | <trkpt lat="51.2367257" lon="5.2139764">
|
|---|
| 2310 | <time>+50838-08-04T19:25:05Z</time>
|
|---|
| 2311 | </trkpt>
|
|---|
| 2312 | <trkpt lat="51.2366516" lon="5.2140704">
|
|---|
| 2313 | <time>+50838-08-04T19:41:45Z</time>
|
|---|
| 2314 | </trkpt>
|
|---|
| 2315 | <trkpt lat="51.2366516" lon="5.2140704">
|
|---|
| 2316 | <time>+50838-08-04T19:58:25Z</time>
|
|---|
| 2317 | </trkpt>
|
|---|
| 2318 | <trkpt lat="51.2367534" lon="5.2143201">
|
|---|
| 2319 | <time>+50838-08-04T20:15:05Z</time>
|
|---|
| 2320 | </trkpt>
|
|---|
| 2321 | <trkpt lat="51.2366626" lon="5.2150099">
|
|---|
| 2322 | <time>+50838-08-04T20:31:45Z</time>
|
|---|
| 2323 | </trkpt>
|
|---|
| 2324 | <trkpt lat="51.2366955" lon="5.2150189">
|
|---|
| 2325 | <time>+50838-08-04T20:48:25Z</time>
|
|---|
| 2326 | </trkpt>
|
|---|
| 2327 | <trkpt lat="51.2366955" lon="5.2150189">
|
|---|
| 2328 | <time>+50838-08-04T21:05:05Z</time>
|
|---|
| 2329 | </trkpt>
|
|---|
| 2330 | <trkpt lat="51.2367526" lon="5.2150344">
|
|---|
| 2331 | <time>+50838-08-04T21:21:45Z</time>
|
|---|
| 2332 | </trkpt>
|
|---|
| 2333 | <trkpt lat="51.2367526" lon="5.2150344">
|
|---|
| 2334 | <time>+50838-08-04T21:38:25Z</time>
|
|---|
| 2335 | </trkpt>
|
|---|
| 2336 | <trkpt lat="51.2370181" lon="5.2151068">
|
|---|
| 2337 | <time>+50838-08-04T21:55:05Z</time>
|
|---|
| 2338 | </trkpt>
|
|---|
| 2339 | <trkpt lat="51.2370622" lon="5.215204">
|
|---|
| 2340 | <time>+50838-08-04T22:11:45Z</time>
|
|---|
| 2341 | </trkpt>
|
|---|
| 2342 | <trkpt lat="51.2370379" lon="5.2153072">
|
|---|
| 2343 | <time>+50838-08-04T22:28:25Z</time>
|
|---|
| 2344 | </trkpt>
|
|---|
| 2345 | <trkpt lat="51.2369485" lon="5.2158734">
|
|---|
| 2346 | <time>+50838-08-04T22:45:05Z</time>
|
|---|
| 2347 | </trkpt>
|
|---|
| 2348 | <trkpt lat="51.2369485" lon="5.2158734">
|
|---|
| 2349 | <time>+50838-08-04T23:01:45Z</time>
|
|---|
| 2350 | </trkpt>
|
|---|
| 2351 | <trkpt lat="51.2368955" lon="5.2160182">
|
|---|
| 2352 | <time>+50838-08-04T23:18:25Z</time>
|
|---|
| 2353 | </trkpt>
|
|---|
| 2354 | <trkpt lat="51.2368912" lon="5.2162313">
|
|---|
| 2355 | <time>+50838-08-04T23:35:05Z</time>
|
|---|
| 2356 | </trkpt>
|
|---|
| 2357 | <trkpt lat="51.2369451" lon="5.2163399">
|
|---|
| 2358 | <time>+50838-08-04T23:51:45Z</time>
|
|---|
| 2359 | </trkpt>
|
|---|
| 2360 | <trkpt lat="51.2369835" lon="5.2172142">
|
|---|
| 2361 | <time>+50838-08-05T00:08:25Z</time>
|
|---|
| 2362 | </trkpt>
|
|---|
| 2363 | <trkpt lat="51.2369264" lon="5.2174357">
|
|---|
| 2364 | <time>+50838-08-05T00:25:05Z</time>
|
|---|
| 2365 | </trkpt>
|
|---|
| 2366 | <trkpt lat="51.2369809" lon="5.2176431">
|
|---|
| 2367 | <time>+50838-08-05T00:41:45Z</time>
|
|---|
| 2368 | </trkpt>
|
|---|
| 2369 | <trkpt lat="51.2369399" lon="5.2178487">
|
|---|
| 2370 | <time>+50838-08-05T00:58:25Z</time>
|
|---|
| 2371 | </trkpt>
|
|---|
| 2372 | <trkpt lat="51.2369755" lon="5.2181543">
|
|---|
| 2373 | <time>+50838-08-05T01:15:05Z</time>
|
|---|
| 2374 | </trkpt>
|
|---|
| 2375 | <trkpt lat="51.2370155" lon="5.2182969">
|
|---|
| 2376 | <time>+50838-08-05T01:31:45Z</time>
|
|---|
| 2377 | </trkpt>
|
|---|
| 2378 | <trkpt lat="51.2370364" lon="5.2186345">
|
|---|
| 2379 | <time>+50838-08-05T01:48:25Z</time>
|
|---|
| 2380 | </trkpt>
|
|---|
| 2381 | <trkpt lat="51.2371186" lon="5.2188492">
|
|---|
| 2382 | <time>+50838-08-05T02:05:05Z</time>
|
|---|
| 2383 | </trkpt>
|
|---|
| 2384 | <trkpt lat="51.2373171" lon="5.2201939">
|
|---|
| 2385 | <time>+50838-08-05T02:21:45Z</time>
|
|---|
| 2386 | </trkpt>
|
|---|
| 2387 | <trkpt lat="51.2373171" lon="5.2201939">
|
|---|
| 2388 | <time>+50838-08-05T02:38:25Z</time>
|
|---|
| 2389 | </trkpt>
|
|---|
| 2390 | <trkpt lat="51.2372019" lon="5.2202949">
|
|---|
| 2391 | <time>+50838-08-05T02:55:05Z</time>
|
|---|
| 2392 | </trkpt>
|
|---|
| 2393 | <trkpt lat="51.2370745" lon="5.2204507">
|
|---|
| 2394 | <time>+50838-08-05T03:11:45Z</time>
|
|---|
| 2395 | </trkpt>
|
|---|
| 2396 | <trkpt lat="51.2371009" lon="5.2207877">
|
|---|
| 2397 | <time>+50838-08-05T03:28:25Z</time>
|
|---|
| 2398 | </trkpt>
|
|---|
| 2399 | <trkpt lat="51.237048" lon="5.2210801">
|
|---|
| 2400 | <time>+50838-08-05T03:45:05Z</time>
|
|---|
| 2401 | </trkpt>
|
|---|
| 2402 | <trkpt lat="51.2369699" lon="5.2213108">
|
|---|
| 2403 | <time>+50838-08-05T04:01:45Z</time>
|
|---|
| 2404 | </trkpt>
|
|---|
| 2405 | <trkpt lat="51.2370051" lon="5.2214632">
|
|---|
| 2406 | <time>+50838-08-05T04:18:25Z</time>
|
|---|
| 2407 | </trkpt>
|
|---|
| 2408 | <trkpt lat="51.2370237" lon="5.2216878">
|
|---|
| 2409 | <time>+50838-08-05T04:35:05Z</time>
|
|---|
| 2410 | </trkpt>
|
|---|
| 2411 | <trkpt lat="51.2371145" lon="5.2217808">
|
|---|
| 2412 | <time>+50838-08-05T04:51:45Z</time>
|
|---|
| 2413 | </trkpt>
|
|---|
| 2414 | <trkpt lat="51.2371512" lon="5.2219746">
|
|---|
| 2415 | <time>+50838-08-05T05:08:25Z</time>
|
|---|
| 2416 | </trkpt>
|
|---|
| 2417 | <trkpt lat="51.2371431" lon="5.2221912">
|
|---|
| 2418 | <time>+50838-08-05T05:25:05Z</time>
|
|---|
| 2419 | </trkpt>
|
|---|
| 2420 | <trkpt lat="51.2372202" lon="5.2225254">
|
|---|
| 2421 | <time>+50838-08-05T05:41:45Z</time>
|
|---|
| 2422 | </trkpt>
|
|---|
| 2423 | <trkpt lat="51.2373236" lon="5.2227231">
|
|---|
| 2424 | <time>+50838-08-05T05:58:25Z</time>
|
|---|
| 2425 | </trkpt>
|
|---|
| 2426 | <trkpt lat="51.2373862" lon="5.2229335">
|
|---|
| 2427 | <time>+50838-08-05T06:15:05Z</time>
|
|---|
| 2428 | </trkpt>
|
|---|
| 2429 | <trkpt lat="51.2373862" lon="5.2229335">
|
|---|
| 2430 | <time>+50838-08-05T06:31:45Z</time>
|
|---|
| 2431 | </trkpt>
|
|---|
| 2432 | <trkpt lat="51.2372736" lon="5.2229947">
|
|---|
| 2433 | <time>+50838-08-05T06:48:25Z</time>
|
|---|
| 2434 | </trkpt>
|
|---|
| 2435 | <trkpt lat="51.2372736" lon="5.2229947">
|
|---|
| 2436 | <time>+50838-08-05T07:05:05Z</time>
|
|---|
| 2437 | </trkpt>
|
|---|
| 2438 | <trkpt lat="51.2374719" lon="5.2236962">
|
|---|
| 2439 | <time>+50838-08-05T07:21:45Z</time>
|
|---|
| 2440 | </trkpt>
|
|---|
| 2441 | <trkpt lat="51.2374967" lon="5.2237817">
|
|---|
| 2442 | <time>+50838-08-05T07:38:25Z</time>
|
|---|
| 2443 | </trkpt>
|
|---|
| 2444 | <trkpt lat="51.2374967" lon="5.2237817">
|
|---|
| 2445 | <time>+50838-08-05T07:55:05Z</time>
|
|---|
| 2446 | </trkpt>
|
|---|
| 2447 | <trkpt lat="51.237432" lon="5.2239273">
|
|---|
| 2448 | <time>+50838-08-05T08:11:45Z</time>
|
|---|
| 2449 | </trkpt>
|
|---|
| 2450 | <trkpt lat="51.237408" lon="5.2244662">
|
|---|
| 2451 | <time>+50838-08-05T08:28:25Z</time>
|
|---|
| 2452 | </trkpt>
|
|---|
| 2453 | <trkpt lat="51.2373725" lon="5.2250933">
|
|---|
| 2454 | <time>+50838-08-05T08:45:05Z</time>
|
|---|
| 2455 | </trkpt>
|
|---|
| 2456 | <trkpt lat="51.2373725" lon="5.2250933">
|
|---|
| 2457 | <time>+50838-08-05T09:01:45Z</time>
|
|---|
| 2458 | </trkpt>
|
|---|
| 2459 | <trkpt lat="51.2376471" lon="5.2248369">
|
|---|
| 2460 | <time>+50838-08-05T09:18:25Z</time>
|
|---|
| 2461 | </trkpt>
|
|---|
| 2462 | <trkpt lat="51.2378154" lon="5.2247617">
|
|---|
| 2463 | <time>+50838-08-05T09:35:05Z</time>
|
|---|
| 2464 | </trkpt>
|
|---|
| 2465 | <trkpt lat="51.2378154" lon="5.2247617">
|
|---|
| 2466 | <time>+50838-08-05T09:51:45Z</time>
|
|---|
| 2467 | </trkpt>
|
|---|
| 2468 | <trkpt lat="51.23788" lon="5.2249849">
|
|---|
| 2469 | <time>+50838-08-05T10:08:25Z</time>
|
|---|
| 2470 | </trkpt>
|
|---|
| 2471 | <trkpt lat="51.23788" lon="5.2249849">
|
|---|
| 2472 | <time>+50838-08-05T10:25:05Z</time>
|
|---|
| 2473 | </trkpt>
|
|---|
| 2474 | <trkpt lat="51.2379694" lon="5.2253606">
|
|---|
| 2475 | <time>+50838-08-05T10:41:45Z</time>
|
|---|
| 2476 | </trkpt>
|
|---|
| 2477 | <trkpt lat="51.2379694" lon="5.2253606">
|
|---|
| 2478 | <time>+50838-08-05T10:58:25Z</time>
|
|---|
| 2479 | </trkpt>
|
|---|
| 2480 | <trkpt lat="51.2379921" lon="5.225497">
|
|---|
| 2481 | <time>+50838-08-05T11:15:05Z</time>
|
|---|
| 2482 | </trkpt>
|
|---|
| 2483 | <trkpt lat="51.2379921" lon="5.225497">
|
|---|
| 2484 | <time>+50838-08-05T11:31:45Z</time>
|
|---|
| 2485 | </trkpt>
|
|---|
| 2486 | <trkpt lat="51.2381567" lon="5.2257391">
|
|---|
| 2487 | <time>+50838-08-05T11:48:25Z</time>
|
|---|
| 2488 | </trkpt>
|
|---|
| 2489 | <trkpt lat="51.2382807" lon="5.2258628">
|
|---|
| 2490 | <time>+50838-08-05T12:05:05Z</time>
|
|---|
| 2491 | </trkpt>
|
|---|
| 2492 | <trkpt lat="51.2384357" lon="5.2259717">
|
|---|
| 2493 | <time>+50838-08-05T12:21:45Z</time>
|
|---|
| 2494 | </trkpt>
|
|---|
| 2495 | <trkpt lat="51.2385226" lon="5.2260026">
|
|---|
| 2496 | <time>+50838-08-05T12:38:25Z</time>
|
|---|
| 2497 | </trkpt>
|
|---|
| 2498 | <trkpt lat="51.238608" lon="5.2260015">
|
|---|
| 2499 | <time>+50838-08-05T12:55:05Z</time>
|
|---|
| 2500 | </trkpt>
|
|---|
| 2501 | <trkpt lat="51.2387552" lon="5.225991">
|
|---|
| 2502 | <time>+50838-08-05T13:11:45Z</time>
|
|---|
| 2503 | </trkpt>
|
|---|
| 2504 | <trkpt lat="51.2388773" lon="5.2260514">
|
|---|
| 2505 | <time>+50838-08-05T13:28:25Z</time>
|
|---|
| 2506 | </trkpt>
|
|---|
| 2507 | <trkpt lat="51.2389436" lon="5.226138">
|
|---|
| 2508 | <time>+50838-08-05T13:45:05Z</time>
|
|---|
| 2509 | </trkpt>
|
|---|
| 2510 | <trkpt lat="51.2390292" lon="5.22646">
|
|---|
| 2511 | <time>+50838-08-05T14:01:45Z</time>
|
|---|
| 2512 | </trkpt>
|
|---|
| 2513 | <trkpt lat="51.2390367" lon="5.2266145">
|
|---|
| 2514 | <time>+50838-08-05T14:18:25Z</time>
|
|---|
| 2515 | </trkpt>
|
|---|
| 2516 | <trkpt lat="51.239496" lon="5.2283883">
|
|---|
| 2517 | <time>+50838-08-05T14:35:05Z</time>
|
|---|
| 2518 | </trkpt>
|
|---|
| 2519 | <trkpt lat="51.2395041" lon="5.2284931">
|
|---|
| 2520 | <time>+50838-08-05T14:51:45Z</time>
|
|---|
| 2521 | </trkpt>
|
|---|
| 2522 | <trkpt lat="51.2394912" lon="5.2288824">
|
|---|
| 2523 | <time>+50838-08-05T15:08:25Z</time>
|
|---|
| 2524 | </trkpt>
|
|---|
| 2525 | <trkpt lat="51.2394912" lon="5.2288824">
|
|---|
| 2526 | <time>+50838-08-05T15:25:05Z</time>
|
|---|
| 2527 | </trkpt>
|
|---|
| 2528 | <trkpt lat="51.2394166" lon="5.2288947">
|
|---|
| 2529 | <time>+50838-08-05T15:41:45Z</time>
|
|---|
| 2530 | </trkpt>
|
|---|
| 2531 | <trkpt lat="51.2393502" lon="5.2288811">
|
|---|
| 2532 | <time>+50838-08-05T15:58:25Z</time>
|
|---|
| 2533 | </trkpt>
|
|---|
| 2534 | <trkpt lat="51.2392716" lon="5.228823">
|
|---|
| 2535 | <time>+50838-08-05T16:15:05Z</time>
|
|---|
| 2536 | </trkpt>
|
|---|
| 2537 | <trkpt lat="51.23919" lon="5.2286171">
|
|---|
| 2538 | <time>+50838-08-05T16:31:45Z</time>
|
|---|
| 2539 | </trkpt>
|
|---|
| 2540 | <trkpt lat="51.23919" lon="5.2286171">
|
|---|
| 2541 | <time>+50838-08-05T16:48:25Z</time>
|
|---|
| 2542 | </trkpt>
|
|---|
| 2543 | <trkpt lat="51.239153" lon="5.2283675">
|
|---|
| 2544 | <time>+50838-08-05T17:05:05Z</time>
|
|---|
| 2545 | </trkpt>
|
|---|
| 2546 | <trkpt lat="51.239153" lon="5.2283675">
|
|---|
| 2547 | <time>+50838-08-05T17:21:45Z</time>
|
|---|
| 2548 | </trkpt>
|
|---|
| 2549 | <trkpt lat="51.239253" lon="5.2284056">
|
|---|
| 2550 | <time>+50838-08-05T17:38:25Z</time>
|
|---|
| 2551 | </trkpt>
|
|---|
| 2552 | <trkpt lat="51.239316" lon="5.2283945">
|
|---|
| 2553 | <time>+50838-08-05T17:55:05Z</time>
|
|---|
| 2554 | </trkpt>
|
|---|
| 2555 | <trkpt lat="51.2393869" lon="5.2283672">
|
|---|
| 2556 | <time>+50838-08-05T18:11:45Z</time>
|
|---|
| 2557 | </trkpt>
|
|---|
| 2558 | <trkpt lat="51.2393869" lon="5.2283672">
|
|---|
| 2559 | <time>+50838-08-05T18:28:25Z</time>
|
|---|
| 2560 | </trkpt>
|
|---|
| 2561 | <trkpt lat="51.2398628" lon="5.2280492">
|
|---|
| 2562 | <time>+50838-08-05T18:45:05Z</time>
|
|---|
| 2563 | </trkpt>
|
|---|
| 2564 | <trkpt lat="51.2398628" lon="5.2280492">
|
|---|
| 2565 | <time>+50838-08-05T19:01:45Z</time>
|
|---|
| 2566 | </trkpt>
|
|---|
| 2567 | <trkpt lat="51.2400154" lon="5.2279498">
|
|---|
| 2568 | <time>+50838-08-05T19:18:25Z</time>
|
|---|
| 2569 | </trkpt>
|
|---|
| 2570 | <trkpt lat="51.2400154" lon="5.2279498">
|
|---|
| 2571 | <time>+50838-08-05T19:35:05Z</time>
|
|---|
| 2572 | </trkpt>
|
|---|
| 2573 | <trkpt lat="51.2400983" lon="5.2278192">
|
|---|
| 2574 | <time>+50838-08-05T19:51:45Z</time>
|
|---|
| 2575 | </trkpt>
|
|---|
| 2576 | <trkpt lat="51.2401421" lon="5.2276225">
|
|---|
| 2577 | <time>+50838-08-05T20:08:25Z</time>
|
|---|
| 2578 | </trkpt>
|
|---|
| 2579 | <trkpt lat="51.2401437" lon="5.2274773">
|
|---|
| 2580 | <time>+50838-08-05T20:25:05Z</time>
|
|---|
| 2581 | </trkpt>
|
|---|
| 2582 | <trkpt lat="51.2401242" lon="5.2273678">
|
|---|
| 2583 | <time>+50838-08-05T20:41:45Z</time>
|
|---|
| 2584 | </trkpt>
|
|---|
| 2585 | <trkpt lat="51.2397956" lon="5.2255224">
|
|---|
| 2586 | <time>+50838-08-05T20:58:25Z</time>
|
|---|
| 2587 | </trkpt>
|
|---|
| 2588 | <trkpt lat="51.2397565" lon="5.2253016">
|
|---|
| 2589 | <time>+50838-08-05T21:15:05Z</time>
|
|---|
| 2590 | </trkpt>
|
|---|
| 2591 | <trkpt lat="51.2396177" lon="5.2244253">
|
|---|
| 2592 | <time>+50838-08-05T21:31:45Z</time>
|
|---|
| 2593 | </trkpt>
|
|---|
| 2594 | <trkpt lat="51.2396115" lon="5.2243058">
|
|---|
| 2595 | <time>+50838-08-05T21:48:25Z</time>
|
|---|
| 2596 | </trkpt>
|
|---|
| 2597 | <trkpt lat="51.2396115" lon="5.2243058">
|
|---|
| 2598 | <time>+50838-08-05T22:05:05Z</time>
|
|---|
| 2599 | </trkpt>
|
|---|
| 2600 | <trkpt lat="51.2394785" lon="5.2242022">
|
|---|
| 2601 | <time>+50838-08-05T22:21:45Z</time>
|
|---|
| 2602 | </trkpt>
|
|---|
| 2603 | <trkpt lat="51.2393444" lon="5.2242094">
|
|---|
| 2604 | <time>+50838-08-05T22:38:25Z</time>
|
|---|
| 2605 | </trkpt>
|
|---|
| 2606 | <trkpt lat="51.2391664" lon="5.2242641">
|
|---|
| 2607 | <time>+50838-08-05T22:55:05Z</time>
|
|---|
| 2608 | </trkpt>
|
|---|
| 2609 | <trkpt lat="51.2391664" lon="5.2242641">
|
|---|
| 2610 | <time>+50838-08-05T23:11:45Z</time>
|
|---|
| 2611 | </trkpt>
|
|---|
| 2612 | <trkpt lat="51.2391212" lon="5.2240753">
|
|---|
| 2613 | <time>+50838-08-05T23:28:25Z</time>
|
|---|
| 2614 | </trkpt>
|
|---|
| 2615 | <trkpt lat="51.2389361" lon="5.2232432">
|
|---|
| 2616 | <time>+50838-08-05T23:45:05Z</time>
|
|---|
| 2617 | </trkpt>
|
|---|
| 2618 | <trkpt lat="51.2387375" lon="5.2224547">
|
|---|
| 2619 | <time>+50838-08-06T00:01:45Z</time>
|
|---|
| 2620 | </trkpt>
|
|---|
| 2621 | <trkpt lat="51.2387375" lon="5.2224547">
|
|---|
| 2622 | <time>+50838-08-06T00:18:25Z</time>
|
|---|
| 2623 | </trkpt>
|
|---|
| 2624 | <trkpt lat="51.2386506" lon="5.2221851">
|
|---|
| 2625 | <time>+50838-08-06T00:35:05Z</time>
|
|---|
| 2626 | </trkpt>
|
|---|
| 2627 | <trkpt lat="51.2385458" lon="5.2219156">
|
|---|
| 2628 | <time>+50838-08-06T00:51:45Z</time>
|
|---|
| 2629 | </trkpt>
|
|---|
| 2630 | <trkpt lat="51.2384089" lon="5.2212479">
|
|---|
| 2631 | <time>+50838-08-06T01:08:25Z</time>
|
|---|
| 2632 | </trkpt>
|
|---|
| 2633 | <trkpt lat="51.2384004" lon="5.220898">
|
|---|
| 2634 | <time>+50838-08-06T01:25:05Z</time>
|
|---|
| 2635 | </trkpt>
|
|---|
| 2636 | <trkpt lat="51.2384004" lon="5.220898">
|
|---|
| 2637 | <time>+50838-08-06T01:41:45Z</time>
|
|---|
| 2638 | </trkpt>
|
|---|
| 2639 | <trkpt lat="51.2383839" lon="5.2207274">
|
|---|
| 2640 | <time>+50838-08-06T01:58:25Z</time>
|
|---|
| 2641 | </trkpt>
|
|---|
| 2642 | <trkpt lat="51.2382102" lon="5.2199804">
|
|---|
| 2643 | <time>+50838-08-06T02:15:05Z</time>
|
|---|
| 2644 | </trkpt>
|
|---|
| 2645 | <trkpt lat="51.2381054" lon="5.2194884">
|
|---|
| 2646 | <time>+50838-08-06T02:31:45Z</time>
|
|---|
| 2647 | </trkpt>
|
|---|
| 2648 | <trkpt lat="51.2379929" lon="5.2186892">
|
|---|
| 2649 | <time>+50838-08-06T02:48:25Z</time>
|
|---|
| 2650 | </trkpt>
|
|---|
| 2651 | <trkpt lat="51.2379306" lon="5.2177896">
|
|---|
| 2652 | <time>+50838-08-06T03:05:05Z</time>
|
|---|
| 2653 | </trkpt>
|
|---|
| 2654 | <trkpt lat="51.2379023" lon="5.2166195">
|
|---|
| 2655 | <time>+50838-08-06T03:21:45Z</time>
|
|---|
| 2656 | </trkpt>
|
|---|
| 2657 | <trkpt lat="51.2379385" lon="5.2156741">
|
|---|
| 2658 | <time>+50838-08-06T03:38:25Z</time>
|
|---|
| 2659 | </trkpt>
|
|---|
| 2660 | <trkpt lat="51.2379385" lon="5.2156741">
|
|---|
| 2661 | <time>+50838-08-06T03:55:05Z</time>
|
|---|
| 2662 | </trkpt>
|
|---|
| 2663 | <trkpt lat="51.2383236" lon="5.2156906">
|
|---|
| 2664 | <time>+50838-08-06T04:11:45Z</time>
|
|---|
| 2665 | </trkpt>
|
|---|
| 2666 | <trkpt lat="51.2383236" lon="5.2156906">
|
|---|
| 2667 | <time>+50838-08-06T04:28:25Z</time>
|
|---|
| 2668 | </trkpt>
|
|---|
| 2669 | <trkpt lat="51.2405324" lon="5.2157532">
|
|---|
| 2670 | <time>+50838-08-06T04:45:05Z</time>
|
|---|
| 2671 | </trkpt>
|
|---|
| 2672 | <trkpt lat="51.2410322" lon="5.2157671">
|
|---|
| 2673 | <time>+50838-08-06T05:01:45Z</time>
|
|---|
| 2674 | </trkpt>
|
|---|
| 2675 | <trkpt lat="51.2410322" lon="5.2157671">
|
|---|
| 2676 | <time>+50838-08-06T05:18:25Z</time>
|
|---|
| 2677 | </trkpt>
|
|---|
| 2678 | <trkpt lat="51.2410779" lon="5.2157684">
|
|---|
| 2679 | <time>+50838-08-06T05:35:05Z</time>
|
|---|
| 2680 | </trkpt>
|
|---|
| 2681 | <trkpt lat="51.2410779" lon="5.2157684">
|
|---|
| 2682 | <time>+50838-08-06T05:51:45Z</time>
|
|---|
| 2683 | </trkpt>
|
|---|
| 2684 | <trkpt lat="51.2412895" lon="5.2157743">
|
|---|
| 2685 | <time>+50838-08-06T06:08:25Z</time>
|
|---|
| 2686 | </trkpt>
|
|---|
| 2687 | <trkpt lat="51.2421072" lon="5.2158238">
|
|---|
| 2688 | <time>+50838-08-06T06:25:05Z</time>
|
|---|
| 2689 | </trkpt>
|
|---|
| 2690 | <trkpt lat="51.2435246" lon="5.2158673">
|
|---|
| 2691 | <time>+50838-08-06T06:41:45Z</time>
|
|---|
| 2692 | </trkpt>
|
|---|
| 2693 | <trkpt lat="51.2438858" lon="5.2158876">
|
|---|
| 2694 | <time>+50838-08-06T06:58:25Z</time>
|
|---|
| 2695 | </trkpt>
|
|---|
| 2696 | <trkpt lat="51.2445493" lon="5.2159354">
|
|---|
| 2697 | <time>+50838-08-06T07:15:05Z</time>
|
|---|
| 2698 | </trkpt>
|
|---|
| 2699 | <trkpt lat="51.2447207" lon="5.2159454">
|
|---|
| 2700 | <time>+50838-08-06T07:31:45Z</time>
|
|---|
| 2701 | </trkpt>
|
|---|
| 2702 | <trkpt lat="51.2447207" lon="5.2159454">
|
|---|
| 2703 | <time>+50838-08-06T07:48:25Z</time>
|
|---|
| 2704 | </trkpt>
|
|---|
| 2705 | <trkpt lat="51.2450224" lon="5.2159461">
|
|---|
| 2706 | <time>+50838-08-06T08:05:05Z</time>
|
|---|
| 2707 | </trkpt>
|
|---|
| 2708 | <trkpt lat="51.245451" lon="5.2159663">
|
|---|
| 2709 | <time>+50838-08-06T08:21:45Z</time>
|
|---|
| 2710 | </trkpt>
|
|---|
| 2711 | <trkpt lat="51.245451" lon="5.2159663">
|
|---|
| 2712 | <time>+50838-08-06T08:38:25Z</time>
|
|---|
| 2713 | </trkpt>
|
|---|
| 2714 | <trkpt lat="51.2454978" lon="5.2159676">
|
|---|
| 2715 | <time>+50838-08-06T08:55:05Z</time>
|
|---|
| 2716 | </trkpt>
|
|---|
| 2717 | <trkpt lat="51.2454978" lon="5.2159676">
|
|---|
| 2718 | <time>+50838-08-06T09:11:45Z</time>
|
|---|
| 2719 | </trkpt>
|
|---|
| 2720 | <trkpt lat="51.2470016" lon="5.2160106">
|
|---|
| 2721 | <time>+50838-08-06T09:28:25Z</time>
|
|---|
| 2722 | </trkpt>
|
|---|
| 2723 | <trkpt lat="51.2470734" lon="5.2161213">
|
|---|
| 2724 | <time>+50838-08-06T09:45:05Z</time>
|
|---|
| 2725 | </trkpt>
|
|---|
| 2726 | <trkpt lat="51.2471608" lon="5.2161739">
|
|---|
| 2727 | <time>+50838-08-06T10:01:45Z</time>
|
|---|
| 2728 | </trkpt>
|
|---|
| 2729 | <trkpt lat="51.2471608" lon="5.2161739">
|
|---|
| 2730 | <time>+50838-08-06T10:18:25Z</time>
|
|---|
| 2731 | </trkpt>
|
|---|
| 2732 | <trkpt lat="51.2471631" lon="5.2162374">
|
|---|
| 2733 | <time>+50838-08-06T10:35:05Z</time>
|
|---|
| 2734 | </trkpt>
|
|---|
| 2735 | <trkpt lat="51.2471782" lon="5.216283">
|
|---|
| 2736 | <time>+50838-08-06T10:51:45Z</time>
|
|---|
| 2737 | </trkpt>
|
|---|
| 2738 | <trkpt lat="51.2471782" lon="5.216283">
|
|---|
| 2739 | <time>+50838-08-06T11:08:25Z</time>
|
|---|
| 2740 | </trkpt>
|
|---|
| 2741 | <trkpt lat="51.2472588" lon="5.2163822">
|
|---|
| 2742 | <time>+50838-08-06T11:25:05Z</time>
|
|---|
| 2743 | </trkpt>
|
|---|
| 2744 | <trkpt lat="51.2472588" lon="5.2163822">
|
|---|
| 2745 | <time>+50838-08-06T11:41:45Z</time>
|
|---|
| 2746 | </trkpt>
|
|---|
| 2747 | <trkpt lat="51.2472865" lon="5.2164238">
|
|---|
| 2748 | <time>+50838-08-06T11:58:25Z</time>
|
|---|
| 2749 | </trkpt>
|
|---|
| 2750 | <trkpt lat="51.2472865" lon="5.2164238">
|
|---|
| 2751 | <time>+50838-08-06T12:15:05Z</time>
|
|---|
| 2752 | </trkpt>
|
|---|
| 2753 | <trkpt lat="51.2473262" lon="5.216464">
|
|---|
| 2754 | <time>+50838-08-06T12:31:45Z</time>
|
|---|
| 2755 | </trkpt>
|
|---|
| 2756 | <trkpt lat="51.2485542" lon="5.2182803">
|
|---|
| 2757 | <time>+50838-08-06T12:48:25Z</time>
|
|---|
| 2758 | </trkpt>
|
|---|
| 2759 | <trkpt lat="51.2487505" lon="5.2185772">
|
|---|
| 2760 | <time>+50838-08-06T13:05:05Z</time>
|
|---|
| 2761 | </trkpt>
|
|---|
| 2762 | <trkpt lat="51.2499278" lon="5.2203227">
|
|---|
| 2763 | <time>+50838-08-06T13:21:45Z</time>
|
|---|
| 2764 | </trkpt>
|
|---|
| 2765 | <trkpt lat="51.2502782" lon="5.2208273">
|
|---|
| 2766 | <time>+50838-08-06T13:38:25Z</time>
|
|---|
| 2767 | </trkpt>
|
|---|
| 2768 | <trkpt lat="51.2511898" lon="5.2221403">
|
|---|
| 2769 | <time>+50838-08-06T13:55:05Z</time>
|
|---|
| 2770 | </trkpt>
|
|---|
| 2771 | <trkpt lat="51.2511898" lon="5.2221403">
|
|---|
| 2772 | <time>+50838-08-06T14:11:45Z</time>
|
|---|
| 2773 | </trkpt>
|
|---|
| 2774 | <trkpt lat="51.2529779" lon="5.2248908">
|
|---|
| 2775 | <time>+50838-08-06T14:28:25Z</time>
|
|---|
| 2776 | </trkpt>
|
|---|
| 2777 | <trkpt lat="51.2540505" lon="5.2265406">
|
|---|
| 2778 | <time>+50838-08-06T14:45:05Z</time>
|
|---|
| 2779 | </trkpt>
|
|---|
| 2780 | <trkpt lat="51.2550079" lon="5.2279702">
|
|---|
| 2781 | <time>+50838-08-06T15:01:45Z</time>
|
|---|
| 2782 | </trkpt>
|
|---|
| 2783 | <trkpt lat="51.2564242" lon="5.2300486">
|
|---|
| 2784 | <time>+50838-08-06T15:18:25Z</time>
|
|---|
| 2785 | </trkpt>
|
|---|
| 2786 | <trkpt lat="51.2583129" lon="5.2328491">
|
|---|
| 2787 | <time>+50838-08-06T15:35:05Z</time>
|
|---|
| 2788 | </trkpt>
|
|---|
| 2789 | <trkpt lat="51.2590523" lon="5.2339505">
|
|---|
| 2790 | <time>+50838-08-06T15:51:45Z</time>
|
|---|
| 2791 | </trkpt>
|
|---|
| 2792 | <trkpt lat="51.2602188" lon="5.2356775">
|
|---|
| 2793 | <time>+50838-08-06T16:08:25Z</time>
|
|---|
| 2794 | </trkpt>
|
|---|
| 2795 | <trkpt lat="51.2614679" lon="5.2375702">
|
|---|
| 2796 | <time>+50838-08-06T16:25:05Z</time>
|
|---|
| 2797 | </trkpt>
|
|---|
| 2798 | <trkpt lat="51.2614679" lon="5.2375702">
|
|---|
| 2799 | <time>+50838-08-06T16:41:45Z</time>
|
|---|
| 2800 | </trkpt>
|
|---|
| 2801 | <trkpt lat="51.2621539" lon="5.2363945">
|
|---|
| 2802 | <time>+50838-08-06T16:58:25Z</time>
|
|---|
| 2803 | </trkpt>
|
|---|
| 2804 | <trkpt lat="51.2630928" lon="5.2347494">
|
|---|
| 2805 | <time>+50838-08-06T17:15:05Z</time>
|
|---|
| 2806 | </trkpt>
|
|---|
| 2807 | <trkpt lat="51.2637276" lon="5.2336705">
|
|---|
| 2808 | <time>+50838-08-06T17:31:45Z</time>
|
|---|
| 2809 | </trkpt>
|
|---|
| 2810 | <trkpt lat="51.2651457" lon="5.2312175">
|
|---|
| 2811 | <time>+50838-08-06T17:48:25Z</time>
|
|---|
| 2812 | </trkpt>
|
|---|
| 2813 | <trkpt lat="51.2662615" lon="5.2293066">
|
|---|
| 2814 | <time>+50838-08-06T18:05:05Z</time>
|
|---|
| 2815 | </trkpt>
|
|---|
| 2816 | <trkpt lat="51.2681019" lon="5.2261113">
|
|---|
| 2817 | <time>+50838-08-06T18:21:45Z</time>
|
|---|
| 2818 | </trkpt>
|
|---|
| 2819 | <trkpt lat="51.2681893" lon="5.2259374">
|
|---|
| 2820 | <time>+50838-08-06T18:38:25Z</time>
|
|---|
| 2821 | </trkpt>
|
|---|
| 2822 | <trkpt lat="51.2681893" lon="5.2259374">
|
|---|
| 2823 | <time>+50838-08-06T18:55:05Z</time>
|
|---|
| 2824 | </trkpt>
|
|---|
| 2825 | <trkpt lat="51.268252" lon="5.2259205">
|
|---|
| 2826 | <time>+50838-08-06T19:11:45Z</time>
|
|---|
| 2827 | </trkpt>
|
|---|
| 2828 | <trkpt lat="51.268252" lon="5.2259205">
|
|---|
| 2829 | <time>+50838-08-06T19:28:25Z</time>
|
|---|
| 2830 | </trkpt>
|
|---|
| 2831 | <trkpt lat="51.2708178" lon="5.2275036">
|
|---|
| 2832 | <time>+50838-08-06T19:45:05Z</time>
|
|---|
| 2833 | </trkpt>
|
|---|
| 2834 | <trkpt lat="51.2708178" lon="5.2275036">
|
|---|
| 2835 | <time>+50838-08-06T20:01:45Z</time>
|
|---|
| 2836 | </trkpt>
|
|---|
| 2837 | <trkpt lat="51.2722112" lon="5.2282928">
|
|---|
| 2838 | <time>+50838-08-06T20:18:25Z</time>
|
|---|
| 2839 | </trkpt>
|
|---|
| 2840 | <trkpt lat="51.2739235" lon="5.2292826">
|
|---|
| 2841 | <time>+50838-08-06T20:35:05Z</time>
|
|---|
| 2842 | </trkpt>
|
|---|
| 2843 | <trkpt lat="51.2750646" lon="5.2299444">
|
|---|
| 2844 | <time>+50838-08-06T20:51:45Z</time>
|
|---|
| 2845 | </trkpt>
|
|---|
| 2846 | <trkpt lat="51.2762937" lon="5.2306399">
|
|---|
| 2847 | <time>+50838-08-06T21:08:25Z</time>
|
|---|
| 2848 | </trkpt>
|
|---|
| 2849 | <trkpt lat="51.2762937" lon="5.2306399">
|
|---|
| 2850 | <time>+50838-08-06T21:25:05Z</time>
|
|---|
| 2851 | </trkpt>
|
|---|
| 2852 | <trkpt lat="51.2771432" lon="5.231095">
|
|---|
| 2853 | <time>+50838-08-06T21:41:45Z</time>
|
|---|
| 2854 | </trkpt>
|
|---|
| 2855 | <trkpt lat="51.2774786" lon="5.2312765">
|
|---|
| 2856 | <time>+50838-08-06T21:58:25Z</time>
|
|---|
| 2857 | </trkpt>
|
|---|
| 2858 | <trkpt lat="51.2775496" lon="5.2313272">
|
|---|
| 2859 | <time>+50838-08-06T22:15:05Z</time>
|
|---|
| 2860 | </trkpt>
|
|---|
| 2861 | <trkpt lat="51.2778586" lon="5.231924">
|
|---|
| 2862 | <time>+50838-08-06T22:31:45Z</time>
|
|---|
| 2863 | </trkpt>
|
|---|
| 2864 | <trkpt lat="51.2783937" lon="5.2329059">
|
|---|
| 2865 | <time>+50838-08-06T22:48:25Z</time>
|
|---|
| 2866 | </trkpt>
|
|---|
| 2867 | <trkpt lat="51.2804746" lon="5.2369516">
|
|---|
| 2868 | <time>+50838-08-06T23:05:05Z</time>
|
|---|
| 2869 | </trkpt>
|
|---|
| 2870 | <trkpt lat="51.2804746" lon="5.2369516">
|
|---|
| 2871 | <time>+50838-08-06T23:21:45Z</time>
|
|---|
| 2872 | </trkpt>
|
|---|
| 2873 | <trkpt lat="51.2807866" lon="5.2363321">
|
|---|
| 2874 | <time>+50838-08-06T23:38:25Z</time>
|
|---|
| 2875 | </trkpt>
|
|---|
| 2876 | <trkpt lat="51.282023" lon="5.2382737">
|
|---|
| 2877 | <time>+50838-08-06T23:55:05Z</time>
|
|---|
| 2878 | </trkpt>
|
|---|
| 2879 | <trkpt lat="51.283524" lon="5.2403505">
|
|---|
| 2880 | <time>+50838-08-07T00:11:45Z</time>
|
|---|
| 2881 | </trkpt>
|
|---|
| 2882 | <trkpt lat="51.283524" lon="5.2403505">
|
|---|
| 2883 | <time>+50838-08-07T00:28:25Z</time>
|
|---|
| 2884 | </trkpt>
|
|---|
| 2885 | <trkpt lat="51.28389" lon="5.23991">
|
|---|
| 2886 | <time>+50838-08-07T00:45:05Z</time>
|
|---|
| 2887 | </trkpt>
|
|---|
| 2888 | <trkpt lat="51.28411" lon="5.23968">
|
|---|
| 2889 | <time>+50838-08-07T01:01:45Z</time>
|
|---|
| 2890 | </trkpt>
|
|---|
| 2891 | <trkpt lat="51.2844" lon="5.23942">
|
|---|
| 2892 | <time>+50838-08-07T01:18:25Z</time>
|
|---|
| 2893 | </trkpt>
|
|---|
| 2894 | <trkpt lat="51.2847667" lon="5.2391202">
|
|---|
| 2895 | <time>+50838-08-07T01:35:05Z</time>
|
|---|
| 2896 | </trkpt>
|
|---|
| 2897 | <trkpt lat="51.2850316" lon="5.2389398">
|
|---|
| 2898 | <time>+50838-08-07T01:51:45Z</time>
|
|---|
| 2899 | </trkpt>
|
|---|
| 2900 | <trkpt lat="51.2852943" lon="5.2388046">
|
|---|
| 2901 | <time>+50838-08-07T02:08:25Z</time>
|
|---|
| 2902 | </trkpt>
|
|---|
| 2903 | <trkpt lat="51.2852943" lon="5.2388046">
|
|---|
| 2904 | <time>+50838-08-07T02:25:05Z</time>
|
|---|
| 2905 | </trkpt>
|
|---|
| 2906 | <trkpt lat="51.2855649" lon="5.2386914">
|
|---|
| 2907 | <time>+50838-08-07T02:41:45Z</time>
|
|---|
| 2908 | </trkpt>
|
|---|
| 2909 | <trkpt lat="51.2858279" lon="5.2385804">
|
|---|
| 2910 | <time>+50838-08-07T02:58:25Z</time>
|
|---|
| 2911 | </trkpt>
|
|---|
| 2912 | <trkpt lat="51.2860173" lon="5.238525">
|
|---|
| 2913 | <time>+50838-08-07T03:15:05Z</time>
|
|---|
| 2914 | </trkpt>
|
|---|
| 2915 | <trkpt lat="51.28621" lon="5.23848">
|
|---|
| 2916 | <time>+50838-08-07T03:31:45Z</time>
|
|---|
| 2917 | </trkpt>
|
|---|
| 2918 | <trkpt lat="51.2870279" lon="5.2383641">
|
|---|
| 2919 | <time>+50838-08-07T03:48:25Z</time>
|
|---|
| 2920 | </trkpt>
|
|---|
| 2921 | <trkpt lat="51.2921378" lon="5.238059">
|
|---|
| 2922 | <time>+50838-08-07T04:05:05Z</time>
|
|---|
| 2923 | </trkpt>
|
|---|
| 2924 | <trkpt lat="51.2922343" lon="5.2380649">
|
|---|
| 2925 | <time>+50838-08-07T04:21:45Z</time>
|
|---|
| 2926 | </trkpt>
|
|---|
| 2927 | <trkpt lat="51.2922343" lon="5.2380649">
|
|---|
| 2928 | <time>+50838-08-07T04:38:25Z</time>
|
|---|
| 2929 | </trkpt>
|
|---|
| 2930 | <trkpt lat="51.2922325" lon="5.2379819">
|
|---|
| 2931 | <time>+50838-08-07T04:55:05Z</time>
|
|---|
| 2932 | </trkpt>
|
|---|
| 2933 | <trkpt lat="51.2922325" lon="5.2379819">
|
|---|
| 2934 | <time>+50838-08-07T05:11:45Z</time>
|
|---|
| 2935 | </trkpt>
|
|---|
| 2936 | <trkpt lat="51.2923083" lon="5.2379775">
|
|---|
| 2937 | <time>+50838-08-07T05:28:25Z</time>
|
|---|
| 2938 | </trkpt>
|
|---|
| 2939 | <trkpt lat="51.2923784" lon="5.2380212">
|
|---|
| 2940 | <time>+50838-08-07T05:45:05Z</time>
|
|---|
| 2941 | </trkpt>
|
|---|
| 2942 | <trkpt lat="51.2924709" lon="5.2381197">
|
|---|
| 2943 | <time>+50838-08-07T06:01:45Z</time>
|
|---|
| 2944 | </trkpt>
|
|---|
| 2945 | <trkpt lat="51.2954482" lon="5.2394788">
|
|---|
| 2946 | <time>+50838-08-07T06:18:25Z</time>
|
|---|
| 2947 | </trkpt>
|
|---|
| 2948 | <trkpt lat="51.295731" lon="5.2396416">
|
|---|
| 2949 | <time>+50838-08-07T06:35:05Z</time>
|
|---|
| 2950 | </trkpt>
|
|---|
| 2951 | <trkpt lat="51.2960548" lon="5.2398281">
|
|---|
| 2952 | <time>+50838-08-07T06:51:45Z</time>
|
|---|
| 2953 | </trkpt>
|
|---|
| 2954 | <trkpt lat="51.2962488" lon="5.2398948">
|
|---|
| 2955 | <time>+50838-08-07T07:08:25Z</time>
|
|---|
| 2956 | </trkpt>
|
|---|
| 2957 | <trkpt lat="51.2965821" lon="5.2400254">
|
|---|
| 2958 | <time>+50838-08-07T07:25:05Z</time>
|
|---|
| 2959 | </trkpt>
|
|---|
| 2960 | <trkpt lat="51.2968066" lon="5.2401125">
|
|---|
| 2961 | <time>+50838-08-07T07:41:45Z</time>
|
|---|
| 2962 | </trkpt>
|
|---|
| 2963 | <trkpt lat="51.297171" lon="5.2401695">
|
|---|
| 2964 | <time>+50838-08-07T07:58:25Z</time>
|
|---|
| 2965 | </trkpt>
|
|---|
| 2966 | <trkpt lat="51.2973495" lon="5.2402091">
|
|---|
| 2967 | <time>+50838-08-07T08:15:05Z</time>
|
|---|
| 2968 | </trkpt>
|
|---|
| 2969 | <trkpt lat="51.2975538" lon="5.2402114">
|
|---|
| 2970 | <time>+50838-08-07T08:31:45Z</time>
|
|---|
| 2971 | </trkpt>
|
|---|
| 2972 | <trkpt lat="51.2976432" lon="5.2401888">
|
|---|
| 2973 | <time>+50838-08-07T08:48:25Z</time>
|
|---|
| 2974 | </trkpt>
|
|---|
| 2975 | <trkpt lat="51.2978161" lon="5.240113">
|
|---|
| 2976 | <time>+50838-08-07T09:05:05Z</time>
|
|---|
| 2977 | </trkpt>
|
|---|
| 2978 | <trkpt lat="51.2980122" lon="5.2400243">
|
|---|
| 2979 | <time>+50838-08-07T09:21:45Z</time>
|
|---|
| 2980 | </trkpt>
|
|---|
| 2981 | <trkpt lat="51.2981384" lon="5.2399983">
|
|---|
| 2982 | <time>+50838-08-07T09:38:25Z</time>
|
|---|
| 2983 | </trkpt>
|
|---|
| 2984 | <trkpt lat="51.2982579" lon="5.2399904">
|
|---|
| 2985 | <time>+50838-08-07T09:55:05Z</time>
|
|---|
| 2986 | </trkpt>
|
|---|
| 2987 | <trkpt lat="51.2983986" lon="5.2399474">
|
|---|
| 2988 | <time>+50838-08-07T10:11:45Z</time>
|
|---|
| 2989 | </trkpt>
|
|---|
| 2990 | <trkpt lat="51.2984883" lon="5.2399508">
|
|---|
| 2991 | <time>+50838-08-07T10:28:25Z</time>
|
|---|
| 2992 | </trkpt>
|
|---|
| 2993 | <trkpt lat="51.2986117" lon="5.239974">
|
|---|
| 2994 | <time>+50838-08-07T10:45:05Z</time>
|
|---|
| 2995 | </trkpt>
|
|---|
| 2996 | <trkpt lat="51.2986621" lon="5.2399651">
|
|---|
| 2997 | <time>+50838-08-07T11:01:45Z</time>
|
|---|
| 2998 | </trkpt>
|
|---|
| 2999 | <trkpt lat="51.2988102" lon="5.2398922">
|
|---|
| 3000 | <time>+50838-08-07T11:18:25Z</time>
|
|---|
| 3001 | </trkpt>
|
|---|
| 3002 | <trkpt lat="51.2988102" lon="5.2398922">
|
|---|
| 3003 | <time>+50838-08-07T11:35:05Z</time>
|
|---|
| 3004 | </trkpt>
|
|---|
| 3005 | <trkpt lat="51.2988187" lon="5.239672">
|
|---|
| 3006 | <time>+50838-08-07T11:51:45Z</time>
|
|---|
| 3007 | </trkpt>
|
|---|
| 3008 | <trkpt lat="51.2986668" lon="5.2395707">
|
|---|
| 3009 | <time>+50838-08-07T12:08:25Z</time>
|
|---|
| 3010 | </trkpt>
|
|---|
| 3011 | <trkpt lat="51.2986668" lon="5.2395707">
|
|---|
| 3012 | <time>+50838-08-07T12:25:05Z</time>
|
|---|
| 3013 | </trkpt>
|
|---|
| 3014 | <trkpt lat="51.298667" lon="5.2394029">
|
|---|
| 3015 | <time>+50838-08-07T12:41:45Z</time>
|
|---|
| 3016 | </trkpt>
|
|---|
| 3017 | <trkpt lat="51.298667" lon="5.2393753">
|
|---|
| 3018 | <time>+50838-08-07T12:58:25Z</time>
|
|---|
| 3019 | </trkpt>
|
|---|
| 3020 | <trkpt lat="51.2986779" lon="5.239216">
|
|---|
| 3021 | <time>+50838-08-07T13:15:05Z</time>
|
|---|
| 3022 | </trkpt>
|
|---|
| 3023 | <trkpt lat="51.2986779" lon="5.239216">
|
|---|
| 3024 | <time>+50838-08-07T13:31:45Z</time>
|
|---|
| 3025 | </trkpt>
|
|---|
| 3026 | <trkpt lat="51.2985833" lon="5.2391685">
|
|---|
| 3027 | <time>+50838-08-07T13:48:25Z</time>
|
|---|
| 3028 | </trkpt>
|
|---|
| 3029 | <trkpt lat="51.2984387" lon="5.2391173">
|
|---|
| 3030 | <time>+50838-08-07T14:05:05Z</time>
|
|---|
| 3031 | </trkpt>
|
|---|
| 3032 | <trkpt lat="51.2983047" lon="5.2391097">
|
|---|
| 3033 | <time>+50838-08-07T14:21:45Z</time>
|
|---|
| 3034 | </trkpt>
|
|---|
| 3035 | <trkpt lat="51.2981577" lon="5.239032">
|
|---|
| 3036 | <time>+50838-08-07T14:38:25Z</time>
|
|---|
| 3037 | </trkpt>
|
|---|
| 3038 | <trkpt lat="51.2976905" lon="5.238812">
|
|---|
| 3039 | <time>+50838-08-07T14:55:05Z</time>
|
|---|
| 3040 | </trkpt>
|
|---|
| 3041 | <trkpt lat="51.297285" lon="5.238685">
|
|---|
| 3042 | <time>+50838-08-07T15:11:45Z</time>
|
|---|
| 3043 | </trkpt>
|
|---|
| 3044 | <trkpt lat="51.2970692" lon="5.238647">
|
|---|
| 3045 | <time>+50838-08-07T15:28:25Z</time>
|
|---|
| 3046 | </trkpt>
|
|---|
| 3047 | <trkpt lat="51.296921" lon="5.2385845">
|
|---|
| 3048 | <time>+50838-08-07T15:45:05Z</time>
|
|---|
| 3049 | </trkpt>
|
|---|
| 3050 | <trkpt lat="51.2968475" lon="5.2385219">
|
|---|
| 3051 | <time>+50838-08-07T16:01:45Z</time>
|
|---|
| 3052 | </trkpt>
|
|---|
| 3053 | <trkpt lat="51.2966614" lon="5.2384195">
|
|---|
| 3054 | <time>+50838-08-07T16:18:25Z</time>
|
|---|
| 3055 | </trkpt>
|
|---|
| 3056 | <trkpt lat="51.2958835" lon="5.2380459">
|
|---|
| 3057 | <time>+50838-08-07T16:35:05Z</time>
|
|---|
| 3058 | </trkpt>
|
|---|
| 3059 | <trkpt lat="51.2957484" lon="5.237972">
|
|---|
| 3060 | <time>+50838-08-07T16:51:45Z</time>
|
|---|
| 3061 | </trkpt>
|
|---|
| 3062 | <trkpt lat="51.2954176" lon="5.237826">
|
|---|
| 3063 | <time>+50838-08-07T17:08:25Z</time>
|
|---|
| 3064 | </trkpt>
|
|---|
| 3065 | <trkpt lat="51.2951828" lon="5.2377748">
|
|---|
| 3066 | <time>+50838-08-07T17:25:05Z</time>
|
|---|
| 3067 | </trkpt>
|
|---|
| 3068 | <trkpt lat="51.2948413" lon="5.2375965">
|
|---|
| 3069 | <time>+50838-08-07T17:41:45Z</time>
|
|---|
| 3070 | </trkpt>
|
|---|
| 3071 | <trkpt lat="51.2942804" lon="5.2373329">
|
|---|
| 3072 | <time>+50838-08-07T17:58:25Z</time>
|
|---|
| 3073 | </trkpt>
|
|---|
| 3074 | <trkpt lat="51.2938085" lon="5.2371547">
|
|---|
| 3075 | <time>+50838-08-07T18:15:05Z</time>
|
|---|
| 3076 | </trkpt>
|
|---|
| 3077 | <trkpt lat="51.2934397" lon="5.236984">
|
|---|
| 3078 | <time>+50838-08-07T18:31:45Z</time>
|
|---|
| 3079 | </trkpt>
|
|---|
| 3080 | <trkpt lat="51.2934338" lon="5.2362426">
|
|---|
| 3081 | <time>+50838-08-07T18:48:25Z</time>
|
|---|
| 3082 | </trkpt>
|
|---|
| 3083 | <trkpt lat="51.2934243" lon="5.23556">
|
|---|
| 3084 | <time>+50838-08-07T19:05:05Z</time>
|
|---|
| 3085 | </trkpt>
|
|---|
| 3086 | <trkpt lat="51.2934184" lon="5.2346896">
|
|---|
| 3087 | <time>+50838-08-07T19:21:45Z</time>
|
|---|
| 3088 | </trkpt>
|
|---|
| 3089 | <trkpt lat="51.2937895" lon="5.2346668">
|
|---|
| 3090 | <time>+50838-08-07T19:38:25Z</time>
|
|---|
| 3091 | </trkpt>
|
|---|
| 3092 | <trkpt lat="51.2940812" lon="5.2346422">
|
|---|
| 3093 | <time>+50838-08-07T19:55:05Z</time>
|
|---|
| 3094 | </trkpt>
|
|---|
| 3095 | <trkpt lat="51.2947654" lon="5.2345834">
|
|---|
| 3096 | <time>+50838-08-07T20:11:45Z</time>
|
|---|
| 3097 | </trkpt>
|
|---|
| 3098 | <trkpt lat="51.2951626" lon="5.2345607">
|
|---|
| 3099 | <time>+50838-08-07T20:28:25Z</time>
|
|---|
| 3100 | </trkpt>
|
|---|
| 3101 | <trkpt lat="51.2956132" lon="5.2345246">
|
|---|
| 3102 | <time>+50838-08-07T20:45:05Z</time>
|
|---|
| 3103 | </trkpt>
|
|---|
| 3104 | <trkpt lat="51.2958646" lon="5.2345038">
|
|---|
| 3105 | <time>+50838-08-07T21:01:45Z</time>
|
|---|
| 3106 | </trkpt>
|
|---|
| 3107 | <trkpt lat="51.2961349" lon="5.2345322">
|
|---|
| 3108 | <time>+50838-08-07T21:18:25Z</time>
|
|---|
| 3109 | </trkpt>
|
|---|
| 3110 | <trkpt lat="51.2962736" lon="5.2344583">
|
|---|
| 3111 | <time>+50838-08-07T21:35:05Z</time>
|
|---|
| 3112 | </trkpt>
|
|---|
| 3113 | <trkpt lat="51.2965226" lon="5.2344488">
|
|---|
| 3114 | <time>+50838-08-07T21:51:45Z</time>
|
|---|
| 3115 | </trkpt>
|
|---|
| 3116 | <trkpt lat="51.2971914" lon="5.2344203">
|
|---|
| 3117 | <time>+50838-08-07T22:08:25Z</time>
|
|---|
| 3118 | </trkpt>
|
|---|
| 3119 | <trkpt lat="51.2972357" lon="5.2353338">
|
|---|
| 3120 | <time>+50838-08-07T22:25:05Z</time>
|
|---|
| 3121 | </trkpt>
|
|---|
| 3122 | <trkpt lat="51.2972438" lon="5.2355619">
|
|---|
| 3123 | <time>+50838-08-07T22:41:45Z</time>
|
|---|
| 3124 | </trkpt>
|
|---|
| 3125 | <trkpt lat="51.2972649" lon="5.2362957">
|
|---|
| 3126 | <time>+50838-08-07T22:58:25Z</time>
|
|---|
| 3127 | </trkpt>
|
|---|
| 3128 | <trkpt lat="51.2972886" lon="5.2363735">
|
|---|
| 3129 | <time>+50838-08-07T23:15:05Z</time>
|
|---|
| 3130 | </trkpt>
|
|---|
| 3131 | <trkpt lat="51.2973597" lon="5.2363943">
|
|---|
| 3132 | <time>+50838-08-07T23:31:45Z</time>
|
|---|
| 3133 | </trkpt>
|
|---|
| 3134 | <trkpt lat="51.2983083" lon="5.2363412">
|
|---|
| 3135 | <time>+50838-08-07T23:48:25Z</time>
|
|---|
| 3136 | </trkpt>
|
|---|
| 3137 | <trkpt lat="51.2985051" lon="5.2363223">
|
|---|
| 3138 | <time>+50838-08-08T00:05:05Z</time>
|
|---|
| 3139 | </trkpt>
|
|---|
| 3140 | <trkpt lat="51.298626" lon="5.2362843">
|
|---|
| 3141 | <time>+50838-08-08T00:21:45Z</time>
|
|---|
| 3142 | </trkpt>
|
|---|
| 3143 | <trkpt lat="51.2992105" lon="5.2362559">
|
|---|
| 3144 | <time>+50838-08-08T00:38:25Z</time>
|
|---|
| 3145 | </trkpt>
|
|---|
| 3146 | <trkpt lat="51.2999752" lon="5.236218">
|
|---|
| 3147 | <time>+50838-08-08T00:55:05Z</time>
|
|---|
| 3148 | </trkpt>
|
|---|
| 3149 | <trkpt lat="51.300344" lon="5.2361952">
|
|---|
| 3150 | <time>+50838-08-08T01:11:45Z</time>
|
|---|
| 3151 | </trkpt>
|
|---|
| 3152 | <trkpt lat="51.3009119" lon="5.236163">
|
|---|
| 3153 | <time>+50838-08-08T01:28:25Z</time>
|
|---|
| 3154 | </trkpt>
|
|---|
| 3155 | <trkpt lat="51.3010873" lon="5.2361611">
|
|---|
| 3156 | <time>+50838-08-08T01:45:05Z</time>
|
|---|
| 3157 | </trkpt>
|
|---|
| 3158 | <trkpt lat="51.3011075" lon="5.2362748">
|
|---|
| 3159 | <time>+50838-08-08T02:01:45Z</time>
|
|---|
| 3160 | </trkpt>
|
|---|
| 3161 | <trkpt lat="51.301143" lon="5.2366958">
|
|---|
| 3162 | <time>+50838-08-08T02:18:25Z</time>
|
|---|
| 3163 | </trkpt>
|
|---|
| 3164 | <trkpt lat="51.3011905" lon="5.2380213">
|
|---|
| 3165 | <time>+50838-08-08T02:35:05Z</time>
|
|---|
| 3166 | </trkpt>
|
|---|
| 3167 | <trkpt lat="51.3012118" lon="5.2380857">
|
|---|
| 3168 | <time>+50838-08-08T02:51:45Z</time>
|
|---|
| 3169 | </trkpt>
|
|---|
| 3170 | <trkpt lat="51.3012533" lon="5.2381407">
|
|---|
| 3171 | <time>+50838-08-08T03:08:25Z</time>
|
|---|
| 3172 | </trkpt>
|
|---|
| 3173 | <trkpt lat="51.3013908" lon="5.2381332">
|
|---|
| 3174 | <time>+50838-08-08T03:25:05Z</time>
|
|---|
| 3175 | </trkpt>
|
|---|
| 3176 | <trkpt lat="51.3024341" lon="5.2380801">
|
|---|
| 3177 | <time>+50838-08-08T03:41:45Z</time>
|
|---|
| 3178 | </trkpt>
|
|---|
| 3179 | <trkpt lat="51.3024685" lon="5.2381066">
|
|---|
| 3180 | <time>+50838-08-08T03:58:25Z</time>
|
|---|
| 3181 | </trkpt>
|
|---|
| 3182 | <trkpt lat="51.3024922" lon="5.2381654">
|
|---|
| 3183 | <time>+50838-08-08T04:15:05Z</time>
|
|---|
| 3184 | </trkpt>
|
|---|
| 3185 | <trkpt lat="51.3025135" lon="5.238446">
|
|---|
| 3186 | <time>+50838-08-08T04:31:45Z</time>
|
|---|
| 3187 | </trkpt>
|
|---|
| 3188 | <trkpt lat="51.3025693" lon="5.2398966">
|
|---|
| 3189 | <time>+50838-08-08T04:48:25Z</time>
|
|---|
| 3190 | </trkpt>
|
|---|
| 3191 | <trkpt lat="51.3025954" lon="5.2400635">
|
|---|
| 3192 | <time>+50838-08-08T05:05:05Z</time>
|
|---|
| 3193 | </trkpt>
|
|---|
| 3194 | <trkpt lat="51.3026309" lon="5.2401185">
|
|---|
| 3195 | <time>+50838-08-08T05:21:45Z</time>
|
|---|
| 3196 | </trkpt>
|
|---|
| 3197 | <trkpt lat="51.3031774" lon="5.2401147">
|
|---|
| 3198 | <time>+50838-08-08T05:38:25Z</time>
|
|---|
| 3199 | </trkpt>
|
|---|
| 3200 | <trkpt lat="51.3032841" lon="5.2401033">
|
|---|
| 3201 | <time>+50838-08-08T05:55:05Z</time>
|
|---|
| 3202 | </trkpt>
|
|---|
| 3203 | <trkpt lat="51.3034098" lon="5.2400597">
|
|---|
| 3204 | <time>+50838-08-08T06:11:45Z</time>
|
|---|
| 3205 | </trkpt>
|
|---|
| 3206 | <trkpt lat="51.3037192" lon="5.2400559">
|
|---|
| 3207 | <time>+50838-08-08T06:28:25Z</time>
|
|---|
| 3208 | </trkpt>
|
|---|
| 3209 | <trkpt lat="51.3037619" lon="5.2401071">
|
|---|
| 3210 | <time>+50838-08-08T06:45:05Z</time>
|
|---|
| 3211 | </trkpt>
|
|---|
| 3212 | <trkpt lat="51.3038034" lon="5.2402114">
|
|---|
| 3213 | <time>+50838-08-08T07:01:45Z</time>
|
|---|
| 3214 | </trkpt>
|
|---|
| 3215 | <trkpt lat="51.3038745" lon="5.2405641">
|
|---|
| 3216 | <time>+50838-08-08T07:18:25Z</time>
|
|---|
| 3217 | </trkpt>
|
|---|
| 3218 | <trkpt lat="51.3039255" lon="5.2407329">
|
|---|
| 3219 | <time>+50838-08-08T07:35:05Z</time>
|
|---|
| 3220 | </trkpt>
|
|---|
| 3221 | <trkpt lat="51.3040168" lon="5.2408087">
|
|---|
| 3222 | <time>+50838-08-08T07:51:45Z</time>
|
|---|
| 3223 | </trkpt>
|
|---|
| 3224 | <trkpt lat="51.3041472" lon="5.240858">
|
|---|
| 3225 | <time>+50838-08-08T08:08:25Z</time>
|
|---|
| 3226 | </trkpt>
|
|---|
| 3227 | <trkpt lat="51.3041976" lon="5.2409293">
|
|---|
| 3228 | <time>+50838-08-08T08:25:05Z</time>
|
|---|
| 3229 | </trkpt>
|
|---|
| 3230 | <trkpt lat="51.3041922" lon="5.2410666">
|
|---|
| 3231 | <time>+50838-08-08T08:41:45Z</time>
|
|---|
| 3232 | </trkpt>
|
|---|
| 3233 | <trkpt lat="51.3041932" lon="5.241349">
|
|---|
| 3234 | <time>+50838-08-08T08:58:25Z</time>
|
|---|
| 3235 | </trkpt>
|
|---|
| 3236 | <trkpt lat="51.3041932" lon="5.241349">
|
|---|
| 3237 | <time>+50838-08-08T09:15:05Z</time>
|
|---|
| 3238 | </trkpt>
|
|---|
| 3239 | <trkpt lat="51.3038838" lon="5.2414079">
|
|---|
| 3240 | <time>+50838-08-08T09:31:45Z</time>
|
|---|
| 3241 | </trkpt>
|
|---|
| 3242 | <trkpt lat="51.3037507" lon="5.2414782">
|
|---|
| 3243 | <time>+50838-08-08T09:48:25Z</time>
|
|---|
| 3244 | </trkpt>
|
|---|
| 3245 | <trkpt lat="51.3037507" lon="5.2414782">
|
|---|
| 3246 | <time>+50838-08-08T10:05:05Z</time>
|
|---|
| 3247 | </trkpt>
|
|---|
| 3248 | <trkpt lat="51.3037312" lon="5.241633">
|
|---|
| 3249 | <time>+50838-08-08T10:21:45Z</time>
|
|---|
| 3250 | </trkpt>
|
|---|
| 3251 | <trkpt lat="51.3037312" lon="5.241633">
|
|---|
| 3252 | <time>+50838-08-08T10:38:25Z</time>
|
|---|
| 3253 | </trkpt>
|
|---|
| 3254 | <trkpt lat="51.3041787" lon="5.2417969">
|
|---|
| 3255 | <time>+50838-08-08T10:55:05Z</time>
|
|---|
| 3256 | </trkpt>
|
|---|
| 3257 | <trkpt lat="51.3051228" lon="5.2421996">
|
|---|
| 3258 | <time>+50838-08-08T11:11:45Z</time>
|
|---|
| 3259 | </trkpt>
|
|---|
| 3260 | <trkpt lat="51.305154" lon="5.2422031">
|
|---|
| 3261 | <time>+50838-08-08T11:28:25Z</time>
|
|---|
| 3262 | </trkpt>
|
|---|
| 3263 | <trkpt lat="51.3052272" lon="5.2422114">
|
|---|
| 3264 | <time>+50838-08-08T11:45:05Z</time>
|
|---|
| 3265 | </trkpt>
|
|---|
| 3266 | <trkpt lat="51.3053316" lon="5.24218">
|
|---|
| 3267 | <time>+50838-08-08T12:01:45Z</time>
|
|---|
| 3268 | </trkpt>
|
|---|
| 3269 | <trkpt lat="51.3053642" lon="5.2421702">
|
|---|
| 3270 | <time>+50838-08-08T12:18:25Z</time>
|
|---|
| 3271 | </trkpt>
|
|---|
| 3272 | <trkpt lat="51.3053642" lon="5.2421702">
|
|---|
| 3273 | <time>+50838-08-08T12:35:05Z</time>
|
|---|
| 3274 | </trkpt>
|
|---|
| 3275 | <trkpt lat="51.3052808" lon="5.2418925">
|
|---|
| 3276 | <time>+50838-08-08T12:51:45Z</time>
|
|---|
| 3277 | </trkpt>
|
|---|
| 3278 | <trkpt lat="51.3052808" lon="5.2418925">
|
|---|
| 3279 | <time>+50838-08-08T13:08:25Z</time>
|
|---|
| 3280 | </trkpt>
|
|---|
| 3281 | <trkpt lat="51.3052766" lon="5.2417955">
|
|---|
| 3282 | <time>+50838-08-08T13:25:05Z</time>
|
|---|
| 3283 | </trkpt>
|
|---|
| 3284 | <trkpt lat="51.3053071" lon="5.2411665">
|
|---|
| 3285 | <time>+50838-08-08T13:41:45Z</time>
|
|---|
| 3286 | </trkpt>
|
|---|
| 3287 | <trkpt lat="51.3053267" lon="5.2408803">
|
|---|
| 3288 | <time>+50838-08-08T13:58:25Z</time>
|
|---|
| 3289 | </trkpt>
|
|---|
| 3290 | <trkpt lat="51.3057697" lon="5.2340985">
|
|---|
| 3291 | <time>+50838-08-08T14:15:05Z</time>
|
|---|
| 3292 | </trkpt>
|
|---|
| 3293 | <trkpt lat="51.3065473" lon="5.2216194">
|
|---|
| 3294 | <time>+50838-08-08T14:31:45Z</time>
|
|---|
| 3295 | </trkpt>
|
|---|
| 3296 | <trkpt lat="51.3067954" lon="5.217668">
|
|---|
| 3297 | <time>+50838-08-08T14:48:25Z</time>
|
|---|
| 3298 | </trkpt>
|
|---|
| 3299 | <trkpt lat="51.3069443" lon="5.2152976">
|
|---|
| 3300 | <time>+50838-08-08T15:05:05Z</time>
|
|---|
| 3301 | </trkpt>
|
|---|
| 3302 | <trkpt lat="51.3077598" lon="5.20231">
|
|---|
| 3303 | <time>+50838-08-08T15:21:45Z</time>
|
|---|
| 3304 | </trkpt>
|
|---|
| 3305 | <trkpt lat="51.3078248" lon="5.2013653">
|
|---|
| 3306 | <time>+50838-08-08T15:38:25Z</time>
|
|---|
| 3307 | </trkpt>
|
|---|
| 3308 | <trkpt lat="51.30787" lon="5.2007182">
|
|---|
| 3309 | <time>+50838-08-08T15:55:05Z</time>
|
|---|
| 3310 | </trkpt>
|
|---|
| 3311 | <trkpt lat="51.30787" lon="5.2007182">
|
|---|
| 3312 | <time>+50838-08-08T16:11:45Z</time>
|
|---|
| 3313 | </trkpt>
|
|---|
| 3314 | <trkpt lat="51.3059422" lon="5.2000717">
|
|---|
| 3315 | <time>+50838-08-08T16:28:25Z</time>
|
|---|
| 3316 | </trkpt>
|
|---|
| 3317 | <trkpt lat="51.3054511" lon="5.1999266">
|
|---|
| 3318 | <time>+50838-08-08T16:45:05Z</time>
|
|---|
| 3319 | </trkpt>
|
|---|
| 3320 | <trkpt lat="51.3027849" lon="5.1990165">
|
|---|
| 3321 | <time>+50838-08-08T17:01:45Z</time>
|
|---|
| 3322 | </trkpt>
|
|---|
| 3323 | <trkpt lat="51.3014745" lon="5.1985958">
|
|---|
| 3324 | <time>+50838-08-08T17:18:25Z</time>
|
|---|
| 3325 | </trkpt>
|
|---|
| 3326 | <trkpt lat="51.2999458" lon="5.1980726">
|
|---|
| 3327 | <time>+50838-08-08T17:35:05Z</time>
|
|---|
| 3328 | </trkpt>
|
|---|
| 3329 | <trkpt lat="51.2999458" lon="5.1980726">
|
|---|
| 3330 | <time>+50838-08-08T17:51:45Z</time>
|
|---|
| 3331 | </trkpt>
|
|---|
| 3332 | <trkpt lat="51.2977693" lon="5.1973959">
|
|---|
| 3333 | <time>+50838-08-08T18:08:25Z</time>
|
|---|
| 3334 | </trkpt>
|
|---|
| 3335 | <trkpt lat="51.2973585" lon="5.1972082">
|
|---|
| 3336 | <time>+50838-08-08T18:25:05Z</time>
|
|---|
| 3337 | </trkpt>
|
|---|
| 3338 | <trkpt lat="51.2970544" lon="5.196901">
|
|---|
| 3339 | <time>+50838-08-08T18:41:45Z</time>
|
|---|
| 3340 | </trkpt>
|
|---|
| 3341 | <trkpt lat="51.2950167" lon="5.1946523">
|
|---|
| 3342 | <time>+50838-08-08T18:58:25Z</time>
|
|---|
| 3343 | </trkpt>
|
|---|
| 3344 | <trkpt lat="51.2938893" lon="5.1934002">
|
|---|
| 3345 | <time>+50838-08-08T19:15:05Z</time>
|
|---|
| 3346 | </trkpt>
|
|---|
| 3347 | <trkpt lat="51.2928126" lon="5.1922422">
|
|---|
| 3348 | <time>+50838-08-08T19:31:45Z</time>
|
|---|
| 3349 | </trkpt>
|
|---|
| 3350 | <trkpt lat="51.2917423" lon="5.1910647">
|
|---|
| 3351 | <time>+50838-08-08T19:48:25Z</time>
|
|---|
| 3352 | </trkpt>
|
|---|
| 3353 | <trkpt lat="51.2916916" lon="5.1909533">
|
|---|
| 3354 | <time>+50838-08-08T20:05:05Z</time>
|
|---|
| 3355 | </trkpt>
|
|---|
| 3356 | <trkpt lat="51.2916916" lon="5.1909533">
|
|---|
| 3357 | <time>+50838-08-08T20:21:45Z</time>
|
|---|
| 3358 | </trkpt>
|
|---|
| 3359 | <trkpt lat="51.2899979" lon="5.1919233">
|
|---|
| 3360 | <time>+50838-08-08T20:38:25Z</time>
|
|---|
| 3361 | </trkpt>
|
|---|
| 3362 | <trkpt lat="51.2891408" lon="5.1924061">
|
|---|
| 3363 | <time>+50838-08-08T20:55:05Z</time>
|
|---|
| 3364 | </trkpt>
|
|---|
| 3365 | <trkpt lat="51.2891408" lon="5.1924061">
|
|---|
| 3366 | <time>+50838-08-08T21:11:45Z</time>
|
|---|
| 3367 | </trkpt>
|
|---|
| 3368 | <trkpt lat="51.2890972" lon="5.1920348">
|
|---|
| 3369 | <time>+50838-08-08T21:28:25Z</time>
|
|---|
| 3370 | </trkpt>
|
|---|
| 3371 | <trkpt lat="51.2890972" lon="5.1920348">
|
|---|
| 3372 | <time>+50838-08-08T21:45:05Z</time>
|
|---|
| 3373 | </trkpt>
|
|---|
| 3374 | <trkpt lat="51.2890886" lon="5.1919647">
|
|---|
| 3375 | <time>+50838-08-08T22:01:45Z</time>
|
|---|
| 3376 | </trkpt>
|
|---|
| 3377 | <trkpt lat="51.2890886" lon="5.1919647">
|
|---|
| 3378 | <time>+50838-08-08T22:18:25Z</time>
|
|---|
| 3379 | </trkpt>
|
|---|
| 3380 | <trkpt lat="51.2890311" lon="5.191472">
|
|---|
| 3381 | <time>+50838-08-08T22:35:05Z</time>
|
|---|
| 3382 | </trkpt>
|
|---|
| 3383 | <trkpt lat="51.2888695" lon="5.1901849">
|
|---|
| 3384 | <time>+50838-08-08T22:51:45Z</time>
|
|---|
| 3385 | </trkpt>
|
|---|
| 3386 | <trkpt lat="51.2888695" lon="5.1901849">
|
|---|
| 3387 | <time>+50838-08-08T23:08:25Z</time>
|
|---|
| 3388 | </trkpt>
|
|---|
| 3389 | <trkpt lat="51.288654" lon="5.1901404">
|
|---|
| 3390 | <time>+50838-08-08T23:25:05Z</time>
|
|---|
| 3391 | </trkpt>
|
|---|
| 3392 | <trkpt lat="51.2885415" lon="5.1900865">
|
|---|
| 3393 | <time>+50838-08-08T23:41:45Z</time>
|
|---|
| 3394 | </trkpt>
|
|---|
| 3395 | <trkpt lat="51.2884518" lon="5.1899315">
|
|---|
| 3396 | <time>+50838-08-08T23:58:25Z</time>
|
|---|
| 3397 | </trkpt>
|
|---|
| 3398 | <trkpt lat="51.2883685" lon="5.1899237">
|
|---|
| 3399 | <time>+50838-08-09T00:15:05Z</time>
|
|---|
| 3400 | </trkpt>
|
|---|
| 3401 | <trkpt lat="51.2879779" lon="5.1898874">
|
|---|
| 3402 | <time>+50838-08-09T00:31:45Z</time>
|
|---|
| 3403 | </trkpt>
|
|---|
| 3404 | <trkpt lat="51.2879303" lon="5.1898934">
|
|---|
| 3405 | <time>+50838-08-09T00:48:25Z</time>
|
|---|
| 3406 | </trkpt>
|
|---|
| 3407 | <trkpt lat="51.2878851" lon="5.1899265">
|
|---|
| 3408 | <time>+50838-08-09T01:05:05Z</time>
|
|---|
| 3409 | </trkpt>
|
|---|
| 3410 | <trkpt lat="51.2878851" lon="5.1899265">
|
|---|
| 3411 | <time>+50838-08-09T01:21:45Z</time>
|
|---|
| 3412 | </trkpt>
|
|---|
| 3413 | <trkpt lat="51.2878459" lon="5.1899551">
|
|---|
| 3414 | <time>+50838-08-09T01:38:25Z</time>
|
|---|
| 3415 | </trkpt>
|
|---|
| 3416 | <trkpt lat="51.2878459" lon="5.1899551">
|
|---|
| 3417 | <time>+50838-08-09T01:55:05Z</time>
|
|---|
| 3418 | </trkpt>
|
|---|
| 3419 | <trkpt lat="51.2877929" lon="5.1899939">
|
|---|
| 3420 | <time>+50838-08-09T02:11:45Z</time>
|
|---|
| 3421 | </trkpt>
|
|---|
| 3422 | <trkpt lat="51.2877057" lon="5.190022">
|
|---|
| 3423 | <time>+50838-08-09T02:28:25Z</time>
|
|---|
| 3424 | </trkpt>
|
|---|
| 3425 | <trkpt lat="51.287635" lon="5.1900152">
|
|---|
| 3426 | <time>+50838-08-09T02:45:05Z</time>
|
|---|
| 3427 | </trkpt>
|
|---|
| 3428 | <trkpt lat="51.287635" lon="5.1900152">
|
|---|
| 3429 | <time>+50838-08-09T03:01:45Z</time>
|
|---|
| 3430 | </trkpt>
|
|---|
| 3431 | <trkpt lat="51.2875619" lon="5.189969">
|
|---|
| 3432 | <time>+50838-08-09T03:18:25Z</time>
|
|---|
| 3433 | </trkpt>
|
|---|
| 3434 | <trkpt lat="51.2875619" lon="5.189969">
|
|---|
| 3435 | <time>+50838-08-09T03:35:05Z</time>
|
|---|
| 3436 | </trkpt>
|
|---|
| 3437 | <trkpt lat="51.2875331" lon="5.1899507">
|
|---|
| 3438 | <time>+50838-08-09T03:51:45Z</time>
|
|---|
| 3439 | </trkpt>
|
|---|
| 3440 | <trkpt lat="51.2875331" lon="5.1899507">
|
|---|
| 3441 | <time>+50838-08-09T04:08:25Z</time>
|
|---|
| 3442 | </trkpt>
|
|---|
| 3443 | <trkpt lat="51.2874263" lon="5.1899519">
|
|---|
| 3444 | <time>+50838-08-09T04:25:05Z</time>
|
|---|
| 3445 | </trkpt>
|
|---|
| 3446 | <trkpt lat="51.2874263" lon="5.1899519">
|
|---|
| 3447 | <time>+50838-08-09T04:41:45Z</time>
|
|---|
| 3448 | </trkpt>
|
|---|
| 3449 | <trkpt lat="51.2874121" lon="5.1898865">
|
|---|
| 3450 | <time>+50838-08-09T04:58:25Z</time>
|
|---|
| 3451 | </trkpt>
|
|---|
| 3452 | <trkpt lat="51.2873747" lon="5.1898041">
|
|---|
| 3453 | <time>+50838-08-09T05:15:05Z</time>
|
|---|
| 3454 | </trkpt>
|
|---|
| 3455 | <trkpt lat="51.2873747" lon="5.1898041">
|
|---|
| 3456 | <time>+50838-08-09T05:31:45Z</time>
|
|---|
| 3457 | </trkpt>
|
|---|
| 3458 | <trkpt lat="51.2873979" lon="5.1897644">
|
|---|
| 3459 | <time>+50838-08-09T05:48:25Z</time>
|
|---|
| 3460 | </trkpt>
|
|---|
| 3461 | <trkpt lat="51.2874036" lon="5.1897532">
|
|---|
| 3462 | <time>+50838-08-09T06:05:05Z</time>
|
|---|
| 3463 | </trkpt>
|
|---|
| 3464 | <trkpt lat="51.2874271" lon="5.1896944">
|
|---|
| 3465 | <time>+50838-08-09T06:21:45Z</time>
|
|---|
| 3466 | </trkpt>
|
|---|
| 3467 | <trkpt lat="51.2874401" lon="5.1896302">
|
|---|
| 3468 | <time>+50838-08-09T06:38:25Z</time>
|
|---|
| 3469 | </trkpt>
|
|---|
| 3470 | <trkpt lat="51.2874629" lon="5.1887463">
|
|---|
| 3471 | <time>+50838-08-09T06:55:05Z</time>
|
|---|
| 3472 | </trkpt>
|
|---|
| 3473 | <trkpt lat="51.2874679" lon="5.1883259">
|
|---|
| 3474 | <time>+50838-08-09T07:11:45Z</time>
|
|---|
| 3475 | </trkpt>
|
|---|
| 3476 | <trkpt lat="51.2874679" lon="5.1883259">
|
|---|
| 3477 | <time>+50838-08-09T07:28:25Z</time>
|
|---|
| 3478 | </trkpt>
|
|---|
| 3479 | <trkpt lat="51.2874709" lon="5.1881917">
|
|---|
| 3480 | <time>+50838-08-09T07:45:05Z</time>
|
|---|
| 3481 | </trkpt>
|
|---|
| 3482 | <trkpt lat="51.2874825" lon="5.1871888">
|
|---|
| 3483 | <time>+50838-08-09T08:01:45Z</time>
|
|---|
| 3484 | </trkpt>
|
|---|
| 3485 | <trkpt lat="51.2874866" lon="5.1869581">
|
|---|
| 3486 | <time>+50838-08-09T08:18:25Z</time>
|
|---|
| 3487 | </trkpt>
|
|---|
| 3488 | <trkpt lat="51.2875089" lon="5.1868754">
|
|---|
| 3489 | <time>+50838-08-09T08:35:05Z</time>
|
|---|
| 3490 | </trkpt>
|
|---|
| 3491 | <trkpt lat="51.2875089" lon="5.1868754">
|
|---|
| 3492 | <time>+50838-08-09T08:51:45Z</time>
|
|---|
| 3493 | </trkpt>
|
|---|
| 3494 | <trkpt lat="51.2875192" lon="5.1868606">
|
|---|
| 3495 | <time>+50838-08-09T09:08:25Z</time>
|
|---|
| 3496 | </trkpt>
|
|---|
| 3497 | <trkpt lat="51.2875192" lon="5.1868606">
|
|---|
| 3498 | <time>+50838-08-09T09:25:05Z</time>
|
|---|
| 3499 | </trkpt>
|
|---|
| 3500 | <trkpt lat="51.2875782" lon="5.1867734">
|
|---|
| 3501 | <time>+50838-08-09T09:41:45Z</time>
|
|---|
| 3502 | </trkpt>
|
|---|
| 3503 | <trkpt lat="51.2876867" lon="5.186639">
|
|---|
| 3504 | <time>+50838-08-09T09:58:25Z</time>
|
|---|
| 3505 | </trkpt>
|
|---|
| 3506 | <trkpt lat="51.2913097" lon="5.1834904">
|
|---|
| 3507 | <time>+50838-08-09T10:15:05Z</time>
|
|---|
| 3508 | </trkpt>
|
|---|
| 3509 | <trkpt lat="51.2942138" lon="5.1809459">
|
|---|
| 3510 | <time>+50838-08-09T10:31:45Z</time>
|
|---|
| 3511 | </trkpt>
|
|---|
| 3512 | <trkpt lat="51.2942138" lon="5.1809459">
|
|---|
| 3513 | <time>+50838-08-09T10:48:25Z</time>
|
|---|
| 3514 | </trkpt>
|
|---|
| 3515 | <trkpt lat="51.295096" lon="5.1802853">
|
|---|
| 3516 | <time>+50838-08-09T11:05:05Z</time>
|
|---|
| 3517 | </trkpt>
|
|---|
| 3518 | <trkpt lat="51.295096" lon="5.1802853">
|
|---|
| 3519 | <time>+50838-08-09T11:21:45Z</time>
|
|---|
| 3520 | </trkpt>
|
|---|
| 3521 | <trkpt lat="51.2951367" lon="5.1801983">
|
|---|
| 3522 | <time>+50838-08-09T11:38:25Z</time>
|
|---|
| 3523 | </trkpt>
|
|---|
| 3524 | <trkpt lat="51.2951451" lon="5.1801261">
|
|---|
| 3525 | <time>+50838-08-09T11:55:05Z</time>
|
|---|
| 3526 | </trkpt>
|
|---|
| 3527 | <trkpt lat="51.295148" lon="5.1800178">
|
|---|
| 3528 | <time>+50838-08-09T12:11:45Z</time>
|
|---|
| 3529 | </trkpt>
|
|---|
| 3530 | <trkpt lat="51.2951409" lon="5.1799185">
|
|---|
| 3531 | <time>+50838-08-09T12:28:25Z</time>
|
|---|
| 3532 | </trkpt>
|
|---|
| 3533 | <trkpt lat="51.2950287" lon="5.1791325">
|
|---|
| 3534 | <time>+50838-08-09T12:45:05Z</time>
|
|---|
| 3535 | </trkpt>
|
|---|
| 3536 | <trkpt lat="51.294884" lon="5.1782198">
|
|---|
| 3537 | <time>+50838-08-09T13:01:45Z</time>
|
|---|
| 3538 | </trkpt>
|
|---|
| 3539 | <trkpt lat="51.2947424" lon="5.177279">
|
|---|
| 3540 | <time>+50838-08-09T13:18:25Z</time>
|
|---|
| 3541 | </trkpt>
|
|---|
| 3542 | <trkpt lat="51.2943861" lon="5.1745135">
|
|---|
| 3543 | <time>+50838-08-09T13:35:05Z</time>
|
|---|
| 3544 | </trkpt>
|
|---|
| 3545 | <trkpt lat="51.2941923" lon="5.1732479">
|
|---|
| 3546 | <time>+50838-08-09T13:51:45Z</time>
|
|---|
| 3547 | </trkpt>
|
|---|
| 3548 | <trkpt lat="51.2940606" lon="5.1725956">
|
|---|
| 3549 | <time>+50838-08-09T14:08:25Z</time>
|
|---|
| 3550 | </trkpt>
|
|---|
| 3551 | <trkpt lat="51.2938282" lon="5.1718728">
|
|---|
| 3552 | <time>+50838-08-09T14:25:05Z</time>
|
|---|
| 3553 | </trkpt>
|
|---|
| 3554 | <trkpt lat="51.2934604" lon="5.1709025">
|
|---|
| 3555 | <time>+50838-08-09T14:41:45Z</time>
|
|---|
| 3556 | </trkpt>
|
|---|
| 3557 | <trkpt lat="51.2933122" lon="5.1705797">
|
|---|
| 3558 | <time>+50838-08-09T14:58:25Z</time>
|
|---|
| 3559 | </trkpt>
|
|---|
| 3560 | <trkpt lat="51.2931919" lon="5.1703346">
|
|---|
| 3561 | <time>+50838-08-09T15:15:05Z</time>
|
|---|
| 3562 | </trkpt>
|
|---|
| 3563 | <trkpt lat="51.2931919" lon="5.1703346">
|
|---|
| 3564 | <time>+50838-08-09T15:31:45Z</time>
|
|---|
| 3565 | </trkpt>
|
|---|
| 3566 | <trkpt lat="51.2931871" lon="5.1702578">
|
|---|
| 3567 | <time>+50838-08-09T15:48:25Z</time>
|
|---|
| 3568 | </trkpt>
|
|---|
| 3569 | <trkpt lat="51.293185" lon="5.1701461">
|
|---|
| 3570 | <time>+50838-08-09T16:05:05Z</time>
|
|---|
| 3571 | </trkpt>
|
|---|
| 3572 | <trkpt lat="51.2931931" lon="5.1700536">
|
|---|
| 3573 | <time>+50838-08-09T16:21:45Z</time>
|
|---|
| 3574 | </trkpt>
|
|---|
| 3575 | <trkpt lat="51.2933184" lon="5.1693298">
|
|---|
| 3576 | <time>+50838-08-09T16:38:25Z</time>
|
|---|
| 3577 | </trkpt>
|
|---|
| 3578 | <trkpt lat="51.2933355" lon="5.1688571">
|
|---|
| 3579 | <time>+50838-08-09T16:55:05Z</time>
|
|---|
| 3580 | </trkpt>
|
|---|
| 3581 | <trkpt lat="51.2933111" lon="5.1684095">
|
|---|
| 3582 | <time>+50838-08-09T17:11:45Z</time>
|
|---|
| 3583 | </trkpt>
|
|---|
| 3584 | <trkpt lat="51.2932501" lon="5.1678445">
|
|---|
| 3585 | <time>+50838-08-09T17:28:25Z</time>
|
|---|
| 3586 | </trkpt>
|
|---|
| 3587 | <trkpt lat="51.293184" lon="5.1674249">
|
|---|
| 3588 | <time>+50838-08-09T17:45:05Z</time>
|
|---|
| 3589 | </trkpt>
|
|---|
| 3590 | <trkpt lat="51.2931463" lon="5.1671214">
|
|---|
| 3591 | <time>+50838-08-09T18:01:45Z</time>
|
|---|
| 3592 | </trkpt>
|
|---|
| 3593 | <trkpt lat="51.2930208" lon="5.1665307">
|
|---|
| 3594 | <time>+50838-08-09T18:18:25Z</time>
|
|---|
| 3595 | </trkpt>
|
|---|
| 3596 | <trkpt lat="51.2930208" lon="5.1665307">
|
|---|
| 3597 | <time>+50838-08-09T18:35:05Z</time>
|
|---|
| 3598 | </trkpt>
|
|---|
| 3599 | <trkpt lat="51.2928975" lon="5.1660594">
|
|---|
| 3600 | <time>+50838-08-09T18:51:45Z</time>
|
|---|
| 3601 | </trkpt>
|
|---|
| 3602 | <trkpt lat="51.2926274" lon="5.1649937">
|
|---|
| 3603 | <time>+50838-08-09T19:08:25Z</time>
|
|---|
| 3604 | </trkpt>
|
|---|
| 3605 | <trkpt lat="51.2923853" lon="5.1640173">
|
|---|
| 3606 | <time>+50838-08-09T19:25:05Z</time>
|
|---|
| 3607 | </trkpt>
|
|---|
| 3608 | <trkpt lat="51.2923026" lon="5.1634862">
|
|---|
| 3609 | <time>+50838-08-09T19:41:45Z</time>
|
|---|
| 3610 | </trkpt>
|
|---|
| 3611 | <trkpt lat="51.2923073" lon="5.1628701">
|
|---|
| 3612 | <time>+50838-08-09T19:58:25Z</time>
|
|---|
| 3613 | </trkpt>
|
|---|
| 3614 | <trkpt lat="51.2922965" lon="5.1626522">
|
|---|
| 3615 | <time>+50838-08-09T20:15:05Z</time>
|
|---|
| 3616 | </trkpt>
|
|---|
| 3617 | <trkpt lat="51.2922323" lon="5.1619622">
|
|---|
| 3618 | <time>+50838-08-09T20:31:45Z</time>
|
|---|
| 3619 | </trkpt>
|
|---|
| 3620 | <trkpt lat="51.2922247" lon="5.1617308">
|
|---|
| 3621 | <time>+50838-08-09T20:48:25Z</time>
|
|---|
| 3622 | </trkpt>
|
|---|
| 3623 | <trkpt lat="51.2922933" lon="5.1609468">
|
|---|
| 3624 | <time>+50838-08-09T21:05:05Z</time>
|
|---|
| 3625 | </trkpt>
|
|---|
| 3626 | <trkpt lat="51.2925292" lon="5.1593041">
|
|---|
| 3627 | <time>+50838-08-09T21:21:45Z</time>
|
|---|
| 3628 | </trkpt>
|
|---|
| 3629 | <trkpt lat="51.2926675" lon="5.1577263">
|
|---|
| 3630 | <time>+50838-08-09T21:38:25Z</time>
|
|---|
| 3631 | </trkpt>
|
|---|
| 3632 | <trkpt lat="51.292836" lon="5.1565456">
|
|---|
| 3633 | <time>+50838-08-09T21:55:05Z</time>
|
|---|
| 3634 | </trkpt>
|
|---|
| 3635 | <trkpt lat="51.2928424" lon="5.1564711">
|
|---|
| 3636 | <time>+50838-08-09T22:11:45Z</time>
|
|---|
| 3637 | </trkpt>
|
|---|
| 3638 | <trkpt lat="51.2928512" lon="5.1562658">
|
|---|
| 3639 | <time>+50838-08-09T22:28:25Z</time>
|
|---|
| 3640 | </trkpt>
|
|---|
| 3641 | <trkpt lat="51.2928512" lon="5.1562658">
|
|---|
| 3642 | <time>+50838-08-09T22:45:05Z</time>
|
|---|
| 3643 | </trkpt>
|
|---|
| 3644 | <trkpt lat="51.2927489" lon="5.1562989">
|
|---|
| 3645 | <time>+50838-08-09T23:01:45Z</time>
|
|---|
| 3646 | </trkpt>
|
|---|
| 3647 | <trkpt lat="51.2895253" lon="5.1574091">
|
|---|
| 3648 | <time>+50838-08-09T23:18:25Z</time>
|
|---|
| 3649 | </trkpt>
|
|---|
| 3650 | <trkpt lat="51.2895253" lon="5.1574091">
|
|---|
| 3651 | <time>+50838-08-09T23:35:05Z</time>
|
|---|
| 3652 | </trkpt>
|
|---|
| 3653 | <trkpt lat="51.2880316" lon="5.1579155">
|
|---|
| 3654 | <time>+50838-08-09T23:51:45Z</time>
|
|---|
| 3655 | </trkpt>
|
|---|
| 3656 | <trkpt lat="51.2878921" lon="5.1578119">
|
|---|
| 3657 | <time>+50838-08-10T00:08:25Z</time>
|
|---|
| 3658 | </trkpt>
|
|---|
| 3659 | <trkpt lat="51.2876877" lon="5.157525">
|
|---|
| 3660 | <time>+50838-08-10T00:25:05Z</time>
|
|---|
| 3661 | </trkpt>
|
|---|
| 3662 | <trkpt lat="51.2875282" lon="5.1571424">
|
|---|
| 3663 | <time>+50838-08-10T00:41:45Z</time>
|
|---|
| 3664 | </trkpt>
|
|---|
| 3665 | <trkpt lat="51.2871791" lon="5.1558337">
|
|---|
| 3666 | <time>+50838-08-10T00:58:25Z</time>
|
|---|
| 3667 | </trkpt>
|
|---|
| 3668 | <trkpt lat="51.2868504" lon="5.1544886">
|
|---|
| 3669 | <time>+50838-08-10T01:15:05Z</time>
|
|---|
| 3670 | </trkpt>
|
|---|
| 3671 | <trkpt lat="51.2868504" lon="5.1544886">
|
|---|
| 3672 | <time>+50838-08-10T01:31:45Z</time>
|
|---|
| 3673 | </trkpt>
|
|---|
| 3674 | <trkpt lat="51.2867258" lon="5.154114">
|
|---|
| 3675 | <time>+50838-08-10T01:48:25Z</time>
|
|---|
| 3676 | </trkpt>
|
|---|
| 3677 | <trkpt lat="51.2866161" lon="5.1540025">
|
|---|
| 3678 | <time>+50838-08-10T02:05:05Z</time>
|
|---|
| 3679 | </trkpt>
|
|---|
| 3680 | <trkpt lat="51.2863648" lon="5.1538949">
|
|---|
| 3681 | <time>+50838-08-10T02:21:45Z</time>
|
|---|
| 3682 | </trkpt>
|
|---|
| 3683 | <trkpt lat="51.2863648" lon="5.1538949">
|
|---|
| 3684 | <time>+50838-08-10T02:38:25Z</time>
|
|---|
| 3685 | </trkpt>
|
|---|
| 3686 | <trkpt lat="51.2863984" lon="5.1537581">
|
|---|
| 3687 | <time>+50838-08-10T02:55:05Z</time>
|
|---|
| 3688 | </trkpt>
|
|---|
| 3689 | <trkpt lat="51.2863258" lon="5.1521406">
|
|---|
| 3690 | <time>+50838-08-10T03:11:45Z</time>
|
|---|
| 3691 | </trkpt>
|
|---|
| 3692 | <trkpt lat="51.2865218" lon="5.1514341">
|
|---|
| 3693 | <time>+50838-08-10T03:28:25Z</time>
|
|---|
| 3694 | </trkpt>
|
|---|
| 3695 | <trkpt lat="51.2864966" lon="5.149417">
|
|---|
| 3696 | <time>+50838-08-10T03:45:05Z</time>
|
|---|
| 3697 | </trkpt>
|
|---|
| 3698 | <trkpt lat="51.2867658" lon="5.1482114">
|
|---|
| 3699 | <time>+50838-08-10T04:01:45Z</time>
|
|---|
| 3700 | </trkpt>
|
|---|
| 3701 | <trkpt lat="51.286774" lon="5.1481596">
|
|---|
| 3702 | <time>+50838-08-10T04:18:25Z</time>
|
|---|
| 3703 | </trkpt>
|
|---|
| 3704 | <trkpt lat="51.286775" lon="5.1481226">
|
|---|
| 3705 | <time>+50838-08-10T04:35:05Z</time>
|
|---|
| 3706 | </trkpt>
|
|---|
| 3707 | <trkpt lat="51.286775" lon="5.1481226">
|
|---|
| 3708 | <time>+50838-08-10T04:51:45Z</time>
|
|---|
| 3709 | </trkpt>
|
|---|
| 3710 | <trkpt lat="51.286758" lon="5.1480352">
|
|---|
| 3711 | <time>+50838-08-10T05:08:25Z</time>
|
|---|
| 3712 | </trkpt>
|
|---|
| 3713 | <trkpt lat="51.286758" lon="5.1480352">
|
|---|
| 3714 | <time>+50838-08-10T05:25:05Z</time>
|
|---|
| 3715 | </trkpt>
|
|---|
| 3716 | <trkpt lat="51.2867022" lon="5.1475748">
|
|---|
| 3717 | <time>+50838-08-10T05:41:45Z</time>
|
|---|
| 3718 | </trkpt>
|
|---|
| 3719 | <trkpt lat="51.2867022" lon="5.1475748">
|
|---|
| 3720 | <time>+50838-08-10T05:58:25Z</time>
|
|---|
| 3721 | </trkpt>
|
|---|
| 3722 | <trkpt lat="51.2867002" lon="5.147558">
|
|---|
| 3723 | <time>+50838-08-10T06:15:05Z</time>
|
|---|
| 3724 | </trkpt>
|
|---|
| 3725 | <trkpt lat="51.2867002" lon="5.147558">
|
|---|
| 3726 | <time>+50838-08-10T06:31:45Z</time>
|
|---|
| 3727 | </trkpt>
|
|---|
| 3728 | <trkpt lat="51.2775227" lon="5.1505823">
|
|---|
| 3729 | <time>+50838-08-10T06:48:25Z</time>
|
|---|
| 3730 | </trkpt>
|
|---|
| 3731 | <trkpt lat="51.2773412" lon="5.1506608">
|
|---|
| 3732 | <time>+50838-08-10T07:05:05Z</time>
|
|---|
| 3733 | </trkpt>
|
|---|
| 3734 | <trkpt lat="51.2771287" lon="5.1507698">
|
|---|
| 3735 | <time>+50838-08-10T07:21:45Z</time>
|
|---|
| 3736 | </trkpt>
|
|---|
| 3737 | <trkpt lat="51.2770972" lon="5.150786">
|
|---|
| 3738 | <time>+50838-08-10T07:38:25Z</time>
|
|---|
| 3739 | </trkpt>
|
|---|
| 3740 | <trkpt lat="51.2770972" lon="5.150786">
|
|---|
| 3741 | <time>+50838-08-10T07:55:05Z</time>
|
|---|
| 3742 | </trkpt>
|
|---|
| 3743 | <trkpt lat="51.2770631" lon="5.1508072">
|
|---|
| 3744 | <time>+50838-08-10T08:11:45Z</time>
|
|---|
| 3745 | </trkpt>
|
|---|
| 3746 | <trkpt lat="51.2769776" lon="5.1508604">
|
|---|
| 3747 | <time>+50838-08-10T08:28:25Z</time>
|
|---|
| 3748 | </trkpt>
|
|---|
| 3749 | <trkpt lat="51.2764886" lon="5.1510198">
|
|---|
| 3750 | <time>+50838-08-10T08:45:05Z</time>
|
|---|
| 3751 | </trkpt>
|
|---|
| 3752 | <trkpt lat="51.2762033" lon="5.1511172">
|
|---|
| 3753 | <time>+50838-08-10T09:01:45Z</time>
|
|---|
| 3754 | </trkpt>
|
|---|
| 3755 | <trkpt lat="51.276005" lon="5.1511692">
|
|---|
| 3756 | <time>+50838-08-10T09:18:25Z</time>
|
|---|
| 3757 | </trkpt>
|
|---|
| 3758 | <trkpt lat="51.2755492" lon="5.1512419">
|
|---|
| 3759 | <time>+50838-08-10T09:35:05Z</time>
|
|---|
| 3760 | </trkpt>
|
|---|
| 3761 | <trkpt lat="51.2746668" lon="5.1515089">
|
|---|
| 3762 | <time>+50838-08-10T09:51:45Z</time>
|
|---|
| 3763 | </trkpt>
|
|---|
| 3764 | <trkpt lat="51.2746668" lon="5.1515089">
|
|---|
| 3765 | <time>+50838-08-10T10:08:25Z</time>
|
|---|
| 3766 | </trkpt>
|
|---|
| 3767 | <trkpt lat="51.2739397" lon="5.1517585">
|
|---|
| 3768 | <time>+50838-08-10T10:25:05Z</time>
|
|---|
| 3769 | </trkpt>
|
|---|
| 3770 | <trkpt lat="51.268173" lon="5.1536562">
|
|---|
| 3771 | <time>+50838-08-10T10:41:45Z</time>
|
|---|
| 3772 | </trkpt>
|
|---|
| 3773 | <trkpt lat="51.267799" lon="5.1537973">
|
|---|
| 3774 | <time>+50838-08-10T10:58:25Z</time>
|
|---|
| 3775 | </trkpt>
|
|---|
| 3776 | <trkpt lat="51.267799" lon="5.1537973">
|
|---|
| 3777 | <time>+50838-08-10T11:15:05Z</time>
|
|---|
| 3778 | </trkpt>
|
|---|
| 3779 | <trkpt lat="51.2678173" lon="5.1540145">
|
|---|
| 3780 | <time>+50838-08-10T11:31:45Z</time>
|
|---|
| 3781 | </trkpt>
|
|---|
| 3782 | <trkpt lat="51.2681715" lon="5.1571903">
|
|---|
| 3783 | <time>+50838-08-10T11:48:25Z</time>
|
|---|
| 3784 | </trkpt>
|
|---|
| 3785 | <trkpt lat="51.2681715" lon="5.1571903">
|
|---|
| 3786 | <time>+50838-08-10T12:05:05Z</time>
|
|---|
| 3787 | </trkpt>
|
|---|
| 3788 | <trkpt lat="51.2670236" lon="5.1577696">
|
|---|
| 3789 | <time>+50838-08-10T12:21:45Z</time>
|
|---|
| 3790 | </trkpt>
|
|---|
| 3791 | <trkpt lat="51.2656298" lon="5.1584996">
|
|---|
| 3792 | <time>+50838-08-10T12:38:25Z</time>
|
|---|
| 3793 | </trkpt>
|
|---|
| 3794 | <trkpt lat="51.2656298" lon="5.1584996">
|
|---|
| 3795 | <time>+50838-08-10T12:55:05Z</time>
|
|---|
| 3796 | </trkpt>
|
|---|
| 3797 | <trkpt lat="51.2650365" lon="5.1588103">
|
|---|
| 3798 | <time>+50838-08-10T13:11:45Z</time>
|
|---|
| 3799 | </trkpt>
|
|---|
| 3800 | <trkpt lat="51.2632364" lon="5.1597111">
|
|---|
| 3801 | <time>+50838-08-10T13:28:25Z</time>
|
|---|
| 3802 | </trkpt>
|
|---|
| 3803 | <trkpt lat="51.2632364" lon="5.1597111">
|
|---|
| 3804 | <time>+50838-08-10T13:45:05Z</time>
|
|---|
| 3805 | </trkpt>
|
|---|
| 3806 | <trkpt lat="51.2623713" lon="5.16013">
|
|---|
| 3807 | <time>+50838-08-10T14:01:45Z</time>
|
|---|
| 3808 | </trkpt>
|
|---|
| 3809 | <trkpt lat="51.2617438" lon="5.1605024">
|
|---|
| 3810 | <time>+50838-08-10T14:18:25Z</time>
|
|---|
| 3811 | </trkpt>
|
|---|
| 3812 | <trkpt lat="51.2617438" lon="5.1605024">
|
|---|
| 3813 | <time>+50838-08-10T14:35:05Z</time>
|
|---|
| 3814 | </trkpt>
|
|---|
| 3815 | <trkpt lat="51.2607977" lon="5.1610532">
|
|---|
| 3816 | <time>+50838-08-10T14:51:45Z</time>
|
|---|
| 3817 | </trkpt>
|
|---|
| 3818 | <trkpt lat="51.2607977" lon="5.1610532">
|
|---|
| 3819 | <time>+50838-08-10T15:08:25Z</time>
|
|---|
| 3820 | </trkpt>
|
|---|
| 3821 | <trkpt lat="51.2604511" lon="5.1612565">
|
|---|
| 3822 | <time>+50838-08-10T15:25:05Z</time>
|
|---|
| 3823 | </trkpt>
|
|---|
| 3824 | <trkpt lat="51.2585709" lon="5.1623651">
|
|---|
| 3825 | <time>+50838-08-10T15:41:45Z</time>
|
|---|
| 3826 | </trkpt>
|
|---|
| 3827 | <trkpt lat="51.2585709" lon="5.1623651">
|
|---|
| 3828 | <time>+50838-08-10T15:58:25Z</time>
|
|---|
| 3829 | </trkpt>
|
|---|
| 3830 | <trkpt lat="51.2585315" lon="5.1623875">
|
|---|
| 3831 | <time>+50838-08-10T16:15:05Z</time>
|
|---|
| 3832 | </trkpt>
|
|---|
| 3833 | <trkpt lat="51.2585315" lon="5.1623875">
|
|---|
| 3834 | <time>+50838-08-10T16:31:45Z</time>
|
|---|
| 3835 | </trkpt>
|
|---|
| 3836 | <trkpt lat="51.25841" lon="5.1624689">
|
|---|
| 3837 | <time>+50838-08-10T16:48:25Z</time>
|
|---|
| 3838 | </trkpt>
|
|---|
| 3839 | <trkpt lat="51.2568456" lon="5.1633915">
|
|---|
| 3840 | <time>+50838-08-10T17:05:05Z</time>
|
|---|
| 3841 | </trkpt>
|
|---|
| 3842 | <trkpt lat="51.2554758" lon="5.164164">
|
|---|
| 3843 | <time>+50838-08-10T17:21:45Z</time>
|
|---|
| 3844 | </trkpt>
|
|---|
| 3845 | <trkpt lat="51.2548218" lon="5.1645072">
|
|---|
| 3846 | <time>+50838-08-10T17:38:25Z</time>
|
|---|
| 3847 | </trkpt>
|
|---|
| 3848 | <trkpt lat="51.2548218" lon="5.1645072">
|
|---|
| 3849 | <time>+50838-08-10T17:55:05Z</time>
|
|---|
| 3850 | </trkpt>
|
|---|
| 3851 | <trkpt lat="51.2547424" lon="5.1645656">
|
|---|
| 3852 | <time>+50838-08-10T18:11:45Z</time>
|
|---|
| 3853 | </trkpt>
|
|---|
| 3854 | <trkpt lat="51.2547424" lon="5.1645656">
|
|---|
| 3855 | <time>+50838-08-10T18:28:25Z</time>
|
|---|
| 3856 | </trkpt>
|
|---|
| 3857 | <trkpt lat="51.2511374" lon="5.1672187">
|
|---|
| 3858 | <time>+50838-08-10T18:45:05Z</time>
|
|---|
| 3859 | </trkpt>
|
|---|
| 3860 | <trkpt lat="51.2511374" lon="5.1672187">
|
|---|
| 3861 | <time>+50838-08-10T19:01:45Z</time>
|
|---|
| 3862 | </trkpt>
|
|---|
| 3863 | <trkpt lat="51.2496478" lon="5.1682407">
|
|---|
| 3864 | <time>+50838-08-10T19:18:25Z</time>
|
|---|
| 3865 | </trkpt>
|
|---|
| 3866 | <trkpt lat="51.2496478" lon="5.1682407">
|
|---|
| 3867 | <time>+50838-08-10T19:35:05Z</time>
|
|---|
| 3868 | </trkpt>
|
|---|
| 3869 | <trkpt lat="51.2486316" lon="5.1709804">
|
|---|
| 3870 | <time>+50838-08-10T19:51:45Z</time>
|
|---|
| 3871 | </trkpt>
|
|---|
| 3872 | <trkpt lat="51.2486316" lon="5.1709804">
|
|---|
| 3873 | <time>+50838-08-10T20:08:25Z</time>
|
|---|
| 3874 | </trkpt>
|
|---|
| 3875 | <trkpt lat="51.2483823" lon="5.1716537">
|
|---|
| 3876 | <time>+50838-08-10T20:25:05Z</time>
|
|---|
| 3877 | </trkpt>
|
|---|
| 3878 | <trkpt lat="51.2483823" lon="5.1716537">
|
|---|
| 3879 | <time>+50838-08-10T20:41:45Z</time>
|
|---|
| 3880 | </trkpt>
|
|---|
| 3881 | <trkpt lat="51.2483968" lon="5.1718069">
|
|---|
| 3882 | <time>+50838-08-10T20:58:25Z</time>
|
|---|
| 3883 | </trkpt>
|
|---|
| 3884 | <trkpt lat="51.247636" lon="5.1748517">
|
|---|
| 3885 | <time>+50838-08-10T21:15:05Z</time>
|
|---|
| 3886 | </trkpt>
|
|---|
| 3887 | <trkpt lat="51.2466587" lon="5.1786974">
|
|---|
| 3888 | <time>+50838-08-10T21:31:45Z</time>
|
|---|
| 3889 | </trkpt>
|
|---|
| 3890 | <trkpt lat="51.2466587" lon="5.1786974">
|
|---|
| 3891 | <time>+50838-08-10T21:48:25Z</time>
|
|---|
| 3892 | </trkpt>
|
|---|
| 3893 | <trkpt lat="51.2449878" lon="5.1852173">
|
|---|
| 3894 | <time>+50838-08-10T22:05:05Z</time>
|
|---|
| 3895 | </trkpt>
|
|---|
| 3896 | <trkpt lat="51.2449878" lon="5.1852173">
|
|---|
| 3897 | <time>+50838-08-10T22:21:45Z</time>
|
|---|
| 3898 | </trkpt>
|
|---|
| 3899 | <trkpt lat="51.2452457" lon="5.1867792">
|
|---|
| 3900 | <time>+50838-08-10T22:38:25Z</time>
|
|---|
| 3901 | </trkpt>
|
|---|
| 3902 | <trkpt lat="51.2452457" lon="5.1867792">
|
|---|
| 3903 | <time>+50838-08-10T22:55:05Z</time>
|
|---|
| 3904 | </trkpt>
|
|---|
| 3905 | <trkpt lat="51.2446625" lon="5.1867067">
|
|---|
| 3906 | <time>+50838-08-10T23:11:45Z</time>
|
|---|
| 3907 | </trkpt>
|
|---|
| 3908 | <trkpt lat="51.2446625" lon="5.1867067">
|
|---|
| 3909 | <time>+50838-08-10T23:28:25Z</time>
|
|---|
| 3910 | </trkpt>
|
|---|
| 3911 | <trkpt lat="51.2429171" lon="5.1866053">
|
|---|
| 3912 | <time>+50838-08-10T23:45:05Z</time>
|
|---|
| 3913 | </trkpt>
|
|---|
| 3914 | <trkpt lat="51.2429171" lon="5.1866053">
|
|---|
| 3915 | <time>+50838-08-11T00:01:45Z</time>
|
|---|
| 3916 | </trkpt>
|
|---|
| 3917 | <trkpt lat="51.242578" lon="5.1865863">
|
|---|
| 3918 | <time>+50838-08-11T00:18:25Z</time>
|
|---|
| 3919 | </trkpt>
|
|---|
| 3920 | <trkpt lat="51.2403423" lon="5.1864325">
|
|---|
| 3921 | <time>+50838-08-11T00:35:05Z</time>
|
|---|
| 3922 | </trkpt>
|
|---|
| 3923 | <trkpt lat="51.2403423" lon="5.1864325">
|
|---|
| 3924 | <time>+50838-08-11T00:51:45Z</time>
|
|---|
| 3925 | </trkpt>
|
|---|
| 3926 | <trkpt lat="51.239774" lon="5.1863932">
|
|---|
| 3927 | <time>+50838-08-11T01:08:25Z</time>
|
|---|
| 3928 | </trkpt>
|
|---|
| 3929 | <trkpt lat="51.2393355" lon="5.1863649">
|
|---|
| 3930 | <time>+50838-08-11T01:25:05Z</time>
|
|---|
| 3931 | </trkpt>
|
|---|
| 3932 | <trkpt lat="51.2391711" lon="5.1863661">
|
|---|
| 3933 | <time>+50838-08-11T01:41:45Z</time>
|
|---|
| 3934 | </trkpt>
|
|---|
| 3935 | <trkpt lat="51.2389759" lon="5.1864413">
|
|---|
| 3936 | <time>+50838-08-11T01:58:25Z</time>
|
|---|
| 3937 | </trkpt>
|
|---|
| 3938 | <trkpt lat="51.2389759" lon="5.1864413">
|
|---|
| 3939 | <time>+50838-08-11T02:15:05Z</time>
|
|---|
| 3940 | </trkpt>
|
|---|
| 3941 | <trkpt lat="51.2388037" lon="5.1865125">
|
|---|
| 3942 | <time>+50838-08-11T02:31:45Z</time>
|
|---|
| 3943 | </trkpt>
|
|---|
| 3944 | <trkpt lat="51.2388037" lon="5.1865125">
|
|---|
| 3945 | <time>+50838-08-11T02:48:25Z</time>
|
|---|
| 3946 | </trkpt>
|
|---|
| 3947 | <trkpt lat="51.23843" lon="5.1865786">
|
|---|
| 3948 | <time>+50838-08-11T03:05:05Z</time>
|
|---|
| 3949 | </trkpt>
|
|---|
| 3950 | <trkpt lat="51.23843" lon="5.1865786">
|
|---|
| 3951 | <time>+50838-08-11T03:21:45Z</time>
|
|---|
| 3952 | </trkpt>
|
|---|
| 3953 | <trkpt lat="51.2383916" lon="5.1865829">
|
|---|
| 3954 | <time>+50838-08-11T03:38:25Z</time>
|
|---|
| 3955 | </trkpt>
|
|---|
| 3956 | <trkpt lat="51.2383537" lon="5.1865891">
|
|---|
| 3957 | <time>+50838-08-11T03:55:05Z</time>
|
|---|
| 3958 | </trkpt>
|
|---|
| 3959 | <trkpt lat="51.2383537" lon="5.1865891">
|
|---|
| 3960 | <time>+50838-08-11T04:11:45Z</time>
|
|---|
| 3961 | </trkpt>
|
|---|
| 3962 | <trkpt lat="51.2379103" lon="5.1866772">
|
|---|
| 3963 | <time>+50838-08-11T04:28:25Z</time>
|
|---|
| 3964 | </trkpt>
|
|---|
| 3965 | <trkpt lat="51.2379103" lon="5.1866772">
|
|---|
| 3966 | <time>+50838-08-11T04:45:05Z</time>
|
|---|
| 3967 | </trkpt>
|
|---|
| 3968 | <trkpt lat="51.2378371" lon="5.1866855">
|
|---|
| 3969 | <time>+50838-08-11T05:01:45Z</time>
|
|---|
| 3970 | </trkpt>
|
|---|
| 3971 | <trkpt lat="51.2378371" lon="5.1866855">
|
|---|
| 3972 | <time>+50838-08-11T05:18:25Z</time>
|
|---|
| 3973 | </trkpt>
|
|---|
| 3974 | <trkpt lat="51.238081" lon="5.1879796">
|
|---|
| 3975 | <time>+50838-08-11T05:35:05Z</time>
|
|---|
| 3976 | </trkpt>
|
|---|
| 3977 | <trkpt lat="51.2381532" lon="5.1882899">
|
|---|
| 3978 | <time>+50838-08-11T05:51:45Z</time>
|
|---|
| 3979 | </trkpt>
|
|---|
| 3980 | <trkpt lat="51.238239" lon="5.1885882">
|
|---|
| 3981 | <time>+50838-08-11T06:08:25Z</time>
|
|---|
| 3982 | </trkpt>
|
|---|
| 3983 | <trkpt lat="51.238386" lon="5.188995">
|
|---|
| 3984 | <time>+50838-08-11T06:25:05Z</time>
|
|---|
| 3985 | </trkpt>
|
|---|
| 3986 | <trkpt lat="51.238549" lon="5.1894786">
|
|---|
| 3987 | <time>+50838-08-11T06:41:45Z</time>
|
|---|
| 3988 | </trkpt>
|
|---|
| 3989 | <trkpt lat="51.2386636" lon="5.1901392">
|
|---|
| 3990 | <time>+50838-08-11T06:58:25Z</time>
|
|---|
| 3991 | </trkpt>
|
|---|
| 3992 | <trkpt lat="51.2386721" lon="5.1904354">
|
|---|
| 3993 | <time>+50838-08-11T07:15:05Z</time>
|
|---|
| 3994 | </trkpt>
|
|---|
| 3995 | <trkpt lat="51.2388872" lon="5.1918442">
|
|---|
| 3996 | <time>+50838-08-11T07:31:45Z</time>
|
|---|
| 3997 | </trkpt>
|
|---|
| 3998 | <trkpt lat="51.2391083" lon="5.193124">
|
|---|
| 3999 | <time>+50838-08-11T07:48:25Z</time>
|
|---|
| 4000 | </trkpt>
|
|---|
| 4001 | <trkpt lat="51.2391244" lon="5.1931963">
|
|---|
| 4002 | <time>+50838-08-11T08:05:05Z</time>
|
|---|
| 4003 | </trkpt>
|
|---|
| 4004 | <trkpt lat="51.2391244" lon="5.1931963">
|
|---|
| 4005 | <time>+50838-08-11T08:21:45Z</time>
|
|---|
| 4006 | </trkpt>
|
|---|
| 4007 | <trkpt lat="51.239065" lon="5.1932676">
|
|---|
| 4008 | <time>+50838-08-11T08:38:25Z</time>
|
|---|
| 4009 | </trkpt>
|
|---|
| 4010 | <trkpt lat="51.239065" lon="5.1932676">
|
|---|
| 4011 | <time>+50838-08-11T08:55:05Z</time>
|
|---|
| 4012 | </trkpt>
|
|---|
| 4013 | <trkpt lat="51.2389095" lon="5.1932495">
|
|---|
| 4014 | <time>+50838-08-11T09:11:45Z</time>
|
|---|
| 4015 | </trkpt>
|
|---|
| 4016 | </trkseg>
|
|---|
| 4017 | </trk>
|
|---|
| 4018 | <trk>
|
|---|
| 4019 | <name>nieuw Mol Om #4</name>
|
|---|
| 4020 | <trkseg>
|
|---|
| 4021 | <trkpt lat="51.2378371" lon="5.1866855">
|
|---|
| 4022 | <time>+50838-08-11T09:28:25Z</time>
|
|---|
| 4023 | </trkpt>
|
|---|
| 4024 | <trkpt lat="51.2377861" lon="5.1865042">
|
|---|
| 4025 | <time>+50838-08-11T09:45:05Z</time>
|
|---|
| 4026 | </trkpt>
|
|---|
| 4027 | <trkpt lat="51.2377031" lon="5.1860377">
|
|---|
| 4028 | <time>+50838-08-11T10:01:45Z</time>
|
|---|
| 4029 | </trkpt>
|
|---|
| 4030 | <trkpt lat="51.2376193" lon="5.1855508">
|
|---|
| 4031 | <time>+50838-08-11T10:18:25Z</time>
|
|---|
| 4032 | </trkpt>
|
|---|
| 4033 | <trkpt lat="51.2376193" lon="5.1855508">
|
|---|
| 4034 | <time>+50838-08-11T10:35:05Z</time>
|
|---|
| 4035 | </trkpt>
|
|---|
| 4036 | <trkpt lat="51.2375348" lon="5.1851311">
|
|---|
| 4037 | <time>+50838-08-11T10:51:45Z</time>
|
|---|
| 4038 | </trkpt>
|
|---|
| 4039 | <trkpt lat="51.2374516" lon="5.1848276">
|
|---|
| 4040 | <time>+50838-08-11T11:08:25Z</time>
|
|---|
| 4041 | </trkpt>
|
|---|
| 4042 | <trkpt lat="51.2373666" lon="5.1846448">
|
|---|
| 4043 | <time>+50838-08-11T11:25:05Z</time>
|
|---|
| 4044 | </trkpt>
|
|---|
| 4045 | <trkpt lat="51.2372031" lon="5.1844677">
|
|---|
| 4046 | <time>+50838-08-11T11:41:45Z</time>
|
|---|
| 4047 | </trkpt>
|
|---|
| 4048 | <trkpt lat="51.2368803" lon="5.1843768">
|
|---|
| 4049 | <time>+50838-08-11T11:58:25Z</time>
|
|---|
| 4050 | </trkpt>
|
|---|
| 4051 | <trkpt lat="51.2367932" lon="5.1843671">
|
|---|
| 4052 | <time>+50838-08-11T12:15:05Z</time>
|
|---|
| 4053 | </trkpt>
|
|---|
| 4054 | <trkpt lat="51.2367568" lon="5.184372">
|
|---|
| 4055 | <time>+50838-08-11T12:31:45Z</time>
|
|---|
| 4056 | </trkpt>
|
|---|
| 4057 | <trkpt lat="51.2367568" lon="5.184372">
|
|---|
| 4058 | <time>+50838-08-11T12:48:25Z</time>
|
|---|
| 4059 | </trkpt>
|
|---|
| 4060 | <trkpt lat="51.2367516" lon="5.1842704">
|
|---|
| 4061 | <time>+50838-08-11T13:05:05Z</time>
|
|---|
| 4062 | </trkpt>
|
|---|
| 4063 | <trkpt lat="51.2365072" lon="5.1837826">
|
|---|
| 4064 | <time>+50838-08-11T13:21:45Z</time>
|
|---|
| 4065 | </trkpt>
|
|---|
| 4066 | <trkpt lat="51.2362883" lon="5.1835819">
|
|---|
| 4067 | <time>+50838-08-11T13:38:25Z</time>
|
|---|
| 4068 | </trkpt>
|
|---|
| 4069 | <trkpt lat="51.2360802" lon="5.1833549">
|
|---|
| 4070 | <time>+50838-08-11T13:55:05Z</time>
|
|---|
| 4071 | </trkpt>
|
|---|
| 4072 | <trkpt lat="51.2360802" lon="5.1833549">
|
|---|
| 4073 | <time>+50838-08-11T14:11:45Z</time>
|
|---|
| 4074 | </trkpt>
|
|---|
| 4075 | <trkpt lat="51.2359279" lon="5.1832953">
|
|---|
| 4076 | <time>+50838-08-11T14:28:25Z</time>
|
|---|
| 4077 | </trkpt>
|
|---|
| 4078 | <trkpt lat="51.2358044" lon="5.1832711">
|
|---|
| 4079 | <time>+50838-08-11T14:45:05Z</time>
|
|---|
| 4080 | </trkpt>
|
|---|
| 4081 | <trkpt lat="51.2356395" lon="5.1834289">
|
|---|
| 4082 | <time>+50838-08-11T15:01:45Z</time>
|
|---|
| 4083 | </trkpt>
|
|---|
| 4084 | <trkpt lat="51.2349019" lon="5.1838811">
|
|---|
| 4085 | <time>+50838-08-11T15:18:25Z</time>
|
|---|
| 4086 | </trkpt>
|
|---|
| 4087 | <trkpt lat="51.2348015" lon="5.1839273">
|
|---|
| 4088 | <time>+50838-08-11T15:35:05Z</time>
|
|---|
| 4089 | </trkpt>
|
|---|
| 4090 | <trkpt lat="51.2345927" lon="5.1839332">
|
|---|
| 4091 | <time>+50838-08-11T15:51:45Z</time>
|
|---|
| 4092 | </trkpt>
|
|---|
| 4093 | <trkpt lat="51.2341349" lon="5.1839632">
|
|---|
| 4094 | <time>+50838-08-11T16:08:25Z</time>
|
|---|
| 4095 | </trkpt>
|
|---|
| 4096 | <trkpt lat="51.233829" lon="5.1839853">
|
|---|
| 4097 | <time>+50838-08-11T16:25:05Z</time>
|
|---|
| 4098 | </trkpt>
|
|---|
| 4099 | <trkpt lat="51.2334339" lon="5.1840474">
|
|---|
| 4100 | <time>+50838-08-11T16:41:45Z</time>
|
|---|
| 4101 | </trkpt>
|
|---|
| 4102 | <trkpt lat="51.2330602" lon="5.184063">
|
|---|
| 4103 | <time>+50838-08-11T16:58:25Z</time>
|
|---|
| 4104 | </trkpt>
|
|---|
| 4105 | <trkpt lat="51.2328823" lon="5.1840576">
|
|---|
| 4106 | <time>+50838-08-11T17:15:05Z</time>
|
|---|
| 4107 | </trkpt>
|
|---|
| 4108 | <trkpt lat="51.2327485" lon="5.1840459">
|
|---|
| 4109 | <time>+50838-08-11T17:31:45Z</time>
|
|---|
| 4110 | </trkpt>
|
|---|
| 4111 | <trkpt lat="51.2326808" lon="5.184031">
|
|---|
| 4112 | <time>+50838-08-11T17:48:25Z</time>
|
|---|
| 4113 | </trkpt>
|
|---|
| 4114 | <trkpt lat="51.2326159" lon="5.1840616">
|
|---|
| 4115 | <time>+50838-08-11T18:05:05Z</time>
|
|---|
| 4116 | </trkpt>
|
|---|
| 4117 | <trkpt lat="51.2325943" lon="5.1841748">
|
|---|
| 4118 | <time>+50838-08-11T18:21:45Z</time>
|
|---|
| 4119 | </trkpt>
|
|---|
| 4120 | <trkpt lat="51.2325943" lon="5.1841748">
|
|---|
| 4121 | <time>+50838-08-11T18:38:25Z</time>
|
|---|
| 4122 | </trkpt>
|
|---|
| 4123 | <trkpt lat="51.2325527" lon="5.1841728">
|
|---|
| 4124 | <time>+50838-08-11T18:55:05Z</time>
|
|---|
| 4125 | </trkpt>
|
|---|
| 4126 | <trkpt lat="51.2325527" lon="5.1841728">
|
|---|
| 4127 | <time>+50838-08-11T19:11:45Z</time>
|
|---|
| 4128 | </trkpt>
|
|---|
| 4129 | <trkpt lat="51.2325227" lon="5.1840468">
|
|---|
| 4130 | <time>+50838-08-11T19:28:25Z</time>
|
|---|
| 4131 | </trkpt>
|
|---|
| 4132 | <trkpt lat="51.2325013" lon="5.1840029">
|
|---|
| 4133 | <time>+50838-08-11T19:45:05Z</time>
|
|---|
| 4134 | </trkpt>
|
|---|
| 4135 | <trkpt lat="51.2324502" lon="5.1839646">
|
|---|
| 4136 | <time>+50838-08-11T20:01:45Z</time>
|
|---|
| 4137 | </trkpt>
|
|---|
| 4138 | <trkpt lat="51.2322951" lon="5.1840136">
|
|---|
| 4139 | <time>+50838-08-11T20:18:25Z</time>
|
|---|
| 4140 | </trkpt>
|
|---|
| 4141 | <trkpt lat="51.2316037" lon="5.1839514">
|
|---|
| 4142 | <time>+50838-08-11T20:35:05Z</time>
|
|---|
| 4143 | </trkpt>
|
|---|
| 4144 | <trkpt lat="51.2314301" lon="5.183865">
|
|---|
| 4145 | <time>+50838-08-11T20:51:45Z</time>
|
|---|
| 4146 | </trkpt>
|
|---|
| 4147 | <trkpt lat="51.2310435" lon="5.1837953">
|
|---|
| 4148 | <time>+50838-08-11T21:08:25Z</time>
|
|---|
| 4149 | </trkpt>
|
|---|
| 4150 | <trkpt lat="51.2307541" lon="5.1836221">
|
|---|
| 4151 | <time>+50838-08-11T21:25:05Z</time>
|
|---|
| 4152 | </trkpt>
|
|---|
| 4153 | <trkpt lat="51.2307541" lon="5.1836221">
|
|---|
| 4154 | <time>+50838-08-11T21:41:45Z</time>
|
|---|
| 4155 | </trkpt>
|
|---|
| 4156 | <trkpt lat="51.2306413" lon="5.1835062">
|
|---|
| 4157 | <time>+50838-08-11T21:58:25Z</time>
|
|---|
| 4158 | </trkpt>
|
|---|
| 4159 | <trkpt lat="51.2304297" lon="5.183192">
|
|---|
| 4160 | <time>+50838-08-11T22:15:05Z</time>
|
|---|
| 4161 | </trkpt>
|
|---|
| 4162 | <trkpt lat="51.2302905" lon="5.1827519">
|
|---|
| 4163 | <time>+50838-08-11T22:31:45Z</time>
|
|---|
| 4164 | </trkpt>
|
|---|
| 4165 | <trkpt lat="51.2302289" lon="5.1825503">
|
|---|
| 4166 | <time>+50838-08-11T22:48:25Z</time>
|
|---|
| 4167 | </trkpt>
|
|---|
| 4168 | <trkpt lat="51.230176" lon="5.1822638">
|
|---|
| 4169 | <time>+50838-08-11T23:05:05Z</time>
|
|---|
| 4170 | </trkpt>
|
|---|
| 4171 | <trkpt lat="51.230152" lon="5.1816435">
|
|---|
| 4172 | <time>+50838-08-11T23:21:45Z</time>
|
|---|
| 4173 | </trkpt>
|
|---|
| 4174 | <trkpt lat="51.2301441" lon="5.1812774">
|
|---|
| 4175 | <time>+50838-08-11T23:38:25Z</time>
|
|---|
| 4176 | </trkpt>
|
|---|
| 4177 | <trkpt lat="51.2301266" lon="5.1809123">
|
|---|
| 4178 | <time>+50838-08-11T23:55:05Z</time>
|
|---|
| 4179 | </trkpt>
|
|---|
| 4180 | <trkpt lat="51.2301092" lon="5.1805503">
|
|---|
| 4181 | <time>+50838-08-12T00:11:45Z</time>
|
|---|
| 4182 | </trkpt>
|
|---|
| 4183 | <trkpt lat="51.23005" lon="5.1800227">
|
|---|
| 4184 | <time>+50838-08-12T00:28:25Z</time>
|
|---|
| 4185 | </trkpt>
|
|---|
| 4186 | <trkpt lat="51.23005" lon="5.1800227">
|
|---|
| 4187 | <time>+50838-08-12T00:45:05Z</time>
|
|---|
| 4188 | </trkpt>
|
|---|
| 4189 | <trkpt lat="51.2300869" lon="5.1790182">
|
|---|
| 4190 | <time>+50838-08-12T01:01:45Z</time>
|
|---|
| 4191 | </trkpt>
|
|---|
| 4192 | <trkpt lat="51.2301879" lon="5.1766788">
|
|---|
| 4193 | <time>+50838-08-12T01:18:25Z</time>
|
|---|
| 4194 | </trkpt>
|
|---|
| 4195 | <trkpt lat="51.2301933" lon="5.176554">
|
|---|
| 4196 | <time>+50838-08-12T01:35:05Z</time>
|
|---|
| 4197 | </trkpt>
|
|---|
| 4198 | <trkpt lat="51.2302159" lon="5.1759197">
|
|---|
| 4199 | <time>+50838-08-12T01:51:45Z</time>
|
|---|
| 4200 | </trkpt>
|
|---|
| 4201 | <trkpt lat="51.2301923" lon="5.1757051">
|
|---|
| 4202 | <time>+50838-08-12T02:08:25Z</time>
|
|---|
| 4203 | </trkpt>
|
|---|
| 4204 | <trkpt lat="51.2301068" lon="5.1752706">
|
|---|
| 4205 | <time>+50838-08-12T02:25:05Z</time>
|
|---|
| 4206 | </trkpt>
|
|---|
| 4207 | <trkpt lat="51.2300559" lon="5.1750116">
|
|---|
| 4208 | <time>+50838-08-12T02:41:45Z</time>
|
|---|
| 4209 | </trkpt>
|
|---|
| 4210 | <trkpt lat="51.2299812" lon="5.1748315">
|
|---|
| 4211 | <time>+50838-08-12T02:58:25Z</time>
|
|---|
| 4212 | </trkpt>
|
|---|
| 4213 | <trkpt lat="51.2291197" lon="5.1737313">
|
|---|
| 4214 | <time>+50838-08-12T03:15:05Z</time>
|
|---|
| 4215 | </trkpt>
|
|---|
| 4216 | <trkpt lat="51.2287351" lon="5.1732196">
|
|---|
| 4217 | <time>+50838-08-12T03:31:45Z</time>
|
|---|
| 4218 | </trkpt>
|
|---|
| 4219 | <trkpt lat="51.2287351" lon="5.1732196">
|
|---|
| 4220 | <time>+50838-08-12T03:48:25Z</time>
|
|---|
| 4221 | </trkpt>
|
|---|
| 4222 | <trkpt lat="51.2285036" lon="5.1729274">
|
|---|
| 4223 | <time>+50838-08-12T04:05:05Z</time>
|
|---|
| 4224 | </trkpt>
|
|---|
| 4225 | <trkpt lat="51.2283651" lon="5.1728881">
|
|---|
| 4226 | <time>+50838-08-12T04:21:45Z</time>
|
|---|
| 4227 | </trkpt>
|
|---|
| 4228 | <trkpt lat="51.2282903" lon="5.172795">
|
|---|
| 4229 | <time>+50838-08-12T04:38:25Z</time>
|
|---|
| 4230 | </trkpt>
|
|---|
| 4231 | <trkpt lat="51.2282903" lon="5.172795">
|
|---|
| 4232 | <time>+50838-08-12T04:55:05Z</time>
|
|---|
| 4233 | </trkpt>
|
|---|
| 4234 | <trkpt lat="51.2272623" lon="5.1714866">
|
|---|
| 4235 | <time>+50838-08-12T05:11:45Z</time>
|
|---|
| 4236 | </trkpt>
|
|---|
| 4237 | <trkpt lat="51.2267629" lon="5.1708568">
|
|---|
| 4238 | <time>+50838-08-12T05:28:25Z</time>
|
|---|
| 4239 | </trkpt>
|
|---|
| 4240 | <trkpt lat="51.2266025" lon="5.1707298">
|
|---|
| 4241 | <time>+50838-08-12T05:45:05Z</time>
|
|---|
| 4242 | </trkpt>
|
|---|
| 4243 | <trkpt lat="51.2265516" lon="5.1707051">
|
|---|
| 4244 | <time>+50838-08-12T06:01:45Z</time>
|
|---|
| 4245 | </trkpt>
|
|---|
| 4246 | <trkpt lat="51.2263259" lon="5.1706096">
|
|---|
| 4247 | <time>+50838-08-12T06:18:25Z</time>
|
|---|
| 4248 | </trkpt>
|
|---|
| 4249 | <trkpt lat="51.2263259" lon="5.1706096">
|
|---|
| 4250 | <time>+50838-08-12T06:35:05Z</time>
|
|---|
| 4251 | </trkpt>
|
|---|
| 4252 | <trkpt lat="51.2262841" lon="5.1705511">
|
|---|
| 4253 | <time>+50838-08-12T06:51:45Z</time>
|
|---|
| 4254 | </trkpt>
|
|---|
| 4255 | <trkpt lat="51.2262336" lon="5.1702684">
|
|---|
| 4256 | <time>+50838-08-12T07:08:25Z</time>
|
|---|
| 4257 | </trkpt>
|
|---|
| 4258 | <trkpt lat="51.2262007" lon="5.1701915">
|
|---|
| 4259 | <time>+50838-08-12T07:25:05Z</time>
|
|---|
| 4260 | </trkpt>
|
|---|
| 4261 | <trkpt lat="51.2260584" lon="5.1699823">
|
|---|
| 4262 | <time>+50838-08-12T07:41:45Z</time>
|
|---|
| 4263 | </trkpt>
|
|---|
| 4264 | <trkpt lat="51.2258082" lon="5.169446">
|
|---|
| 4265 | <time>+50838-08-12T07:58:25Z</time>
|
|---|
| 4266 | </trkpt>
|
|---|
| 4267 | <trkpt lat="51.2256966" lon="5.1692495">
|
|---|
| 4268 | <time>+50838-08-12T08:15:05Z</time>
|
|---|
| 4269 | </trkpt>
|
|---|
| 4270 | <trkpt lat="51.2255084" lon="5.1689521">
|
|---|
| 4271 | <time>+50838-08-12T08:31:45Z</time>
|
|---|
| 4272 | </trkpt>
|
|---|
| 4273 | <trkpt lat="51.2254468" lon="5.1688337">
|
|---|
| 4274 | <time>+50838-08-12T08:48:25Z</time>
|
|---|
| 4275 | </trkpt>
|
|---|
| 4276 | <trkpt lat="51.2247094" lon="5.1668505">
|
|---|
| 4277 | <time>+50838-08-12T09:05:05Z</time>
|
|---|
| 4278 | </trkpt>
|
|---|
| 4279 | <trkpt lat="51.2244818" lon="5.1663698">
|
|---|
| 4280 | <time>+50838-08-12T09:21:45Z</time>
|
|---|
| 4281 | </trkpt>
|
|---|
| 4282 | <trkpt lat="51.2241746" lon="5.1659173">
|
|---|
| 4283 | <time>+50838-08-12T09:38:25Z</time>
|
|---|
| 4284 | </trkpt>
|
|---|
| 4285 | <trkpt lat="51.2238388" lon="5.1655201">
|
|---|
| 4286 | <time>+50838-08-12T09:55:05Z</time>
|
|---|
| 4287 | </trkpt>
|
|---|
| 4288 | <trkpt lat="51.2236179" lon="5.1651749">
|
|---|
| 4289 | <time>+50838-08-12T10:11:45Z</time>
|
|---|
| 4290 | </trkpt>
|
|---|
| 4291 | <trkpt lat="51.223456" lon="5.1647935">
|
|---|
| 4292 | <time>+50838-08-12T10:28:25Z</time>
|
|---|
| 4293 | </trkpt>
|
|---|
| 4294 | <trkpt lat="51.2233382" lon="5.1642525">
|
|---|
| 4295 | <time>+50838-08-12T10:45:05Z</time>
|
|---|
| 4296 | </trkpt>
|
|---|
| 4297 | <trkpt lat="51.2232532" lon="5.1636576">
|
|---|
| 4298 | <time>+50838-08-12T11:01:45Z</time>
|
|---|
| 4299 | </trkpt>
|
|---|
| 4300 | <trkpt lat="51.2232163" lon="5.1632126">
|
|---|
| 4301 | <time>+50838-08-12T11:18:25Z</time>
|
|---|
| 4302 | </trkpt>
|
|---|
| 4303 | <trkpt lat="51.2231407" lon="5.1631182">
|
|---|
| 4304 | <time>+50838-08-12T11:35:05Z</time>
|
|---|
| 4305 | </trkpt>
|
|---|
| 4306 | <trkpt lat="51.2219435" lon="5.1628114">
|
|---|
| 4307 | <time>+50838-08-12T11:51:45Z</time>
|
|---|
| 4308 | </trkpt>
|
|---|
| 4309 | <trkpt lat="51.2217638" lon="5.1629911">
|
|---|
| 4310 | <time>+50838-08-12T12:08:25Z</time>
|
|---|
| 4311 | </trkpt>
|
|---|
| 4312 | <trkpt lat="51.2212654" lon="5.1639763">
|
|---|
| 4313 | <time>+50838-08-12T12:25:05Z</time>
|
|---|
| 4314 | </trkpt>
|
|---|
| 4315 | <trkpt lat="51.2211036" lon="5.1640788">
|
|---|
| 4316 | <time>+50838-08-12T12:41:45Z</time>
|
|---|
| 4317 | </trkpt>
|
|---|
| 4318 | <trkpt lat="51.2211036" lon="5.1640788">
|
|---|
| 4319 | <time>+50838-08-12T12:58:25Z</time>
|
|---|
| 4320 | </trkpt>
|
|---|
| 4321 | <trkpt lat="51.2207583" lon="5.1635934">
|
|---|
| 4322 | <time>+50838-08-12T13:15:05Z</time>
|
|---|
| 4323 | </trkpt>
|
|---|
| 4324 | <trkpt lat="51.2205861" lon="5.1633749">
|
|---|
| 4325 | <time>+50838-08-12T13:31:45Z</time>
|
|---|
| 4326 | </trkpt>
|
|---|
| 4327 | <trkpt lat="51.2205559" lon="5.1633511">
|
|---|
| 4328 | <time>+50838-08-12T13:48:25Z</time>
|
|---|
| 4329 | </trkpt>
|
|---|
| 4330 | <trkpt lat="51.2205559" lon="5.1633511">
|
|---|
| 4331 | <time>+50838-08-12T14:05:05Z</time>
|
|---|
| 4332 | </trkpt>
|
|---|
| 4333 | <trkpt lat="51.2204535" lon="5.1632565">
|
|---|
| 4334 | <time>+50838-08-12T14:21:45Z</time>
|
|---|
| 4335 | </trkpt>
|
|---|
| 4336 | <trkpt lat="51.2203145" lon="5.1631648">
|
|---|
| 4337 | <time>+50838-08-12T14:38:25Z</time>
|
|---|
| 4338 | </trkpt>
|
|---|
| 4339 | <trkpt lat="51.2201105" lon="5.1630737">
|
|---|
| 4340 | <time>+50838-08-12T14:55:05Z</time>
|
|---|
| 4341 | </trkpt>
|
|---|
| 4342 | <trkpt lat="51.2199775" lon="5.1630472">
|
|---|
| 4343 | <time>+50838-08-12T15:11:45Z</time>
|
|---|
| 4344 | </trkpt>
|
|---|
| 4345 | <trkpt lat="51.2192297" lon="5.1630309">
|
|---|
| 4346 | <time>+50838-08-12T15:28:25Z</time>
|
|---|
| 4347 | </trkpt>
|
|---|
| 4348 | <trkpt lat="51.2190784" lon="5.1630184">
|
|---|
| 4349 | <time>+50838-08-12T15:45:05Z</time>
|
|---|
| 4350 | </trkpt>
|
|---|
| 4351 | <trkpt lat="51.2189457" lon="5.1629753">
|
|---|
| 4352 | <time>+50838-08-12T16:01:45Z</time>
|
|---|
| 4353 | </trkpt>
|
|---|
| 4354 | <trkpt lat="51.2188009" lon="5.1629056">
|
|---|
| 4355 | <time>+50838-08-12T16:18:25Z</time>
|
|---|
| 4356 | </trkpt>
|
|---|
| 4357 | <trkpt lat="51.2186997" lon="5.1628272">
|
|---|
| 4358 | <time>+50838-08-12T16:35:05Z</time>
|
|---|
| 4359 | </trkpt>
|
|---|
| 4360 | <trkpt lat="51.2185948" lon="5.1627219">
|
|---|
| 4361 | <time>+50838-08-12T16:51:45Z</time>
|
|---|
| 4362 | </trkpt>
|
|---|
| 4363 | <trkpt lat="51.2184614" lon="5.1625363">
|
|---|
| 4364 | <time>+50838-08-12T17:08:25Z</time>
|
|---|
| 4365 | </trkpt>
|
|---|
| 4366 | <trkpt lat="51.2183557" lon="5.1623324">
|
|---|
| 4367 | <time>+50838-08-12T17:25:05Z</time>
|
|---|
| 4368 | </trkpt>
|
|---|
| 4369 | <trkpt lat="51.2182568" lon="5.1620081">
|
|---|
| 4370 | <time>+50838-08-12T17:41:45Z</time>
|
|---|
| 4371 | </trkpt>
|
|---|
| 4372 | <trkpt lat="51.2182568" lon="5.1620081">
|
|---|
| 4373 | <time>+50838-08-12T17:58:25Z</time>
|
|---|
| 4374 | </trkpt>
|
|---|
| 4375 | <trkpt lat="51.2180607" lon="5.1610585">
|
|---|
| 4376 | <time>+50838-08-12T18:15:05Z</time>
|
|---|
| 4377 | </trkpt>
|
|---|
| 4378 | <trkpt lat="51.2180607" lon="5.1610585">
|
|---|
| 4379 | <time>+50838-08-12T18:31:45Z</time>
|
|---|
| 4380 | </trkpt>
|
|---|
| 4381 | <trkpt lat="51.2181086" lon="5.1610382">
|
|---|
| 4382 | <time>+50838-08-12T18:48:25Z</time>
|
|---|
| 4383 | </trkpt>
|
|---|
| 4384 | <trkpt lat="51.2181073" lon="5.1609986">
|
|---|
| 4385 | <time>+50838-08-12T19:05:05Z</time>
|
|---|
| 4386 | </trkpt>
|
|---|
| 4387 | <trkpt lat="51.2181161" lon="5.1608967">
|
|---|
| 4388 | <time>+50838-08-12T19:21:45Z</time>
|
|---|
| 4389 | </trkpt>
|
|---|
| 4390 | <trkpt lat="51.2181182" lon="5.1608524">
|
|---|
| 4391 | <time>+50838-08-12T19:38:25Z</time>
|
|---|
| 4392 | </trkpt>
|
|---|
| 4393 | <trkpt lat="51.2181468" lon="5.1608397">
|
|---|
| 4394 | <time>+50838-08-12T19:55:05Z</time>
|
|---|
| 4395 | </trkpt>
|
|---|
| 4396 | <trkpt lat="51.21819" lon="5.1608645">
|
|---|
| 4397 | <time>+50838-08-12T20:11:45Z</time>
|
|---|
| 4398 | </trkpt>
|
|---|
| 4399 | <trkpt lat="51.2182245" lon="5.1609155">
|
|---|
| 4400 | <time>+50838-08-12T20:28:25Z</time>
|
|---|
| 4401 | </trkpt>
|
|---|
| 4402 | <trkpt lat="51.2182299" lon="5.1609986">
|
|---|
| 4403 | <time>+50838-08-12T20:45:05Z</time>
|
|---|
| 4404 | </trkpt>
|
|---|
| 4405 | <trkpt lat="51.2182283" lon="5.1611227">
|
|---|
| 4406 | <time>+50838-08-12T21:01:45Z</time>
|
|---|
| 4407 | </trkpt>
|
|---|
| 4408 | <trkpt lat="51.218252" lon="5.1612341">
|
|---|
| 4409 | <time>+50838-08-12T21:18:25Z</time>
|
|---|
| 4410 | </trkpt>
|
|---|
| 4411 | <trkpt lat="51.218252" lon="5.1612341">
|
|---|
| 4412 | <time>+50838-08-12T21:35:05Z</time>
|
|---|
| 4413 | </trkpt>
|
|---|
| 4414 | <trkpt lat="51.2178351" lon="5.1611178">
|
|---|
| 4415 | <time>+50838-08-12T21:51:45Z</time>
|
|---|
| 4416 | </trkpt>
|
|---|
| 4417 | <trkpt lat="51.217661" lon="5.1608385">
|
|---|
| 4418 | <time>+50838-08-12T22:08:25Z</time>
|
|---|
| 4419 | </trkpt>
|
|---|
| 4420 | <trkpt lat="51.217661" lon="5.1608385">
|
|---|
| 4421 | <time>+50838-08-12T22:25:05Z</time>
|
|---|
| 4422 | </trkpt>
|
|---|
| 4423 | <trkpt lat="51.2176551" lon="5.1604906">
|
|---|
| 4424 | <time>+50838-08-12T22:41:45Z</time>
|
|---|
| 4425 | </trkpt>
|
|---|
| 4426 | <trkpt lat="51.2174955" lon="5.1599066">
|
|---|
| 4427 | <time>+50838-08-12T22:58:25Z</time>
|
|---|
| 4428 | </trkpt>
|
|---|
| 4429 | <trkpt lat="51.217245" lon="5.1593651">
|
|---|
| 4430 | <time>+50838-08-12T23:15:05Z</time>
|
|---|
| 4431 | </trkpt>
|
|---|
| 4432 | <trkpt lat="51.2167883" lon="5.1585794">
|
|---|
| 4433 | <time>+50838-08-12T23:31:45Z</time>
|
|---|
| 4434 | </trkpt>
|
|---|
| 4435 | <trkpt lat="51.2161115" lon="5.1572513">
|
|---|
| 4436 | <time>+50838-08-12T23:48:25Z</time>
|
|---|
| 4437 | </trkpt>
|
|---|
| 4438 | <trkpt lat="51.2158428" lon="5.1562748">
|
|---|
| 4439 | <time>+50838-08-13T00:05:05Z</time>
|
|---|
| 4440 | </trkpt>
|
|---|
| 4441 | <trkpt lat="51.2158428" lon="5.1562748">
|
|---|
| 4442 | <time>+50838-08-13T00:21:45Z</time>
|
|---|
| 4443 | </trkpt>
|
|---|
| 4444 | <trkpt lat="51.2155379" lon="5.1555283">
|
|---|
| 4445 | <time>+50838-08-13T00:38:25Z</time>
|
|---|
| 4446 | </trkpt>
|
|---|
| 4447 | <trkpt lat="51.2151245" lon="5.1544189">
|
|---|
| 4448 | <time>+50838-08-13T00:55:05Z</time>
|
|---|
| 4449 | </trkpt>
|
|---|
| 4450 | <trkpt lat="51.2145007" lon="5.1528354">
|
|---|
| 4451 | <time>+50838-08-13T01:11:45Z</time>
|
|---|
| 4452 | </trkpt>
|
|---|
| 4453 | <trkpt lat="51.2143926" lon="5.1525275">
|
|---|
| 4454 | <time>+50838-08-13T01:28:25Z</time>
|
|---|
| 4455 | </trkpt>
|
|---|
| 4456 | <trkpt lat="51.2142808" lon="5.1521934">
|
|---|
| 4457 | <time>+50838-08-13T01:45:05Z</time>
|
|---|
| 4458 | </trkpt>
|
|---|
| 4459 | <trkpt lat="51.2142808" lon="5.1521934">
|
|---|
| 4460 | <time>+50838-08-13T02:01:45Z</time>
|
|---|
| 4461 | </trkpt>
|
|---|
| 4462 | <trkpt lat="51.2144455" lon="5.1520755">
|
|---|
| 4463 | <time>+50838-08-13T02:18:25Z</time>
|
|---|
| 4464 | </trkpt>
|
|---|
| 4465 | <trkpt lat="51.2145337" lon="5.152054">
|
|---|
| 4466 | <time>+50838-08-13T02:35:05Z</time>
|
|---|
| 4467 | </trkpt>
|
|---|
| 4468 | <trkpt lat="51.2146563" lon="5.1520942">
|
|---|
| 4469 | <time>+50838-08-13T02:51:45Z</time>
|
|---|
| 4470 | </trkpt>
|
|---|
| 4471 | <trkpt lat="51.2147698" lon="5.1521385">
|
|---|
| 4472 | <time>+50838-08-13T03:08:25Z</time>
|
|---|
| 4473 | </trkpt>
|
|---|
| 4474 | <trkpt lat="51.2150117" lon="5.1522565">
|
|---|
| 4475 | <time>+50838-08-13T03:25:05Z</time>
|
|---|
| 4476 | </trkpt>
|
|---|
| 4477 | <trkpt lat="51.2153209" lon="5.1522994">
|
|---|
| 4478 | <time>+50838-08-13T03:41:45Z</time>
|
|---|
| 4479 | </trkpt>
|
|---|
| 4480 | <trkpt lat="51.2156166" lon="5.1523531">
|
|---|
| 4481 | <time>+50838-08-13T03:58:25Z</time>
|
|---|
| 4482 | </trkpt>
|
|---|
| 4483 | <trkpt lat="51.2159055" lon="5.1524282">
|
|---|
| 4484 | <time>+50838-08-13T04:15:05Z</time>
|
|---|
| 4485 | </trkpt>
|
|---|
| 4486 | <trkpt lat="51.2160735" lon="5.1524926">
|
|---|
| 4487 | <time>+50838-08-13T04:31:45Z</time>
|
|---|
| 4488 | </trkpt>
|
|---|
| 4489 | <trkpt lat="51.216255" lon="5.1525355">
|
|---|
| 4490 | <time>+50838-08-13T04:48:25Z</time>
|
|---|
| 4491 | </trkpt>
|
|---|
| 4492 | <trkpt lat="51.2164295" lon="5.1525812">
|
|---|
| 4493 | <time>+50838-08-13T05:05:05Z</time>
|
|---|
| 4494 | </trkpt>
|
|---|
| 4495 | <trkpt lat="51.2165738" lon="5.1526415">
|
|---|
| 4496 | <time>+50838-08-13T05:21:45Z</time>
|
|---|
| 4497 | </trkpt>
|
|---|
| 4498 | <trkpt lat="51.2167392" lon="5.1528069">
|
|---|
| 4499 | <time>+50838-08-13T05:38:25Z</time>
|
|---|
| 4500 | </trkpt>
|
|---|
| 4501 | <trkpt lat="51.2168273" lon="5.1528836">
|
|---|
| 4502 | <time>+50838-08-13T05:55:05Z</time>
|
|---|
| 4503 | </trkpt>
|
|---|
| 4504 | <trkpt lat="51.216952" lon="5.1529997">
|
|---|
| 4505 | <time>+50838-08-13T06:11:45Z</time>
|
|---|
| 4506 | </trkpt>
|
|---|
| 4507 | <trkpt lat="51.2170816" lon="5.1531256">
|
|---|
| 4508 | <time>+50838-08-13T06:28:25Z</time>
|
|---|
| 4509 | </trkpt>
|
|---|
| 4510 | <trkpt lat="51.2172496" lon="5.1532758">
|
|---|
| 4511 | <time>+50838-08-13T06:45:05Z</time>
|
|---|
| 4512 | </trkpt>
|
|---|
| 4513 | <trkpt lat="51.2174176" lon="5.1534367">
|
|---|
| 4514 | <time>+50838-08-13T07:01:45Z</time>
|
|---|
| 4515 | </trkpt>
|
|---|
| 4516 | <trkpt lat="51.2176189" lon="5.153591">
|
|---|
| 4517 | <time>+50838-08-13T07:18:25Z</time>
|
|---|
| 4518 | </trkpt>
|
|---|
| 4519 | <trkpt lat="51.2177096" lon="5.1536435">
|
|---|
| 4520 | <time>+50838-08-13T07:35:05Z</time>
|
|---|
| 4521 | </trkpt>
|
|---|
| 4522 | <trkpt lat="51.217808" lon="5.153656">
|
|---|
| 4523 | <time>+50838-08-13T07:51:45Z</time>
|
|---|
| 4524 | </trkpt>
|
|---|
| 4525 | <trkpt lat="51.2179715" lon="5.1536505">
|
|---|
| 4526 | <time>+50838-08-13T08:08:25Z</time>
|
|---|
| 4527 | </trkpt>
|
|---|
| 4528 | <trkpt lat="51.218152" lon="5.1536295">
|
|---|
| 4529 | <time>+50838-08-13T08:25:05Z</time>
|
|---|
| 4530 | </trkpt>
|
|---|
| 4531 | <trkpt lat="51.218267" lon="5.153598">
|
|---|
| 4532 | <time>+50838-08-13T08:41:45Z</time>
|
|---|
| 4533 | </trkpt>
|
|---|
| 4534 | <trkpt lat="51.2185063" lon="5.1535547">
|
|---|
| 4535 | <time>+50838-08-13T08:58:25Z</time>
|
|---|
| 4536 | </trkpt>
|
|---|
| 4537 | <trkpt lat="51.2186608" lon="5.1535011">
|
|---|
| 4538 | <time>+50838-08-13T09:15:05Z</time>
|
|---|
| 4539 | </trkpt>
|
|---|
| 4540 | <trkpt lat="51.2188691" lon="5.1534367">
|
|---|
| 4541 | <time>+50838-08-13T09:31:45Z</time>
|
|---|
| 4542 | </trkpt>
|
|---|
| 4543 | <trkpt lat="51.2190775" lon="5.1533938">
|
|---|
| 4544 | <time>+50838-08-13T09:48:25Z</time>
|
|---|
| 4545 | </trkpt>
|
|---|
| 4546 | <trkpt lat="51.2193731" lon="5.1533401">
|
|---|
| 4547 | <time>+50838-08-13T10:05:05Z</time>
|
|---|
| 4548 | </trkpt>
|
|---|
| 4549 | <trkpt lat="51.2195747" lon="5.1532865">
|
|---|
| 4550 | <time>+50838-08-13T10:21:45Z</time>
|
|---|
| 4551 | </trkpt>
|
|---|
| 4552 | <trkpt lat="51.2198435" lon="5.1532436">
|
|---|
| 4553 | <time>+50838-08-13T10:38:25Z</time>
|
|---|
| 4554 | </trkpt>
|
|---|
| 4555 | <trkpt lat="51.2200787" lon="5.1532221">
|
|---|
| 4556 | <time>+50838-08-13T10:55:05Z</time>
|
|---|
| 4557 | </trkpt>
|
|---|
| 4558 | <trkpt lat="51.2203444" lon="5.1532301">
|
|---|
| 4559 | <time>+50838-08-13T11:11:45Z</time>
|
|---|
| 4560 | </trkpt>
|
|---|
| 4561 | <trkpt lat="51.2206136" lon="5.1532667">
|
|---|
| 4562 | <time>+50838-08-13T11:28:25Z</time>
|
|---|
| 4563 | </trkpt>
|
|---|
| 4564 | <trkpt lat="51.2206847" lon="5.1532453">
|
|---|
| 4565 | <time>+50838-08-13T11:45:05Z</time>
|
|---|
| 4566 | </trkpt>
|
|---|
| 4567 | <trkpt lat="51.2207542" lon="5.1531912">
|
|---|
| 4568 | <time>+50838-08-13T12:01:45Z</time>
|
|---|
| 4569 | </trkpt>
|
|---|
| 4570 | <trkpt lat="51.2208588" lon="5.1529158">
|
|---|
| 4571 | <time>+50838-08-13T12:18:25Z</time>
|
|---|
| 4572 | </trkpt>
|
|---|
| 4573 | <trkpt lat="51.220973" lon="5.1526154">
|
|---|
| 4574 | <time>+50838-08-13T12:35:05Z</time>
|
|---|
| 4575 | </trkpt>
|
|---|
| 4576 | <trkpt lat="51.2210566" lon="5.1523954">
|
|---|
| 4577 | <time>+50838-08-13T12:51:45Z</time>
|
|---|
| 4578 | </trkpt>
|
|---|
| 4579 | <trkpt lat="51.2212751" lon="5.1523525">
|
|---|
| 4580 | <time>+50838-08-13T13:08:25Z</time>
|
|---|
| 4581 | </trkpt>
|
|---|
| 4582 | <trkpt lat="51.2213992" lon="5.1523122">
|
|---|
| 4583 | <time>+50838-08-13T13:25:05Z</time>
|
|---|
| 4584 | </trkpt>
|
|---|
| 4585 | <trkpt lat="51.2215369" lon="5.1523531">
|
|---|
| 4586 | <time>+50838-08-13T13:41:45Z</time>
|
|---|
| 4587 | </trkpt>
|
|---|
| 4588 | <trkpt lat="51.2217183" lon="5.1523638">
|
|---|
| 4589 | <time>+50838-08-13T13:58:25Z</time>
|
|---|
| 4590 | </trkpt>
|
|---|
| 4591 | <trkpt lat="51.2219266" lon="5.1523853">
|
|---|
| 4592 | <time>+50838-08-13T14:15:05Z</time>
|
|---|
| 4593 | </trkpt>
|
|---|
| 4594 | <trkpt lat="51.2221551" lon="5.1524711">
|
|---|
| 4595 | <time>+50838-08-13T14:31:45Z</time>
|
|---|
| 4596 | </trkpt>
|
|---|
| 4597 | <trkpt lat="51.2221874" lon="5.1521577">
|
|---|
| 4598 | <time>+50838-08-13T14:48:25Z</time>
|
|---|
| 4599 | </trkpt>
|
|---|
| 4600 | <trkpt lat="51.2221883" lon="5.1516974">
|
|---|
| 4601 | <time>+50838-08-13T15:05:05Z</time>
|
|---|
| 4602 | </trkpt>
|
|---|
| 4603 | <trkpt lat="51.2222105" lon="5.1511154">
|
|---|
| 4604 | <time>+50838-08-13T15:21:45Z</time>
|
|---|
| 4605 | </trkpt>
|
|---|
| 4606 | <trkpt lat="51.2222403" lon="5.1507728">
|
|---|
| 4607 | <time>+50838-08-13T15:38:25Z</time>
|
|---|
| 4608 | </trkpt>
|
|---|
| 4609 | <trkpt lat="51.2222614" lon="5.1503657">
|
|---|
| 4610 | <time>+50838-08-13T15:55:05Z</time>
|
|---|
| 4611 | </trkpt>
|
|---|
| 4612 | <trkpt lat="51.22229" lon="5.1499645">
|
|---|
| 4613 | <time>+50838-08-13T16:11:45Z</time>
|
|---|
| 4614 | </trkpt>
|
|---|
| 4615 | <trkpt lat="51.222321" lon="5.149498">
|
|---|
| 4616 | <time>+50838-08-13T16:28:25Z</time>
|
|---|
| 4617 | </trkpt>
|
|---|
| 4618 | <trkpt lat="51.2223387" lon="5.1491024">
|
|---|
| 4619 | <time>+50838-08-13T16:45:05Z</time>
|
|---|
| 4620 | </trkpt>
|
|---|
| 4621 | <trkpt lat="51.2223638" lon="5.1486686">
|
|---|
| 4622 | <time>+50838-08-13T17:01:45Z</time>
|
|---|
| 4623 | </trkpt>
|
|---|
| 4624 | <trkpt lat="51.2223687" lon="5.1481871">
|
|---|
| 4625 | <time>+50838-08-13T17:18:25Z</time>
|
|---|
| 4626 | </trkpt>
|
|---|
| 4627 | <trkpt lat="51.2224033" lon="5.1477143">
|
|---|
| 4628 | <time>+50838-08-13T17:35:05Z</time>
|
|---|
| 4629 | </trkpt>
|
|---|
| 4630 | <trkpt lat="51.2224023" lon="5.1472784">
|
|---|
| 4631 | <time>+50838-08-13T17:51:45Z</time>
|
|---|
| 4632 | </trkpt>
|
|---|
| 4633 | <trkpt lat="51.2224306" lon="5.1467419">
|
|---|
| 4634 | <time>+50838-08-13T18:08:25Z</time>
|
|---|
| 4635 | </trkpt>
|
|---|
| 4636 | <trkpt lat="51.2224779" lon="5.1460308">
|
|---|
| 4637 | <time>+50838-08-13T18:25:05Z</time>
|
|---|
| 4638 | </trkpt>
|
|---|
| 4639 | <trkpt lat="51.2224873" lon="5.1454796">
|
|---|
| 4640 | <time>+50838-08-13T18:41:45Z</time>
|
|---|
| 4641 | </trkpt>
|
|---|
| 4642 | <trkpt lat="51.2224066" lon="5.1452306">
|
|---|
| 4643 | <time>+50838-08-13T18:58:25Z</time>
|
|---|
| 4644 | </trkpt>
|
|---|
| 4645 | <trkpt lat="51.2223634" lon="5.1450575">
|
|---|
| 4646 | <time>+50838-08-13T19:15:05Z</time>
|
|---|
| 4647 | </trkpt>
|
|---|
| 4648 | <trkpt lat="51.2222913" lon="5.1449961">
|
|---|
| 4649 | <time>+50838-08-13T19:31:45Z</time>
|
|---|
| 4650 | </trkpt>
|
|---|
| 4651 | <trkpt lat="51.2217426" lon="5.1449537">
|
|---|
| 4652 | <time>+50838-08-13T19:48:25Z</time>
|
|---|
| 4653 | </trkpt>
|
|---|
| 4654 | <trkpt lat="51.2216753" lon="5.1448985">
|
|---|
| 4655 | <time>+50838-08-13T20:05:05Z</time>
|
|---|
| 4656 | </trkpt>
|
|---|
| 4657 | <trkpt lat="51.2214764" lon="5.1447678">
|
|---|
| 4658 | <time>+50838-08-13T20:21:45Z</time>
|
|---|
| 4659 | </trkpt>
|
|---|
| 4660 | <trkpt lat="51.221342" lon="5.144564">
|
|---|
| 4661 | <time>+50838-08-13T20:38:25Z</time>
|
|---|
| 4662 | </trkpt>
|
|---|
| 4663 | <trkpt lat="51.2211673" lon="5.1444352">
|
|---|
| 4664 | <time>+50838-08-13T20:55:05Z</time>
|
|---|
| 4665 | </trkpt>
|
|---|
| 4666 | <trkpt lat="51.2209321" lon="5.1441563">
|
|---|
| 4667 | <time>+50838-08-13T21:11:45Z</time>
|
|---|
| 4668 | </trkpt>
|
|---|
| 4669 | <trkpt lat="51.2207574" lon="5.1439631">
|
|---|
| 4670 | <time>+50838-08-13T21:28:25Z</time>
|
|---|
| 4671 | </trkpt>
|
|---|
| 4672 | <trkpt lat="51.2204685" lon="5.1436842">
|
|---|
| 4673 | <time>+50838-08-13T21:45:05Z</time>
|
|---|
| 4674 | </trkpt>
|
|---|
| 4675 | <trkpt lat="51.2202534" lon="5.1434696">
|
|---|
| 4676 | <time>+50838-08-13T22:01:45Z</time>
|
|---|
| 4677 | </trkpt>
|
|---|
| 4678 | <trkpt lat="51.2200618" lon="5.1432263">
|
|---|
| 4679 | <time>+50838-08-13T22:18:25Z</time>
|
|---|
| 4680 | </trkpt>
|
|---|
| 4681 | <trkpt lat="51.2199584" lon="5.1431004">
|
|---|
| 4682 | <time>+50838-08-13T22:35:05Z</time>
|
|---|
| 4683 | </trkpt>
|
|---|
| 4684 | <trkpt lat="51.2199702" lon="5.1429538">
|
|---|
| 4685 | <time>+50838-08-13T22:51:45Z</time>
|
|---|
| 4686 | </trkpt>
|
|---|
| 4687 | <trkpt lat="51.2199735" lon="5.1428149">
|
|---|
| 4688 | <time>+50838-08-13T23:08:25Z</time>
|
|---|
| 4689 | </trkpt>
|
|---|
| 4690 | <trkpt lat="51.219981" lon="5.142495">
|
|---|
| 4691 | <time>+50838-08-13T23:25:05Z</time>
|
|---|
| 4692 | </trkpt>
|
|---|
| 4693 | <trkpt lat="51.219981" lon="5.142495">
|
|---|
| 4694 | <time>+50838-08-13T23:41:45Z</time>
|
|---|
| 4695 | </trkpt>
|
|---|
| 4696 | <trkpt lat="51.2200007" lon="5.1410314">
|
|---|
| 4697 | <time>+50838-08-13T23:58:25Z</time>
|
|---|
| 4698 | </trkpt>
|
|---|
| 4699 | <trkpt lat="51.2200292" lon="5.1403407">
|
|---|
| 4700 | <time>+50838-08-14T00:15:05Z</time>
|
|---|
| 4701 | </trkpt>
|
|---|
| 4702 | <trkpt lat="51.2200695" lon="5.139815">
|
|---|
| 4703 | <time>+50838-08-14T00:31:45Z</time>
|
|---|
| 4704 | </trkpt>
|
|---|
| 4705 | <trkpt lat="51.2201367" lon="5.139359">
|
|---|
| 4706 | <time>+50838-08-14T00:48:25Z</time>
|
|---|
| 4707 | </trkpt>
|
|---|
| 4708 | <trkpt lat="51.2202191" lon="5.1390251">
|
|---|
| 4709 | <time>+50838-08-14T01:05:05Z</time>
|
|---|
| 4710 | </trkpt>
|
|---|
| 4711 | <trkpt lat="51.2203098" lon="5.1387139">
|
|---|
| 4712 | <time>+50838-08-14T01:21:45Z</time>
|
|---|
| 4713 | </trkpt>
|
|---|
| 4714 | <trkpt lat="51.2203719" lon="5.1383398">
|
|---|
| 4715 | <time>+50838-08-14T01:38:25Z</time>
|
|---|
| 4716 | </trkpt>
|
|---|
| 4717 | <trkpt lat="51.2203165" lon="5.1381024">
|
|---|
| 4718 | <time>+50838-08-14T01:55:05Z</time>
|
|---|
| 4719 | </trkpt>
|
|---|
| 4720 | <trkpt lat="51.2201619" lon="5.1379683">
|
|---|
| 4721 | <time>+50838-08-14T02:11:45Z</time>
|
|---|
| 4722 | </trkpt>
|
|---|
| 4723 | <trkpt lat="51.2198394" lon="5.1378181">
|
|---|
| 4724 | <time>+50838-08-14T02:28:25Z</time>
|
|---|
| 4725 | </trkpt>
|
|---|
| 4726 | <trkpt lat="51.2194333" lon="5.1376053">
|
|---|
| 4727 | <time>+50838-08-14T02:45:05Z</time>
|
|---|
| 4728 | </trkpt>
|
|---|
| 4729 | <trkpt lat="51.2193981" lon="5.1376081">
|
|---|
| 4730 | <time>+50838-08-14T03:01:45Z</time>
|
|---|
| 4731 | </trkpt>
|
|---|
| 4732 | <trkpt lat="51.2193981" lon="5.1376081">
|
|---|
| 4733 | <time>+50838-08-14T03:18:25Z</time>
|
|---|
| 4734 | </trkpt>
|
|---|
| 4735 | <trkpt lat="51.2194224" lon="5.1375436">
|
|---|
| 4736 | <time>+50838-08-14T03:35:05Z</time>
|
|---|
| 4737 | </trkpt>
|
|---|
| 4738 | <trkpt lat="51.2194603" lon="5.1373511">
|
|---|
| 4739 | <time>+50838-08-14T03:51:45Z</time>
|
|---|
| 4740 | </trkpt>
|
|---|
| 4741 | <trkpt lat="51.2195006" lon="5.137214">
|
|---|
| 4742 | <time>+50838-08-14T04:08:25Z</time>
|
|---|
| 4743 | </trkpt>
|
|---|
| 4744 | <trkpt lat="51.2195006" lon="5.137214">
|
|---|
| 4745 | <time>+50838-08-14T04:25:05Z</time>
|
|---|
| 4746 | </trkpt>
|
|---|
| 4747 | <trkpt lat="51.2194626" lon="5.1371585">
|
|---|
| 4748 | <time>+50838-08-14T04:41:45Z</time>
|
|---|
| 4749 | </trkpt>
|
|---|
| 4750 | <trkpt lat="51.2194603" lon="5.1370191">
|
|---|
| 4751 | <time>+50838-08-14T04:58:25Z</time>
|
|---|
| 4752 | </trkpt>
|
|---|
| 4753 | <trkpt lat="51.2194732" lon="5.1368728">
|
|---|
| 4754 | <time>+50838-08-14T05:15:05Z</time>
|
|---|
| 4755 | </trkpt>
|
|---|
| 4756 | <trkpt lat="51.2194732" lon="5.1368728">
|
|---|
| 4757 | <time>+50838-08-14T05:31:45Z</time>
|
|---|
| 4758 | </trkpt>
|
|---|
| 4759 | <trkpt lat="51.2200927" lon="5.1369639">
|
|---|
| 4760 | <time>+50838-08-14T05:48:25Z</time>
|
|---|
| 4761 | </trkpt>
|
|---|
| 4762 | <trkpt lat="51.2206608" lon="5.1369395">
|
|---|
| 4763 | <time>+50838-08-14T06:05:05Z</time>
|
|---|
| 4764 | </trkpt>
|
|---|
| 4765 | <trkpt lat="51.2212073" lon="5.1369077">
|
|---|
| 4766 | <time>+50838-08-14T06:21:45Z</time>
|
|---|
| 4767 | </trkpt>
|
|---|
| 4768 | <trkpt lat="51.2214286" lon="5.1368729">
|
|---|
| 4769 | <time>+50838-08-14T06:38:25Z</time>
|
|---|
| 4770 | </trkpt>
|
|---|
| 4771 | <trkpt lat="51.221595" lon="5.1369242">
|
|---|
| 4772 | <time>+50838-08-14T06:55:05Z</time>
|
|---|
| 4773 | </trkpt>
|
|---|
| 4774 | <trkpt lat="51.2217131" lon="5.1370742">
|
|---|
| 4775 | <time>+50838-08-14T07:11:45Z</time>
|
|---|
| 4776 | </trkpt>
|
|---|
| 4777 | <trkpt lat="51.2218504" lon="5.1372133">
|
|---|
| 4778 | <time>+50838-08-14T07:28:25Z</time>
|
|---|
| 4779 | </trkpt>
|
|---|
| 4780 | <trkpt lat="51.2219384" lon="5.1372859">
|
|---|
| 4781 | <time>+50838-08-14T07:45:05Z</time>
|
|---|
| 4782 | </trkpt>
|
|---|
| 4783 | <trkpt lat="51.2220633" lon="5.1372719">
|
|---|
| 4784 | <time>+50838-08-14T08:01:45Z</time>
|
|---|
| 4785 | </trkpt>
|
|---|
| 4786 | <trkpt lat="51.2251328" lon="5.1364424">
|
|---|
| 4787 | <time>+50838-08-14T08:18:25Z</time>
|
|---|
| 4788 | </trkpt>
|
|---|
| 4789 | <trkpt lat="51.2252909" lon="5.1363346">
|
|---|
| 4790 | <time>+50838-08-14T08:35:05Z</time>
|
|---|
| 4791 | </trkpt>
|
|---|
| 4792 | <trkpt lat="51.2235691" lon="5.1266631">
|
|---|
| 4793 | <time>+50838-08-14T08:51:45Z</time>
|
|---|
| 4794 | </trkpt>
|
|---|
| 4795 | <trkpt lat="51.2219527" lon="5.1175479">
|
|---|
| 4796 | <time>+50838-08-14T09:08:25Z</time>
|
|---|
| 4797 | </trkpt>
|
|---|
| 4798 | <trkpt lat="51.2220287" lon="5.1174795">
|
|---|
| 4799 | <time>+50838-08-14T09:25:05Z</time>
|
|---|
| 4800 | </trkpt>
|
|---|
| 4801 | <trkpt lat="51.2220287" lon="5.1174795">
|
|---|
| 4802 | <time>+50838-08-14T09:41:45Z</time>
|
|---|
| 4803 | </trkpt>
|
|---|
| 4804 | <trkpt lat="51.221782" lon="5.1160362">
|
|---|
| 4805 | <time>+50838-08-14T09:58:25Z</time>
|
|---|
| 4806 | </trkpt>
|
|---|
| 4807 | <trkpt lat="51.221648" lon="5.1153169">
|
|---|
| 4808 | <time>+50838-08-14T10:15:05Z</time>
|
|---|
| 4809 | </trkpt>
|
|---|
| 4810 | <trkpt lat="51.2216228" lon="5.1150806">
|
|---|
| 4811 | <time>+50838-08-14T10:31:45Z</time>
|
|---|
| 4812 | </trkpt>
|
|---|
| 4813 | <trkpt lat="51.2216228" lon="5.1150806">
|
|---|
| 4814 | <time>+50838-08-14T10:48:25Z</time>
|
|---|
| 4815 | </trkpt>
|
|---|
| 4816 | <trkpt lat="51.2214525" lon="5.1150851">
|
|---|
| 4817 | <time>+50838-08-14T11:05:05Z</time>
|
|---|
| 4818 | </trkpt>
|
|---|
| 4819 | <trkpt lat="51.2214525" lon="5.1150851">
|
|---|
| 4820 | <time>+50838-08-14T11:21:45Z</time>
|
|---|
| 4821 | </trkpt>
|
|---|
| 4822 | <trkpt lat="51.2211905" lon="5.1150908">
|
|---|
| 4823 | <time>+50838-08-14T11:38:25Z</time>
|
|---|
| 4824 | </trkpt>
|
|---|
| 4825 | <trkpt lat="51.2211905" lon="5.1150908">
|
|---|
| 4826 | <time>+50838-08-14T11:55:05Z</time>
|
|---|
| 4827 | </trkpt>
|
|---|
| 4828 | <trkpt lat="51.2208477" lon="5.1150936">
|
|---|
| 4829 | <time>+50838-08-14T12:11:45Z</time>
|
|---|
| 4830 | </trkpt>
|
|---|
| 4831 | <trkpt lat="51.2208477" lon="5.1150936">
|
|---|
| 4832 | <time>+50838-08-14T12:28:25Z</time>
|
|---|
| 4833 | </trkpt>
|
|---|
| 4834 | <trkpt lat="51.2206286" lon="5.1150926">
|
|---|
| 4835 | <time>+50838-08-14T12:45:05Z</time>
|
|---|
| 4836 | </trkpt>
|
|---|
| 4837 | <trkpt lat="51.2206286" lon="5.1150926">
|
|---|
| 4838 | <time>+50838-08-14T13:01:45Z</time>
|
|---|
| 4839 | </trkpt>
|
|---|
| 4840 | <trkpt lat="51.2205387" lon="5.1150922">
|
|---|
| 4841 | <time>+50838-08-14T13:18:25Z</time>
|
|---|
| 4842 | </trkpt>
|
|---|
| 4843 | <trkpt lat="51.2203681" lon="5.1150986">
|
|---|
| 4844 | <time>+50838-08-14T13:35:05Z</time>
|
|---|
| 4845 | </trkpt>
|
|---|
| 4846 | <trkpt lat="51.2202336" lon="5.1150996">
|
|---|
| 4847 | <time>+50838-08-14T13:51:45Z</time>
|
|---|
| 4848 | </trkpt>
|
|---|
| 4849 | <trkpt lat="51.2199965" lon="5.1151033">
|
|---|
| 4850 | <time>+50838-08-14T14:08:25Z</time>
|
|---|
| 4851 | </trkpt>
|
|---|
| 4852 | <trkpt lat="51.2199965" lon="5.1151033">
|
|---|
| 4853 | <time>+50838-08-14T14:25:05Z</time>
|
|---|
| 4854 | </trkpt>
|
|---|
| 4855 | <trkpt lat="51.2200122" lon="5.1149715">
|
|---|
| 4856 | <time>+50838-08-14T14:41:45Z</time>
|
|---|
| 4857 | </trkpt>
|
|---|
| 4858 | <trkpt lat="51.2199898" lon="5.1147982">
|
|---|
| 4859 | <time>+50838-08-14T14:58:25Z</time>
|
|---|
| 4860 | </trkpt>
|
|---|
| 4861 | <trkpt lat="51.2199514" lon="5.1146274">
|
|---|
| 4862 | <time>+50838-08-14T15:15:05Z</time>
|
|---|
| 4863 | </trkpt>
|
|---|
| 4864 | <trkpt lat="51.219889" lon="5.1143977">
|
|---|
| 4865 | <time>+50838-08-14T15:31:45Z</time>
|
|---|
| 4866 | </trkpt>
|
|---|
| 4867 | <trkpt lat="51.2198217" lon="5.1142552">
|
|---|
| 4868 | <time>+50838-08-14T15:48:25Z</time>
|
|---|
| 4869 | </trkpt>
|
|---|
| 4870 | <trkpt lat="51.2191195" lon="5.1131078">
|
|---|
| 4871 | <time>+50838-08-14T16:05:05Z</time>
|
|---|
| 4872 | </trkpt>
|
|---|
| 4873 | <trkpt lat="51.2187737" lon="5.1125539">
|
|---|
| 4874 | <time>+50838-08-14T16:21:45Z</time>
|
|---|
| 4875 | </trkpt>
|
|---|
| 4876 | <trkpt lat="51.2186179" lon="5.1122923">
|
|---|
| 4877 | <time>+50838-08-14T16:38:25Z</time>
|
|---|
| 4878 | </trkpt>
|
|---|
| 4879 | <trkpt lat="51.2185045" lon="5.1121137">
|
|---|
| 4880 | <time>+50838-08-14T16:55:05Z</time>
|
|---|
| 4881 | </trkpt>
|
|---|
| 4882 | <trkpt lat="51.2185045" lon="5.1121137">
|
|---|
| 4883 | <time>+50838-08-14T17:11:45Z</time>
|
|---|
| 4884 | </trkpt>
|
|---|
| 4885 | <trkpt lat="51.2184656" lon="5.1120524">
|
|---|
| 4886 | <time>+50838-08-14T17:28:25Z</time>
|
|---|
| 4887 | </trkpt>
|
|---|
| 4888 | <trkpt lat="51.218389" lon="5.1119339">
|
|---|
| 4889 | <time>+50838-08-14T17:45:05Z</time>
|
|---|
| 4890 | </trkpt>
|
|---|
| 4891 | <trkpt lat="51.2179374" lon="5.1112055">
|
|---|
| 4892 | <time>+50838-08-14T18:01:45Z</time>
|
|---|
| 4893 | </trkpt>
|
|---|
| 4894 | <trkpt lat="51.2177268" lon="5.1108065">
|
|---|
| 4895 | <time>+50838-08-14T18:18:25Z</time>
|
|---|
| 4896 | </trkpt>
|
|---|
| 4897 | <trkpt lat="51.2173553" lon="5.1099953">
|
|---|
| 4898 | <time>+50838-08-14T18:35:05Z</time>
|
|---|
| 4899 | </trkpt>
|
|---|
| 4900 | <trkpt lat="51.2173553" lon="5.1099953">
|
|---|
| 4901 | <time>+50838-08-14T18:51:45Z</time>
|
|---|
| 4902 | </trkpt>
|
|---|
| 4903 | <trkpt lat="51.2173437" lon="5.1099658">
|
|---|
| 4904 | <time>+50838-08-14T19:08:25Z</time>
|
|---|
| 4905 | </trkpt>
|
|---|
| 4906 | <trkpt lat="51.2169516" lon="5.1090493">
|
|---|
| 4907 | <time>+50838-08-14T19:25:05Z</time>
|
|---|
| 4908 | </trkpt>
|
|---|
| 4909 | <trkpt lat="51.2168105" lon="5.1087611">
|
|---|
| 4910 | <time>+50838-08-14T19:41:45Z</time>
|
|---|
| 4911 | </trkpt>
|
|---|
| 4912 | <trkpt lat="51.216712" lon="5.1085151">
|
|---|
| 4913 | <time>+50838-08-14T19:58:25Z</time>
|
|---|
| 4914 | </trkpt>
|
|---|
| 4915 | <trkpt lat="51.2164464" lon="5.1080772">
|
|---|
| 4916 | <time>+50838-08-14T20:15:05Z</time>
|
|---|
| 4917 | </trkpt>
|
|---|
| 4918 | <trkpt lat="51.2161802" lon="5.1076653">
|
|---|
| 4919 | <time>+50838-08-14T20:31:45Z</time>
|
|---|
| 4920 | </trkpt>
|
|---|
| 4921 | <trkpt lat="51.2161802" lon="5.1076653">
|
|---|
| 4922 | <time>+50838-08-14T20:48:25Z</time>
|
|---|
| 4923 | </trkpt>
|
|---|
| 4924 | <trkpt lat="51.2161077" lon="5.1075443">
|
|---|
| 4925 | <time>+50838-08-14T21:05:05Z</time>
|
|---|
| 4926 | </trkpt>
|
|---|
| 4927 | <trkpt lat="51.2159642" lon="5.1073122">
|
|---|
| 4928 | <time>+50838-08-14T21:21:45Z</time>
|
|---|
| 4929 | </trkpt>
|
|---|
| 4930 | <trkpt lat="51.2159642" lon="5.1073122">
|
|---|
| 4931 | <time>+50838-08-14T21:38:25Z</time>
|
|---|
| 4932 | </trkpt>
|
|---|
| 4933 | <trkpt lat="51.2157722" lon="5.1070331">
|
|---|
| 4934 | <time>+50838-08-14T21:55:05Z</time>
|
|---|
| 4935 | </trkpt>
|
|---|
| 4936 | <trkpt lat="51.2146575" lon="5.1052073">
|
|---|
| 4937 | <time>+50838-08-14T22:11:45Z</time>
|
|---|
| 4938 | </trkpt>
|
|---|
| 4939 | <trkpt lat="51.2145638" lon="5.1050062">
|
|---|
| 4940 | <time>+50838-08-14T22:28:25Z</time>
|
|---|
| 4941 | </trkpt>
|
|---|
| 4942 | <trkpt lat="51.2142024" lon="5.1038475">
|
|---|
| 4943 | <time>+50838-08-14T22:45:05Z</time>
|
|---|
| 4944 | </trkpt>
|
|---|
| 4945 | <trkpt lat="51.2141128" lon="5.1036411">
|
|---|
| 4946 | <time>+50838-08-14T23:01:45Z</time>
|
|---|
| 4947 | </trkpt>
|
|---|
| 4948 | <trkpt lat="51.2132649" lon="5.1022128">
|
|---|
| 4949 | <time>+50838-08-14T23:18:25Z</time>
|
|---|
| 4950 | </trkpt>
|
|---|
| 4951 | <trkpt lat="51.2127436" lon="5.1013433">
|
|---|
| 4952 | <time>+50838-08-14T23:35:05Z</time>
|
|---|
| 4953 | </trkpt>
|
|---|
| 4954 | <trkpt lat="51.2119456" lon="5.1002493">
|
|---|
| 4955 | <time>+50838-08-14T23:51:45Z</time>
|
|---|
| 4956 | </trkpt>
|
|---|
| 4957 | <trkpt lat="51.2113569" lon="5.0994592">
|
|---|
| 4958 | <time>+50838-08-15T00:08:25Z</time>
|
|---|
| 4959 | </trkpt>
|
|---|
| 4960 | <trkpt lat="51.2113569" lon="5.0994592">
|
|---|
| 4961 | <time>+50838-08-15T00:25:05Z</time>
|
|---|
| 4962 | </trkpt>
|
|---|
| 4963 | <trkpt lat="51.2112436" lon="5.0993009">
|
|---|
| 4964 | <time>+50838-08-15T00:41:45Z</time>
|
|---|
| 4965 | </trkpt>
|
|---|
| 4966 | <trkpt lat="51.2112436" lon="5.0993009">
|
|---|
| 4967 | <time>+50838-08-15T00:58:25Z</time>
|
|---|
| 4968 | </trkpt>
|
|---|
| 4969 | <trkpt lat="51.2112272" lon="5.0992259">
|
|---|
| 4970 | <time>+50838-08-15T01:15:05Z</time>
|
|---|
| 4971 | </trkpt>
|
|---|
| 4972 | <trkpt lat="51.2112089" lon="5.0991365">
|
|---|
| 4973 | <time>+50838-08-15T01:31:45Z</time>
|
|---|
| 4974 | </trkpt>
|
|---|
| 4975 | <trkpt lat="51.2112089" lon="5.0991365">
|
|---|
| 4976 | <time>+50838-08-15T01:48:25Z</time>
|
|---|
| 4977 | </trkpt>
|
|---|
| 4978 | <trkpt lat="51.2111587" lon="5.0991599">
|
|---|
| 4979 | <time>+50838-08-15T02:05:05Z</time>
|
|---|
| 4980 | </trkpt>
|
|---|
| 4981 | <trkpt lat="51.2111587" lon="5.0991599">
|
|---|
| 4982 | <time>+50838-08-15T02:21:45Z</time>
|
|---|
| 4983 | </trkpt>
|
|---|
| 4984 | <trkpt lat="51.2111511" lon="5.0991222">
|
|---|
| 4985 | <time>+50838-08-15T02:38:25Z</time>
|
|---|
| 4986 | </trkpt>
|
|---|
| 4987 | <trkpt lat="51.2110056" lon="5.0983992">
|
|---|
| 4988 | <time>+50838-08-15T02:55:05Z</time>
|
|---|
| 4989 | </trkpt>
|
|---|
| 4990 | <trkpt lat="51.2108717" lon="5.0978093">
|
|---|
| 4991 | <time>+50838-08-15T03:11:45Z</time>
|
|---|
| 4992 | </trkpt>
|
|---|
| 4993 | <trkpt lat="51.2108185" lon="5.0975065">
|
|---|
| 4994 | <time>+50838-08-15T03:28:25Z</time>
|
|---|
| 4995 | </trkpt>
|
|---|
| 4996 | <trkpt lat="51.210795" lon="5.0972165">
|
|---|
| 4997 | <time>+50838-08-15T03:45:05Z</time>
|
|---|
| 4998 | </trkpt>
|
|---|
| 4999 | <trkpt lat="51.2107903" lon="5.0966819">
|
|---|
| 5000 | <time>+50838-08-15T04:01:45Z</time>
|
|---|
| 5001 | </trkpt>
|
|---|
| 5002 | <trkpt lat="51.2107879" lon="5.0961812">
|
|---|
| 5003 | <time>+50838-08-15T04:18:25Z</time>
|
|---|
| 5004 | </trkpt>
|
|---|
| 5005 | <trkpt lat="51.2108068" lon="5.0958728">
|
|---|
| 5006 | <time>+50838-08-15T04:35:05Z</time>
|
|---|
| 5007 | </trkpt>
|
|---|
| 5008 | <trkpt lat="51.2108488" lon="5.0951888">
|
|---|
| 5009 | <time>+50838-08-15T04:51:45Z</time>
|
|---|
| 5010 | </trkpt>
|
|---|
| 5011 | <trkpt lat="51.2110082" lon="5.0934453">
|
|---|
| 5012 | <time>+50838-08-15T05:08:25Z</time>
|
|---|
| 5013 | </trkpt>
|
|---|
| 5014 | <trkpt lat="51.2111392" lon="5.092502">
|
|---|
| 5015 | <time>+50838-08-15T05:25:05Z</time>
|
|---|
| 5016 | </trkpt>
|
|---|
| 5017 | <trkpt lat="51.2112238" lon="5.0915736">
|
|---|
| 5018 | <time>+50838-08-15T05:41:45Z</time>
|
|---|
| 5019 | </trkpt>
|
|---|
| 5020 | <trkpt lat="51.2112322" lon="5.0910362">
|
|---|
| 5021 | <time>+50838-08-15T05:58:25Z</time>
|
|---|
| 5022 | </trkpt>
|
|---|
| 5023 | <trkpt lat="51.2110766" lon="5.0904885">
|
|---|
| 5024 | <time>+50838-08-15T06:15:05Z</time>
|
|---|
| 5025 | </trkpt>
|
|---|
| 5026 | <trkpt lat="51.2106872" lon="5.0893629">
|
|---|
| 5027 | <time>+50838-08-15T06:31:45Z</time>
|
|---|
| 5028 | </trkpt>
|
|---|
| 5029 | <trkpt lat="51.2103111" lon="5.088215">
|
|---|
| 5030 | <time>+50838-08-15T06:48:25Z</time>
|
|---|
| 5031 | </trkpt>
|
|---|
| 5032 | <trkpt lat="51.2101988" lon="5.087834">
|
|---|
| 5033 | <time>+50838-08-15T07:05:05Z</time>
|
|---|
| 5034 | </trkpt>
|
|---|
| 5035 | <trkpt lat="51.2101624" lon="5.0876644">
|
|---|
| 5036 | <time>+50838-08-15T07:21:45Z</time>
|
|---|
| 5037 | </trkpt>
|
|---|
| 5038 | <trkpt lat="51.2101624" lon="5.0876644">
|
|---|
| 5039 | <time>+50838-08-15T07:38:25Z</time>
|
|---|
| 5040 | </trkpt>
|
|---|
| 5041 | <trkpt lat="51.2106189" lon="5.0877037">
|
|---|
| 5042 | <time>+50838-08-15T07:55:05Z</time>
|
|---|
| 5043 | </trkpt>
|
|---|
| 5044 | <trkpt lat="51.2106189" lon="5.0877037">
|
|---|
| 5045 | <time>+50838-08-15T08:11:45Z</time>
|
|---|
| 5046 | </trkpt>
|
|---|
| 5047 | <trkpt lat="51.2109103" lon="5.0864207">
|
|---|
| 5048 | <time>+50838-08-15T08:28:25Z</time>
|
|---|
| 5049 | </trkpt>
|
|---|
| 5050 | <trkpt lat="51.2109691" lon="5.086207">
|
|---|
| 5051 | <time>+50838-08-15T08:45:05Z</time>
|
|---|
| 5052 | </trkpt>
|
|---|
| 5053 | <trkpt lat="51.2110576" lon="5.085822">
|
|---|
| 5054 | <time>+50838-08-15T09:01:45Z</time>
|
|---|
| 5055 | </trkpt>
|
|---|
| 5056 | <trkpt lat="51.2111382" lon="5.0854092">
|
|---|
| 5057 | <time>+50838-08-15T09:18:25Z</time>
|
|---|
| 5058 | </trkpt>
|
|---|
| 5059 | <trkpt lat="51.2109202" lon="5.0851506">
|
|---|
| 5060 | <time>+50838-08-15T09:35:05Z</time>
|
|---|
| 5061 | </trkpt>
|
|---|
| 5062 | <trkpt lat="51.2109202" lon="5.0851506">
|
|---|
| 5063 | <time>+50838-08-15T09:51:45Z</time>
|
|---|
| 5064 | </trkpt>
|
|---|
| 5065 | <trkpt lat="51.2106272" lon="5.084878">
|
|---|
| 5066 | <time>+50838-08-15T10:08:25Z</time>
|
|---|
| 5067 | </trkpt>
|
|---|
| 5068 | <trkpt lat="51.2103113" lon="5.0846205">
|
|---|
| 5069 | <time>+50838-08-15T10:25:05Z</time>
|
|---|
| 5070 | </trkpt>
|
|---|
| 5071 | <trkpt lat="51.2100223" lon="5.0844488">
|
|---|
| 5072 | <time>+50838-08-15T10:41:45Z</time>
|
|---|
| 5073 | </trkpt>
|
|---|
| 5074 | <trkpt lat="51.2098002" lon="5.0843393">
|
|---|
| 5075 | <time>+50838-08-15T10:58:25Z</time>
|
|---|
| 5076 | </trkpt>
|
|---|
| 5077 | <trkpt lat="51.2094376" lon="5.0842664">
|
|---|
| 5078 | <time>+50838-08-15T11:15:05Z</time>
|
|---|
| 5079 | </trkpt>
|
|---|
| 5080 | <trkpt lat="51.2092712" lon="5.0842389">
|
|---|
| 5081 | <time>+50838-08-15T11:31:45Z</time>
|
|---|
| 5082 | </trkpt>
|
|---|
| 5083 | <trkpt lat="51.2092712" lon="5.0842389">
|
|---|
| 5084 | <time>+50838-08-15T11:48:25Z</time>
|
|---|
| 5085 | </trkpt>
|
|---|
| 5086 | <trkpt lat="51.2087877" lon="5.0841413">
|
|---|
| 5087 | <time>+50838-08-15T12:05:05Z</time>
|
|---|
| 5088 | </trkpt>
|
|---|
| 5089 | <trkpt lat="51.2086131" lon="5.0841202">
|
|---|
| 5090 | <time>+50838-08-15T12:21:45Z</time>
|
|---|
| 5091 | </trkpt>
|
|---|
| 5092 | <trkpt lat="51.2084249" lon="5.0841309">
|
|---|
| 5093 | <time>+50838-08-15T12:38:25Z</time>
|
|---|
| 5094 | </trkpt>
|
|---|
| 5095 | <trkpt lat="51.2084249" lon="5.0841309">
|
|---|
| 5096 | <time>+50838-08-15T12:55:05Z</time>
|
|---|
| 5097 | </trkpt>
|
|---|
| 5098 | <trkpt lat="51.208372" lon="5.0841402">
|
|---|
| 5099 | <time>+50838-08-15T13:11:45Z</time>
|
|---|
| 5100 | </trkpt>
|
|---|
| 5101 | <trkpt lat="51.208372" lon="5.0841402">
|
|---|
| 5102 | <time>+50838-08-15T13:28:25Z</time>
|
|---|
| 5103 | </trkpt>
|
|---|
| 5104 | <trkpt lat="51.2082374" lon="5.0841638">
|
|---|
| 5105 | <time>+50838-08-15T13:45:05Z</time>
|
|---|
| 5106 | </trkpt>
|
|---|
| 5107 | <trkpt lat="51.207679" lon="5.0839989">
|
|---|
| 5108 | <time>+50838-08-15T14:01:45Z</time>
|
|---|
| 5109 | </trkpt>
|
|---|
| 5110 | <trkpt lat="51.2075545" lon="5.0839684">
|
|---|
| 5111 | <time>+50838-08-15T14:18:25Z</time>
|
|---|
| 5112 | </trkpt>
|
|---|
| 5113 | <trkpt lat="51.2075545" lon="5.0839684">
|
|---|
| 5114 | <time>+50838-08-15T14:35:05Z</time>
|
|---|
| 5115 | </trkpt>
|
|---|
| 5116 | <trkpt lat="51.2073764" lon="5.0846137">
|
|---|
| 5117 | <time>+50838-08-15T14:51:45Z</time>
|
|---|
| 5118 | </trkpt>
|
|---|
| 5119 | <trkpt lat="51.2073091" lon="5.0847425">
|
|---|
| 5120 | <time>+50838-08-15T15:08:25Z</time>
|
|---|
| 5121 | </trkpt>
|
|---|
| 5122 | <trkpt lat="51.2071696" lon="5.0849088">
|
|---|
| 5123 | <time>+50838-08-15T15:25:05Z</time>
|
|---|
| 5124 | </trkpt>
|
|---|
| 5125 | <trkpt lat="51.2070973" lon="5.0849352">
|
|---|
| 5126 | <time>+50838-08-15T15:41:45Z</time>
|
|---|
| 5127 | </trkpt>
|
|---|
| 5128 | <trkpt lat="51.2066301" lon="5.0853368">
|
|---|
| 5129 | <time>+50838-08-15T15:58:25Z</time>
|
|---|
| 5130 | </trkpt>
|
|---|
| 5131 | <trkpt lat="51.2063415" lon="5.0855892">
|
|---|
| 5132 | <time>+50838-08-15T16:15:05Z</time>
|
|---|
| 5133 | </trkpt>
|
|---|
| 5134 | <trkpt lat="51.2058953" lon="5.0859641">
|
|---|
| 5135 | <time>+50838-08-15T16:31:45Z</time>
|
|---|
| 5136 | </trkpt>
|
|---|
| 5137 | <trkpt lat="51.2058953" lon="5.0859641">
|
|---|
| 5138 | <time>+50838-08-15T16:48:25Z</time>
|
|---|
| 5139 | </trkpt>
|
|---|
| 5140 | <trkpt lat="51.2051679" lon="5.0849833">
|
|---|
| 5141 | <time>+50838-08-15T17:05:05Z</time>
|
|---|
| 5142 | </trkpt>
|
|---|
| 5143 | <trkpt lat="51.2051679" lon="5.0849833">
|
|---|
| 5144 | <time>+50838-08-15T17:21:45Z</time>
|
|---|
| 5145 | </trkpt>
|
|---|
| 5146 | <trkpt lat="51.2051021" lon="5.0849102">
|
|---|
| 5147 | <time>+50838-08-15T17:38:25Z</time>
|
|---|
| 5148 | </trkpt>
|
|---|
| 5149 | <trkpt lat="51.2043627" lon="5.0837836">
|
|---|
| 5150 | <time>+50838-08-15T17:55:05Z</time>
|
|---|
| 5151 | </trkpt>
|
|---|
| 5152 | <trkpt lat="51.2038677" lon="5.0829493">
|
|---|
| 5153 | <time>+50838-08-15T18:11:45Z</time>
|
|---|
| 5154 | </trkpt>
|
|---|
| 5155 | <trkpt lat="51.2034216" lon="5.0825284">
|
|---|
| 5156 | <time>+50838-08-15T18:28:25Z</time>
|
|---|
| 5157 | </trkpt>
|
|---|
| 5158 | <trkpt lat="51.2031129" lon="5.0824242">
|
|---|
| 5159 | <time>+50838-08-15T18:45:05Z</time>
|
|---|
| 5160 | </trkpt>
|
|---|
| 5161 | <trkpt lat="51.2031129" lon="5.0824242">
|
|---|
| 5162 | <time>+50838-08-15T19:01:45Z</time>
|
|---|
| 5163 | </trkpt>
|
|---|
| 5164 | <trkpt lat="51.2028405" lon="5.0822879">
|
|---|
| 5165 | <time>+50838-08-15T19:18:25Z</time>
|
|---|
| 5166 | </trkpt>
|
|---|
| 5167 | <trkpt lat="51.2028405" lon="5.0822879">
|
|---|
| 5168 | <time>+50838-08-15T19:35:05Z</time>
|
|---|
| 5169 | </trkpt>
|
|---|
| 5170 | <trkpt lat="51.2023489" lon="5.0817322">
|
|---|
| 5171 | <time>+50838-08-15T19:51:45Z</time>
|
|---|
| 5172 | </trkpt>
|
|---|
| 5173 | <trkpt lat="51.2023489" lon="5.0817322">
|
|---|
| 5174 | <time>+50838-08-15T20:08:25Z</time>
|
|---|
| 5175 | </trkpt>
|
|---|
| 5176 | <trkpt lat="51.2022861" lon="5.0813391">
|
|---|
| 5177 | <time>+50838-08-15T20:25:05Z</time>
|
|---|
| 5178 | </trkpt>
|
|---|
| 5179 | <trkpt lat="51.2022982" lon="5.0810166">
|
|---|
| 5180 | <time>+50838-08-15T20:41:45Z</time>
|
|---|
| 5181 | </trkpt>
|
|---|
| 5182 | <trkpt lat="51.2023648" lon="5.0807549">
|
|---|
| 5183 | <time>+50838-08-15T20:58:25Z</time>
|
|---|
| 5184 | </trkpt>
|
|---|
| 5185 | <trkpt lat="51.2023648" lon="5.0807549">
|
|---|
| 5186 | <time>+50838-08-15T21:15:05Z</time>
|
|---|
| 5187 | </trkpt>
|
|---|
| 5188 | <trkpt lat="51.2025402" lon="5.0805476">
|
|---|
| 5189 | <time>+50838-08-15T21:31:45Z</time>
|
|---|
| 5190 | </trkpt>
|
|---|
| 5191 | <trkpt lat="51.2028434" lon="5.0802753">
|
|---|
| 5192 | <time>+50838-08-15T21:48:25Z</time>
|
|---|
| 5193 | </trkpt>
|
|---|
| 5194 | <trkpt lat="51.2032459" lon="5.0798857">
|
|---|
| 5195 | <time>+50838-08-15T22:05:05Z</time>
|
|---|
| 5196 | </trkpt>
|
|---|
| 5197 | <trkpt lat="51.2036878" lon="5.0794758">
|
|---|
| 5198 | <time>+50838-08-15T22:21:45Z</time>
|
|---|
| 5199 | </trkpt>
|
|---|
| 5200 | <trkpt lat="51.2039282" lon="5.0792541">
|
|---|
| 5201 | <time>+50838-08-15T22:38:25Z</time>
|
|---|
| 5202 | </trkpt>
|
|---|
| 5203 | <trkpt lat="51.2039282" lon="5.0792541">
|
|---|
| 5204 | <time>+50838-08-15T22:55:05Z</time>
|
|---|
| 5205 | </trkpt>
|
|---|
| 5206 | <trkpt lat="51.2041634" lon="5.0790371">
|
|---|
| 5207 | <time>+50838-08-15T23:11:45Z</time>
|
|---|
| 5208 | </trkpt>
|
|---|
| 5209 | <trkpt lat="51.2041634" lon="5.0790371">
|
|---|
| 5210 | <time>+50838-08-15T23:28:25Z</time>
|
|---|
| 5211 | </trkpt>
|
|---|
| 5212 | <trkpt lat="51.2042997" lon="5.0789114">
|
|---|
| 5213 | <time>+50838-08-15T23:45:05Z</time>
|
|---|
| 5214 | </trkpt>
|
|---|
| 5215 | <trkpt lat="51.2043852" lon="5.0787762">
|
|---|
| 5216 | <time>+50838-08-16T00:01:45Z</time>
|
|---|
| 5217 | </trkpt>
|
|---|
| 5218 | <trkpt lat="51.2043852" lon="5.0787762">
|
|---|
| 5219 | <time>+50838-08-16T00:18:25Z</time>
|
|---|
| 5220 | </trkpt>
|
|---|
| 5221 | <trkpt lat="51.2045842" lon="5.0784179">
|
|---|
| 5222 | <time>+50838-08-16T00:35:05Z</time>
|
|---|
| 5223 | </trkpt>
|
|---|
| 5224 | <trkpt lat="51.2046708" lon="5.0782436">
|
|---|
| 5225 | <time>+50838-08-16T00:51:45Z</time>
|
|---|
| 5226 | </trkpt>
|
|---|
| 5227 | <trkpt lat="51.2049855" lon="5.0775727">
|
|---|
| 5228 | <time>+50838-08-16T01:08:25Z</time>
|
|---|
| 5229 | </trkpt>
|
|---|
| 5230 | <trkpt lat="51.2050597" lon="5.0774028">
|
|---|
| 5231 | <time>+50838-08-16T01:25:05Z</time>
|
|---|
| 5232 | </trkpt>
|
|---|
| 5233 | <trkpt lat="51.2053306" lon="5.0767777">
|
|---|
| 5234 | <time>+50838-08-16T01:41:45Z</time>
|
|---|
| 5235 | </trkpt>
|
|---|
| 5236 | <trkpt lat="51.2054449" lon="5.0765202">
|
|---|
| 5237 | <time>+50838-08-16T01:58:25Z</time>
|
|---|
| 5238 | </trkpt>
|
|---|
| 5239 | <trkpt lat="51.2054449" lon="5.0765202">
|
|---|
| 5240 | <time>+50838-08-16T02:15:05Z</time>
|
|---|
| 5241 | </trkpt>
|
|---|
| 5242 | <trkpt lat="51.2055524" lon="5.0764773">
|
|---|
| 5243 | <time>+50838-08-16T02:31:45Z</time>
|
|---|
| 5244 | </trkpt>
|
|---|
| 5245 | <trkpt lat="51.2060885" lon="5.0762418">
|
|---|
| 5246 | <time>+50838-08-16T02:48:25Z</time>
|
|---|
| 5247 | </trkpt>
|
|---|
| 5248 | <trkpt lat="51.2067355" lon="5.0758872">
|
|---|
| 5249 | <time>+50838-08-16T03:05:05Z</time>
|
|---|
| 5250 | </trkpt>
|
|---|
| 5251 | <trkpt lat="51.2071821" lon="5.0756105">
|
|---|
| 5252 | <time>+50838-08-16T03:21:45Z</time>
|
|---|
| 5253 | </trkpt>
|
|---|
| 5254 | <trkpt lat="51.2071821" lon="5.0756105">
|
|---|
| 5255 | <time>+50838-08-16T03:38:25Z</time>
|
|---|
| 5256 | </trkpt>
|
|---|
| 5257 | <trkpt lat="51.2072515" lon="5.0756374">
|
|---|
| 5258 | <time>+50838-08-16T03:55:05Z</time>
|
|---|
| 5259 | </trkpt>
|
|---|
| 5260 | <trkpt lat="51.207386" lon="5.0756198">
|
|---|
| 5261 | <time>+50838-08-16T04:11:45Z</time>
|
|---|
| 5262 | </trkpt>
|
|---|
| 5263 | <trkpt lat="51.2074262" lon="5.0755967">
|
|---|
| 5264 | <time>+50838-08-16T04:28:25Z</time>
|
|---|
| 5265 | </trkpt>
|
|---|
| 5266 | <trkpt lat="51.2074262" lon="5.0755967">
|
|---|
| 5267 | <time>+50838-08-16T04:45:05Z</time>
|
|---|
| 5268 | </trkpt>
|
|---|
| 5269 | <trkpt lat="51.2083621" lon="5.0749538">
|
|---|
| 5270 | <time>+50838-08-16T05:01:45Z</time>
|
|---|
| 5271 | </trkpt>
|
|---|
| 5272 | <trkpt lat="51.2083621" lon="5.0749538">
|
|---|
| 5273 | <time>+50838-08-16T05:18:25Z</time>
|
|---|
| 5274 | </trkpt>
|
|---|
| 5275 | <trkpt lat="51.2088444" lon="5.074611">
|
|---|
| 5276 | <time>+50838-08-16T05:35:05Z</time>
|
|---|
| 5277 | </trkpt>
|
|---|
| 5278 | <trkpt lat="51.2091687" lon="5.0743691">
|
|---|
| 5279 | <time>+50838-08-16T05:51:45Z</time>
|
|---|
| 5280 | </trkpt>
|
|---|
| 5281 | <trkpt lat="51.2106531" lon="5.0732878">
|
|---|
| 5282 | <time>+50838-08-16T06:08:25Z</time>
|
|---|
| 5283 | </trkpt>
|
|---|
| 5284 | <trkpt lat="51.2109263" lon="5.0730932">
|
|---|
| 5285 | <time>+50838-08-16T06:25:05Z</time>
|
|---|
| 5286 | </trkpt>
|
|---|
| 5287 | <trkpt lat="51.2109584" lon="5.0729044">
|
|---|
| 5288 | <time>+50838-08-16T06:41:45Z</time>
|
|---|
| 5289 | </trkpt>
|
|---|
| 5290 | <trkpt lat="51.2109584" lon="5.0729044">
|
|---|
| 5291 | <time>+50838-08-16T06:58:25Z</time>
|
|---|
| 5292 | </trkpt>
|
|---|
| 5293 | <trkpt lat="51.2112378" lon="5.0725609">
|
|---|
| 5294 | <time>+50838-08-16T07:15:05Z</time>
|
|---|
| 5295 | </trkpt>
|
|---|
| 5296 | <trkpt lat="51.2112378" lon="5.0725609">
|
|---|
| 5297 | <time>+50838-08-16T07:31:45Z</time>
|
|---|
| 5298 | </trkpt>
|
|---|
| 5299 | <trkpt lat="51.2111943" lon="5.0722833">
|
|---|
| 5300 | <time>+50838-08-16T07:48:25Z</time>
|
|---|
| 5301 | </trkpt>
|
|---|
| 5302 | <trkpt lat="51.2109839" lon="5.0697328">
|
|---|
| 5303 | <time>+50838-08-16T08:05:05Z</time>
|
|---|
| 5304 | </trkpt>
|
|---|
| 5305 | <trkpt lat="51.2107765" lon="5.0673946">
|
|---|
| 5306 | <time>+50838-08-16T08:21:45Z</time>
|
|---|
| 5307 | </trkpt>
|
|---|
| 5308 | <trkpt lat="51.2107765" lon="5.0673946">
|
|---|
| 5309 | <time>+50838-08-16T08:38:25Z</time>
|
|---|
| 5310 | </trkpt>
|
|---|
| 5311 | <trkpt lat="51.210573" lon="5.0651179">
|
|---|
| 5312 | <time>+50838-08-16T08:55:05Z</time>
|
|---|
| 5313 | </trkpt>
|
|---|
| 5314 | <trkpt lat="51.210573" lon="5.0651179">
|
|---|
| 5315 | <time>+50838-08-16T09:11:45Z</time>
|
|---|
| 5316 | </trkpt>
|
|---|
| 5317 | <trkpt lat="51.2102524" lon="5.0649603">
|
|---|
| 5318 | <time>+50838-08-16T09:28:25Z</time>
|
|---|
| 5319 | </trkpt>
|
|---|
| 5320 | <trkpt lat="51.209913" lon="5.0648434">
|
|---|
| 5321 | <time>+50838-08-16T09:45:05Z</time>
|
|---|
| 5322 | </trkpt>
|
|---|
| 5323 | <trkpt lat="51.2095653" lon="5.0647185">
|
|---|
| 5324 | <time>+50838-08-16T10:01:45Z</time>
|
|---|
| 5325 | </trkpt>
|
|---|
| 5326 | <trkpt lat="51.2095653" lon="5.0647185">
|
|---|
| 5327 | <time>+50838-08-16T10:18:25Z</time>
|
|---|
| 5328 | </trkpt>
|
|---|
| 5329 | <trkpt lat="51.2092722" lon="5.0628186">
|
|---|
| 5330 | <time>+50838-08-16T10:35:05Z</time>
|
|---|
| 5331 | </trkpt>
|
|---|
| 5332 | <trkpt lat="51.2089194" lon="5.0604382">
|
|---|
| 5333 | <time>+50838-08-16T10:51:45Z</time>
|
|---|
| 5334 | </trkpt>
|
|---|
| 5335 | <trkpt lat="51.2089194" lon="5.0604382">
|
|---|
| 5336 | <time>+50838-08-16T11:08:25Z</time>
|
|---|
| 5337 | </trkpt>
|
|---|
| 5338 | <trkpt lat="51.2088746" lon="5.0603">
|
|---|
| 5339 | <time>+50838-08-16T11:25:05Z</time>
|
|---|
| 5340 | </trkpt>
|
|---|
| 5341 | <trkpt lat="51.2088549" lon="5.0602716">
|
|---|
| 5342 | <time>+50838-08-16T11:41:45Z</time>
|
|---|
| 5343 | </trkpt>
|
|---|
| 5344 | <trkpt lat="51.2087636" lon="5.0601401">
|
|---|
| 5345 | <time>+50838-08-16T11:58:25Z</time>
|
|---|
| 5346 | </trkpt>
|
|---|
| 5347 | <trkpt lat="51.2075758" lon="5.0587431">
|
|---|
| 5348 | <time>+50838-08-16T12:15:05Z</time>
|
|---|
| 5349 | </trkpt>
|
|---|
| 5350 | <trkpt lat="51.2075155" lon="5.0587005">
|
|---|
| 5351 | <time>+50838-08-16T12:31:45Z</time>
|
|---|
| 5352 | </trkpt>
|
|---|
| 5353 | <trkpt lat="51.2074381" lon="5.0587302">
|
|---|
| 5354 | <time>+50838-08-16T12:48:25Z</time>
|
|---|
| 5355 | </trkpt>
|
|---|
| 5356 | <trkpt lat="51.2072289" lon="5.0588606">
|
|---|
| 5357 | <time>+50838-08-16T13:05:05Z</time>
|
|---|
| 5358 | </trkpt>
|
|---|
| 5359 | <trkpt lat="51.2071398" lon="5.0588506">
|
|---|
| 5360 | <time>+50838-08-16T13:21:45Z</time>
|
|---|
| 5361 | </trkpt>
|
|---|
| 5362 | <trkpt lat="51.206769" lon="5.0582225">
|
|---|
| 5363 | <time>+50838-08-16T13:38:25Z</time>
|
|---|
| 5364 | </trkpt>
|
|---|
| 5365 | <trkpt lat="51.2063907" lon="5.0575615">
|
|---|
| 5366 | <time>+50838-08-16T13:55:05Z</time>
|
|---|
| 5367 | </trkpt>
|
|---|
| 5368 | <trkpt lat="51.2063907" lon="5.0575615">
|
|---|
| 5369 | <time>+50838-08-16T14:11:45Z</time>
|
|---|
| 5370 | </trkpt>
|
|---|
| 5371 | <trkpt lat="51.2059838" lon="5.0579732">
|
|---|
| 5372 | <time>+50838-08-16T14:28:25Z</time>
|
|---|
| 5373 | </trkpt>
|
|---|
| 5374 | <trkpt lat="51.2058089" lon="5.0581813">
|
|---|
| 5375 | <time>+50838-08-16T14:45:05Z</time>
|
|---|
| 5376 | </trkpt>
|
|---|
| 5377 | <trkpt lat="51.2052759" lon="5.0588011">
|
|---|
| 5378 | <time>+50838-08-16T15:01:45Z</time>
|
|---|
| 5379 | </trkpt>
|
|---|
| 5380 | <trkpt lat="51.2049343" lon="5.0591583">
|
|---|
| 5381 | <time>+50838-08-16T15:18:25Z</time>
|
|---|
| 5382 | </trkpt>
|
|---|
| 5383 | <trkpt lat="51.2049343" lon="5.0591583">
|
|---|
| 5384 | <time>+50838-08-16T15:35:05Z</time>
|
|---|
| 5385 | </trkpt>
|
|---|
| 5386 | <trkpt lat="51.204347" lon="5.0578323">
|
|---|
| 5387 | <time>+50838-08-16T15:51:45Z</time>
|
|---|
| 5388 | </trkpt>
|
|---|
| 5389 | <trkpt lat="51.2038424" lon="5.0567359">
|
|---|
| 5390 | <time>+50838-08-16T16:08:25Z</time>
|
|---|
| 5391 | </trkpt>
|
|---|
| 5392 | <trkpt lat="51.2037208" lon="5.0564545">
|
|---|
| 5393 | <time>+50838-08-16T16:25:05Z</time>
|
|---|
| 5394 | </trkpt>
|
|---|
| 5395 | <trkpt lat="51.2031055" lon="5.0550861">
|
|---|
| 5396 | <time>+50838-08-16T16:41:45Z</time>
|
|---|
| 5397 | </trkpt>
|
|---|
| 5398 | <trkpt lat="51.203046" lon="5.0549538">
|
|---|
| 5399 | <time>+50838-08-16T16:58:25Z</time>
|
|---|
| 5400 | </trkpt>
|
|---|
| 5401 | <trkpt lat="51.202504" lon="5.0538205">
|
|---|
| 5402 | <time>+50838-08-16T17:15:05Z</time>
|
|---|
| 5403 | </trkpt>
|
|---|
| 5404 | <trkpt lat="51.2024381" lon="5.0536536">
|
|---|
| 5405 | <time>+50838-08-16T17:31:45Z</time>
|
|---|
| 5406 | </trkpt>
|
|---|
| 5407 | <trkpt lat="51.2024381" lon="5.0536536">
|
|---|
| 5408 | <time>+50838-08-16T17:48:25Z</time>
|
|---|
| 5409 | </trkpt>
|
|---|
| 5410 | <trkpt lat="51.2022343" lon="5.0541115">
|
|---|
| 5411 | <time>+50838-08-16T18:05:05Z</time>
|
|---|
| 5412 | </trkpt>
|
|---|
| 5413 | <trkpt lat="51.2022343" lon="5.0541115">
|
|---|
| 5414 | <time>+50838-08-16T18:21:45Z</time>
|
|---|
| 5415 | </trkpt>
|
|---|
| 5416 | <trkpt lat="51.2007198" lon="5.0516021">
|
|---|
| 5417 | <time>+50838-08-16T18:38:25Z</time>
|
|---|
| 5418 | </trkpt>
|
|---|
| 5419 | <trkpt lat="51.1998293" lon="5.0501265">
|
|---|
| 5420 | <time>+50838-08-16T18:55:05Z</time>
|
|---|
| 5421 | </trkpt>
|
|---|
| 5422 | <trkpt lat="51.198891" lon="5.048572">
|
|---|
| 5423 | <time>+50838-08-16T19:11:45Z</time>
|
|---|
| 5424 | </trkpt>
|
|---|
| 5425 | <trkpt lat="51.198891" lon="5.048572">
|
|---|
| 5426 | <time>+50838-08-16T19:28:25Z</time>
|
|---|
| 5427 | </trkpt>
|
|---|
| 5428 | <trkpt lat="51.1978719" lon="5.0501483">
|
|---|
| 5429 | <time>+50838-08-16T19:45:05Z</time>
|
|---|
| 5430 | </trkpt>
|
|---|
| 5431 | <trkpt lat="51.1978719" lon="5.0501483">
|
|---|
| 5432 | <time>+50838-08-16T20:01:45Z</time>
|
|---|
| 5433 | </trkpt>
|
|---|
| 5434 | <trkpt lat="51.1973832" lon="5.0509163">
|
|---|
| 5435 | <time>+50838-08-16T20:18:25Z</time>
|
|---|
| 5436 | </trkpt>
|
|---|
| 5437 | <trkpt lat="51.1973832" lon="5.0509163">
|
|---|
| 5438 | <time>+50838-08-16T20:35:05Z</time>
|
|---|
| 5439 | </trkpt>
|
|---|
| 5440 | <trkpt lat="51.1968962" lon="5.0516883">
|
|---|
| 5441 | <time>+50838-08-16T20:51:45Z</time>
|
|---|
| 5442 | </trkpt>
|
|---|
| 5443 | <trkpt lat="51.1968962" lon="5.0516883">
|
|---|
| 5444 | <time>+50838-08-16T21:08:25Z</time>
|
|---|
| 5445 | </trkpt>
|
|---|
| 5446 | <trkpt lat="51.1965943" lon="5.0522044">
|
|---|
| 5447 | <time>+50838-08-16T21:25:05Z</time>
|
|---|
| 5448 | </trkpt>
|
|---|
| 5449 | <trkpt lat="51.1965943" lon="5.0522044">
|
|---|
| 5450 | <time>+50838-08-16T21:41:45Z</time>
|
|---|
| 5451 | </trkpt>
|
|---|
| 5452 | <trkpt lat="51.1962642" lon="5.0527178">
|
|---|
| 5453 | <time>+50838-08-16T21:58:25Z</time>
|
|---|
| 5454 | </trkpt>
|
|---|
| 5455 | <trkpt lat="51.1950726" lon="5.0546364">
|
|---|
| 5456 | <time>+50838-08-16T22:15:05Z</time>
|
|---|
| 5457 | </trkpt>
|
|---|
| 5458 | <trkpt lat="51.1949028" lon="5.0549351">
|
|---|
| 5459 | <time>+50838-08-16T22:31:45Z</time>
|
|---|
| 5460 | </trkpt>
|
|---|
| 5461 | <trkpt lat="51.1949028" lon="5.0549351">
|
|---|
| 5462 | <time>+50838-08-16T22:48:25Z</time>
|
|---|
| 5463 | </trkpt>
|
|---|
| 5464 | <trkpt lat="51.1948522" lon="5.0549993">
|
|---|
| 5465 | <time>+50838-08-16T23:05:05Z</time>
|
|---|
| 5466 | </trkpt>
|
|---|
| 5467 | <trkpt lat="51.1947945" lon="5.0551394">
|
|---|
| 5468 | <time>+50838-08-16T23:21:45Z</time>
|
|---|
| 5469 | </trkpt>
|
|---|
| 5470 | <trkpt lat="51.1947945" lon="5.0551394">
|
|---|
| 5471 | <time>+50838-08-16T23:38:25Z</time>
|
|---|
| 5472 | </trkpt>
|
|---|
| 5473 | <trkpt lat="51.1943422" lon="5.0548376">
|
|---|
| 5474 | <time>+50838-08-16T23:55:05Z</time>
|
|---|
| 5475 | </trkpt>
|
|---|
| 5476 | <trkpt lat="51.1942918" lon="5.0547679">
|
|---|
| 5477 | <time>+50838-08-17T00:11:45Z</time>
|
|---|
| 5478 | </trkpt>
|
|---|
| 5479 | <trkpt lat="51.1940612" lon="5.0543846">
|
|---|
| 5480 | <time>+50838-08-17T00:28:25Z</time>
|
|---|
| 5481 | </trkpt>
|
|---|
| 5482 | <trkpt lat="51.1938806" lon="5.0540135">
|
|---|
| 5483 | <time>+50838-08-17T00:45:05Z</time>
|
|---|
| 5484 | </trkpt>
|
|---|
| 5485 | <trkpt lat="51.1938806" lon="5.0540135">
|
|---|
| 5486 | <time>+50838-08-17T01:01:45Z</time>
|
|---|
| 5487 | </trkpt>
|
|---|
| 5488 | <trkpt lat="51.1931555" lon="5.053341">
|
|---|
| 5489 | <time>+50838-08-17T01:18:25Z</time>
|
|---|
| 5490 | </trkpt>
|
|---|
| 5491 | <trkpt lat="51.1930185" lon="5.0532448">
|
|---|
| 5492 | <time>+50838-08-17T01:35:05Z</time>
|
|---|
| 5493 | </trkpt>
|
|---|
| 5494 | <trkpt lat="51.192937" lon="5.0533892">
|
|---|
| 5495 | <time>+50838-08-17T01:51:45Z</time>
|
|---|
| 5496 | </trkpt>
|
|---|
| 5497 | <trkpt lat="51.192732" lon="5.0538153">
|
|---|
| 5498 | <time>+50838-08-17T02:08:25Z</time>
|
|---|
| 5499 | </trkpt>
|
|---|
| 5500 | <trkpt lat="51.192732" lon="5.0538153">
|
|---|
| 5501 | <time>+50838-08-17T02:25:05Z</time>
|
|---|
| 5502 | </trkpt>
|
|---|
| 5503 | <trkpt lat="51.1925215" lon="5.0532717">
|
|---|
| 5504 | <time>+50838-08-17T02:41:45Z</time>
|
|---|
| 5505 | </trkpt>
|
|---|
| 5506 | <trkpt lat="51.1919587" lon="5.0515438">
|
|---|
| 5507 | <time>+50838-08-17T02:58:25Z</time>
|
|---|
| 5508 | </trkpt>
|
|---|
| 5509 | <trkpt lat="51.1918343" lon="5.0512891">
|
|---|
| 5510 | <time>+50838-08-17T03:15:05Z</time>
|
|---|
| 5511 | </trkpt>
|
|---|
| 5512 | <trkpt lat="51.1914768" lon="5.0500967">
|
|---|
| 5513 | <time>+50838-08-17T03:31:45Z</time>
|
|---|
| 5514 | </trkpt>
|
|---|
| 5515 | <trkpt lat="51.1914768" lon="5.0500967">
|
|---|
| 5516 | <time>+50838-08-17T03:48:25Z</time>
|
|---|
| 5517 | </trkpt>
|
|---|
| 5518 | <trkpt lat="51.1901804" lon="5.0514429">
|
|---|
| 5519 | <time>+50838-08-17T04:05:05Z</time>
|
|---|
| 5520 | </trkpt>
|
|---|
| 5521 | <trkpt lat="51.1900594" lon="5.0515743">
|
|---|
| 5522 | <time>+50838-08-17T04:21:45Z</time>
|
|---|
| 5523 | </trkpt>
|
|---|
| 5524 | <trkpt lat="51.1900594" lon="5.0515743">
|
|---|
| 5525 | <time>+50838-08-17T04:38:25Z</time>
|
|---|
| 5526 | </trkpt>
|
|---|
| 5527 | <trkpt lat="51.1896633" lon="5.0520155">
|
|---|
| 5528 | <time>+50838-08-17T04:55:05Z</time>
|
|---|
| 5529 | </trkpt>
|
|---|
| 5530 | <trkpt lat="51.1896633" lon="5.0520155">
|
|---|
| 5531 | <time>+50838-08-17T05:11:45Z</time>
|
|---|
| 5532 | </trkpt>
|
|---|
| 5533 | <trkpt lat="51.1894991" lon="5.0521396">
|
|---|
| 5534 | <time>+50838-08-17T05:28:25Z</time>
|
|---|
| 5535 | </trkpt>
|
|---|
| 5536 | <trkpt lat="51.1892252" lon="5.0522052">
|
|---|
| 5537 | <time>+50838-08-17T05:45:05Z</time>
|
|---|
| 5538 | </trkpt>
|
|---|
| 5539 | <trkpt lat="51.1890723" lon="5.0522475">
|
|---|
| 5540 | <time>+50838-08-17T06:01:45Z</time>
|
|---|
| 5541 | </trkpt>
|
|---|
| 5542 | <trkpt lat="51.1889079" lon="5.0523334">
|
|---|
| 5543 | <time>+50838-08-17T06:18:25Z</time>
|
|---|
| 5544 | </trkpt>
|
|---|
| 5545 | <trkpt lat="51.1887219" lon="5.0524628">
|
|---|
| 5546 | <time>+50838-08-17T06:35:05Z</time>
|
|---|
| 5547 | </trkpt>
|
|---|
| 5548 | <trkpt lat="51.1883349" lon="5.0527629">
|
|---|
| 5549 | <time>+50838-08-17T06:51:45Z</time>
|
|---|
| 5550 | </trkpt>
|
|---|
| 5551 | <trkpt lat="51.1882704" lon="5.0527993">
|
|---|
| 5552 | <time>+50838-08-17T07:08:25Z</time>
|
|---|
| 5553 | </trkpt>
|
|---|
| 5554 | <trkpt lat="51.1882704" lon="5.0527993">
|
|---|
| 5555 | <time>+50838-08-17T07:25:05Z</time>
|
|---|
| 5556 | </trkpt>
|
|---|
| 5557 | <trkpt lat="51.1882731" lon="5.0527279">
|
|---|
| 5558 | <time>+50838-08-17T07:41:45Z</time>
|
|---|
| 5559 | </trkpt>
|
|---|
| 5560 | <trkpt lat="51.1883861" lon="5.0522134">
|
|---|
| 5561 | <time>+50838-08-17T07:58:25Z</time>
|
|---|
| 5562 | </trkpt>
|
|---|
| 5563 | <trkpt lat="51.1886675" lon="5.0510808">
|
|---|
| 5564 | <time>+50838-08-17T08:15:05Z</time>
|
|---|
| 5565 | </trkpt>
|
|---|
| 5566 | <trkpt lat="51.1887928" lon="5.0507082">
|
|---|
| 5567 | <time>+50838-08-17T08:31:45Z</time>
|
|---|
| 5568 | </trkpt>
|
|---|
| 5569 | <trkpt lat="51.1892359" lon="5.04967">
|
|---|
| 5570 | <time>+50838-08-17T08:48:25Z</time>
|
|---|
| 5571 | </trkpt>
|
|---|
| 5572 | <trkpt lat="51.1892359" lon="5.04967">
|
|---|
| 5573 | <time>+50838-08-17T09:05:05Z</time>
|
|---|
| 5574 | </trkpt>
|
|---|
| 5575 | <trkpt lat="51.1901402" lon="5.0473768">
|
|---|
| 5576 | <time>+50838-08-17T09:21:45Z</time>
|
|---|
| 5577 | </trkpt>
|
|---|
| 5578 | <trkpt lat="51.1903016" lon="5.0468887">
|
|---|
| 5579 | <time>+50838-08-17T09:38:25Z</time>
|
|---|
| 5580 | </trkpt>
|
|---|
| 5581 | <trkpt lat="51.1900708" lon="5.0461769">
|
|---|
| 5582 | <time>+50838-08-17T09:55:05Z</time>
|
|---|
| 5583 | </trkpt>
|
|---|
| 5584 | <trkpt lat="51.1900708" lon="5.0461769">
|
|---|
| 5585 | <time>+50838-08-17T10:11:45Z</time>
|
|---|
| 5586 | </trkpt>
|
|---|
| 5587 | <trkpt lat="51.1899373" lon="5.0461824">
|
|---|
| 5588 | <time>+50838-08-17T10:28:25Z</time>
|
|---|
| 5589 | </trkpt>
|
|---|
| 5590 | <trkpt lat="51.1895167" lon="5.0460222">
|
|---|
| 5591 | <time>+50838-08-17T10:45:05Z</time>
|
|---|
| 5592 | </trkpt>
|
|---|
| 5593 | <trkpt lat="51.1887637" lon="5.0460622">
|
|---|
| 5594 | <time>+50838-08-17T11:01:45Z</time>
|
|---|
| 5595 | </trkpt>
|
|---|
| 5596 | <trkpt lat="51.1877624" lon="5.0462144">
|
|---|
| 5597 | <time>+50838-08-17T11:18:25Z</time>
|
|---|
| 5598 | </trkpt>
|
|---|
| 5599 | <trkpt lat="51.187555" lon="5.0463091">
|
|---|
| 5600 | <time>+50838-08-17T11:35:05Z</time>
|
|---|
| 5601 | </trkpt>
|
|---|
| 5602 | <trkpt lat="51.1873098" lon="5.0464868">
|
|---|
| 5603 | <time>+50838-08-17T11:51:45Z</time>
|
|---|
| 5604 | </trkpt>
|
|---|
| 5605 | <trkpt lat="51.1868492" lon="5.046651">
|
|---|
| 5606 | <time>+50838-08-17T12:08:25Z</time>
|
|---|
| 5607 | </trkpt>
|
|---|
| 5608 | <trkpt lat="51.1866198" lon="5.0466851">
|
|---|
| 5609 | <time>+50838-08-17T12:25:05Z</time>
|
|---|
| 5610 | </trkpt>
|
|---|
| 5611 | <trkpt lat="51.1866198" lon="5.0466851">
|
|---|
| 5612 | <time>+50838-08-17T12:41:45Z</time>
|
|---|
| 5613 | </trkpt>
|
|---|
| 5614 | <trkpt lat="51.1866081" lon="5.0466014">
|
|---|
| 5615 | <time>+50838-08-17T12:58:25Z</time>
|
|---|
| 5616 | </trkpt>
|
|---|
| 5617 | <trkpt lat="51.1866081" lon="5.0466014">
|
|---|
| 5618 | <time>+50838-08-17T13:15:05Z</time>
|
|---|
| 5619 | </trkpt>
|
|---|
| 5620 | <trkpt lat="51.1865339" lon="5.0466219">
|
|---|
| 5621 | <time>+50838-08-17T13:31:45Z</time>
|
|---|
| 5622 | </trkpt>
|
|---|
| 5623 | <trkpt lat="51.1862431" lon="5.0468936">
|
|---|
| 5624 | <time>+50838-08-17T13:48:25Z</time>
|
|---|
| 5625 | </trkpt>
|
|---|
| 5626 | <trkpt lat="51.1851504" lon="5.04793">
|
|---|
| 5627 | <time>+50838-08-17T14:05:05Z</time>
|
|---|
| 5628 | </trkpt>
|
|---|
| 5629 | <trkpt lat="51.1849731" lon="5.048074">
|
|---|
| 5630 | <time>+50838-08-17T14:21:45Z</time>
|
|---|
| 5631 | </trkpt>
|
|---|
| 5632 | <trkpt lat="51.1847651" lon="5.0482121">
|
|---|
| 5633 | <time>+50838-08-17T14:38:25Z</time>
|
|---|
| 5634 | </trkpt>
|
|---|
| 5635 | <trkpt lat="51.1830747" lon="5.0492581">
|
|---|
| 5636 | <time>+50838-08-17T14:55:05Z</time>
|
|---|
| 5637 | </trkpt>
|
|---|
| 5638 | <trkpt lat="51.1826297" lon="5.0495217">
|
|---|
| 5639 | <time>+50838-08-17T15:11:45Z</time>
|
|---|
| 5640 | </trkpt>
|
|---|
| 5641 | <trkpt lat="51.1826297" lon="5.0495217">
|
|---|
| 5642 | <time>+50838-08-17T15:28:25Z</time>
|
|---|
| 5643 | </trkpt>
|
|---|
| 5644 | <trkpt lat="51.1826032" lon="5.0495366">
|
|---|
| 5645 | <time>+50838-08-17T15:45:05Z</time>
|
|---|
| 5646 | </trkpt>
|
|---|
| 5647 | <trkpt lat="51.1816505" lon="5.0498301">
|
|---|
| 5648 | <time>+50838-08-17T16:01:45Z</time>
|
|---|
| 5649 | </trkpt>
|
|---|
| 5650 | <trkpt lat="51.1810123" lon="5.05013">
|
|---|
| 5651 | <time>+50838-08-17T16:18:25Z</time>
|
|---|
| 5652 | </trkpt>
|
|---|
| 5653 | <trkpt lat="51.1800976" lon="5.0506408">
|
|---|
| 5654 | <time>+50838-08-17T16:35:05Z</time>
|
|---|
| 5655 | </trkpt>
|
|---|
| 5656 | <trkpt lat="51.1798122" lon="5.0508384">
|
|---|
| 5657 | <time>+50838-08-17T16:51:45Z</time>
|
|---|
| 5658 | </trkpt>
|
|---|
| 5659 | <trkpt lat="51.1794851" lon="5.0512023">
|
|---|
| 5660 | <time>+50838-08-17T17:08:25Z</time>
|
|---|
| 5661 | </trkpt>
|
|---|
| 5662 | <trkpt lat="51.1794256" lon="5.0512664">
|
|---|
| 5663 | <time>+50838-08-17T17:25:05Z</time>
|
|---|
| 5664 | </trkpt>
|
|---|
| 5665 | <trkpt lat="51.1793955" lon="5.0513005">
|
|---|
| 5666 | <time>+50838-08-17T17:41:45Z</time>
|
|---|
| 5667 | </trkpt>
|
|---|
| 5668 | <trkpt lat="51.179104" lon="5.051631">
|
|---|
| 5669 | <time>+50838-08-17T17:58:25Z</time>
|
|---|
| 5670 | </trkpt>
|
|---|
| 5671 | <trkpt lat="51.1782282" lon="5.0524428">
|
|---|
| 5672 | <time>+50838-08-17T18:15:05Z</time>
|
|---|
| 5673 | </trkpt>
|
|---|
| 5674 | <trkpt lat="51.1775467" lon="5.053061">
|
|---|
| 5675 | <time>+50838-08-17T18:31:45Z</time>
|
|---|
| 5676 | </trkpt>
|
|---|
| 5677 | <trkpt lat="51.1773196" lon="5.0532567">
|
|---|
| 5678 | <time>+50838-08-17T18:48:25Z</time>
|
|---|
| 5679 | </trkpt>
|
|---|
| 5680 | <trkpt lat="51.1772224" lon="5.0533245">
|
|---|
| 5681 | <time>+50838-08-17T19:05:05Z</time>
|
|---|
| 5682 | </trkpt>
|
|---|
| 5683 | <trkpt lat="51.1771519" lon="5.0533361">
|
|---|
| 5684 | <time>+50838-08-17T19:21:45Z</time>
|
|---|
| 5685 | </trkpt>
|
|---|
| 5686 | <trkpt lat="51.1770912" lon="5.0533322">
|
|---|
| 5687 | <time>+50838-08-17T19:38:25Z</time>
|
|---|
| 5688 | </trkpt>
|
|---|
| 5689 | <trkpt lat="51.1769102" lon="5.0532295">
|
|---|
| 5690 | <time>+50838-08-17T19:55:05Z</time>
|
|---|
| 5691 | </trkpt>
|
|---|
| 5692 | <trkpt lat="51.1768045" lon="5.0531656">
|
|---|
| 5693 | <time>+50838-08-17T20:11:45Z</time>
|
|---|
| 5694 | </trkpt>
|
|---|
| 5695 | <trkpt lat="51.176734" lon="5.0531656">
|
|---|
| 5696 | <time>+50838-08-17T20:28:25Z</time>
|
|---|
| 5697 | </trkpt>
|
|---|
| 5698 | <trkpt lat="51.1766806" lon="5.0532102">
|
|---|
| 5699 | <time>+50838-08-17T20:45:05Z</time>
|
|---|
| 5700 | </trkpt>
|
|---|
| 5701 | <trkpt lat="51.176632" lon="5.0533206">
|
|---|
| 5702 | <time>+50838-08-17T21:01:45Z</time>
|
|---|
| 5703 | </trkpt>
|
|---|
| 5704 | <trkpt lat="51.1762927" lon="5.054824">
|
|---|
| 5705 | <time>+50838-08-17T21:18:25Z</time>
|
|---|
| 5706 | </trkpt>
|
|---|
| 5707 | <trkpt lat="51.1762505" lon="5.0549209">
|
|---|
| 5708 | <time>+50838-08-17T21:35:05Z</time>
|
|---|
| 5709 | </trkpt>
|
|---|
| 5710 | <trkpt lat="51.1761693" lon="5.0550151">
|
|---|
| 5711 | <time>+50838-08-17T21:51:45Z</time>
|
|---|
| 5712 | </trkpt>
|
|---|
| 5713 | <trkpt lat="51.1761693" lon="5.0550151">
|
|---|
| 5714 | <time>+50838-08-17T22:08:25Z</time>
|
|---|
| 5715 | </trkpt>
|
|---|
| 5716 | <trkpt lat="51.176222" lon="5.0554139">
|
|---|
| 5717 | <time>+50838-08-17T22:25:05Z</time>
|
|---|
| 5718 | </trkpt>
|
|---|
| 5719 | <trkpt lat="51.1763731" lon="5.0564362">
|
|---|
| 5720 | <time>+50838-08-17T22:41:45Z</time>
|
|---|
| 5721 | </trkpt>
|
|---|
| 5722 | <trkpt lat="51.1765675" lon="5.057752">
|
|---|
| 5723 | <time>+50838-08-17T22:58:25Z</time>
|
|---|
| 5724 | </trkpt>
|
|---|
| 5725 | <trkpt lat="51.1766465" lon="5.0582863">
|
|---|
| 5726 | <time>+50838-08-17T23:15:05Z</time>
|
|---|
| 5727 | </trkpt>
|
|---|
| 5728 | <trkpt lat="51.1766465" lon="5.0582863">
|
|---|
| 5729 | <time>+50838-08-17T23:31:45Z</time>
|
|---|
| 5730 | </trkpt>
|
|---|
| 5731 | <trkpt lat="51.1767498" lon="5.0591702">
|
|---|
| 5732 | <time>+50838-08-17T23:48:25Z</time>
|
|---|
| 5733 | </trkpt>
|
|---|
| 5734 | <trkpt lat="51.1767701" lon="5.0593743">
|
|---|
| 5735 | <time>+50838-08-18T00:05:05Z</time>
|
|---|
| 5736 | </trkpt>
|
|---|
| 5737 | <trkpt lat="51.1767701" lon="5.0593743">
|
|---|
| 5738 | <time>+50838-08-18T00:21:45Z</time>
|
|---|
| 5739 | </trkpt>
|
|---|
| 5740 | <trkpt lat="51.1766324" lon="5.0593892">
|
|---|
| 5741 | <time>+50838-08-18T00:38:25Z</time>
|
|---|
| 5742 | </trkpt>
|
|---|
| 5743 | <trkpt lat="51.1760582" lon="5.0594959">
|
|---|
| 5744 | <time>+50838-08-18T00:55:05Z</time>
|
|---|
| 5745 | </trkpt>
|
|---|
| 5746 | <trkpt lat="51.1756849" lon="5.0595608">
|
|---|
| 5747 | <time>+50838-08-18T01:11:45Z</time>
|
|---|
| 5748 | </trkpt>
|
|---|
| 5749 | <trkpt lat="51.1753412" lon="5.0596224">
|
|---|
| 5750 | <time>+50838-08-18T01:28:25Z</time>
|
|---|
| 5751 | </trkpt>
|
|---|
| 5752 | <trkpt lat="51.1753226" lon="5.0596392">
|
|---|
| 5753 | <time>+50838-08-18T01:45:05Z</time>
|
|---|
| 5754 | </trkpt>
|
|---|
| 5755 | <trkpt lat="51.1753246" lon="5.0597118">
|
|---|
| 5756 | <time>+50838-08-18T02:01:45Z</time>
|
|---|
| 5757 | </trkpt>
|
|---|
| 5758 | <trkpt lat="51.1756081" lon="5.0611901">
|
|---|
| 5759 | <time>+50838-08-18T02:18:25Z</time>
|
|---|
| 5760 | </trkpt>
|
|---|
| 5761 | <trkpt lat="51.17569" lon="5.0617069">
|
|---|
| 5762 | <time>+50838-08-18T02:35:05Z</time>
|
|---|
| 5763 | </trkpt>
|
|---|
| 5764 | <trkpt lat="51.1757615" lon="5.0622906">
|
|---|
| 5765 | <time>+50838-08-18T02:51:45Z</time>
|
|---|
| 5766 | </trkpt>
|
|---|
| 5767 | <trkpt lat="51.1757615" lon="5.0622906">
|
|---|
| 5768 | <time>+50838-08-18T03:08:25Z</time>
|
|---|
| 5769 | </trkpt>
|
|---|
| 5770 | <trkpt lat="51.1757443" lon="5.0623622">
|
|---|
| 5771 | <time>+50838-08-18T03:25:05Z</time>
|
|---|
| 5772 | </trkpt>
|
|---|
| 5773 | <trkpt lat="51.175329" lon="5.064161">
|
|---|
| 5774 | <time>+50838-08-18T03:41:45Z</time>
|
|---|
| 5775 | </trkpt>
|
|---|
| 5776 | <trkpt lat="51.175329" lon="5.064161">
|
|---|
| 5777 | <time>+50838-08-18T03:58:25Z</time>
|
|---|
| 5778 | </trkpt>
|
|---|
| 5779 | <trkpt lat="51.1749304" lon="5.0638661">
|
|---|
| 5780 | <time>+50838-08-18T04:15:05Z</time>
|
|---|
| 5781 | </trkpt>
|
|---|
| 5782 | <trkpt lat="51.1749304" lon="5.0638661">
|
|---|
| 5783 | <time>+50838-08-18T04:31:45Z</time>
|
|---|
| 5784 | </trkpt>
|
|---|
| 5785 | <trkpt lat="51.1748946" lon="5.0638426">
|
|---|
| 5786 | <time>+50838-08-18T04:48:25Z</time>
|
|---|
| 5787 | </trkpt>
|
|---|
| 5788 | <trkpt lat="51.1748421" lon="5.063841">
|
|---|
| 5789 | <time>+50838-08-18T05:05:05Z</time>
|
|---|
| 5790 | </trkpt>
|
|---|
| 5791 | <trkpt lat="51.1748421" lon="5.063841">
|
|---|
| 5792 | <time>+50838-08-18T05:21:45Z</time>
|
|---|
| 5793 | </trkpt>
|
|---|
| 5794 | <trkpt lat="51.1747964" lon="5.0638891">
|
|---|
| 5795 | <time>+50838-08-18T05:38:25Z</time>
|
|---|
| 5796 | </trkpt>
|
|---|
| 5797 | <trkpt lat="51.1745519" lon="5.0643642">
|
|---|
| 5798 | <time>+50838-08-18T05:55:05Z</time>
|
|---|
| 5799 | </trkpt>
|
|---|
| 5800 | <trkpt lat="51.1742518" lon="5.0649313">
|
|---|
| 5801 | <time>+50838-08-18T06:11:45Z</time>
|
|---|
| 5802 | </trkpt>
|
|---|
| 5803 | <trkpt lat="51.1741484" lon="5.0652043">
|
|---|
| 5804 | <time>+50838-08-18T06:28:25Z</time>
|
|---|
| 5805 | </trkpt>
|
|---|
| 5806 | <trkpt lat="51.1741136" lon="5.065389">
|
|---|
| 5807 | <time>+50838-08-18T06:45:05Z</time>
|
|---|
| 5808 | </trkpt>
|
|---|
| 5809 | <trkpt lat="51.17409" lon="5.0655859">
|
|---|
| 5810 | <time>+50838-08-18T07:01:45Z</time>
|
|---|
| 5811 | </trkpt>
|
|---|
| 5812 | <trkpt lat="51.1740859" lon="5.0656896">
|
|---|
| 5813 | <time>+50838-08-18T07:18:25Z</time>
|
|---|
| 5814 | </trkpt>
|
|---|
| 5815 | <trkpt lat="51.1740901" lon="5.0657882">
|
|---|
| 5816 | <time>+50838-08-18T07:35:05Z</time>
|
|---|
| 5817 | </trkpt>
|
|---|
| 5818 | <trkpt lat="51.1741054" lon="5.0660001">
|
|---|
| 5819 | <time>+50838-08-18T07:51:45Z</time>
|
|---|
| 5820 | </trkpt>
|
|---|
| 5821 | <trkpt lat="51.1741089" lon="5.0661959">
|
|---|
| 5822 | <time>+50838-08-18T08:08:25Z</time>
|
|---|
| 5823 | </trkpt>
|
|---|
| 5824 | <trkpt lat="51.1740957" lon="5.0664831">
|
|---|
| 5825 | <time>+50838-08-18T08:25:05Z</time>
|
|---|
| 5826 | </trkpt>
|
|---|
| 5827 | <trkpt lat="51.1740908" lon="5.0666393">
|
|---|
| 5828 | <time>+50838-08-18T08:41:45Z</time>
|
|---|
| 5829 | </trkpt>
|
|---|
| 5830 | <trkpt lat="51.1740908" lon="5.0666393">
|
|---|
| 5831 | <time>+50838-08-18T08:58:25Z</time>
|
|---|
| 5832 | </trkpt>
|
|---|
| 5833 | <trkpt lat="51.1740415" lon="5.0668759">
|
|---|
| 5834 | <time>+50838-08-18T09:15:05Z</time>
|
|---|
| 5835 | </trkpt>
|
|---|
| 5836 | <trkpt lat="51.1740323" lon="5.0669996">
|
|---|
| 5837 | <time>+50838-08-18T09:31:45Z</time>
|
|---|
| 5838 | </trkpt>
|
|---|
| 5839 | <trkpt lat="51.1740008" lon="5.0672542">
|
|---|
| 5840 | <time>+50838-08-18T09:48:25Z</time>
|
|---|
| 5841 | </trkpt>
|
|---|
| 5842 | <trkpt lat="51.1739651" lon="5.0675478">
|
|---|
| 5843 | <time>+50838-08-18T10:05:05Z</time>
|
|---|
| 5844 | </trkpt>
|
|---|
| 5845 | <trkpt lat="51.1739275" lon="5.067964">
|
|---|
| 5846 | <time>+50838-08-18T10:21:45Z</time>
|
|---|
| 5847 | </trkpt>
|
|---|
| 5848 | <trkpt lat="51.1739137" lon="5.0682248">
|
|---|
| 5849 | <time>+50838-08-18T10:38:25Z</time>
|
|---|
| 5850 | </trkpt>
|
|---|
| 5851 | <trkpt lat="51.1737498" lon="5.0687783">
|
|---|
| 5852 | <time>+50838-08-18T10:55:05Z</time>
|
|---|
| 5853 | </trkpt>
|
|---|
| 5854 | <trkpt lat="51.1737313" lon="5.0689852">
|
|---|
| 5855 | <time>+50838-08-18T11:11:45Z</time>
|
|---|
| 5856 | </trkpt>
|
|---|
| 5857 | <trkpt lat="51.1737344" lon="5.0693109">
|
|---|
| 5858 | <time>+50838-08-18T11:28:25Z</time>
|
|---|
| 5859 | </trkpt>
|
|---|
| 5860 | <trkpt lat="51.1737551" lon="5.0695668">
|
|---|
| 5861 | <time>+50838-08-18T11:45:05Z</time>
|
|---|
| 5862 | </trkpt>
|
|---|
| 5863 | <trkpt lat="51.1737928" lon="5.0697578">
|
|---|
| 5864 | <time>+50838-08-18T12:01:45Z</time>
|
|---|
| 5865 | </trkpt>
|
|---|
| 5866 | <trkpt lat="51.1739064" lon="5.07013">
|
|---|
| 5867 | <time>+50838-08-18T12:18:25Z</time>
|
|---|
| 5868 | </trkpt>
|
|---|
| 5869 | <trkpt lat="51.1739524" lon="5.0704006">
|
|---|
| 5870 | <time>+50838-08-18T12:35:05Z</time>
|
|---|
| 5871 | </trkpt>
|
|---|
| 5872 | <trkpt lat="51.1739785" lon="5.0706271">
|
|---|
| 5873 | <time>+50838-08-18T12:51:45Z</time>
|
|---|
| 5874 | </trkpt>
|
|---|
| 5875 | <trkpt lat="51.1739839" lon="5.0710177">
|
|---|
| 5876 | <time>+50838-08-18T13:08:25Z</time>
|
|---|
| 5877 | </trkpt>
|
|---|
| 5878 | <trkpt lat="51.1740023" lon="5.0713201">
|
|---|
| 5879 | <time>+50838-08-18T13:25:05Z</time>
|
|---|
| 5880 | </trkpt>
|
|---|
| 5881 | <trkpt lat="51.1740722" lon="5.0717719">
|
|---|
| 5882 | <time>+50838-08-18T13:41:45Z</time>
|
|---|
| 5883 | </trkpt>
|
|---|
| 5884 | <trkpt lat="51.1741359" lon="5.0721637">
|
|---|
| 5885 | <time>+50838-08-18T13:58:25Z</time>
|
|---|
| 5886 | </trkpt>
|
|---|
| 5887 | <trkpt lat="51.1742284" lon="5.0727771">
|
|---|
| 5888 | <time>+50838-08-18T14:15:05Z</time>
|
|---|
| 5889 | </trkpt>
|
|---|
| 5890 | <trkpt lat="51.174253" lon="5.0729608">
|
|---|
| 5891 | <time>+50838-08-18T14:31:45Z</time>
|
|---|
| 5892 | </trkpt>
|
|---|
| 5893 | <trkpt lat="51.1742583" lon="5.0731567">
|
|---|
| 5894 | <time>+50838-08-18T14:48:25Z</time>
|
|---|
| 5895 | </trkpt>
|
|---|
| 5896 | <trkpt lat="51.1742723" lon="5.0735157">
|
|---|
| 5897 | <time>+50838-08-18T15:05:05Z</time>
|
|---|
| 5898 | </trkpt>
|
|---|
| 5899 | <trkpt lat="51.1742802" lon="5.0738539">
|
|---|
| 5900 | <time>+50838-08-18T15:21:45Z</time>
|
|---|
| 5901 | </trkpt>
|
|---|
| 5902 | <trkpt lat="51.1742723" lon="5.074108">
|
|---|
| 5903 | <time>+50838-08-18T15:38:25Z</time>
|
|---|
| 5904 | </trkpt>
|
|---|
| 5905 | <trkpt lat="51.1742568" lon="5.0742431">
|
|---|
| 5906 | <time>+50838-08-18T15:55:05Z</time>
|
|---|
| 5907 | </trkpt>
|
|---|
| 5908 | <trkpt lat="51.1742568" lon="5.0742431">
|
|---|
| 5909 | <time>+50838-08-18T16:11:45Z</time>
|
|---|
| 5910 | </trkpt>
|
|---|
| 5911 | <trkpt lat="51.1742934" lon="5.0742753">
|
|---|
| 5912 | <time>+50838-08-18T16:28:25Z</time>
|
|---|
| 5913 | </trkpt>
|
|---|
| 5914 | <trkpt lat="51.1743104" lon="5.074281">
|
|---|
| 5915 | <time>+50838-08-18T16:45:05Z</time>
|
|---|
| 5916 | </trkpt>
|
|---|
| 5917 | <trkpt lat="51.1743396" lon="5.0742836">
|
|---|
| 5918 | <time>+50838-08-18T17:01:45Z</time>
|
|---|
| 5919 | </trkpt>
|
|---|
| 5920 | <trkpt lat="51.1748003" lon="5.0742853">
|
|---|
| 5921 | <time>+50838-08-18T17:18:25Z</time>
|
|---|
| 5922 | </trkpt>
|
|---|
| 5923 | <trkpt lat="51.1752589" lon="5.0743141">
|
|---|
| 5924 | <time>+50838-08-18T17:35:05Z</time>
|
|---|
| 5925 | </trkpt>
|
|---|
| 5926 | <trkpt lat="51.1752875" lon="5.0743138">
|
|---|
| 5927 | <time>+50838-08-18T17:51:45Z</time>
|
|---|
| 5928 | </trkpt>
|
|---|
| 5929 | <trkpt lat="51.1752875" lon="5.0743138">
|
|---|
| 5930 | <time>+50838-08-18T18:08:25Z</time>
|
|---|
| 5931 | </trkpt>
|
|---|
| 5932 | <trkpt lat="51.1752143" lon="5.075078">
|
|---|
| 5933 | <time>+50838-08-18T18:25:05Z</time>
|
|---|
| 5934 | </trkpt>
|
|---|
| 5935 | <trkpt lat="51.1751977" lon="5.0753659">
|
|---|
| 5936 | <time>+50838-08-18T18:41:45Z</time>
|
|---|
| 5937 | </trkpt>
|
|---|
| 5938 | <trkpt lat="51.1752282" lon="5.0759327">
|
|---|
| 5939 | <time>+50838-08-18T18:58:25Z</time>
|
|---|
| 5940 | </trkpt>
|
|---|
| 5941 | <trkpt lat="51.1753198" lon="5.0767216">
|
|---|
| 5942 | <time>+50838-08-18T19:15:05Z</time>
|
|---|
| 5943 | </trkpt>
|
|---|
| 5944 | <trkpt lat="51.1753198" lon="5.0767216">
|
|---|
| 5945 | <time>+50838-08-18T19:31:45Z</time>
|
|---|
| 5946 | </trkpt>
|
|---|
| 5947 | <trkpt lat="51.1748844" lon="5.0768812">
|
|---|
| 5948 | <time>+50838-08-18T19:48:25Z</time>
|
|---|
| 5949 | </trkpt>
|
|---|
| 5950 | <trkpt lat="51.1747964" lon="5.0769058">
|
|---|
| 5951 | <time>+50838-08-18T20:05:05Z</time>
|
|---|
| 5952 | </trkpt>
|
|---|
| 5953 | <trkpt lat="51.1747964" lon="5.0769058">
|
|---|
| 5954 | <time>+50838-08-18T20:21:45Z</time>
|
|---|
| 5955 | </trkpt>
|
|---|
| 5956 | <trkpt lat="51.1745669" lon="5.0770131">
|
|---|
| 5957 | <time>+50838-08-18T20:38:25Z</time>
|
|---|
| 5958 | </trkpt>
|
|---|
| 5959 | <trkpt lat="51.1739481" lon="5.0773349">
|
|---|
| 5960 | <time>+50838-08-18T20:55:05Z</time>
|
|---|
| 5961 | </trkpt>
|
|---|
| 5962 | <trkpt lat="51.1736439" lon="5.0775813">
|
|---|
| 5963 | <time>+50838-08-18T21:11:45Z</time>
|
|---|
| 5964 | </trkpt>
|
|---|
| 5965 | <trkpt lat="51.1733292" lon="5.0778714">
|
|---|
| 5966 | <time>+50838-08-18T21:28:25Z</time>
|
|---|
| 5967 | </trkpt>
|
|---|
| 5968 | <trkpt lat="51.1731558" lon="5.0780109">
|
|---|
| 5969 | <time>+50838-08-18T21:45:05Z</time>
|
|---|
| 5970 | </trkpt>
|
|---|
| 5971 | <trkpt lat="51.172966" lon="5.0781289">
|
|---|
| 5972 | <time>+50838-08-18T22:01:45Z</time>
|
|---|
| 5973 | </trkpt>
|
|---|
| 5974 | <trkpt lat="51.1728143" lon="5.0782039">
|
|---|
| 5975 | <time>+50838-08-18T22:18:25Z</time>
|
|---|
| 5976 | </trkpt>
|
|---|
| 5977 | <trkpt lat="51.1725619" lon="5.0782677">
|
|---|
| 5978 | <time>+50838-08-18T22:35:05Z</time>
|
|---|
| 5979 | </trkpt>
|
|---|
| 5980 | <trkpt lat="51.1725619" lon="5.0782677">
|
|---|
| 5981 | <time>+50838-08-18T22:51:45Z</time>
|
|---|
| 5982 | </trkpt>
|
|---|
| 5983 | <trkpt lat="51.1724395" lon="5.0782767">
|
|---|
| 5984 | <time>+50838-08-18T23:08:25Z</time>
|
|---|
| 5985 | </trkpt>
|
|---|
| 5986 | <trkpt lat="51.1724395" lon="5.0782767">
|
|---|
| 5987 | <time>+50838-08-18T23:25:05Z</time>
|
|---|
| 5988 | </trkpt>
|
|---|
| 5989 | <trkpt lat="51.1723106" lon="5.078346">
|
|---|
| 5990 | <time>+50838-08-18T23:41:45Z</time>
|
|---|
| 5991 | </trkpt>
|
|---|
| 5992 | <trkpt lat="51.1721635" lon="5.0784386">
|
|---|
| 5993 | <time>+50838-08-18T23:58:25Z</time>
|
|---|
| 5994 | </trkpt>
|
|---|
| 5995 | <trkpt lat="51.1720387" lon="5.0785441">
|
|---|
| 5996 | <time>+50838-08-19T00:15:05Z</time>
|
|---|
| 5997 | </trkpt>
|
|---|
| 5998 | <trkpt lat="51.1719585" lon="5.0786664">
|
|---|
| 5999 | <time>+50838-08-19T00:31:45Z</time>
|
|---|
| 6000 | </trkpt>
|
|---|
| 6001 | <trkpt lat="51.1717511" lon="5.0791505">
|
|---|
| 6002 | <time>+50838-08-19T00:48:25Z</time>
|
|---|
| 6003 | </trkpt>
|
|---|
| 6004 | <trkpt lat="51.1716295" lon="5.0793011">
|
|---|
| 6005 | <time>+50838-08-19T01:05:05Z</time>
|
|---|
| 6006 | </trkpt>
|
|---|
| 6007 | <trkpt lat="51.1715078" lon="5.079407">
|
|---|
| 6008 | <time>+50838-08-19T01:21:45Z</time>
|
|---|
| 6009 | </trkpt>
|
|---|
| 6010 | <trkpt lat="51.1713747" lon="5.0794577">
|
|---|
| 6011 | <time>+50838-08-19T01:38:25Z</time>
|
|---|
| 6012 | </trkpt>
|
|---|
| 6013 | <trkpt lat="51.1712531" lon="5.0794801">
|
|---|
| 6014 | <time>+50838-08-19T01:55:05Z</time>
|
|---|
| 6015 | </trkpt>
|
|---|
| 6016 | <trkpt lat="51.171133" lon="5.0794728">
|
|---|
| 6017 | <time>+50838-08-19T02:11:45Z</time>
|
|---|
| 6018 | </trkpt>
|
|---|
| 6019 | <trkpt lat="51.1705436" lon="5.0793847">
|
|---|
| 6020 | <time>+50838-08-19T02:28:25Z</time>
|
|---|
| 6021 | </trkpt>
|
|---|
| 6022 | <trkpt lat="51.1704098" lon="5.0793706">
|
|---|
| 6023 | <time>+50838-08-19T02:45:05Z</time>
|
|---|
| 6024 | </trkpt>
|
|---|
| 6025 | <trkpt lat="51.1703709" lon="5.0793667">
|
|---|
| 6026 | <time>+50838-08-19T03:01:45Z</time>
|
|---|
| 6027 | </trkpt>
|
|---|
| 6028 | <trkpt lat="51.1703709" lon="5.0793667">
|
|---|
| 6029 | <time>+50838-08-19T03:18:25Z</time>
|
|---|
| 6030 | </trkpt>
|
|---|
| 6031 | <trkpt lat="51.1702528" lon="5.0793351">
|
|---|
| 6032 | <time>+50838-08-19T03:35:05Z</time>
|
|---|
| 6033 | </trkpt>
|
|---|
| 6034 | <trkpt lat="51.1702528" lon="5.0793351">
|
|---|
| 6035 | <time>+50838-08-19T03:51:45Z</time>
|
|---|
| 6036 | </trkpt>
|
|---|
| 6037 | <trkpt lat="51.1702005" lon="5.0793148">
|
|---|
| 6038 | <time>+50838-08-19T04:08:25Z</time>
|
|---|
| 6039 | </trkpt>
|
|---|
| 6040 | <trkpt lat="51.1697947" lon="5.0791268">
|
|---|
| 6041 | <time>+50838-08-19T04:25:05Z</time>
|
|---|
| 6042 | </trkpt>
|
|---|
| 6043 | <trkpt lat="51.1697947" lon="5.0791268">
|
|---|
| 6044 | <time>+50838-08-19T04:41:45Z</time>
|
|---|
| 6045 | </trkpt>
|
|---|
| 6046 | <trkpt lat="51.1697951" lon="5.0790225">
|
|---|
| 6047 | <time>+50838-08-19T04:58:25Z</time>
|
|---|
| 6048 | </trkpt>
|
|---|
| 6049 | <trkpt lat="51.1696999" lon="5.0785076">
|
|---|
| 6050 | <time>+50838-08-19T05:15:05Z</time>
|
|---|
| 6051 | </trkpt>
|
|---|
| 6052 | <trkpt lat="51.1695962" lon="5.0780183">
|
|---|
| 6053 | <time>+50838-08-19T05:31:45Z</time>
|
|---|
| 6054 | </trkpt>
|
|---|
| 6055 | <trkpt lat="51.1694872" lon="5.0775867">
|
|---|
| 6056 | <time>+50838-08-19T05:48:25Z</time>
|
|---|
| 6057 | </trkpt>
|
|---|
| 6058 | <trkpt lat="51.1692289" lon="5.0766502">
|
|---|
| 6059 | <time>+50838-08-19T06:05:05Z</time>
|
|---|
| 6060 | </trkpt>
|
|---|
| 6061 | <trkpt lat="51.1692086" lon="5.0765358">
|
|---|
| 6062 | <time>+50838-08-19T06:21:45Z</time>
|
|---|
| 6063 | </trkpt>
|
|---|
| 6064 | <trkpt lat="51.1691482" lon="5.076066">
|
|---|
| 6065 | <time>+50838-08-19T06:38:25Z</time>
|
|---|
| 6066 | </trkpt>
|
|---|
| 6067 | <trkpt lat="51.169068" lon="5.0753981">
|
|---|
| 6068 | <time>+50838-08-19T06:55:05Z</time>
|
|---|
| 6069 | </trkpt>
|
|---|
| 6070 | <trkpt lat="51.169068" lon="5.0753981">
|
|---|
| 6071 | <time>+50838-08-19T07:11:45Z</time>
|
|---|
| 6072 | </trkpt>
|
|---|
| 6073 | <trkpt lat="51.1689237" lon="5.0755385">
|
|---|
| 6074 | <time>+50838-08-19T07:28:25Z</time>
|
|---|
| 6075 | </trkpt>
|
|---|
| 6076 | <trkpt lat="51.1683099" lon="5.0762393">
|
|---|
| 6077 | <time>+50838-08-19T07:45:05Z</time>
|
|---|
| 6078 | </trkpt>
|
|---|
| 6079 | <trkpt lat="51.1681146" lon="5.0763367">
|
|---|
| 6080 | <time>+50838-08-19T08:01:45Z</time>
|
|---|
| 6081 | </trkpt>
|
|---|
| 6082 | <trkpt lat="51.1679323" lon="5.0764158">
|
|---|
| 6083 | <time>+50838-08-19T08:18:25Z</time>
|
|---|
| 6084 | </trkpt>
|
|---|
| 6085 | <trkpt lat="51.1677399" lon="5.0764231">
|
|---|
| 6086 | <time>+50838-08-19T08:35:05Z</time>
|
|---|
| 6087 | </trkpt>
|
|---|
| 6088 | <trkpt lat="51.1675773" lon="5.076371">
|
|---|
| 6089 | <time>+50838-08-19T08:51:45Z</time>
|
|---|
| 6090 | </trkpt>
|
|---|
| 6091 | <trkpt lat="51.1674082" lon="5.0762409">
|
|---|
| 6092 | <time>+50838-08-19T09:08:25Z</time>
|
|---|
| 6093 | </trkpt>
|
|---|
| 6094 | <trkpt lat="51.1673106" lon="5.0761044">
|
|---|
| 6095 | <time>+50838-08-19T09:25:05Z</time>
|
|---|
| 6096 | </trkpt>
|
|---|
| 6097 | <trkpt lat="51.1672261" lon="5.0759027">
|
|---|
| 6098 | <time>+50838-08-19T09:41:45Z</time>
|
|---|
| 6099 | </trkpt>
|
|---|
| 6100 | <trkpt lat="51.1667577" lon="5.0751157">
|
|---|
| 6101 | <time>+50838-08-19T09:58:25Z</time>
|
|---|
| 6102 | </trkpt>
|
|---|
| 6103 | <trkpt lat="51.166335" lon="5.0745433">
|
|---|
| 6104 | <time>+50838-08-19T10:15:05Z</time>
|
|---|
| 6105 | </trkpt>
|
|---|
| 6106 | <trkpt lat="51.1660813" lon="5.0743677">
|
|---|
| 6107 | <time>+50838-08-19T10:31:45Z</time>
|
|---|
| 6108 | </trkpt>
|
|---|
| 6109 | <trkpt lat="51.1658536" lon="5.0741075">
|
|---|
| 6110 | <time>+50838-08-19T10:48:25Z</time>
|
|---|
| 6111 | </trkpt>
|
|---|
| 6112 | <trkpt lat="51.1656975" lon="5.0738733">
|
|---|
| 6113 | <time>+50838-08-19T11:05:05Z</time>
|
|---|
| 6114 | </trkpt>
|
|---|
| 6115 | <trkpt lat="51.1656458" lon="5.0736687">
|
|---|
| 6116 | <time>+50838-08-19T11:21:45Z</time>
|
|---|
| 6117 | </trkpt>
|
|---|
| 6118 | <trkpt lat="51.165378" lon="5.0739453">
|
|---|
| 6119 | <time>+50838-08-19T11:38:25Z</time>
|
|---|
| 6120 | </trkpt>
|
|---|
| 6121 | <trkpt lat="51.165378" lon="5.0739453">
|
|---|
| 6122 | <time>+50838-08-19T11:55:05Z</time>
|
|---|
| 6123 | </trkpt>
|
|---|
| 6124 | <trkpt lat="51.1651707" lon="5.0741794">
|
|---|
| 6125 | <time>+50838-08-19T12:11:45Z</time>
|
|---|
| 6126 | </trkpt>
|
|---|
| 6127 | <trkpt lat="51.1650223" lon="5.0742587">
|
|---|
| 6128 | <time>+50838-08-19T12:28:25Z</time>
|
|---|
| 6129 | </trkpt>
|
|---|
| 6130 | <trkpt lat="51.164917" lon="5.0742766">
|
|---|
| 6131 | <time>+50838-08-19T12:45:05Z</time>
|
|---|
| 6132 | </trkpt>
|
|---|
| 6133 | <trkpt lat="51.164615" lon="5.0742049">
|
|---|
| 6134 | <time>+50838-08-19T13:01:45Z</time>
|
|---|
| 6135 | </trkpt>
|
|---|
| 6136 | <trkpt lat="51.1642339" lon="5.0740945">
|
|---|
| 6137 | <time>+50838-08-19T13:18:25Z</time>
|
|---|
| 6138 | </trkpt>
|
|---|
| 6139 | <trkpt lat="51.1638374" lon="5.0740161">
|
|---|
| 6140 | <time>+50838-08-19T13:35:05Z</time>
|
|---|
| 6141 | </trkpt>
|
|---|
| 6142 | <trkpt lat="51.1630382" lon="5.073883">
|
|---|
| 6143 | <time>+50838-08-19T13:51:45Z</time>
|
|---|
| 6144 | </trkpt>
|
|---|
| 6145 | <trkpt lat="51.1630382" lon="5.073883">
|
|---|
| 6146 | <time>+50838-08-19T14:08:25Z</time>
|
|---|
| 6147 | </trkpt>
|
|---|
| 6148 | <trkpt lat="51.1630477" lon="5.0744263">
|
|---|
| 6149 | <time>+50838-08-19T14:25:05Z</time>
|
|---|
| 6150 | <name>Bel - Geel</name>
|
|---|
| 6151 | </trkpt>
|
|---|
| 6152 | <trkpt lat="51.1630477" lon="5.0744263">
|
|---|
| 6153 | <time>+50838-08-19T14:41:45Z</time>
|
|---|
| 6154 | <name>Bel - Geel</name>
|
|---|
| 6155 | </trkpt>
|
|---|
| 6156 | <trkpt lat="51.1630532" lon="5.0746556">
|
|---|
| 6157 | <time>+50838-08-19T14:58:25Z</time>
|
|---|
| 6158 | </trkpt>
|
|---|
| 6159 | <trkpt lat="51.1630532" lon="5.0746556">
|
|---|
| 6160 | <time>+50838-08-19T15:15:05Z</time>
|
|---|
| 6161 | </trkpt>
|
|---|
| 6162 | <trkpt lat="51.1602508" lon="5.075224">
|
|---|
| 6163 | <time>+50838-08-19T15:31:45Z</time>
|
|---|
| 6164 | </trkpt>
|
|---|
| 6165 | <trkpt lat="51.15922" lon="5.0754613">
|
|---|
| 6166 | <time>+50838-08-19T15:48:25Z</time>
|
|---|
| 6167 | </trkpt>
|
|---|
| 6168 | <trkpt lat="51.1583925" lon="5.075617">
|
|---|
| 6169 | <time>+50838-08-19T16:05:05Z</time>
|
|---|
| 6170 | </trkpt>
|
|---|
| 6171 | <trkpt lat="51.158072" lon="5.0756991">
|
|---|
| 6172 | <time>+50838-08-19T16:21:45Z</time>
|
|---|
| 6173 | </trkpt>
|
|---|
| 6174 | <trkpt lat="51.1577994" lon="5.0757693">
|
|---|
| 6175 | <time>+50838-08-19T16:38:25Z</time>
|
|---|
| 6176 | </trkpt>
|
|---|
| 6177 | <trkpt lat="51.1576796" lon="5.0757853">
|
|---|
| 6178 | <time>+50838-08-19T16:55:05Z</time>
|
|---|
| 6179 | </trkpt>
|
|---|
| 6180 | <trkpt lat="51.1574508" lon="5.0758289">
|
|---|
| 6181 | <time>+50838-08-19T17:11:45Z</time>
|
|---|
| 6182 | </trkpt>
|
|---|
| 6183 | <trkpt lat="51.1574508" lon="5.0758289">
|
|---|
| 6184 | <time>+50838-08-19T17:28:25Z</time>
|
|---|
| 6185 | </trkpt>
|
|---|
| 6186 | <trkpt lat="51.1569956" lon="5.0759372">
|
|---|
| 6187 | <time>+50838-08-19T17:45:05Z</time>
|
|---|
| 6188 | </trkpt>
|
|---|
| 6189 | <trkpt lat="51.156698" lon="5.0759991">
|
|---|
| 6190 | <time>+50838-08-19T18:01:45Z</time>
|
|---|
| 6191 | </trkpt>
|
|---|
| 6192 | <trkpt lat="51.1561784" lon="5.0760894">
|
|---|
| 6193 | <time>+50838-08-19T18:18:25Z</time>
|
|---|
| 6194 | </trkpt>
|
|---|
| 6195 | <trkpt lat="51.1561784" lon="5.0760894">
|
|---|
| 6196 | <time>+50838-08-19T18:35:05Z</time>
|
|---|
| 6197 | </trkpt>
|
|---|
| 6198 | <trkpt lat="51.15625" lon="5.07693">
|
|---|
| 6199 | <time>+50838-08-19T18:51:45Z</time>
|
|---|
| 6200 | </trkpt>
|
|---|
| 6201 | <trkpt lat="51.1563211" lon="5.0777813">
|
|---|
| 6202 | <time>+50838-08-19T19:08:25Z</time>
|
|---|
| 6203 | </trkpt>
|
|---|
| 6204 | <trkpt lat="51.1563784" lon="5.0781171">
|
|---|
| 6205 | <time>+50838-08-19T19:25:05Z</time>
|
|---|
| 6206 | </trkpt>
|
|---|
| 6207 | <trkpt lat="51.1563784" lon="5.0781171">
|
|---|
| 6208 | <time>+50838-08-19T19:41:45Z</time>
|
|---|
| 6209 | </trkpt>
|
|---|
| 6210 | <trkpt lat="51.1562277" lon="5.07822">
|
|---|
| 6211 | <time>+50838-08-19T19:58:25Z</time>
|
|---|
| 6212 | </trkpt>
|
|---|
| 6213 | <trkpt lat="51.1560902" lon="5.078281">
|
|---|
| 6214 | <time>+50838-08-19T20:15:05Z</time>
|
|---|
| 6215 | </trkpt>
|
|---|
| 6216 | <trkpt lat="51.1560902" lon="5.078281">
|
|---|
| 6217 | <time>+50838-08-19T20:31:45Z</time>
|
|---|
| 6218 | </trkpt>
|
|---|
| 6219 | <trkpt lat="51.1560473" lon="5.0784456">
|
|---|
| 6220 | <time>+50838-08-19T20:48:25Z</time>
|
|---|
| 6221 | </trkpt>
|
|---|
| 6222 | <trkpt lat="51.1560804" lon="5.078739">
|
|---|
| 6223 | <time>+50838-08-19T21:05:05Z</time>
|
|---|
| 6224 | </trkpt>
|
|---|
| 6225 | <trkpt lat="51.1561285" lon="5.0799038">
|
|---|
| 6226 | <time>+50838-08-19T21:21:45Z</time>
|
|---|
| 6227 | </trkpt>
|
|---|
| 6228 | <trkpt lat="51.1561614" lon="5.0810905">
|
|---|
| 6229 | <time>+50838-08-19T21:38:25Z</time>
|
|---|
| 6230 | </trkpt>
|
|---|
| 6231 | <trkpt lat="51.156065" lon="5.0823688">
|
|---|
| 6232 | <time>+50838-08-19T21:55:05Z</time>
|
|---|
| 6233 | </trkpt>
|
|---|
| 6234 | <trkpt lat="51.1560228" lon="5.0834086">
|
|---|
| 6235 | <time>+50838-08-19T22:11:45Z</time>
|
|---|
| 6236 | </trkpt>
|
|---|
| 6237 | <trkpt lat="51.1559571" lon="5.0850267">
|
|---|
| 6238 | <time>+50838-08-19T22:28:25Z</time>
|
|---|
| 6239 | </trkpt>
|
|---|
| 6240 | <trkpt lat="51.1559571" lon="5.0850267">
|
|---|
| 6241 | <time>+50838-08-19T22:45:05Z</time>
|
|---|
| 6242 | </trkpt>
|
|---|
| 6243 | <trkpt lat="51.1558825" lon="5.0856947">
|
|---|
| 6244 | <time>+50838-08-19T23:01:45Z</time>
|
|---|
| 6245 | </trkpt>
|
|---|
| 6246 | <trkpt lat="51.1558347" lon="5.0866082">
|
|---|
| 6247 | <time>+50838-08-19T23:18:25Z</time>
|
|---|
| 6248 | </trkpt>
|
|---|
| 6249 | <trkpt lat="51.1558347" lon="5.0866082">
|
|---|
| 6250 | <time>+50838-08-19T23:35:05Z</time>
|
|---|
| 6251 | </trkpt>
|
|---|
| 6252 | <trkpt lat="51.1556729" lon="5.0882151">
|
|---|
| 6253 | <time>+50838-08-19T23:51:45Z</time>
|
|---|
| 6254 | </trkpt>
|
|---|
| 6255 | <trkpt lat="51.1555597" lon="5.0893378">
|
|---|
| 6256 | <time>+50838-08-20T00:08:25Z</time>
|
|---|
| 6257 | </trkpt>
|
|---|
| 6258 | <trkpt lat="51.1550543" lon="5.0908755">
|
|---|
| 6259 | <time>+50838-08-20T00:25:05Z</time>
|
|---|
| 6260 | </trkpt>
|
|---|
| 6261 | <trkpt lat="51.1550543" lon="5.0908755">
|
|---|
| 6262 | <time>+50838-08-20T00:41:45Z</time>
|
|---|
| 6263 | </trkpt>
|
|---|
| 6264 | <trkpt lat="51.1548074" lon="5.0915042">
|
|---|
| 6265 | <time>+50838-08-20T00:58:25Z</time>
|
|---|
| 6266 | </trkpt>
|
|---|
| 6267 | <trkpt lat="51.1546694" lon="5.0919933">
|
|---|
| 6268 | <time>+50838-08-20T01:15:05Z</time>
|
|---|
| 6269 | </trkpt>
|
|---|
| 6270 | <trkpt lat="51.1546694" lon="5.0919933">
|
|---|
| 6271 | <time>+50838-08-20T01:31:45Z</time>
|
|---|
| 6272 | </trkpt>
|
|---|
| 6273 | <trkpt lat="51.1536789" lon="5.0912568">
|
|---|
| 6274 | <time>+50838-08-20T01:48:25Z</time>
|
|---|
| 6275 | </trkpt>
|
|---|
| 6276 | <trkpt lat="51.1536789" lon="5.0912568">
|
|---|
| 6277 | <time>+50838-08-20T02:05:05Z</time>
|
|---|
| 6278 | </trkpt>
|
|---|
| 6279 | <trkpt lat="51.1536971" lon="5.0934261">
|
|---|
| 6280 | <time>+50838-08-20T02:21:45Z</time>
|
|---|
| 6281 | </trkpt>
|
|---|
| 6282 | <trkpt lat="51.153691" lon="5.0934837">
|
|---|
| 6283 | <time>+50838-08-20T02:38:25Z</time>
|
|---|
| 6284 | </trkpt>
|
|---|
| 6285 | <trkpt lat="51.1536404" lon="5.0935796">
|
|---|
| 6286 | <time>+50838-08-20T02:55:05Z</time>
|
|---|
| 6287 | </trkpt>
|
|---|
| 6288 | <trkpt lat="51.1536404" lon="5.0935796">
|
|---|
| 6289 | <time>+50838-08-20T03:11:45Z</time>
|
|---|
| 6290 | </trkpt>
|
|---|
| 6291 | <trkpt lat="51.1531379" lon="5.0928271">
|
|---|
| 6292 | <time>+50838-08-20T03:28:25Z</time>
|
|---|
| 6293 | </trkpt>
|
|---|
| 6294 | <trkpt lat="51.1530083" lon="5.0926353">
|
|---|
| 6295 | <time>+50838-08-20T03:45:05Z</time>
|
|---|
| 6296 | </trkpt>
|
|---|
| 6297 | <trkpt lat="51.152895" lon="5.0924903">
|
|---|
| 6298 | <time>+50838-08-20T04:01:45Z</time>
|
|---|
| 6299 | </trkpt>
|
|---|
| 6300 | <trkpt lat="51.152895" lon="5.0924903">
|
|---|
| 6301 | <time>+50838-08-20T04:18:25Z</time>
|
|---|
| 6302 | </trkpt>
|
|---|
| 6303 | <trkpt lat="51.1528826" lon="5.0925979">
|
|---|
| 6304 | <time>+50838-08-20T04:35:05Z</time>
|
|---|
| 6305 | </trkpt>
|
|---|
| 6306 | <trkpt lat="51.152891" lon="5.0926827">
|
|---|
| 6307 | <time>+50838-08-20T04:51:45Z</time>
|
|---|
| 6308 | </trkpt>
|
|---|
| 6309 | <trkpt lat="51.1529297" lon="5.0929052">
|
|---|
| 6310 | <time>+50838-08-20T05:08:25Z</time>
|
|---|
| 6311 | </trkpt>
|
|---|
| 6312 | <trkpt lat="51.1529824" lon="5.0931569">
|
|---|
| 6313 | <time>+50838-08-20T05:25:05Z</time>
|
|---|
| 6314 | </trkpt>
|
|---|
| 6315 | <trkpt lat="51.1530394" lon="5.0935635">
|
|---|
| 6316 | <time>+50838-08-20T05:41:45Z</time>
|
|---|
| 6317 | </trkpt>
|
|---|
| 6318 | <trkpt lat="51.1530569" lon="5.093723">
|
|---|
| 6319 | <time>+50838-08-20T05:58:25Z</time>
|
|---|
| 6320 | </trkpt>
|
|---|
| 6321 | <trkpt lat="51.1530632" lon="5.0938422">
|
|---|
| 6322 | <time>+50838-08-20T06:15:05Z</time>
|
|---|
| 6323 | </trkpt>
|
|---|
| 6324 | <trkpt lat="51.1530506" lon="5.0939748">
|
|---|
| 6325 | <time>+50838-08-20T06:31:45Z</time>
|
|---|
| 6326 | </trkpt>
|
|---|
| 6327 | <trkpt lat="51.153021" lon="5.0940699">
|
|---|
| 6328 | <time>+50838-08-20T06:48:25Z</time>
|
|---|
| 6329 | </trkpt>
|
|---|
| 6330 | <trkpt lat="51.1528814" lon="5.094419">
|
|---|
| 6331 | <time>+50838-08-20T07:05:05Z</time>
|
|---|
| 6332 | </trkpt>
|
|---|
| 6333 | <trkpt lat="51.15255" lon="5.0952879">
|
|---|
| 6334 | <time>+50838-08-20T07:21:45Z</time>
|
|---|
| 6335 | </trkpt>
|
|---|
| 6336 | <trkpt lat="51.15255" lon="5.0952879">
|
|---|
| 6337 | <time>+50838-08-20T07:38:25Z</time>
|
|---|
| 6338 | </trkpt>
|
|---|
| 6339 | <trkpt lat="51.1523936" lon="5.095755">
|
|---|
| 6340 | <time>+50838-08-20T07:55:05Z</time>
|
|---|
| 6341 | </trkpt>
|
|---|
| 6342 | <trkpt lat="51.152341" lon="5.0959667">
|
|---|
| 6343 | <time>+50838-08-20T08:11:45Z</time>
|
|---|
| 6344 | </trkpt>
|
|---|
| 6345 | <trkpt lat="51.1523451" lon="5.0962454">
|
|---|
| 6346 | <time>+50838-08-20T08:28:25Z</time>
|
|---|
| 6347 | </trkpt>
|
|---|
| 6348 | <trkpt lat="51.1524072" lon="5.0965805">
|
|---|
| 6349 | <time>+50838-08-20T08:45:05Z</time>
|
|---|
| 6350 | </trkpt>
|
|---|
| 6351 | <trkpt lat="51.1525853" lon="5.0969698">
|
|---|
| 6352 | <time>+50838-08-20T09:01:45Z</time>
|
|---|
| 6353 | </trkpt>
|
|---|
| 6354 | <trkpt lat="51.1528764" lon="5.0975543">
|
|---|
| 6355 | <time>+50838-08-20T09:18:25Z</time>
|
|---|
| 6356 | </trkpt>
|
|---|
| 6357 | <trkpt lat="51.1529425" lon="5.0977764">
|
|---|
| 6358 | <time>+50838-08-20T09:35:05Z</time>
|
|---|
| 6359 | </trkpt>
|
|---|
| 6360 | <trkpt lat="51.1530438" lon="5.0986132">
|
|---|
| 6361 | <time>+50838-08-20T09:51:45Z</time>
|
|---|
| 6362 | </trkpt>
|
|---|
| 6363 | <trkpt lat="51.1530928" lon="5.0987725">
|
|---|
| 6364 | <time>+50838-08-20T10:08:25Z</time>
|
|---|
| 6365 | </trkpt>
|
|---|
| 6366 | <trkpt lat="51.1530928" lon="5.0987725">
|
|---|
| 6367 | <time>+50838-08-20T10:25:05Z</time>
|
|---|
| 6368 | </trkpt>
|
|---|
| 6369 | <trkpt lat="51.1530917" lon="5.0989797">
|
|---|
| 6370 | <time>+50838-08-20T10:41:45Z</time>
|
|---|
| 6371 | </trkpt>
|
|---|
| 6372 | <trkpt lat="51.1531254" lon="5.0992645">
|
|---|
| 6373 | <time>+50838-08-20T10:58:25Z</time>
|
|---|
| 6374 | </trkpt>
|
|---|
| 6375 | <trkpt lat="51.1531914" lon="5.0997234">
|
|---|
| 6376 | <time>+50838-08-20T11:15:05Z</time>
|
|---|
| 6377 | </trkpt>
|
|---|
| 6378 | <trkpt lat="51.1531914" lon="5.0997234">
|
|---|
| 6379 | <time>+50838-08-20T11:31:45Z</time>
|
|---|
| 6380 | </trkpt>
|
|---|
| 6381 | <trkpt lat="51.1532688" lon="5.1004731">
|
|---|
| 6382 | <time>+50838-08-20T11:48:25Z</time>
|
|---|
| 6383 | </trkpt>
|
|---|
| 6384 | <trkpt lat="51.1533621" lon="5.1012708">
|
|---|
| 6385 | <time>+50838-08-20T12:05:05Z</time>
|
|---|
| 6386 | </trkpt>
|
|---|
| 6387 | <trkpt lat="51.1534797" lon="5.1020612">
|
|---|
| 6388 | <time>+50838-08-20T12:21:45Z</time>
|
|---|
| 6389 | </trkpt>
|
|---|
| 6390 | <trkpt lat="51.1536184" lon="5.1027943">
|
|---|
| 6391 | <time>+50838-08-20T12:38:25Z</time>
|
|---|
| 6392 | </trkpt>
|
|---|
| 6393 | <trkpt lat="51.153661" lon="5.1030086">
|
|---|
| 6394 | <time>+50838-08-20T12:55:05Z</time>
|
|---|
| 6395 | </trkpt>
|
|---|
| 6396 | <trkpt lat="51.1536753" lon="5.1031051">
|
|---|
| 6397 | <time>+50838-08-20T13:11:45Z</time>
|
|---|
| 6398 | </trkpt>
|
|---|
| 6399 | <trkpt lat="51.1536816" lon="5.1031799">
|
|---|
| 6400 | <time>+50838-08-20T13:28:25Z</time>
|
|---|
| 6401 | </trkpt>
|
|---|
| 6402 | <trkpt lat="51.1536816" lon="5.1031799">
|
|---|
| 6403 | <time>+50838-08-20T13:45:05Z</time>
|
|---|
| 6404 | </trkpt>
|
|---|
| 6405 | <trkpt lat="51.1537605" lon="5.1031248">
|
|---|
| 6406 | <time>+50838-08-20T14:01:45Z</time>
|
|---|
| 6407 | </trkpt>
|
|---|
| 6408 | <trkpt lat="51.153923" lon="5.1029201">
|
|---|
| 6409 | <time>+50838-08-20T14:18:25Z</time>
|
|---|
| 6410 | </trkpt>
|
|---|
| 6411 | <trkpt lat="51.1541887" lon="5.1026775">
|
|---|
| 6412 | <time>+50838-08-20T14:35:05Z</time>
|
|---|
| 6413 | </trkpt>
|
|---|
| 6414 | <trkpt lat="51.1543963" lon="5.1025273">
|
|---|
| 6415 | <time>+50838-08-20T14:51:45Z</time>
|
|---|
| 6416 | </trkpt>
|
|---|
| 6417 | <trkpt lat="51.1545881" lon="5.1024831">
|
|---|
| 6418 | <time>+50838-08-20T15:08:25Z</time>
|
|---|
| 6419 | </trkpt>
|
|---|
| 6420 | <trkpt lat="51.1548539" lon="5.1024877">
|
|---|
| 6421 | <time>+50838-08-20T15:25:05Z</time>
|
|---|
| 6422 | </trkpt>
|
|---|
| 6423 | <trkpt lat="51.1550979" lon="5.10253">
|
|---|
| 6424 | <time>+50838-08-20T15:41:45Z</time>
|
|---|
| 6425 | </trkpt>
|
|---|
| 6426 | <trkpt lat="51.1552563" lon="5.1025244">
|
|---|
| 6427 | <time>+50838-08-20T15:58:25Z</time>
|
|---|
| 6428 | </trkpt>
|
|---|
| 6429 | <trkpt lat="51.1553978" lon="5.1024896">
|
|---|
| 6430 | <time>+50838-08-20T16:15:05Z</time>
|
|---|
| 6431 | </trkpt>
|
|---|
| 6432 | <trkpt lat="51.1555789" lon="5.1023899">
|
|---|
| 6433 | <time>+50838-08-20T16:31:45Z</time>
|
|---|
| 6434 | </trkpt>
|
|---|
| 6435 | <trkpt lat="51.1558078" lon="5.1022805">
|
|---|
| 6436 | <time>+50838-08-20T16:48:25Z</time>
|
|---|
| 6437 | </trkpt>
|
|---|
| 6438 | <trkpt lat="51.1559306" lon="5.1022403">
|
|---|
| 6439 | <time>+50838-08-20T17:05:05Z</time>
|
|---|
| 6440 | </trkpt>
|
|---|
| 6441 | <trkpt lat="51.1562061" lon="5.1021876">
|
|---|
| 6442 | <time>+50838-08-20T17:21:45Z</time>
|
|---|
| 6443 | </trkpt>
|
|---|
| 6444 | <trkpt lat="51.1562061" lon="5.1021876">
|
|---|
| 6445 | <time>+50838-08-20T17:38:25Z</time>
|
|---|
| 6446 | </trkpt>
|
|---|
| 6447 | <trkpt lat="51.1565901" lon="5.1020847">
|
|---|
| 6448 | <time>+50838-08-20T17:55:05Z</time>
|
|---|
| 6449 | </trkpt>
|
|---|
| 6450 | <trkpt lat="51.1566875" lon="5.1020795">
|
|---|
| 6451 | <time>+50838-08-20T18:11:45Z</time>
|
|---|
| 6452 | </trkpt>
|
|---|
| 6453 | <trkpt lat="51.1580873" lon="5.1020043">
|
|---|
| 6454 | <time>+50838-08-20T18:28:25Z</time>
|
|---|
| 6455 | </trkpt>
|
|---|
| 6456 | <trkpt lat="51.1582622" lon="5.1020204">
|
|---|
| 6457 | <time>+50838-08-20T18:45:05Z</time>
|
|---|
| 6458 | </trkpt>
|
|---|
| 6459 | <trkpt lat="51.1584223" lon="5.1020472">
|
|---|
| 6460 | <time>+50838-08-20T19:01:45Z</time>
|
|---|
| 6461 | </trkpt>
|
|---|
| 6462 | <trkpt lat="51.1587087" lon="5.1021567">
|
|---|
| 6463 | <time>+50838-08-20T19:18:25Z</time>
|
|---|
| 6464 | </trkpt>
|
|---|
| 6465 | <trkpt lat="51.1593472" lon="5.1023861">
|
|---|
| 6466 | <time>+50838-08-20T19:35:05Z</time>
|
|---|
| 6467 | </trkpt>
|
|---|
| 6468 | <trkpt lat="51.1593472" lon="5.1023861">
|
|---|
| 6469 | <time>+50838-08-20T19:51:45Z</time>
|
|---|
| 6470 | </trkpt>
|
|---|
| 6471 | <trkpt lat="51.1596991" lon="5.1041141">
|
|---|
| 6472 | <time>+50838-08-20T20:08:25Z</time>
|
|---|
| 6473 | </trkpt>
|
|---|
| 6474 | <trkpt lat="51.160098" lon="5.1062657">
|
|---|
| 6475 | <time>+50838-08-20T20:25:05Z</time>
|
|---|
| 6476 | </trkpt>
|
|---|
| 6477 | <trkpt lat="51.160168" lon="5.1066525">
|
|---|
| 6478 | <time>+50838-08-20T20:41:45Z</time>
|
|---|
| 6479 | </trkpt>
|
|---|
| 6480 | <trkpt lat="51.1602083" lon="5.1069497">
|
|---|
| 6481 | <time>+50838-08-20T20:58:25Z</time>
|
|---|
| 6482 | </trkpt>
|
|---|
| 6483 | <trkpt lat="51.1602479" lon="5.1073711">
|
|---|
| 6484 | <time>+50838-08-20T21:15:05Z</time>
|
|---|
| 6485 | </trkpt>
|
|---|
| 6486 | <trkpt lat="51.160324" lon="5.1083318">
|
|---|
| 6487 | <time>+50838-08-20T21:31:45Z</time>
|
|---|
| 6488 | </trkpt>
|
|---|
| 6489 | <trkpt lat="51.160324" lon="5.1083318">
|
|---|
| 6490 | <time>+50838-08-20T21:48:25Z</time>
|
|---|
| 6491 | </trkpt>
|
|---|
| 6492 | <trkpt lat="51.1604988" lon="5.1105777">
|
|---|
| 6493 | <time>+50838-08-20T22:05:05Z</time>
|
|---|
| 6494 | </trkpt>
|
|---|
| 6495 | <trkpt lat="51.1605673" lon="5.1114975">
|
|---|
| 6496 | <time>+50838-08-20T22:21:45Z</time>
|
|---|
| 6497 | </trkpt>
|
|---|
| 6498 | <trkpt lat="51.1606244" lon="5.1122703">
|
|---|
| 6499 | <time>+50838-08-20T22:38:25Z</time>
|
|---|
| 6500 | </trkpt>
|
|---|
| 6501 | <trkpt lat="51.160613" lon="5.1124301">
|
|---|
| 6502 | <time>+50838-08-20T22:55:05Z</time>
|
|---|
| 6503 | </trkpt>
|
|---|
| 6504 | <trkpt lat="51.1605633" lon="5.1125507">
|
|---|
| 6505 | <time>+50838-08-20T23:11:45Z</time>
|
|---|
| 6506 | </trkpt>
|
|---|
| 6507 | <trkpt lat="51.159661" lon="5.1132531">
|
|---|
| 6508 | <time>+50838-08-20T23:28:25Z</time>
|
|---|
| 6509 | </trkpt>
|
|---|
| 6510 | <trkpt lat="51.1581392" lon="5.1144511">
|
|---|
| 6511 | <time>+50838-08-20T23:45:05Z</time>
|
|---|
| 6512 | </trkpt>
|
|---|
| 6513 | <trkpt lat="51.1579467" lon="5.1145932">
|
|---|
| 6514 | <time>+50838-08-21T00:01:45Z</time>
|
|---|
| 6515 | </trkpt>
|
|---|
| 6516 | <trkpt lat="51.1576897" lon="5.1147302">
|
|---|
| 6517 | <time>+50838-08-21T00:18:25Z</time>
|
|---|
| 6518 | </trkpt>
|
|---|
| 6519 | <trkpt lat="51.1575712" lon="5.1147696">
|
|---|
| 6520 | <time>+50838-08-21T00:35:05Z</time>
|
|---|
| 6521 | </trkpt>
|
|---|
| 6522 | <trkpt lat="51.1568981" lon="5.1148814">
|
|---|
| 6523 | <time>+50838-08-21T00:51:45Z</time>
|
|---|
| 6524 | </trkpt>
|
|---|
| 6525 | <trkpt lat="51.1568981" lon="5.1148814">
|
|---|
| 6526 | <time>+50838-08-21T01:08:25Z</time>
|
|---|
| 6527 | </trkpt>
|
|---|
| 6528 | <trkpt lat="51.1566597" lon="5.114916">
|
|---|
| 6529 | <time>+50838-08-21T01:25:05Z</time>
|
|---|
| 6530 | </trkpt>
|
|---|
| 6531 | <trkpt lat="51.1566597" lon="5.114916">
|
|---|
| 6532 | <time>+50838-08-21T01:41:45Z</time>
|
|---|
| 6533 | </trkpt>
|
|---|
| 6534 | <trkpt lat="51.1570096" lon="5.1156158">
|
|---|
| 6535 | <time>+50838-08-21T01:58:25Z</time>
|
|---|
| 6536 | </trkpt>
|
|---|
| 6537 | <trkpt lat="51.1571823" lon="5.1159485">
|
|---|
| 6538 | <time>+50838-08-21T02:15:05Z</time>
|
|---|
| 6539 | </trkpt>
|
|---|
| 6540 | <trkpt lat="51.1572592" lon="5.1161029">
|
|---|
| 6541 | <time>+50838-08-21T02:31:45Z</time>
|
|---|
| 6542 | </trkpt>
|
|---|
| 6543 | <trkpt lat="51.1573313" lon="5.1162713">
|
|---|
| 6544 | <time>+50838-08-21T02:48:25Z</time>
|
|---|
| 6545 | </trkpt>
|
|---|
| 6546 | <trkpt lat="51.157389" lon="5.1165007">
|
|---|
| 6547 | <time>+50838-08-21T03:05:05Z</time>
|
|---|
| 6548 | </trkpt>
|
|---|
| 6549 | <trkpt lat="51.1574239" lon="5.1166965">
|
|---|
| 6550 | <time>+50838-08-21T03:21:45Z</time>
|
|---|
| 6551 | </trkpt>
|
|---|
| 6552 | <trkpt lat="51.1574528" lon="5.1168923">
|
|---|
| 6553 | <time>+50838-08-21T03:38:25Z</time>
|
|---|
| 6554 | </trkpt>
|
|---|
| 6555 | <trkpt lat="51.1574938" lon="5.1171262">
|
|---|
| 6556 | <time>+50838-08-21T03:55:05Z</time>
|
|---|
| 6557 | </trkpt>
|
|---|
| 6558 | <trkpt lat="51.1578983" lon="5.1189553">
|
|---|
| 6559 | <time>+50838-08-21T04:11:45Z</time>
|
|---|
| 6560 | </trkpt>
|
|---|
| 6561 | <trkpt lat="51.1578983" lon="5.1189553">
|
|---|
| 6562 | <time>+50838-08-21T04:28:25Z</time>
|
|---|
| 6563 | </trkpt>
|
|---|
| 6564 | <trkpt lat="51.1578441" lon="5.119025">
|
|---|
| 6565 | <time>+50838-08-21T04:45:05Z</time>
|
|---|
| 6566 | </trkpt>
|
|---|
| 6567 | <trkpt lat="51.1577809" lon="5.1192216">
|
|---|
| 6568 | <time>+50838-08-21T05:01:45Z</time>
|
|---|
| 6569 | </trkpt>
|
|---|
| 6570 | <trkpt lat="51.157762" lon="5.1196392">
|
|---|
| 6571 | <time>+50838-08-21T05:18:25Z</time>
|
|---|
| 6572 | </trkpt>
|
|---|
| 6573 | <trkpt lat="51.1577526" lon="5.1198644">
|
|---|
| 6574 | <time>+50838-08-21T05:35:05Z</time>
|
|---|
| 6575 | </trkpt>
|
|---|
| 6576 | <trkpt lat="51.1577552" lon="5.1200898">
|
|---|
| 6577 | <time>+50838-08-21T05:51:45Z</time>
|
|---|
| 6578 | </trkpt>
|
|---|
| 6579 | <trkpt lat="51.1578023" lon="5.1204975">
|
|---|
| 6580 | <time>+50838-08-21T06:08:25Z</time>
|
|---|
| 6581 | </trkpt>
|
|---|
| 6582 | <trkpt lat="51.157823" lon="5.1206462">
|
|---|
| 6583 | <time>+50838-08-21T06:25:05Z</time>
|
|---|
| 6584 | </trkpt>
|
|---|
| 6585 | <trkpt lat="51.1578225" lon="5.1207979">
|
|---|
| 6586 | <time>+50838-08-21T06:41:45Z</time>
|
|---|
| 6587 | </trkpt>
|
|---|
| 6588 | <trkpt lat="51.1577943" lon="5.1208905">
|
|---|
| 6589 | <time>+50838-08-21T06:58:25Z</time>
|
|---|
| 6590 | </trkpt>
|
|---|
| 6591 | <trkpt lat="51.1577464" lon="5.1209685">
|
|---|
| 6592 | <time>+50838-08-21T07:15:05Z</time>
|
|---|
| 6593 | </trkpt>
|
|---|
| 6594 | <trkpt lat="51.1575899" lon="5.1210594">
|
|---|
| 6595 | <time>+50838-08-21T07:31:45Z</time>
|
|---|
| 6596 | </trkpt>
|
|---|
| 6597 | <trkpt lat="51.1571957" lon="5.1212523">
|
|---|
| 6598 | <time>+50838-08-21T07:48:25Z</time>
|
|---|
| 6599 | </trkpt>
|
|---|
| 6600 | <trkpt lat="51.1571957" lon="5.1212523">
|
|---|
| 6601 | <time>+50838-08-21T08:05:05Z</time>
|
|---|
| 6602 | </trkpt>
|
|---|
| 6603 | <trkpt lat="51.1569496" lon="5.1213646">
|
|---|
| 6604 | <time>+50838-08-21T08:21:45Z</time>
|
|---|
| 6605 | </trkpt>
|
|---|
| 6606 | <trkpt lat="51.1569009" lon="5.1214175">
|
|---|
| 6607 | <time>+50838-08-21T08:38:25Z</time>
|
|---|
| 6608 | </trkpt>
|
|---|
| 6609 | <trkpt lat="51.1568805" lon="5.1215049">
|
|---|
| 6610 | <time>+50838-08-21T08:55:05Z</time>
|
|---|
| 6611 | </trkpt>
|
|---|
| 6612 | <trkpt lat="51.1568629" lon="5.1219159">
|
|---|
| 6613 | <time>+50838-08-21T09:11:45Z</time>
|
|---|
| 6614 | </trkpt>
|
|---|
| 6615 | <trkpt lat="51.1568341" lon="5.1237222">
|
|---|
| 6616 | <time>+50838-08-21T09:28:25Z</time>
|
|---|
| 6617 | </trkpt>
|
|---|
| 6618 | <trkpt lat="51.1568645" lon="5.1239959">
|
|---|
| 6619 | <time>+50838-08-21T09:45:05Z</time>
|
|---|
| 6620 | </trkpt>
|
|---|
| 6621 | <trkpt lat="51.1568645" lon="5.1239959">
|
|---|
| 6622 | <time>+50838-08-21T10:01:45Z</time>
|
|---|
| 6623 | </trkpt>
|
|---|
| 6624 | <trkpt lat="51.1568912" lon="5.1238824">
|
|---|
| 6625 | <time>+50838-08-21T10:18:25Z</time>
|
|---|
| 6626 | </trkpt>
|
|---|
| 6627 | <trkpt lat="51.1568912" lon="5.1238824">
|
|---|
| 6628 | <time>+50838-08-21T10:35:05Z</time>
|
|---|
| 6629 | </trkpt>
|
|---|
| 6630 | <trkpt lat="51.1569112" lon="5.1238198">
|
|---|
| 6631 | <time>+50838-08-21T10:51:45Z</time>
|
|---|
| 6632 | </trkpt>
|
|---|
| 6633 | <trkpt lat="51.158189" lon="5.121732">
|
|---|
| 6634 | <time>+50838-08-21T11:08:25Z</time>
|
|---|
| 6635 | </trkpt>
|
|---|
| 6636 | <trkpt lat="51.158429" lon="5.1213399">
|
|---|
| 6637 | <time>+50838-08-21T11:25:05Z</time>
|
|---|
| 6638 | </trkpt>
|
|---|
| 6639 | <trkpt lat="51.1584865" lon="5.1212695">
|
|---|
| 6640 | <time>+50838-08-21T11:41:45Z</time>
|
|---|
| 6641 | </trkpt>
|
|---|
| 6642 | <trkpt lat="51.1584865" lon="5.1212695">
|
|---|
| 6643 | <time>+50838-08-21T11:58:25Z</time>
|
|---|
| 6644 | </trkpt>
|
|---|
| 6645 | <trkpt lat="51.1585401" lon="5.1212038">
|
|---|
| 6646 | <time>+50838-08-21T12:15:05Z</time>
|
|---|
| 6647 | </trkpt>
|
|---|
| 6648 | <trkpt lat="51.1585401" lon="5.1212038">
|
|---|
| 6649 | <time>+50838-08-21T12:31:45Z</time>
|
|---|
| 6650 | </trkpt>
|
|---|
| 6651 | <trkpt lat="51.1585156" lon="5.1211422">
|
|---|
| 6652 | <time>+50838-08-21T12:48:25Z</time>
|
|---|
| 6653 | </trkpt>
|
|---|
| 6654 | <trkpt lat="51.1584636" lon="5.1209874">
|
|---|
| 6655 | <time>+50838-08-21T13:05:05Z</time>
|
|---|
| 6656 | </trkpt>
|
|---|
| 6657 | <trkpt lat="51.1584636" lon="5.1209874">
|
|---|
| 6658 | <time>+50838-08-21T13:21:45Z</time>
|
|---|
| 6659 | </trkpt>
|
|---|
| 6660 | <trkpt lat="51.158586" lon="5.1208465">
|
|---|
| 6661 | <time>+50838-08-21T13:38:25Z</time>
|
|---|
| 6662 | </trkpt>
|
|---|
| 6663 | <trkpt lat="51.1587475" lon="5.1206481">
|
|---|
| 6664 | <time>+50838-08-21T13:55:05Z</time>
|
|---|
| 6665 | </trkpt>
|
|---|
| 6666 | <trkpt lat="51.1589224" lon="5.1206051">
|
|---|
| 6667 | <time>+50838-08-21T14:11:45Z</time>
|
|---|
| 6668 | </trkpt>
|
|---|
| 6669 | <trkpt lat="51.1591445" lon="5.1205032">
|
|---|
| 6670 | <time>+50838-08-21T14:28:25Z</time>
|
|---|
| 6671 | </trkpt>
|
|---|
| 6672 | <trkpt lat="51.1595381" lon="5.1202779">
|
|---|
| 6673 | <time>+50838-08-21T14:45:05Z</time>
|
|---|
| 6674 | </trkpt>
|
|---|
| 6675 | <trkpt lat="51.1597126" lon="5.1201941">
|
|---|
| 6676 | <time>+50838-08-21T15:01:45Z</time>
|
|---|
| 6677 | </trkpt>
|
|---|
| 6678 | <trkpt lat="51.1598631" lon="5.120058">
|
|---|
| 6679 | <time>+50838-08-21T15:18:25Z</time>
|
|---|
| 6680 | </trkpt>
|
|---|
| 6681 | <trkpt lat="51.1599753" lon="5.1199115">
|
|---|
| 6682 | <time>+50838-08-21T15:35:05Z</time>
|
|---|
| 6683 | </trkpt>
|
|---|
| 6684 | <trkpt lat="51.1599753" lon="5.1199115">
|
|---|
| 6685 | <time>+50838-08-21T15:51:45Z</time>
|
|---|
| 6686 | </trkpt>
|
|---|
| 6687 | <trkpt lat="51.1604116" lon="5.1192831">
|
|---|
| 6688 | <time>+50838-08-21T16:08:25Z</time>
|
|---|
| 6689 | </trkpt>
|
|---|
| 6690 | <trkpt lat="51.1605744" lon="5.1190775">
|
|---|
| 6691 | <time>+50838-08-21T16:25:05Z</time>
|
|---|
| 6692 | </trkpt>
|
|---|
| 6693 | <trkpt lat="51.161186" lon="5.1189776">
|
|---|
| 6694 | <time>+50838-08-21T16:41:45Z</time>
|
|---|
| 6695 | </trkpt>
|
|---|
| 6696 | <trkpt lat="51.1627645" lon="5.1187329">
|
|---|
| 6697 | <time>+50838-08-21T16:58:25Z</time>
|
|---|
| 6698 | </trkpt>
|
|---|
| 6699 | <trkpt lat="51.1627645" lon="5.1187329">
|
|---|
| 6700 | <time>+50838-08-21T17:15:05Z</time>
|
|---|
| 6701 | </trkpt>
|
|---|
| 6702 | <trkpt lat="51.1641263" lon="5.1184478">
|
|---|
| 6703 | <time>+50838-08-21T17:31:45Z</time>
|
|---|
| 6704 | </trkpt>
|
|---|
| 6705 | <trkpt lat="51.1644533" lon="5.1183633">
|
|---|
| 6706 | <time>+50838-08-21T17:48:25Z</time>
|
|---|
| 6707 | </trkpt>
|
|---|
| 6708 | <trkpt lat="51.1644533" lon="5.1183633">
|
|---|
| 6709 | <time>+50838-08-21T18:05:05Z</time>
|
|---|
| 6710 | </trkpt>
|
|---|
| 6711 | <trkpt lat="51.1645167" lon="5.1183545">
|
|---|
| 6712 | <time>+50838-08-21T18:21:45Z</time>
|
|---|
| 6713 | </trkpt>
|
|---|
| 6714 | <trkpt lat="51.1645675" lon="5.1183678">
|
|---|
| 6715 | <time>+50838-08-21T18:38:25Z</time>
|
|---|
| 6716 | </trkpt>
|
|---|
| 6717 | <trkpt lat="51.1646171" lon="5.118408">
|
|---|
| 6718 | <time>+50838-08-21T18:55:05Z</time>
|
|---|
| 6719 | </trkpt>
|
|---|
| 6720 | <trkpt lat="51.1646171" lon="5.118408">
|
|---|
| 6721 | <time>+50838-08-21T19:11:45Z</time>
|
|---|
| 6722 | </trkpt>
|
|---|
| 6723 | <trkpt lat="51.1646565" lon="5.1183264">
|
|---|
| 6724 | <time>+50838-08-21T19:28:25Z</time>
|
|---|
| 6725 | </trkpt>
|
|---|
| 6726 | <trkpt lat="51.1646774" lon="5.118235">
|
|---|
| 6727 | <time>+50838-08-21T19:45:05Z</time>
|
|---|
| 6728 | </trkpt>
|
|---|
| 6729 | <trkpt lat="51.164664" lon="5.1180293">
|
|---|
| 6730 | <time>+50838-08-21T20:01:45Z</time>
|
|---|
| 6731 | </trkpt>
|
|---|
| 6732 | <trkpt lat="51.1646365" lon="5.1177438">
|
|---|
| 6733 | <time>+50838-08-21T20:18:25Z</time>
|
|---|
| 6734 | </trkpt>
|
|---|
| 6735 | <trkpt lat="51.165051" lon="5.1175122">
|
|---|
| 6736 | <time>+50838-08-21T20:35:05Z</time>
|
|---|
| 6737 | </trkpt>
|
|---|
| 6738 | <trkpt lat="51.1652778" lon="5.1172902">
|
|---|
| 6739 | <time>+50838-08-21T20:51:45Z</time>
|
|---|
| 6740 | </trkpt>
|
|---|
| 6741 | <trkpt lat="51.1659694" lon="5.1146582">
|
|---|
| 6742 | <time>+50838-08-21T21:08:25Z</time>
|
|---|
| 6743 | </trkpt>
|
|---|
| 6744 | <trkpt lat="51.1668067" lon="5.1144642">
|
|---|
| 6745 | <time>+50838-08-21T21:25:05Z</time>
|
|---|
| 6746 | </trkpt>
|
|---|
| 6747 | <trkpt lat="51.1668067" lon="5.1144642">
|
|---|
| 6748 | <time>+50838-08-21T21:41:45Z</time>
|
|---|
| 6749 | </trkpt>
|
|---|
| 6750 | <trkpt lat="51.1673047" lon="5.1143184">
|
|---|
| 6751 | <time>+50838-08-21T21:58:25Z</time>
|
|---|
| 6752 | </trkpt>
|
|---|
| 6753 | <trkpt lat="51.1673047" lon="5.1143184">
|
|---|
| 6754 | <time>+50838-08-21T22:15:05Z</time>
|
|---|
| 6755 | </trkpt>
|
|---|
| 6756 | <trkpt lat="51.1681974" lon="5.1173157">
|
|---|
| 6757 | <time>+50838-08-21T22:31:45Z</time>
|
|---|
| 6758 | </trkpt>
|
|---|
| 6759 | <trkpt lat="51.1686174" lon="5.1187637">
|
|---|
| 6760 | <time>+50838-08-21T22:48:25Z</time>
|
|---|
| 6761 | </trkpt>
|
|---|
| 6762 | <trkpt lat="51.1692702" lon="5.1199126">
|
|---|
| 6763 | <time>+50838-08-21T23:05:05Z</time>
|
|---|
| 6764 | </trkpt>
|
|---|
| 6765 | <trkpt lat="51.1692758" lon="5.1199224">
|
|---|
| 6766 | <time>+50838-08-21T23:21:45Z</time>
|
|---|
| 6767 | </trkpt>
|
|---|
| 6768 | <trkpt lat="51.1692758" lon="5.1199224">
|
|---|
| 6769 | <time>+50838-08-21T23:38:25Z</time>
|
|---|
| 6770 | </trkpt>
|
|---|
| 6771 | <trkpt lat="51.1698219" lon="5.1208782">
|
|---|
| 6772 | <time>+50838-08-21T23:55:05Z</time>
|
|---|
| 6773 | </trkpt>
|
|---|
| 6774 | <trkpt lat="51.1702389" lon="5.121479">
|
|---|
| 6775 | <time>+50838-08-22T00:11:45Z</time>
|
|---|
| 6776 | </trkpt>
|
|---|
| 6777 | <trkpt lat="51.1702389" lon="5.121479">
|
|---|
| 6778 | <time>+50838-08-22T00:28:25Z</time>
|
|---|
| 6779 | </trkpt>
|
|---|
| 6780 | <trkpt lat="51.1706524" lon="5.1219888">
|
|---|
| 6781 | <time>+50838-08-22T00:45:05Z</time>
|
|---|
| 6782 | </trkpt>
|
|---|
| 6783 | <trkpt lat="51.1706524" lon="5.1219888">
|
|---|
| 6784 | <time>+50838-08-22T01:01:45Z</time>
|
|---|
| 6785 | </trkpt>
|
|---|
| 6786 | <trkpt lat="51.1708598" lon="5.1215722">
|
|---|
| 6787 | <time>+50838-08-22T01:18:25Z</time>
|
|---|
| 6788 | </trkpt>
|
|---|
| 6789 | <trkpt lat="51.1708598" lon="5.1215722">
|
|---|
| 6790 | <time>+50838-08-22T01:35:05Z</time>
|
|---|
| 6791 | </trkpt>
|
|---|
| 6792 | <trkpt lat="51.1714388" lon="5.1223253">
|
|---|
| 6793 | <time>+50838-08-22T01:51:45Z</time>
|
|---|
| 6794 | </trkpt>
|
|---|
| 6795 | <trkpt lat="51.1714388" lon="5.1223253">
|
|---|
| 6796 | <time>+50838-08-22T02:08:25Z</time>
|
|---|
| 6797 | </trkpt>
|
|---|
| 6798 | <trkpt lat="51.1714071" lon="5.1227179">
|
|---|
| 6799 | <time>+50838-08-22T02:25:05Z</time>
|
|---|
| 6800 | </trkpt>
|
|---|
| 6801 | <trkpt lat="51.1716994" lon="5.1231777">
|
|---|
| 6802 | <time>+50838-08-22T02:41:45Z</time>
|
|---|
| 6803 | </trkpt>
|
|---|
| 6804 | <trkpt lat="51.1717859" lon="5.1234843">
|
|---|
| 6805 | <time>+50838-08-22T02:58:25Z</time>
|
|---|
| 6806 | </trkpt>
|
|---|
| 6807 | <trkpt lat="51.1719188" lon="5.1237231">
|
|---|
| 6808 | <time>+50838-08-22T03:15:05Z</time>
|
|---|
| 6809 | </trkpt>
|
|---|
| 6810 | <trkpt lat="51.1721711" lon="5.1240411">
|
|---|
| 6811 | <time>+50838-08-22T03:31:45Z</time>
|
|---|
| 6812 | </trkpt>
|
|---|
| 6813 | <trkpt lat="51.1722488" lon="5.124354">
|
|---|
| 6814 | <time>+50838-08-22T03:48:25Z</time>
|
|---|
| 6815 | </trkpt>
|
|---|
| 6816 | <trkpt lat="51.1724779" lon="5.1248706">
|
|---|
| 6817 | <time>+50838-08-22T04:05:05Z</time>
|
|---|
| 6818 | </trkpt>
|
|---|
| 6819 | <trkpt lat="51.1726275" lon="5.124787">
|
|---|
| 6820 | <time>+50838-08-22T04:21:45Z</time>
|
|---|
| 6821 | </trkpt>
|
|---|
| 6822 | <trkpt lat="51.1730239" lon="5.1243543">
|
|---|
| 6823 | <time>+50838-08-22T04:38:25Z</time>
|
|---|
| 6824 | </trkpt>
|
|---|
| 6825 | <trkpt lat="51.1731315" lon="5.1240754">
|
|---|
| 6826 | <time>+50838-08-22T04:55:05Z</time>
|
|---|
| 6827 | </trkpt>
|
|---|
| 6828 | <trkpt lat="51.1731315" lon="5.1240754">
|
|---|
| 6829 | <time>+50838-08-22T05:11:45Z</time>
|
|---|
| 6830 | </trkpt>
|
|---|
| 6831 | <trkpt lat="51.1730911" lon="5.1234746">
|
|---|
| 6832 | <time>+50838-08-22T05:28:25Z</time>
|
|---|
| 6833 | </trkpt>
|
|---|
| 6834 | <trkpt lat="51.1732122" lon="5.1233458">
|
|---|
| 6835 | <time>+50838-08-22T05:45:05Z</time>
|
|---|
| 6836 | </trkpt>
|
|---|
| 6837 | <trkpt lat="51.1736831" lon="5.1232814">
|
|---|
| 6838 | <time>+50838-08-22T06:01:45Z</time>
|
|---|
| 6839 | </trkpt>
|
|---|
| 6840 | <trkpt lat="51.1738311" lon="5.1234102">
|
|---|
| 6841 | <time>+50838-08-22T06:18:25Z</time>
|
|---|
| 6842 | </trkpt>
|
|---|
| 6843 | <trkpt lat="51.1739387" lon="5.1237321">
|
|---|
| 6844 | <time>+50838-08-22T06:35:05Z</time>
|
|---|
| 6845 | </trkpt>
|
|---|
| 6846 | <trkpt lat="51.1740867" lon="5.1240325">
|
|---|
| 6847 | <time>+50838-08-22T06:51:45Z</time>
|
|---|
| 6848 | </trkpt>
|
|---|
| 6849 | <trkpt lat="51.1742347" lon="5.1243114">
|
|---|
| 6850 | <time>+50838-08-22T07:08:25Z</time>
|
|---|
| 6851 | </trkpt>
|
|---|
| 6852 | <trkpt lat="51.1744095" lon="5.1245045">
|
|---|
| 6853 | <time>+50838-08-22T07:25:05Z</time>
|
|---|
| 6854 | </trkpt>
|
|---|
| 6855 | <trkpt lat="51.1745306" lon="5.1247406">
|
|---|
| 6856 | <time>+50838-08-22T07:41:45Z</time>
|
|---|
| 6857 | </trkpt>
|
|---|
| 6858 | <trkpt lat="51.1746786" lon="5.1250195">
|
|---|
| 6859 | <time>+50838-08-22T07:58:25Z</time>
|
|---|
| 6860 | </trkpt>
|
|---|
| 6861 | <trkpt lat="51.1747128" lon="5.125062">
|
|---|
| 6862 | <time>+50838-08-22T08:15:05Z</time>
|
|---|
| 6863 | </trkpt>
|
|---|
| 6864 | <trkpt lat="51.1747912" lon="5.1251593">
|
|---|
| 6865 | <time>+50838-08-22T08:31:45Z</time>
|
|---|
| 6866 | </trkpt>
|
|---|
| 6867 | <trkpt lat="51.175062" lon="5.1254724">
|
|---|
| 6868 | <time>+50838-08-22T08:48:25Z</time>
|
|---|
| 6869 | </trkpt>
|
|---|
| 6870 | <trkpt lat="51.175062" lon="5.1254724">
|
|---|
| 6871 | <time>+50838-08-22T09:05:05Z</time>
|
|---|
| 6872 | </trkpt>
|
|---|
| 6873 | <trkpt lat="51.175274" lon="5.1249393">
|
|---|
| 6874 | <time>+50838-08-22T09:21:45Z</time>
|
|---|
| 6875 | </trkpt>
|
|---|
| 6876 | <trkpt lat="51.175274" lon="5.1249393">
|
|---|
| 6877 | <time>+50838-08-22T09:38:25Z</time>
|
|---|
| 6878 | </trkpt>
|
|---|
| 6879 | <trkpt lat="51.1755005" lon="5.1244951">
|
|---|
| 6880 | <time>+50838-08-22T09:55:05Z</time>
|
|---|
| 6881 | </trkpt>
|
|---|
| 6882 | <trkpt lat="51.1758273" lon="5.1234703">
|
|---|
| 6883 | <time>+50838-08-22T10:11:45Z</time>
|
|---|
| 6884 | </trkpt>
|
|---|
| 6885 | <trkpt lat="51.1760407" lon="5.1231498">
|
|---|
| 6886 | <time>+50838-08-22T10:28:25Z</time>
|
|---|
| 6887 | </trkpt>
|
|---|
| 6888 | <trkpt lat="51.1760407" lon="5.1231498">
|
|---|
| 6889 | <time>+50838-08-22T10:45:05Z</time>
|
|---|
| 6890 | </trkpt>
|
|---|
| 6891 | <trkpt lat="51.1758017" lon="5.1227691">
|
|---|
| 6892 | <time>+50838-08-22T11:01:45Z</time>
|
|---|
| 6893 | </trkpt>
|
|---|
| 6894 | <trkpt lat="51.1755524" lon="5.1223649">
|
|---|
| 6895 | <time>+50838-08-22T11:18:25Z</time>
|
|---|
| 6896 | </trkpt>
|
|---|
| 6897 | <trkpt lat="51.1753183" lon="5.1219731">
|
|---|
| 6898 | <time>+50838-08-22T11:35:05Z</time>
|
|---|
| 6899 | </trkpt>
|
|---|
| 6900 | <trkpt lat="51.1753183" lon="5.1219731">
|
|---|
| 6901 | <time>+50838-08-22T11:51:45Z</time>
|
|---|
| 6902 | </trkpt>
|
|---|
| 6903 | <trkpt lat="51.1753881" lon="5.121911">
|
|---|
| 6904 | <time>+50838-08-22T12:08:25Z</time>
|
|---|
| 6905 | </trkpt>
|
|---|
| 6906 | <trkpt lat="51.1754343" lon="5.1218713">
|
|---|
| 6907 | <time>+50838-08-22T12:25:05Z</time>
|
|---|
| 6908 | </trkpt>
|
|---|
| 6909 | <trkpt lat="51.1756795" lon="5.121679">
|
|---|
| 6910 | <time>+50838-08-22T12:41:45Z</time>
|
|---|
| 6911 | </trkpt>
|
|---|
| 6912 | <trkpt lat="51.1759514" lon="5.1214853">
|
|---|
| 6913 | <time>+50838-08-22T12:58:25Z</time>
|
|---|
| 6914 | </trkpt>
|
|---|
| 6915 | <trkpt lat="51.1761333" lon="5.1213935">
|
|---|
| 6916 | <time>+50838-08-22T13:15:05Z</time>
|
|---|
| 6917 | </trkpt>
|
|---|
| 6918 | <trkpt lat="51.1763047" lon="5.1212874">
|
|---|
| 6919 | <time>+50838-08-22T13:31:45Z</time>
|
|---|
| 6920 | </trkpt>
|
|---|
| 6921 | <trkpt lat="51.1763047" lon="5.1212874">
|
|---|
| 6922 | <time>+50838-08-22T13:48:25Z</time>
|
|---|
| 6923 | </trkpt>
|
|---|
| 6924 | <trkpt lat="51.1762406" lon="5.121142">
|
|---|
| 6925 | <time>+50838-08-22T14:05:05Z</time>
|
|---|
| 6926 | </trkpt>
|
|---|
| 6927 | <trkpt lat="51.1759417" lon="5.1204705">
|
|---|
| 6928 | <time>+50838-08-22T14:21:45Z</time>
|
|---|
| 6929 | </trkpt>
|
|---|
| 6930 | <trkpt lat="51.1755785" lon="5.1196551">
|
|---|
| 6931 | <time>+50838-08-22T14:38:25Z</time>
|
|---|
| 6932 | </trkpt>
|
|---|
| 6933 | <trkpt lat="51.1751206" lon="5.1186521">
|
|---|
| 6934 | <time>+50838-08-22T14:55:05Z</time>
|
|---|
| 6935 | </trkpt>
|
|---|
| 6936 | <trkpt lat="51.1750185" lon="5.1183464">
|
|---|
| 6937 | <time>+50838-08-22T15:11:45Z</time>
|
|---|
| 6938 | </trkpt>
|
|---|
| 6939 | <trkpt lat="51.1748957" lon="5.1176992">
|
|---|
| 6940 | <time>+50838-08-22T15:28:25Z</time>
|
|---|
| 6941 | </trkpt>
|
|---|
| 6942 | <trkpt lat="51.1747374" lon="5.1165303">
|
|---|
| 6943 | <time>+50838-08-22T15:45:05Z</time>
|
|---|
| 6944 | </trkpt>
|
|---|
| 6945 | <trkpt lat="51.1746539" lon="5.1160324">
|
|---|
| 6946 | <time>+50838-08-22T16:01:45Z</time>
|
|---|
| 6947 | </trkpt>
|
|---|
| 6948 | <trkpt lat="51.1746539" lon="5.1160324">
|
|---|
| 6949 | <time>+50838-08-22T16:18:25Z</time>
|
|---|
| 6950 | </trkpt>
|
|---|
| 6951 | <trkpt lat="51.1744212" lon="5.1149581">
|
|---|
| 6952 | <time>+50838-08-22T16:35:05Z</time>
|
|---|
| 6953 | </trkpt>
|
|---|
| 6954 | <trkpt lat="51.1743452" lon="5.1146522">
|
|---|
| 6955 | <time>+50838-08-22T16:51:45Z</time>
|
|---|
| 6956 | </trkpt>
|
|---|
| 6957 | <trkpt lat="51.1743051" lon="5.1143716">
|
|---|
| 6958 | <time>+50838-08-22T17:08:25Z</time>
|
|---|
| 6959 | </trkpt>
|
|---|
| 6960 | <trkpt lat="51.1740366" lon="5.1127368">
|
|---|
| 6961 | <time>+50838-08-22T17:25:05Z</time>
|
|---|
| 6962 | </trkpt>
|
|---|
| 6963 | <trkpt lat="51.1739868" lon="5.1122236">
|
|---|
| 6964 | <time>+50838-08-22T17:41:45Z</time>
|
|---|
| 6965 | </trkpt>
|
|---|
| 6966 | <trkpt lat="51.1739604" lon="5.1120869">
|
|---|
| 6967 | <time>+50838-08-22T17:58:25Z</time>
|
|---|
| 6968 | </trkpt>
|
|---|
| 6969 | <trkpt lat="51.1737213" lon="5.110452">
|
|---|
| 6970 | <time>+50838-08-22T18:15:05Z</time>
|
|---|
| 6971 | </trkpt>
|
|---|
| 6972 | <trkpt lat="51.173621" lon="5.1095452">
|
|---|
| 6973 | <time>+50838-08-22T18:31:45Z</time>
|
|---|
| 6974 | </trkpt>
|
|---|
| 6975 | <trkpt lat="51.173572" lon="5.1089769">
|
|---|
| 6976 | <time>+50838-08-22T18:48:25Z</time>
|
|---|
| 6977 | </trkpt>
|
|---|
| 6978 | <trkpt lat="51.1735403" lon="5.1086932">
|
|---|
| 6979 | <time>+50838-08-22T19:05:05Z</time>
|
|---|
| 6980 | </trkpt>
|
|---|
| 6981 | <trkpt lat="51.1735403" lon="5.1086932">
|
|---|
| 6982 | <time>+50838-08-22T19:21:45Z</time>
|
|---|
| 6983 | </trkpt>
|
|---|
| 6984 | <trkpt lat="51.1736523" lon="5.1086194">
|
|---|
| 6985 | <time>+50838-08-22T19:38:25Z</time>
|
|---|
| 6986 | </trkpt>
|
|---|
| 6987 | <trkpt lat="51.1737398" lon="5.1085032">
|
|---|
| 6988 | <time>+50838-08-22T19:55:05Z</time>
|
|---|
| 6989 | </trkpt>
|
|---|
| 6990 | <trkpt lat="51.1737695" lon="5.1084273">
|
|---|
| 6991 | <time>+50838-08-22T20:11:45Z</time>
|
|---|
| 6992 | </trkpt>
|
|---|
| 6993 | <trkpt lat="51.1737724" lon="5.1083527">
|
|---|
| 6994 | <time>+50838-08-22T20:28:25Z</time>
|
|---|
| 6995 | </trkpt>
|
|---|
| 6996 | <trkpt lat="51.1737724" lon="5.1083527">
|
|---|
| 6997 | <time>+50838-08-22T20:45:05Z</time>
|
|---|
| 6998 | </trkpt>
|
|---|
| 6999 | <trkpt lat="51.1738526" lon="5.1083521">
|
|---|
| 7000 | <time>+50838-08-22T21:01:45Z</time>
|
|---|
| 7001 | </trkpt>
|
|---|
| 7002 | <trkpt lat="51.1739598" lon="5.1083382">
|
|---|
| 7003 | <time>+50838-08-22T21:18:25Z</time>
|
|---|
| 7004 | </trkpt>
|
|---|
| 7005 | <trkpt lat="51.1740327" lon="5.1083288">
|
|---|
| 7006 | <time>+50838-08-22T21:35:05Z</time>
|
|---|
| 7007 | </trkpt>
|
|---|
| 7008 | <trkpt lat="51.1740327" lon="5.1083288">
|
|---|
| 7009 | <time>+50838-08-22T21:51:45Z</time>
|
|---|
| 7010 | </trkpt>
|
|---|
| 7011 | <trkpt lat="51.1741687" lon="5.1082619">
|
|---|
| 7012 | <time>+50838-08-22T22:08:25Z</time>
|
|---|
| 7013 | </trkpt>
|
|---|
| 7014 | <trkpt lat="51.174331" lon="5.1081832">
|
|---|
| 7015 | <time>+50838-08-22T22:25:05Z</time>
|
|---|
| 7016 | </trkpt>
|
|---|
| 7017 | <trkpt lat="51.174595" lon="5.1080424">
|
|---|
| 7018 | <time>+50838-08-22T22:41:45Z</time>
|
|---|
| 7019 | </trkpt>
|
|---|
| 7020 | <trkpt lat="51.174595" lon="5.1080424">
|
|---|
| 7021 | <time>+50838-08-22T22:58:25Z</time>
|
|---|
| 7022 | </trkpt>
|
|---|
| 7023 | <trkpt lat="51.174727" lon="5.1080103">
|
|---|
| 7024 | <time>+50838-08-22T23:15:05Z</time>
|
|---|
| 7025 | </trkpt>
|
|---|
| 7026 | <trkpt lat="51.1748397" lon="5.1079922">
|
|---|
| 7027 | <time>+50838-08-22T23:31:45Z</time>
|
|---|
| 7028 | </trkpt>
|
|---|
| 7029 | <trkpt lat="51.1749195" lon="5.1079577">
|
|---|
| 7030 | <time>+50838-08-22T23:48:25Z</time>
|
|---|
| 7031 | </trkpt>
|
|---|
| 7032 | <trkpt lat="51.1749195" lon="5.1079577">
|
|---|
| 7033 | <time>+50838-08-23T00:05:05Z</time>
|
|---|
| 7034 | </trkpt>
|
|---|
| 7035 | <trkpt lat="51.1749409" lon="5.1080463">
|
|---|
| 7036 | <time>+50838-08-23T00:21:45Z</time>
|
|---|
| 7037 | </trkpt>
|
|---|
| 7038 | <trkpt lat="51.1749476" lon="5.1080739">
|
|---|
| 7039 | <time>+50838-08-23T00:38:25Z</time>
|
|---|
| 7040 | </trkpt>
|
|---|
| 7041 | <trkpt lat="51.1749274" lon="5.1082562">
|
|---|
| 7042 | <time>+50838-08-23T00:55:05Z</time>
|
|---|
| 7043 | </trkpt>
|
|---|
| 7044 | <trkpt lat="51.1749611" lon="5.1085566">
|
|---|
| 7045 | <time>+50838-08-23T01:11:45Z</time>
|
|---|
| 7046 | </trkpt>
|
|---|
| 7047 | <trkpt lat="51.1756391" lon="5.1113825">
|
|---|
| 7048 | <time>+50838-08-23T01:28:25Z</time>
|
|---|
| 7049 | </trkpt>
|
|---|
| 7050 | <trkpt lat="51.1758979" lon="5.1125005">
|
|---|
| 7051 | <time>+50838-08-23T01:45:05Z</time>
|
|---|
| 7052 | </trkpt>
|
|---|
| 7053 | <trkpt lat="51.1761787" lon="5.1136658">
|
|---|
| 7054 | <time>+50838-08-23T02:01:45Z</time>
|
|---|
| 7055 | </trkpt>
|
|---|
| 7056 | <trkpt lat="51.1762737" lon="5.114063">
|
|---|
| 7057 | <time>+50838-08-23T02:18:25Z</time>
|
|---|
| 7058 | </trkpt>
|
|---|
| 7059 | <trkpt lat="51.1762737" lon="5.114063">
|
|---|
| 7060 | <time>+50838-08-23T02:35:05Z</time>
|
|---|
| 7061 | </trkpt>
|
|---|
| 7062 | <trkpt lat="51.1766729" lon="5.1136207">
|
|---|
| 7063 | <time>+50838-08-23T02:51:45Z</time>
|
|---|
| 7064 | </trkpt>
|
|---|
| 7065 | <trkpt lat="51.1772009" lon="5.1129501">
|
|---|
| 7066 | <time>+50838-08-23T03:08:25Z</time>
|
|---|
| 7067 | </trkpt>
|
|---|
| 7068 | <trkpt lat="51.1776683" lon="5.1124566">
|
|---|
| 7069 | <time>+50838-08-23T03:25:05Z</time>
|
|---|
| 7070 | </trkpt>
|
|---|
| 7071 | <trkpt lat="51.1780416" lon="5.1120757">
|
|---|
| 7072 | <time>+50838-08-23T03:41:45Z</time>
|
|---|
| 7073 | </trkpt>
|
|---|
| 7074 | <trkpt lat="51.1784116" lon="5.1117217">
|
|---|
| 7075 | <time>+50838-08-23T03:58:25Z</time>
|
|---|
| 7076 | </trkpt>
|
|---|
| 7077 | <trkpt lat="51.1786369" lon="5.1114588">
|
|---|
| 7078 | <time>+50838-08-23T04:15:05Z</time>
|
|---|
| 7079 | </trkpt>
|
|---|
| 7080 | <trkpt lat="51.1787041" lon="5.1113408">
|
|---|
| 7081 | <time>+50838-08-23T04:31:45Z</time>
|
|---|
| 7082 | </trkpt>
|
|---|
| 7083 | <trkpt lat="51.1787411" lon="5.1113354">
|
|---|
| 7084 | <time>+50838-08-23T04:48:25Z</time>
|
|---|
| 7085 | </trkpt>
|
|---|
| 7086 | <trkpt lat="51.1787916" lon="5.1114746">
|
|---|
| 7087 | <time>+50838-08-23T05:05:05Z</time>
|
|---|
| 7088 | </trkpt>
|
|---|
| 7089 | <trkpt lat="51.1790606" lon="5.1127406">
|
|---|
| 7090 | <time>+50838-08-23T05:21:45Z</time>
|
|---|
| 7091 | </trkpt>
|
|---|
| 7092 | <trkpt lat="51.1793354" lon="5.1137911">
|
|---|
| 7093 | <time>+50838-08-23T05:38:25Z</time>
|
|---|
| 7094 | </trkpt>
|
|---|
| 7095 | <trkpt lat="51.1793354" lon="5.1137911">
|
|---|
| 7096 | <time>+50838-08-23T05:55:05Z</time>
|
|---|
| 7097 | </trkpt>
|
|---|
| 7098 | <trkpt lat="51.1794218" lon="5.1137468">
|
|---|
| 7099 | <time>+50838-08-23T06:11:45Z</time>
|
|---|
| 7100 | </trkpt>
|
|---|
| 7101 | </trkseg>
|
|---|
| 7102 | </trk>
|
|---|
| 7103 | <trk>
|
|---|
| 7104 | <name>nieuw Mol Om #5</name>
|
|---|
| 7105 | <trkseg>
|
|---|
| 7106 | <trkpt lat="51.1898129" lon="5.1514278">
|
|---|
| 7107 | <time>+50838-08-23T06:28:25Z</time>
|
|---|
| 7108 | </trkpt>
|
|---|
| 7109 | <trkpt lat="51.18977" lon="5.1512177">
|
|---|
| 7110 | <time>+50838-08-23T06:45:05Z</time>
|
|---|
| 7111 | </trkpt>
|
|---|
| 7112 | <trkpt lat="51.1894626" lon="5.1493893">
|
|---|
| 7113 | <time>+50838-08-23T07:01:45Z</time>
|
|---|
| 7114 | </trkpt>
|
|---|
| 7115 | <trkpt lat="51.1893367" lon="5.1485663">
|
|---|
| 7116 | <time>+50838-08-23T07:18:25Z</time>
|
|---|
| 7117 | </trkpt>
|
|---|
| 7118 | <trkpt lat="51.1893367" lon="5.1485663">
|
|---|
| 7119 | <time>+50838-08-23T07:35:05Z</time>
|
|---|
| 7120 | </trkpt>
|
|---|
| 7121 | <trkpt lat="51.1883438" lon="5.1489009">
|
|---|
| 7122 | <time>+50838-08-23T07:51:45Z</time>
|
|---|
| 7123 | </trkpt>
|
|---|
| 7124 | <trkpt lat="51.1881606" lon="5.1488334">
|
|---|
| 7125 | <time>+50838-08-23T08:08:25Z</time>
|
|---|
| 7126 | </trkpt>
|
|---|
| 7127 | </trkseg>
|
|---|
| 7128 | </trk>
|
|---|
| 7129 | <trk>
|
|---|
| 7130 | <name>nieuw Mol Om #6</name>
|
|---|
| 7131 | <trkseg>
|
|---|
| 7132 | <trkpt lat="51.2205559" lon="5.1633511">
|
|---|
| 7133 | <time>+50838-08-23T08:25:05Z</time>
|
|---|
| 7134 | </trkpt>
|
|---|
| 7135 | <trkpt lat="51.2200205" lon="5.1625494">
|
|---|
| 7136 | <time>+50838-08-23T08:41:45Z</time>
|
|---|
| 7137 | </trkpt>
|
|---|
| 7138 | <trkpt lat="51.219849" lon="5.1623235">
|
|---|
| 7139 | <time>+50838-08-23T08:58:25Z</time>
|
|---|
| 7140 | </trkpt>
|
|---|
| 7141 | <trkpt lat="51.2193711" lon="5.1622228">
|
|---|
| 7142 | <time>+50838-08-23T09:15:05Z</time>
|
|---|
| 7143 | </trkpt>
|
|---|
| 7144 | <trkpt lat="51.2186027" lon="5.1620681">
|
|---|
| 7145 | <time>+50838-08-23T09:31:45Z</time>
|
|---|
| 7146 | </trkpt>
|
|---|
| 7147 | <trkpt lat="51.2184501" lon="5.1618544">
|
|---|
| 7148 | <time>+50838-08-23T09:48:25Z</time>
|
|---|
| 7149 | </trkpt>
|
|---|
| 7150 | <trkpt lat="51.2184045" lon="5.1617947">
|
|---|
| 7151 | <time>+50838-08-23T10:05:05Z</time>
|
|---|
| 7152 | </trkpt>
|
|---|
| 7153 | <trkpt lat="51.2180188" lon="5.1617027">
|
|---|
| 7154 | <time>+50838-08-23T10:21:45Z</time>
|
|---|
| 7155 | </trkpt>
|
|---|
| 7156 | <trkpt lat="51.2178155" lon="5.1618678">
|
|---|
| 7157 | <time>+50838-08-23T10:38:25Z</time>
|
|---|
| 7158 | </trkpt>
|
|---|
| 7159 | <trkpt lat="51.2153393" lon="5.1613431">
|
|---|
| 7160 | <time>+50838-08-23T10:55:05Z</time>
|
|---|
| 7161 | </trkpt>
|
|---|
| 7162 | <trkpt lat="51.2134298" lon="5.1609083">
|
|---|
| 7163 | <time>+50838-08-23T11:11:45Z</time>
|
|---|
| 7164 | </trkpt>
|
|---|
| 7165 | <trkpt lat="51.2090286" lon="5.1599149">
|
|---|
| 7166 | <time>+50838-08-23T11:28:25Z</time>
|
|---|
| 7167 | </trkpt>
|
|---|
| 7168 | <trkpt lat="51.208377" lon="5.1597678">
|
|---|
| 7169 | <time>+50838-08-23T11:45:05Z</time>
|
|---|
| 7170 | </trkpt>
|
|---|
| 7171 | <trkpt lat="51.2058882" lon="5.1591699">
|
|---|
| 7172 | <time>+50838-08-23T12:01:45Z</time>
|
|---|
| 7173 | </trkpt>
|
|---|
| 7174 | <trkpt lat="51.2053959" lon="5.1591202">
|
|---|
| 7175 | <time>+50838-08-23T12:18:25Z</time>
|
|---|
| 7176 | </trkpt>
|
|---|
| 7177 | <trkpt lat="51.2053959" lon="5.1591202">
|
|---|
| 7178 | <time>+50838-08-23T12:35:05Z</time>
|
|---|
| 7179 | </trkpt>
|
|---|
| 7180 | <trkpt lat="51.2053144" lon="5.1592358">
|
|---|
| 7181 | <time>+50838-08-23T12:51:45Z</time>
|
|---|
| 7182 | </trkpt>
|
|---|
| 7183 | <trkpt lat="51.2053181" lon="5.1594455">
|
|---|
| 7184 | <time>+50838-08-23T13:08:25Z</time>
|
|---|
| 7185 | </trkpt>
|
|---|
| 7186 | <trkpt lat="51.2055114" lon="5.1605324">
|
|---|
| 7187 | <time>+50838-08-23T13:25:05Z</time>
|
|---|
| 7188 | </trkpt>
|
|---|
| 7189 | <trkpt lat="51.2056776" lon="5.1614266">
|
|---|
| 7190 | <time>+50838-08-23T13:41:45Z</time>
|
|---|
| 7191 | </trkpt>
|
|---|
| 7192 | <trkpt lat="51.2057559" lon="5.1618367">
|
|---|
| 7193 | <time>+50838-08-23T13:58:25Z</time>
|
|---|
| 7194 | </trkpt>
|
|---|
| 7195 | <trkpt lat="51.2057559" lon="5.1618367">
|
|---|
| 7196 | <time>+50838-08-23T14:15:05Z</time>
|
|---|
| 7197 | </trkpt>
|
|---|
| 7198 | <trkpt lat="51.2058075" lon="5.1618063">
|
|---|
| 7199 | <time>+50838-08-23T14:31:45Z</time>
|
|---|
| 7200 | </trkpt>
|
|---|
| 7201 | <trkpt lat="51.2058075" lon="5.1618063">
|
|---|
| 7202 | <time>+50838-08-23T14:48:25Z</time>
|
|---|
| 7203 | </trkpt>
|
|---|
| 7204 | <trkpt lat="51.2058489" lon="5.1620353">
|
|---|
| 7205 | <time>+50838-08-23T15:05:05Z</time>
|
|---|
| 7206 | </trkpt>
|
|---|
| 7207 | <trkpt lat="51.2058417" lon="5.1621911">
|
|---|
| 7208 | <time>+50838-08-23T15:21:45Z</time>
|
|---|
| 7209 | </trkpt>
|
|---|
| 7210 | <trkpt lat="51.205706" lon="5.1626392">
|
|---|
| 7211 | <time>+50838-08-23T15:38:25Z</time>
|
|---|
| 7212 | </trkpt>
|
|---|
| 7213 | <trkpt lat="51.2049796" lon="5.1645308">
|
|---|
| 7214 | <time>+50838-08-23T15:55:05Z</time>
|
|---|
| 7215 | </trkpt>
|
|---|
| 7216 | <trkpt lat="51.2049099" lon="5.1647331">
|
|---|
| 7217 | <time>+50838-08-23T16:11:45Z</time>
|
|---|
| 7218 | </trkpt>
|
|---|
| 7219 | <trkpt lat="51.2049099" lon="5.1647331">
|
|---|
| 7220 | <time>+50838-08-23T16:28:25Z</time>
|
|---|
| 7221 | </trkpt>
|
|---|
| 7222 | <trkpt lat="51.2047663" lon="5.1649778">
|
|---|
| 7223 | <time>+50838-08-23T16:45:05Z</time>
|
|---|
| 7224 | </trkpt>
|
|---|
| 7225 | <trkpt lat="51.2037445" lon="5.1672789">
|
|---|
| 7226 | <time>+50838-08-23T17:01:45Z</time>
|
|---|
| 7227 | </trkpt>
|
|---|
| 7228 | <trkpt lat="51.203265" lon="5.1683589">
|
|---|
| 7229 | <time>+50838-08-23T17:18:25Z</time>
|
|---|
| 7230 | </trkpt>
|
|---|
| 7231 | <trkpt lat="51.202935" lon="5.1691321">
|
|---|
| 7232 | <time>+50838-08-23T17:35:05Z</time>
|
|---|
| 7233 | </trkpt>
|
|---|
| 7234 | <trkpt lat="51.202935" lon="5.1691321">
|
|---|
| 7235 | <time>+50838-08-23T17:51:45Z</time>
|
|---|
| 7236 | </trkpt>
|
|---|
| 7237 | <trkpt lat="51.201915" lon="5.169576">
|
|---|
| 7238 | <time>+50838-08-23T18:08:25Z</time>
|
|---|
| 7239 | </trkpt>
|
|---|
| 7240 | <trkpt lat="51.2017687" lon="5.1696695">
|
|---|
| 7241 | <time>+50838-08-23T18:25:05Z</time>
|
|---|
| 7242 | </trkpt>
|
|---|
| 7243 | <trkpt lat="51.2002705" lon="5.1701987">
|
|---|
| 7244 | <time>+50838-08-23T18:41:45Z</time>
|
|---|
| 7245 | </trkpt>
|
|---|
| 7246 | <trkpt lat="51.2002705" lon="5.1701987">
|
|---|
| 7247 | <time>+50838-08-23T18:58:25Z</time>
|
|---|
| 7248 | </trkpt>
|
|---|
| 7249 | <trkpt lat="51.2002848" lon="5.1705815">
|
|---|
| 7250 | <time>+50838-08-23T19:15:05Z</time>
|
|---|
| 7251 | </trkpt>
|
|---|
| 7252 | <trkpt lat="51.2003462" lon="5.1714243">
|
|---|
| 7253 | <time>+50838-08-23T19:31:45Z</time>
|
|---|
| 7254 | </trkpt>
|
|---|
| 7255 | <trkpt lat="51.2004142" lon="5.1721183">
|
|---|
| 7256 | <time>+50838-08-23T19:48:25Z</time>
|
|---|
| 7257 | </trkpt>
|
|---|
| 7258 | <trkpt lat="51.2004836" lon="5.1727484">
|
|---|
| 7259 | <time>+50838-08-23T20:05:05Z</time>
|
|---|
| 7260 | </trkpt>
|
|---|
| 7261 | <trkpt lat="51.2005717" lon="5.1733519">
|
|---|
| 7262 | <time>+50838-08-23T20:21:45Z</time>
|
|---|
| 7263 | </trkpt>
|
|---|
| 7264 | <trkpt lat="51.2006404" lon="5.1737392">
|
|---|
| 7265 | <time>+50838-08-23T20:38:25Z</time>
|
|---|
| 7266 | </trkpt>
|
|---|
| 7267 | <trkpt lat="51.2007529" lon="5.1741625">
|
|---|
| 7268 | <time>+50838-08-23T20:55:05Z</time>
|
|---|
| 7269 | </trkpt>
|
|---|
| 7270 | <trkpt lat="51.2009128" lon="5.1748664">
|
|---|
| 7271 | <time>+50838-08-23T21:11:45Z</time>
|
|---|
| 7272 | </trkpt>
|
|---|
| 7273 | <trkpt lat="51.2009394" lon="5.1750054">
|
|---|
| 7274 | <time>+50838-08-23T21:28:25Z</time>
|
|---|
| 7275 | </trkpt>
|
|---|
| 7276 | <trkpt lat="51.2009418" lon="5.1751057">
|
|---|
| 7277 | <time>+50838-08-23T21:45:05Z</time>
|
|---|
| 7278 | </trkpt>
|
|---|
| 7279 | <trkpt lat="51.2009321" lon="5.1751868">
|
|---|
| 7280 | <time>+50838-08-23T22:01:45Z</time>
|
|---|
| 7281 | </trkpt>
|
|---|
| 7282 | <trkpt lat="51.2008984" lon="5.1752903">
|
|---|
| 7283 | <time>+50838-08-23T22:18:25Z</time>
|
|---|
| 7284 | </trkpt>
|
|---|
| 7285 | <trkpt lat="51.2008984" lon="5.1752903">
|
|---|
| 7286 | <time>+50838-08-23T22:35:05Z</time>
|
|---|
| 7287 | </trkpt>
|
|---|
| 7288 | <trkpt lat="51.2000998" lon="5.1777424">
|
|---|
| 7289 | <time>+50838-08-23T22:51:45Z</time>
|
|---|
| 7290 | </trkpt>
|
|---|
| 7291 | <trkpt lat="51.2000998" lon="5.1777424">
|
|---|
| 7292 | <time>+50838-08-23T23:08:25Z</time>
|
|---|
| 7293 | </trkpt>
|
|---|
| 7294 | <trkpt lat="51.1991256" lon="5.1807531">
|
|---|
| 7295 | <time>+50838-08-23T23:25:05Z</time>
|
|---|
| 7296 | </trkpt>
|
|---|
| 7297 | </trkseg>
|
|---|
| 7298 | </trk>
|
|---|
| 7299 | </gpx>
|
|---|